<?xml version='1.0' encoding='UTF-8'?><gpx version="1.1" creator="JPX - https://github.com/jenetics/jpx" xmlns="http://www.topografix.com/GPX/1/1"><trk><trkseg><trkpt lat="46.33945980907768" lon="10.907693365917947"><ele>730.0</ele><time>2026-04-25T14:15:11.999Z</time></trkpt><trkpt lat="46.3394948350586" lon="10.907795227208723"><ele>730.0</ele><time>2026-04-25T14:15:25.999Z</time></trkpt><trkpt lat="46.33956513509244" lon="10.907864786151366"><ele>730.0</ele><time>2026-04-25T14:15:27.999Z</time></trkpt><trkpt lat="46.33965331084964" lon="10.907958194920468"><ele>730.0</ele><time>2026-04-25T14:15:29.999Z</time></trkpt><trkpt lat="46.33973873927062" lon="10.908041252077723"><ele>730.0</ele><time>2026-04-25T14:15:31.999Z</time></trkpt><trkpt lat="46.339806837838715" lon="10.908108097216415"><ele>729.3333333333334</ele><time>2026-04-25T14:15:33.999Z</time></trkpt><trkpt lat="46.33988323994198" lon="10.908175332513308"><ele>728.6666666666667</ele><time>2026-04-25T14:15:35.999Z</time></trkpt><trkpt lat="46.33995242304003" lon="10.908238502593047"><ele>728.0</ele><time>2026-04-25T14:15:37.999Z</time></trkpt><trkpt lat="46.34001607503533" lon="10.908298318379275"><ele>727.3333333333334</ele><time>2026-04-25T14:15:39.999Z</time></trkpt><trkpt lat="46.34008343503664" lon="10.908351638976887"><ele>726.6666666666666</ele><time>2026-04-25T14:15:41.999Z</time></trkpt><trkpt lat="46.34014815390406" lon="10.908407213122281"><ele>726.0</ele><time>2026-04-25T14:15:43.999Z</time></trkpt><trkpt lat="46.34021040837379" lon="10.908451911732465"><ele>725.9999999999999</ele><time>2026-04-25T14:15:45.999Z</time></trkpt><trkpt lat="46.340271060017486" lon="10.908499653709637"><ele>726.0</ele><time>2026-04-25T14:15:47.999Z</time></trkpt><trkpt lat="46.34033611970362" lon="10.908548348404715"><ele>726.0</ele><time>2026-04-25T14:15:49.999Z</time></trkpt><trkpt lat="46.34039811993923" lon="10.90858752044038"><ele>726.0</ele><time>2026-04-25T14:15:51.999Z</time></trkpt><trkpt lat="46.34046272398826" lon="10.908612969626969"><ele>726.0</ele><time>2026-04-25T14:15:53.999Z</time></trkpt><trkpt lat="46.34053557775098" lon="10.908624580685819"><ele>725.9999999999999</ele><time>2026-04-25T14:15:55.999Z</time></trkpt><trkpt lat="46.34060964552175" lon="10.908563744227342"><ele>726.0</ele><time>2026-04-25T14:15:57.999Z</time></trkpt><trkpt lat="46.340673573858574" lon="10.908493089652522"><ele>724.0</ele><time>2026-04-25T14:15:59.999Z</time></trkpt><trkpt lat="46.3407418865144" lon="10.908423668673706"><ele>722.0</ele><time>2026-04-25T14:16:01.999Z</time></trkpt><trkpt lat="46.34082030174422" lon="10.90833977306013"><ele>720.0</ele><time>2026-04-25T14:16:03.999Z</time></trkpt><trkpt lat="46.3408951021452" lon="10.908259323595734"><ele>718.0</ele><time>2026-04-25T14:16:05.999Z</time></trkpt><trkpt lat="46.3409726792682" lon="10.908175164722829"><ele>716.0</ele><time>2026-04-25T14:16:07.999Z</time></trkpt><trkpt lat="46.34105001523252" lon="10.908095875036274"><ele>714.3333333333333</ele><time>2026-04-25T14:16:09.999Z</time></trkpt><trkpt lat="46.3411350382954" lon="10.908023084168653"><ele>712.6666666666666</ele><time>2026-04-25T14:16:11.999Z</time></trkpt><trkpt lat="46.341224115796734" lon="10.907980566295617"><ele>711.0</ele><time>2026-04-25T14:16:13.999Z</time></trkpt><trkpt lat="46.3412929419274" lon="10.907896222956737"><ele>709.3333333333334</ele><time>2026-04-25T14:16:15.999Z</time></trkpt><trkpt lat="46.34134770964518" lon="10.907821412133464"><ele>707.6666666666667</ele><time>2026-04-25T14:16:17.999Z</time></trkpt><trkpt lat="46.34141427865845" lon="10.907751908393944"><ele>706.0</ele><time>2026-04-25T14:16:19.999Z</time></trkpt><trkpt lat="46.341470091452784" lon="10.90768796880618"><ele>705.3333333333334</ele><time>2026-04-25T14:16:21.999Z</time></trkpt><trkpt lat="46.34152299001356" lon="10.907618677104693"><ele>704.6666666666667</ele><time>2026-04-25T14:16:23.999Z</time></trkpt><trkpt lat="46.34157033317592" lon="10.907558160415004"><ele>704.0</ele><time>2026-04-25T14:16:25.999Z</time></trkpt><trkpt lat="46.34164389981389" lon="10.90747757465929"><ele>703.3333333333334</ele><time>2026-04-25T14:16:28.999Z</time></trkpt><trkpt lat="46.34170676535914" lon="10.907401471115971"><ele>702.6666666666666</ele><time>2026-04-25T14:16:31.999Z</time></trkpt><trkpt lat="46.34177439532475" lon="10.90733522436285"><ele>702.0</ele><time>2026-04-25T14:16:34.999Z</time></trkpt><trkpt lat="46.34176998658374" lon="10.907194553105969"><ele>702.8</ele><time>2026-04-25T14:16:37.999Z</time></trkpt><trkpt lat="46.34167930763756" lon="10.907126993466276"><ele>703.6</ele><time>2026-04-25T14:16:39.999Z</time></trkpt><trkpt lat="46.34158641403559" lon="10.907071862418826"><ele>704.4</ele><time>2026-04-25T14:16:41.999Z</time></trkpt><trkpt lat="46.34150587594563" lon="10.90700267421307"><ele>705.1999999999999</ele><time>2026-04-25T14:16:43.999Z</time></trkpt><trkpt lat="46.34142298244191" lon="10.90693341634464"><ele>706.0</ele><time>2026-04-25T14:16:45.999Z</time></trkpt><trkpt lat="46.34134401941111" lon="10.906852708714917"><ele>706.0</ele><time>2026-04-25T14:16:47.999Z</time></trkpt><trkpt lat="46.34126700140342" lon="10.90676986822031"><ele>706.0</ele><time>2026-04-25T14:16:49.999Z</time></trkpt><trkpt lat="46.34120390374237" lon="10.906666492437285"><ele>706.0</ele><time>2026-04-25T14:16:51.999Z</time></trkpt><trkpt lat="46.34114844453409" lon="10.906555596493972"><ele>706.0</ele><time>2026-04-25T14:16:53.999Z</time></trkpt><trkpt lat="46.341096427985406" lon="10.906448540444334"><ele>706.0</ele><time>2026-04-25T14:16:55.999Z</time></trkpt><trkpt lat="46.34104406561108" lon="10.906355523323647"><ele>706.8333333333334</ele><time>2026-04-25T14:16:57.999Z</time></trkpt><trkpt lat="46.34099011032957" lon="10.906254849002977"><ele>707.6666666666667</ele><time>2026-04-25T14:16:59.999Z</time></trkpt><trkpt lat="46.34093849207863" lon="10.906154625445808"><ele>708.5</ele><time>2026-04-25T14:17:01.999Z</time></trkpt><trkpt lat="46.340886874070385" lon="10.906064154056986"><ele>709.3333333333334</ele><time>2026-04-25T14:17:03.999Z</time></trkpt><trkpt lat="46.34083005159482" lon="10.905980688771537"><ele>710.1666666666666</ele><time>2026-04-25T14:17:05.999Z</time></trkpt><trkpt lat="46.340769130541254" lon="10.905901899046725"><ele>711.0</ele><time>2026-04-25T14:17:07.999Z</time></trkpt><trkpt lat="46.34071175020994" lon="10.905817251027393"><ele>711.1999999999999</ele><time>2026-04-25T14:17:09.999Z</time></trkpt><trkpt lat="46.340641306800144" lon="10.90571079753692"><ele>711.4</ele><time>2026-04-25T14:17:11.999Z</time></trkpt><trkpt lat="46.340568422048605" lon="10.90559828856437"><ele>711.6</ele><time>2026-04-25T14:17:13.999Z</time></trkpt><trkpt lat="46.34050085957654" lon="10.905490149497455"><ele>711.8</ele><time>2026-04-25T14:17:15.999Z</time></trkpt><trkpt lat="46.34043518112508" lon="10.905369592189148"><ele>712.0</ele><time>2026-04-25T14:17:17.999Z</time></trkpt><trkpt lat="46.34037610721464" lon="10.905271986110849"><ele>712.0</ele><time>2026-04-25T14:17:19.999Z</time></trkpt><trkpt lat="46.3403200373299" lon="10.905177766727675"><ele>712.0</ele><time>2026-04-25T14:17:21.999Z</time></trkpt><trkpt lat="46.34026672168473" lon="10.905094589669316"><ele>712.0</ele><time>2026-04-25T14:17:23.999Z</time></trkpt><trkpt lat="46.34021147531156" lon="10.905016041218449"><ele>712.0</ele><time>2026-04-25T14:17:25.999Z</time></trkpt><trkpt lat="46.34016764164226" lon="10.904942984750706"><ele>712.0</ele><time>2026-04-25T14:17:27.999Z</time></trkpt><trkpt lat="46.34006364558293" lon="10.904811675660952"><ele>712.0</ele><time>2026-04-25T14:17:58.999Z</time></trkpt><trkpt lat="46.34001559134977" lon="10.9047485232402"><ele>712.8</ele><time>2026-04-25T14:17:59.999Z</time></trkpt><trkpt lat="46.339972411869894" lon="10.904681594224359"><ele>713.6</ele><time>2026-04-25T14:18:00.999Z</time></trkpt><trkpt lat="46.3398828345525" lon="10.904568695035715"><ele>714.4</ele><time>2026-04-25T14:18:02.999Z</time></trkpt><trkpt lat="46.3397923559246" lon="10.904462825116708"><ele>715.1999999999999</ele><time>2026-04-25T14:18:04.999Z</time></trkpt><trkpt lat="46.33972406541228" lon="10.904342767955209"><ele>716.0</ele><time>2026-04-25T14:18:06.999Z</time></trkpt><trkpt lat="46.33964118490718" lon="10.90422114748796"><ele>716.0</ele><time>2026-04-25T14:18:08.999Z</time></trkpt><trkpt lat="46.339544796753685" lon="10.904103818035274"><ele>716.0</ele><time>2026-04-25T14:18:10.999Z</time></trkpt><trkpt lat="46.33945042812729" lon="10.903981902963904"><ele>716.0</ele><time>2026-04-25T14:18:12.999Z</time></trkpt><trkpt lat="46.33940036958903" lon="10.90392276235856"><ele>716.0</ele><time>2026-04-25T14:18:13.999Z</time></trkpt><trkpt lat="46.33930606428171" lon="10.903800619292412"><ele>716.0</ele><time>2026-04-25T14:18:15.999Z</time></trkpt><trkpt lat="46.33925851124563" lon="10.903739907424496"><ele>716.0</ele><time>2026-04-25T14:18:16.999Z</time></trkpt><trkpt lat="46.3391683885483" lon="10.90363139572462"><ele>716.0</ele><time>2026-04-25T14:18:18.999Z</time></trkpt><trkpt lat="46.339079274593516" lon="10.903517174332153"><ele>716.0</ele><time>2026-04-25T14:18:20.999Z</time></trkpt><trkpt lat="46.33899109582931" lon="10.903393198113008"><ele>716.0</ele><time>2026-04-25T14:18:22.999Z</time></trkpt><trkpt lat="46.33894598497002" lon="10.903329465522138"><ele>716.0</ele><time>2026-04-25T14:18:23.999Z</time></trkpt><trkpt lat="46.3388592700448" lon="10.903200253508794"><ele>716.0</ele><time>2026-04-25T14:18:25.999Z</time></trkpt><trkpt lat="46.33881646589389" lon="10.903131318090029"><ele>716.0</ele><time>2026-04-25T14:18:26.999Z</time></trkpt><trkpt lat="46.33874749061642" lon="10.903004503985155"><ele>716.0</ele><time>2026-04-25T14:18:28.999Z</time></trkpt><trkpt lat="46.33878393029231" lon="10.902871594134224"><ele>716.0</ele><time>2026-04-25T14:18:30.999Z</time></trkpt><trkpt lat="46.33885482601654" lon="10.902756109475181"><ele>716.0</ele><time>2026-04-25T14:18:32.999Z</time></trkpt><trkpt lat="46.33880972441476" lon="10.902623212947553"><ele>717.0</ele><time>2026-04-25T14:18:34.999Z</time></trkpt><trkpt lat="46.338721935868676" lon="10.902517808542392"><ele>718.0</ele><time>2026-04-25T14:18:36.999Z</time></trkpt><trkpt lat="46.33864450841123" lon="10.902379088698476"><ele>719.0</ele><time>2026-04-25T14:18:38.999Z</time></trkpt><trkpt lat="46.338561192165315" lon="10.902246459117807"><ele>720.0</ele><time>2026-04-25T14:18:41Z</time></trkpt><trkpt lat="46.338517791743875" lon="10.9021777693452"><ele>721.0</ele><time>2026-04-25T14:18:42Z</time></trkpt><trkpt lat="46.33847251466846" lon="10.902113642897953"><ele>721.0</ele><time>2026-04-25T14:18:43Z</time></trkpt><trkpt lat="46.33842766880926" lon="10.902047071196286"><ele>721.0</ele><time>2026-04-25T14:18:44Z</time></trkpt><trkpt lat="46.33833809509195" lon="10.901923140966899"><ele>721.0</ele><time>2026-04-25T14:18:46Z</time></trkpt><trkpt lat="46.33829284220331" lon="10.901857657978056"><ele>721.0</ele><time>2026-04-25T14:18:47Z</time></trkpt><trkpt lat="46.33824644546369" lon="10.901792623841233"><ele>721.0</ele><time>2026-04-25T14:18:48Z</time></trkpt><trkpt lat="46.33819716469467" lon="10.90173168501135"><ele>721.0</ele><time>2026-04-25T14:18:49Z</time></trkpt><trkpt lat="46.33814854401291" lon="10.901668965204978"><ele>721.0</ele><time>2026-04-25T14:18:50Z</time></trkpt><trkpt lat="46.33810056764912" lon="10.901607927580287"><ele>721.0</ele><time>2026-04-25T14:18:51Z</time></trkpt><trkpt lat="46.338053557526635" lon="10.901543520237132"><ele>721.0</ele><time>2026-04-25T14:18:52Z</time></trkpt><trkpt lat="46.33800801637802" lon="10.901476196903296"><ele>721.0</ele><time>2026-04-25T14:18:53Z</time></trkpt><trkpt lat="46.33796642603159" lon="10.901403655351661"><ele>721.0</ele><time>2026-04-25T14:18:54Z</time></trkpt><trkpt lat="46.33792933668646" lon="10.901328087065805"><ele>721.0</ele><time>2026-04-25T14:18:55Z</time></trkpt><trkpt lat="46.33789052716804" lon="10.90125172949843"><ele>721.0</ele><time>2026-04-25T14:18:56Z</time></trkpt><trkpt lat="46.33785427300548" lon="10.90117653578813"><ele>721.0</ele><time>2026-04-25T14:18:57Z</time></trkpt><trkpt lat="46.337819701848275" lon="10.901096814119464"><ele>721.0</ele><time>2026-04-25T14:18:58Z</time></trkpt><trkpt lat="46.33778664730042" lon="10.901016923906646"><ele>721.0</ele><time>2026-04-25T14:18:59Z</time></trkpt><trkpt lat="46.337756673679486" lon="10.900935970921477"><ele>721.0</ele><time>2026-04-25T14:19:00Z</time></trkpt><trkpt lat="46.337733729951815" lon="10.900849509600967"><ele>721.0</ele><time>2026-04-25T14:19:01Z</time></trkpt><trkpt lat="46.337712008064415" lon="10.90076044363055"><ele>721.0</ele><time>2026-04-25T14:19:02Z</time></trkpt><trkpt lat="46.33765969053903" lon="10.900594311173998"><ele>721.0</ele><time>2026-04-25T14:19:04Z</time></trkpt><trkpt lat="46.33762072013788" lon="10.900521042490984"><ele>721.0</ele><time>2026-04-25T14:19:05Z</time></trkpt><trkpt lat="46.337538786393935" lon="10.900387893471356"><ele>721.1999999999999</ele><time>2026-04-25T14:19:07Z</time></trkpt><trkpt lat="46.33741794631842" lon="10.900342514630362"><ele>721.4</ele><time>2026-04-25T14:19:09Z</time></trkpt><trkpt lat="46.3373553475325" lon="10.900323671083534"><ele>721.6</ele><time>2026-04-25T14:19:10Z</time></trkpt><trkpt lat="46.33726004613535" lon="10.900226919547066"><ele>721.8</ele><time>2026-04-25T14:19:12Z</time></trkpt><trkpt lat="46.33722640786016" lon="10.900147610374358"><ele>722.0</ele><time>2026-04-25T14:19:13Z</time></trkpt><trkpt lat="46.337155274637176" lon="10.900004002542476"><ele>721.5</ele><time>2026-04-25T14:19:15Z</time></trkpt><trkpt lat="46.33706996179873" lon="10.89987761737217"><ele>721.0</ele><time>2026-04-25T14:19:17Z</time></trkpt><trkpt lat="46.33697504761593" lon="10.89976235588761"><ele>720.5</ele><time>2026-04-25T14:19:19Z</time></trkpt><trkpt lat="46.33688462787122" lon="10.899646936242716"><ele>720.0</ele><time>2026-04-25T14:19:21Z</time></trkpt><trkpt lat="46.33679562532792" lon="10.899544938891374"><ele>720.0</ele><time>2026-04-25T14:19:23Z</time></trkpt><trkpt lat="46.33669895585245" lon="10.899456551010315"><ele>720.0</ele><time>2026-04-25T14:19:25Z</time></trkpt><trkpt lat="46.33660105603517" lon="10.899358877859083"><ele>720.0</ele><time>2026-04-25T14:19:27Z</time></trkpt><trkpt lat="46.33650125038043" lon="10.899257520584513"><ele>720.0</ele><time>2026-04-25T14:19:29Z</time></trkpt><trkpt lat="46.33639663254867" lon="10.89917519260114"><ele>720.0</ele><time>2026-04-25T14:19:31Z</time></trkpt><trkpt lat="46.33627867591568" lon="10.899130419027822"><ele>720.0</ele><time>2026-04-25T14:19:33Z</time></trkpt><trkpt lat="46.33616827375201" lon="10.899078442943338"><ele>720.0</ele><time>2026-04-25T14:19:35Z</time></trkpt><trkpt lat="46.336063956670436" lon="10.899015925552199"><ele>720.0</ele><time>2026-04-25T14:19:37Z</time></trkpt><trkpt lat="46.335957853051696" lon="10.898947012916562"><ele>720.0</ele><time>2026-04-25T14:19:39Z</time></trkpt><trkpt lat="46.33589788808399" lon="10.898899638432585"><ele>720.0</ele><time>2026-04-25T14:19:40Z</time></trkpt><trkpt lat="46.335831078827525" lon="10.89885738423626"><ele>720.0</ele><time>2026-04-25T14:19:41Z</time></trkpt><trkpt lat="46.335758721762225" lon="10.898833155149847"><ele>720.0</ele><time>2026-04-25T14:19:42Z</time></trkpt><trkpt lat="46.335695273323154" lon="10.89882756531552"><ele>720.0</ele><time>2026-04-25T14:19:43Z</time></trkpt><trkpt lat="46.33562965287751" lon="10.898829534918164"><ele>720.0</ele><time>2026-04-25T14:19:44Z</time></trkpt><trkpt lat="46.33550045645156" lon="10.898831406853652"><ele>720.0</ele><time>2026-04-25T14:19:46Z</time></trkpt><trkpt lat="46.33542996562038" lon="10.898833298527428"><ele>720.0</ele><time>2026-04-25T14:19:47Z</time></trkpt><trkpt lat="46.335359085997915" lon="10.898834106838345"><ele>720.0</ele><time>2026-04-25T14:19:48Z</time></trkpt><trkpt lat="46.33528896729952" lon="10.898834395446697"><ele>720.0</ele><time>2026-04-25T14:19:49Z</time></trkpt><trkpt lat="46.3352161205431" lon="10.898831462046733"><ele>720.0</ele><time>2026-04-25T14:19:50Z</time></trkpt><trkpt lat="46.33514513879338" lon="10.898827152259742"><ele>720.0</ele><time>2026-04-25T14:19:51Z</time></trkpt><trkpt lat="46.335077871086746" lon="10.898817988311109"><ele>720.0</ele><time>2026-04-25T14:19:52Z</time></trkpt><trkpt lat="46.335011958180985" lon="10.898802806020498"><ele>720.0</ele><time>2026-04-25T14:19:53Z</time></trkpt><trkpt lat="46.33494666203373" lon="10.898789257146014"><ele>720.0</ele><time>2026-04-25T14:19:54Z</time></trkpt><trkpt lat="46.334882098601334" lon="10.898775190614623"><ele>720.0</ele><time>2026-04-25T14:19:55Z</time></trkpt><trkpt lat="46.33481897981447" lon="10.898758292963457"><ele>720.0</ele><time>2026-04-25T14:19:56Z</time></trkpt><trkpt lat="46.33475574393596" lon="10.89873684370618"><ele>720.0</ele><time>2026-04-25T14:19:57Z</time></trkpt><trkpt lat="46.33464009375052" lon="10.898692347182875"><ele>720.0</ele><time>2026-04-25T14:19:59Z</time></trkpt><trkpt lat="46.33453197451599" lon="10.898652186518213"><ele>720.6</ele><time>2026-04-25T14:20:01Z</time></trkpt><trkpt lat="46.334442246881515" lon="10.898542920205573"><ele>721.2</ele><time>2026-04-25T14:20:03Z</time></trkpt><trkpt lat="46.334366812411886" lon="10.898430566637915"><ele>721.8</ele><time>2026-04-25T14:20:05Z</time></trkpt><trkpt lat="46.33429425637014" lon="10.898322919546683"><ele>722.4</ele><time>2026-04-25T14:20:07Z</time></trkpt><trkpt lat="46.33422745735401" lon="10.898206716445317"><ele>723.0</ele><time>2026-04-25T14:20:09Z</time></trkpt><trkpt lat="46.334150462920455" lon="10.898094638037328"><ele>723.0</ele><time>2026-04-25T14:20:11Z</time></trkpt><trkpt lat="46.334078330192476" lon="10.897982754866995"><ele>723.0</ele><time>2026-04-25T14:20:13Z</time></trkpt><trkpt lat="46.334007891706776" lon="10.897874944988885"><ele>723.0</ele><time>2026-04-25T14:20:15Z</time></trkpt><trkpt lat="46.33393613251882" lon="10.89776552558125"><ele>723.0</ele><time>2026-04-25T14:20:17Z</time></trkpt><trkpt lat="46.33386564369202" lon="10.897656978049055"><ele>723.0</ele><time>2026-04-25T14:20:19Z</time></trkpt><trkpt lat="46.333801801532275" lon="10.897551046579627"><ele>724.2</ele><time>2026-04-25T14:20:21Z</time></trkpt><trkpt lat="46.33373577520646" lon="10.897452635701626"><ele>725.4</ele><time>2026-04-25T14:20:23Z</time></trkpt><trkpt lat="46.33366849745075" lon="10.897353570304103"><ele>726.6</ele><time>2026-04-25T14:20:25Z</time></trkpt><trkpt lat="46.333600893537486" lon="10.897239453633897"><ele>727.8000000000001</ele><time>2026-04-25T14:20:27Z</time></trkpt><trkpt lat="46.333540145913844" lon="10.897117772359966"><ele>729.0</ele><time>2026-04-25T14:20:29Z</time></trkpt><trkpt lat="46.33348958832214" lon="10.896987820337095"><ele>729.0</ele><time>2026-04-25T14:20:31Z</time></trkpt><trkpt lat="46.333430348818794" lon="10.896868068272788"><ele>729.0</ele><time>2026-04-25T14:20:32.999Z</time></trkpt><trkpt lat="46.333369777082176" lon="10.89673179116933"><ele>729.0</ele><time>2026-04-25T14:20:34.999Z</time></trkpt><trkpt lat="46.33330065669659" lon="10.896584877222875"><ele>729.0</ele><time>2026-04-25T14:20:36.999Z</time></trkpt><trkpt lat="46.333264756023915" lon="10.896507889728442"><ele>729.0</ele><time>2026-04-25T14:20:37.999Z</time></trkpt><trkpt lat="46.33323113148647" lon="10.896429264316422"><ele>729.0</ele><time>2026-04-25T14:20:38.999Z</time></trkpt><trkpt lat="46.333193004526656" lon="10.89635484028893"><ele>729.0</ele><time>2026-04-25T14:20:39.999Z</time></trkpt><trkpt lat="46.33311804955927" lon="10.896208850605403"><ele>729.0</ele><time>2026-04-25T14:20:41.999Z</time></trkpt><trkpt lat="46.33305322297758" lon="10.896047542914104"><ele>729.0</ele><time>2026-04-25T14:20:43.999Z</time></trkpt><trkpt lat="46.33299777051847" lon="10.895891544282442"><ele>729.0</ele><time>2026-04-25T14:20:46Z</time></trkpt><trkpt lat="46.332938606554734" lon="10.895738409019948"><ele>729.0</ele><time>2026-04-25T14:20:48Z</time></trkpt><trkpt lat="46.332877017381456" lon="10.895591049792442"><ele>729.0</ele><time>2026-04-25T14:20:50Z</time></trkpt><trkpt lat="46.33283459911748" lon="10.895446369832447"><ele>729.0</ele><time>2026-04-25T14:20:52Z</time></trkpt><trkpt lat="46.332803300465486" lon="10.895288409874317"><ele>729.0</ele><time>2026-04-25T14:20:54Z</time></trkpt><trkpt lat="46.332763403916694" lon="10.89513203442542"><ele>729.2</ele><time>2026-04-25T14:20:56Z</time></trkpt><trkpt lat="46.33273079243288" lon="10.894972528576814"><ele>729.4000000000001</ele><time>2026-04-25T14:20:58Z</time></trkpt><trkpt lat="46.33269861449073" lon="10.894819765943959"><ele>729.6</ele><time>2026-04-25T14:21:00Z</time></trkpt><trkpt lat="46.33267044434091" lon="10.894678260214357"><ele>729.8</ele><time>2026-04-25T14:21:02Z</time></trkpt><trkpt lat="46.33265195272752" lon="10.894519306819703"><ele>730.0</ele><time>2026-04-25T14:21:04Z</time></trkpt><trkpt lat="46.332647300984654" lon="10.8943562976069"><ele>730.0</ele><time>2026-04-25T14:21:06Z</time></trkpt><trkpt lat="46.33264867873843" lon="10.89420000577845"><ele>730.0</ele><time>2026-04-25T14:21:08Z</time></trkpt><trkpt lat="46.33264731502105" lon="10.894040743376037"><ele>730.0</ele><time>2026-04-25T14:21:10Z</time></trkpt><trkpt lat="46.33265236112425" lon="10.893883232873808"><ele>730.0</ele><time>2026-04-25T14:21:12Z</time></trkpt><trkpt lat="46.33265175118595" lon="10.893730845206326"><ele>730.0</ele><time>2026-04-25T14:21:14Z</time></trkpt><trkpt lat="46.33264793217696" lon="10.893581001466792"><ele>730.0</ele><time>2026-04-25T14:21:16Z</time></trkpt><trkpt lat="46.33264148313472" lon="10.893435903503935"><ele>730.0</ele><time>2026-04-25T14:21:18Z</time></trkpt><trkpt lat="46.332626999230044" lon="10.893293599134498"><ele>730.0</ele><time>2026-04-25T14:21:20Z</time></trkpt><trkpt lat="46.33261219197868" lon="10.893146213711258"><ele>730.0</ele><time>2026-04-25T14:21:22Z</time></trkpt><trkpt lat="46.332593561966725" lon="10.892995877102939"><ele>730.0</ele><time>2026-04-25T14:21:24Z</time></trkpt><trkpt lat="46.332570084740695" lon="10.892840015549648"><ele>730.0</ele><time>2026-04-25T14:21:26Z</time></trkpt><trkpt lat="46.332541573493934" lon="10.892675865245158"><ele>730.0</ele><time>2026-04-25T14:21:28Z</time></trkpt><trkpt lat="46.332514649486285" lon="10.892516244418255"><ele>730.0</ele><time>2026-04-25T14:21:30Z</time></trkpt><trkpt lat="46.332495335490705" lon="10.892356504782102"><ele>730.0</ele><time>2026-04-25T14:21:32Z</time></trkpt><trkpt lat="46.332478550780934" lon="10.89219283113154"><ele>730.0</ele><time>2026-04-25T14:21:34Z</time></trkpt><trkpt lat="46.33246852178627" lon="10.892030936673404"><ele>730.0</ele><time>2026-04-25T14:21:36Z</time></trkpt><trkpt lat="46.33244620863233" lon="10.891870660238705"><ele>730.0</ele><time>2026-04-25T14:21:38Z</time></trkpt><trkpt lat="46.332403760707315" lon="10.891715038924685"><ele>730.0</ele><time>2026-04-25T14:21:40Z</time></trkpt><trkpt lat="46.3323411143904" lon="10.891570742904277"><ele>730.0</ele><time>2026-04-25T14:21:42Z</time></trkpt><trkpt lat="46.33227504936156" lon="10.891419342625523"><ele>730.0</ele><time>2026-04-25T14:21:44Z</time></trkpt><trkpt lat="46.332230232705946" lon="10.891253039329309"><ele>730.0</ele><time>2026-04-25T14:21:46Z</time></trkpt><trkpt lat="46.3321923863591" lon="10.891099569471168"><ele>730.0</ele><time>2026-04-25T14:21:48Z</time></trkpt><trkpt lat="46.33214897625" lon="10.89094934350204"><ele>729.8</ele><time>2026-04-25T14:21:50Z</time></trkpt><trkpt lat="46.33211844114844" lon="10.890789939885023"><ele>729.6</ele><time>2026-04-25T14:21:52Z</time></trkpt><trkpt lat="46.332109037230246" lon="10.890628818042481"><ele>729.4000000000001</ele><time>2026-04-25T14:21:54Z</time></trkpt><trkpt lat="46.3320871366566" lon="10.890478776271161"><ele>729.2</ele><time>2026-04-25T14:21:56Z</time></trkpt><trkpt lat="46.33206749783024" lon="10.890332783079998"><ele>729.0</ele><time>2026-04-25T14:21:58Z</time></trkpt><trkpt lat="46.332049839455365" lon="10.890190782744064"><ele>729.6</ele><time>2026-04-25T14:22:00Z</time></trkpt><trkpt lat="46.33202610100832" lon="10.890059245795394"><ele>730.2</ele><time>2026-04-25T14:22:02Z</time></trkpt><trkpt lat="46.332002347073455" lon="10.889925903468047"><ele>730.8000000000001</ele><time>2026-04-25T14:22:04Z</time></trkpt><trkpt lat="46.33198934051633" lon="10.88980173435783"><ele>731.4000000000001</ele><time>2026-04-25T14:22:06Z</time></trkpt><trkpt lat="46.33198631301119" lon="10.889678220428022"><ele>732.0</ele><time>2026-04-25T14:22:08Z</time></trkpt><trkpt lat="46.33196007183609" lon="10.889539033755357"><ele>732.0</ele><time>2026-04-25T14:22:10Z</time></trkpt><trkpt lat="46.33193403201884" lon="10.889379493128386"><ele>732.0</ele><time>2026-04-25T14:22:12Z</time></trkpt><trkpt lat="46.331912893384406" lon="10.8892475782085"><ele>732.0</ele><time>2026-04-25T14:22:14Z</time></trkpt><trkpt lat="46.33190513667603" lon="10.889141418263076"><ele>732.0</ele><time>2026-04-25T14:22:20Z</time></trkpt><trkpt lat="46.33190148372455" lon="10.889048844059882"><ele>732.0</ele><time>2026-04-25T14:22:22Z</time></trkpt><trkpt lat="46.33187850879449" lon="10.888929666498548"><ele>732.0</ele><time>2026-04-25T14:22:24Z</time></trkpt><trkpt lat="46.3318340938361" lon="10.888758920766977"><ele>732.0</ele><time>2026-04-25T14:22:26Z</time></trkpt><trkpt lat="46.33182021938098" lon="10.888589683292548"><ele>732.0</ele><time>2026-04-25T14:22:28Z</time></trkpt><trkpt lat="46.33180392652595" lon="10.88842979809008"><ele>732.0</ele><time>2026-04-25T14:22:30Z</time></trkpt><trkpt lat="46.33178159595084" lon="10.888267046208963"><ele>732.0</ele><time>2026-04-25T14:22:32Z</time></trkpt><trkpt lat="46.3317587269834" lon="10.888109226531178"><ele>732.4000000000001</ele><time>2026-04-25T14:22:34Z</time></trkpt><trkpt lat="46.33172979635004" lon="10.887953768124763"><ele>732.8000000000001</ele><time>2026-04-25T14:22:36Z</time></trkpt><trkpt lat="46.331705386019415" lon="10.887801036941365"><ele>733.2</ele><time>2026-04-25T14:22:38Z</time></trkpt><trkpt lat="46.33168073557044" lon="10.887646371354744"><ele>733.6</ele><time>2026-04-25T14:22:40Z</time></trkpt><trkpt lat="46.33165252819765" lon="10.887505239304332"><ele>734.0</ele><time>2026-04-25T14:22:42Z</time></trkpt><trkpt lat="46.3316244110623" lon="10.88735688331964"><ele>734.2</ele><time>2026-04-25T14:22:44Z</time></trkpt><trkpt lat="46.331598912109826" lon="10.887213031210212"><ele>734.4000000000001</ele><time>2026-04-25T14:22:46Z</time></trkpt><trkpt lat="46.331575314011026" lon="10.887065298586748"><ele>734.6</ele><time>2026-04-25T14:22:48Z</time></trkpt><trkpt lat="46.3315489468485" lon="10.886917918982215"><ele>734.8</ele><time>2026-04-25T14:22:50Z</time></trkpt><trkpt lat="46.331525396044" lon="10.886774059504463"><ele>735.0</ele><time>2026-04-25T14:22:52.001Z</time></trkpt><trkpt lat="46.33149816568325" lon="10.88663544508631"><ele>735.6</ele><time>2026-04-25T14:22:54.001Z</time></trkpt><trkpt lat="46.33147388192762" lon="10.886492947639605"><ele>736.2</ele><time>2026-04-25T14:22:56.001Z</time></trkpt><trkpt lat="46.33144702430793" lon="10.886350529391832"><ele>736.8</ele><time>2026-04-25T14:22:58.001Z</time></trkpt><trkpt lat="46.33142196343375" lon="10.886211185423482"><ele>737.4</ele><time>2026-04-25T14:23:00.001Z</time></trkpt><trkpt lat="46.33139858605012" lon="10.886067400575113"><ele>738.0</ele><time>2026-04-25T14:23:02.001Z</time></trkpt><trkpt lat="46.331373182361816" lon="10.885914688434708"><ele>738.0</ele><time>2026-04-25T14:23:04.001Z</time></trkpt><trkpt lat="46.33134614584697" lon="10.885763049940657"><ele>738.0</ele><time>2026-04-25T14:23:06.001Z</time></trkpt><trkpt lat="46.331316788175165" lon="10.885609166616163"><ele>738.0</ele><time>2026-04-25T14:23:08.001Z</time></trkpt><trkpt lat="46.331289431182746" lon="10.8854560405997"><ele>738.0</ele><time>2026-04-25T14:23:10Z</time></trkpt><trkpt lat="46.331257172957194" lon="10.885301988340137"><ele>738.0</ele><time>2026-04-25T14:23:12Z</time></trkpt><trkpt lat="46.33123577149671" lon="10.885142670470966"><ele>737.8</ele><time>2026-04-25T14:23:14Z</time></trkpt><trkpt lat="46.33120714802005" lon="10.884986654784074"><ele>737.5999999999999</ele><time>2026-04-25T14:23:16Z</time></trkpt><trkpt lat="46.331183357336194" lon="10.884843435012403"><ele>737.4000000000001</ele><time>2026-04-25T14:23:18Z</time></trkpt><trkpt lat="46.331156539061716" lon="10.884707431434498"><ele>737.2</ele><time>2026-04-25T14:23:20Z</time></trkpt><trkpt lat="46.33112446047592" lon="10.884558798961748"><ele>737.0</ele><time>2026-04-25T14:23:22Z</time></trkpt><trkpt lat="46.3310914977939" lon="10.884411079570707"><ele>737.0</ele><time>2026-04-25T14:23:24Z</time></trkpt><trkpt lat="46.331057726670295" lon="10.884265468874583"><ele>737.0</ele><time>2026-04-25T14:23:26Z</time></trkpt><trkpt lat="46.33102763701687" lon="10.884124867783607"><ele>737.0</ele><time>2026-04-25T14:23:28Z</time></trkpt><trkpt lat="46.3309912189596" lon="10.883989827699876"><ele>737.0</ele><time>2026-04-25T14:23:30Z</time></trkpt><trkpt lat="46.3309538313616" lon="10.883853081843831"><ele>737.0</ele><time>2026-04-25T14:23:32Z</time></trkpt><trkpt lat="46.330916702798994" lon="10.883714725596183"><ele>737.2</ele><time>2026-04-25T14:23:34Z</time></trkpt><trkpt lat="46.33087690966811" lon="10.883578170680074"><ele>737.4000000000001</ele><time>2026-04-25T14:23:36Z</time></trkpt><trkpt lat="46.330837075483956" lon="10.883440273902908"><ele>737.5999999999999</ele><time>2026-04-25T14:23:38Z</time></trkpt><trkpt lat="46.33079689289236" lon="10.883300582894124"><ele>737.8</ele><time>2026-04-25T14:23:40Z</time></trkpt><trkpt lat="46.33075473614431" lon="10.883158996413695"><ele>738.0</ele><time>2026-04-25T14:23:42Z</time></trkpt><trkpt lat="46.3307132012755" lon="10.88301312758483"><ele>738.4</ele><time>2026-04-25T14:23:44Z</time></trkpt><trkpt lat="46.33067591815375" lon="10.882878812794287"><ele>738.8</ele><time>2026-04-25T14:23:46Z</time></trkpt><trkpt lat="46.33063990501659" lon="10.882746211355158"><ele>739.2</ele><time>2026-04-25T14:23:48Z</time></trkpt><trkpt lat="46.33059693781752" lon="10.882617284203562"><ele>739.6</ele><time>2026-04-25T14:23:50Z</time></trkpt><trkpt lat="46.33055772476436" lon="10.882481437062413"><ele>740.0</ele><time>2026-04-25T14:23:52Z</time></trkpt><trkpt lat="46.33051884157779" lon="10.882352611327343"><ele>740.2</ele><time>2026-04-25T14:23:54Z</time></trkpt><trkpt lat="46.330483822063286" lon="10.882223512268414"><ele>740.4</ele><time>2026-04-25T14:23:56Z</time></trkpt><trkpt lat="46.33044534036407" lon="10.88209176748689"><ele>740.5999999999999</ele><time>2026-04-25T14:23:58Z</time></trkpt><trkpt lat="46.33040718659326" lon="10.881959759413283"><ele>740.8</ele><time>2026-04-25T14:24:00Z</time></trkpt><trkpt lat="46.330367632399216" lon="10.881830330244997"><ele>741.0</ele><time>2026-04-25T14:24:02Z</time></trkpt><trkpt lat="46.33033002469965" lon="10.88169557595001"><ele>741.5999999999999</ele><time>2026-04-25T14:24:04Z</time></trkpt><trkpt lat="46.33028941169128" lon="10.88156416386304"><ele>742.2</ele><time>2026-04-25T14:24:06Z</time></trkpt><trkpt lat="46.33024952352507" lon="10.881427587988705"><ele>742.8</ele><time>2026-04-25T14:24:08Z</time></trkpt><trkpt lat="46.33021039808387" lon="10.881293898214302"><ele>743.4000000000001</ele><time>2026-04-25T14:24:10Z</time></trkpt><trkpt lat="46.330169114529554" lon="10.881159187881842"><ele>744.0</ele><time>2026-04-25T14:24:12Z</time></trkpt><trkpt lat="46.3301323244697" lon="10.881026202374363"><ele>744.0</ele><time>2026-04-25T14:24:14Z</time></trkpt><trkpt lat="46.33009273263989" lon="10.880893198494407"><ele>744.0</ele><time>2026-04-25T14:24:16Z</time></trkpt><trkpt lat="46.3300528554918" lon="10.880764795199685"><ele>744.0</ele><time>2026-04-25T14:24:18Z</time></trkpt><trkpt lat="46.33001561830735" lon="10.880637554607047"><ele>744.0</ele><time>2026-04-25T14:24:20Z</time></trkpt><trkpt lat="46.32997676297491" lon="10.88051116080271"><ele>744.0</ele><time>2026-04-25T14:24:22Z</time></trkpt><trkpt lat="46.32993607577769" lon="10.88038375047366"><ele>744.0</ele><time>2026-04-25T14:24:24Z</time></trkpt><trkpt lat="46.32989064270453" lon="10.880251419449246"><ele>744.0</ele><time>2026-04-25T14:24:26Z</time></trkpt><trkpt lat="46.329853773095124" lon="10.880117025749675"><ele>744.0</ele><time>2026-04-25T14:24:28Z</time></trkpt><trkpt lat="46.329810191789775" lon="10.879986252331511"><ele>744.0</ele><time>2026-04-25T14:24:30Z</time></trkpt><trkpt lat="46.32976938047623" lon="10.879862142500327"><ele>744.0</ele><time>2026-04-25T14:24:32Z</time></trkpt><trkpt lat="46.329739343205716" lon="10.879727449494954"><ele>744.6</ele><time>2026-04-25T14:24:34Z</time></trkpt><trkpt lat="46.32970771906189" lon="10.879591497644551"><ele>745.2</ele><time>2026-04-25T14:24:36Z</time></trkpt><trkpt lat="46.329667543563666" lon="10.879462815333685"><ele>745.8000000000001</ele><time>2026-04-25T14:24:38Z</time></trkpt><trkpt lat="46.32962655476974" lon="10.879334594359483"><ele>746.4000000000001</ele><time>2026-04-25T14:24:40Z</time></trkpt><trkpt lat="46.329588820491296" lon="10.879202999057807"><ele>747.0</ele><time>2026-04-25T14:24:42Z</time></trkpt><trkpt lat="46.329546963233945" lon="10.879071974396602"><ele>747.0</ele><time>2026-04-25T14:24:44Z</time></trkpt><trkpt lat="46.329498933231896" lon="10.878944417356616"><ele>747.0</ele><time>2026-04-25T14:24:46Z</time></trkpt><trkpt lat="46.329455911425775" lon="10.878813909358573"><ele>747.0</ele><time>2026-04-25T14:24:48Z</time></trkpt><trkpt lat="46.32942005570716" lon="10.878679204360077"><ele>747.0</ele><time>2026-04-25T14:24:50Z</time></trkpt><trkpt lat="46.32938690786446" lon="10.878542485153659"><ele>747.0</ele><time>2026-04-25T14:24:52Z</time></trkpt><trkpt lat="46.32935303474779" lon="10.878406179089465"><ele>747.0</ele><time>2026-04-25T14:24:54Z</time></trkpt><trkpt lat="46.329310969427155" lon="10.878270247090306"><ele>747.0</ele><time>2026-04-25T14:24:56Z</time></trkpt><trkpt lat="46.32926990491329" lon="10.878133118406039"><ele>747.0</ele><time>2026-04-25T14:24:58.001Z</time></trkpt><trkpt lat="46.32923141659255" lon="10.877996148863575"><ele>747.0</ele><time>2026-04-25T14:25:00.001Z</time></trkpt><trkpt lat="46.32919118676754" lon="10.877861648220497"><ele>747.0</ele><time>2026-04-25T14:25:02.001Z</time></trkpt><trkpt lat="46.32915289177946" lon="10.877729700369068"><ele>747.4000000000001</ele><time>2026-04-25T14:25:04.001Z</time></trkpt><trkpt lat="46.32911592234595" lon="10.877600637537473"><ele>747.8000000000001</ele><time>2026-04-25T14:25:06.001Z</time></trkpt><trkpt lat="46.3290795404943" lon="10.877475256203832"><ele>748.2</ele><time>2026-04-25T14:25:08.001Z</time></trkpt><trkpt lat="46.32904332821324" lon="10.877340814236764"><ele>748.6</ele><time>2026-04-25T14:25:10.001Z</time></trkpt><trkpt lat="46.32900278351191" lon="10.877213627745947"><ele>749.0</ele><time>2026-04-25T14:25:12.001Z</time></trkpt><trkpt lat="46.32896590204389" lon="10.87707788514592"><ele>749.0</ele><time>2026-04-25T14:25:14.001Z</time></trkpt><trkpt lat="46.328934624226015" lon="10.876936739401573"><ele>749.0</ele><time>2026-04-25T14:25:16.001Z</time></trkpt><trkpt lat="46.32889569386816" lon="10.876821392085324"><ele>749.0</ele><time>2026-04-25T14:25:18.001Z</time></trkpt><trkpt lat="46.32886075616964" lon="10.876699083292845"><ele>749.0</ele><time>2026-04-25T14:25:20Z</time></trkpt><trkpt lat="46.32882500691494" lon="10.876577565151862"><ele>749.0</ele><time>2026-04-25T14:25:22Z</time></trkpt><trkpt lat="46.32879549888113" lon="10.876457450117085"><ele>749.0</ele><time>2026-04-25T14:25:24Z</time></trkpt><trkpt lat="46.32876325228502" lon="10.876337944995342"><ele>749.0</ele><time>2026-04-25T14:25:26Z</time></trkpt><trkpt lat="46.32873446973855" lon="10.876217423299757"><ele>749.0</ele><time>2026-04-25T14:25:28Z</time></trkpt><trkpt lat="46.32871089082413" lon="10.876096738130437"><ele>749.0</ele><time>2026-04-25T14:25:30Z</time></trkpt><trkpt lat="46.32868386584966" lon="10.875978531050572"><ele>749.0</ele><time>2026-04-25T14:25:32Z</time></trkpt><trkpt lat="46.3286646310594" lon="10.875858125714972"><ele>749.0</ele><time>2026-04-25T14:25:34Z</time></trkpt><trkpt lat="46.3286581717935" lon="10.87573990531038"><ele>749.0</ele><time>2026-04-25T14:25:36Z</time></trkpt><trkpt lat="46.32865341458481" lon="10.875624825255917"><ele>749.0</ele><time>2026-04-25T14:25:38Z</time></trkpt><trkpt lat="46.328638869656636" lon="10.875506353939343"><ele>749.0</ele><time>2026-04-25T14:25:40Z</time></trkpt><trkpt lat="46.328631078318445" lon="10.875382263179729"><ele>749.0</ele><time>2026-04-25T14:25:42Z</time></trkpt><trkpt lat="46.32862660065985" lon="10.875258475110591"><ele>749.0</ele><time>2026-04-25T14:25:44Z</time></trkpt><trkpt lat="46.32862024143248" lon="10.875134642271254"><ele>749.0</ele><time>2026-04-25T14:25:46Z</time></trkpt><trkpt lat="46.32861972633946" lon="10.875010814632187"><ele>749.3333333333333</ele><time>2026-04-25T14:25:48Z</time></trkpt><trkpt lat="46.328615807621624" lon="10.87489035175534"><ele>749.6666666666666</ele><time>2026-04-25T14:25:50Z</time></trkpt><trkpt lat="46.32861877824449" lon="10.874772364637613"><ele>750.0</ele><time>2026-04-25T14:25:52Z</time></trkpt><trkpt lat="46.328624343336" lon="10.874650878773584"><ele>750.3333333333334</ele><time>2026-04-25T14:25:54Z</time></trkpt><trkpt lat="46.32862736601516" lon="10.874522657031864"><ele>750.6666666666667</ele><time>2026-04-25T14:25:56Z</time></trkpt><trkpt lat="46.32863244824978" lon="10.87439658094313"><ele>751.0</ele><time>2026-04-25T14:25:58Z</time></trkpt><trkpt lat="46.32863786074229" lon="10.874279377554528"><ele>751.5</ele><time>2026-04-25T14:26:00Z</time></trkpt><trkpt lat="46.32864217121677" lon="10.874161129780191"><ele>752.0</ele><time>2026-04-25T14:26:02Z</time></trkpt><trkpt lat="46.328646888028544" lon="10.874048667784876"><ele>752.5</ele><time>2026-04-25T14:26:04Z</time></trkpt><trkpt lat="46.32864865474618" lon="10.873932180551241"><ele>753.0</ele><time>2026-04-25T14:26:06Z</time></trkpt><trkpt lat="46.32865400661162" lon="10.873816142098121"><ele>753.5</ele><time>2026-04-25T14:26:08Z</time></trkpt><trkpt lat="46.32866091625756" lon="10.873704184990185"><ele>754.0</ele><time>2026-04-25T14:26:10Z</time></trkpt><trkpt lat="46.328665572911945" lon="10.87359327509719"><ele>754.0</ele><time>2026-04-25T14:26:12Z</time></trkpt><trkpt lat="46.328672637233765" lon="10.873476876792868"><ele>754.0</ele><time>2026-04-25T14:26:14Z</time></trkpt><trkpt lat="46.32867523377782" lon="10.873361524983272"><ele>754.0</ele><time>2026-04-25T14:26:16Z</time></trkpt><trkpt lat="46.32868026369806" lon="10.87324132992003"><ele>754.0</ele><time>2026-04-25T14:26:18Z</time></trkpt><trkpt lat="46.32868795139742" lon="10.873114931333706"><ele>754.0</ele><time>2026-04-25T14:26:20Z</time></trkpt><trkpt lat="46.32869011927413" lon="10.872988372199083"><ele>754.0</ele><time>2026-04-25T14:26:22Z</time></trkpt><trkpt lat="46.3286986994357" lon="10.872855500610163"><ele>753.8333333333334</ele><time>2026-04-25T14:26:24Z</time></trkpt><trkpt lat="46.32870320847051" lon="10.872725668318406"><ele>753.6666666666667</ele><time>2026-04-25T14:26:26Z</time></trkpt><trkpt lat="46.328707296881355" lon="10.872594570018652"><ele>753.5</ele><time>2026-04-25T14:26:28Z</time></trkpt><trkpt lat="46.32870819844578" lon="10.872467626332655"><ele>753.3333333333334</ele><time>2026-04-25T14:26:30Z</time></trkpt><trkpt lat="46.32871008290524" lon="10.872338309564462"><ele>753.1666666666666</ele><time>2026-04-25T14:26:32Z</time></trkpt><trkpt lat="46.328708417360644" lon="10.872214991899058"><ele>753.0</ele><time>2026-04-25T14:26:34Z</time></trkpt><trkpt lat="46.32870716109501" lon="10.872087520672835"><ele>753.6666666666666</ele><time>2026-04-25T14:26:36Z</time></trkpt><trkpt lat="46.328705258568164" lon="10.871960620139395"><ele>754.3333333333334</ele><time>2026-04-25T14:26:38Z</time></trkpt><trkpt lat="46.3287044997223" lon="10.871842365131322"><ele>755.0</ele><time>2026-04-25T14:26:40Z</time></trkpt><trkpt lat="46.328705151165174" lon="10.87172172817148"><ele>755.6666666666667</ele><time>2026-04-25T14:26:42Z</time></trkpt><trkpt lat="46.32870053722406" lon="10.871607220604414"><ele>756.3333333333334</ele><time>2026-04-25T14:26:44Z</time></trkpt><trkpt lat="46.328693952887605" lon="10.871494981034521"><ele>757.0</ele><time>2026-04-25T14:26:46Z</time></trkpt><trkpt lat="46.32868753068635" lon="10.871381628441931"><ele>757.5</ele><time>2026-04-25T14:26:48Z</time></trkpt><trkpt lat="46.3286812625236" lon="10.871272695823107"><ele>758.0</ele><time>2026-04-25T14:26:50Z</time></trkpt><trkpt lat="46.328678146153706" lon="10.871167628471976"><ele>758.5</ele><time>2026-04-25T14:26:52Z</time></trkpt><trkpt lat="46.328665439268484" lon="10.871041117848765"><ele>759.0</ele><time>2026-04-25T14:26:54Z</time></trkpt><trkpt lat="46.32865974654492" lon="10.870922388675845"><ele>759.5</ele><time>2026-04-25T14:26:56Z</time></trkpt><trkpt lat="46.32859869976688" lon="10.870854929871344"><ele>760.0</ele><time>2026-04-25T14:26:58.999Z</time></trkpt><trkpt lat="46.32853520512423" lon="10.87088465345188"><ele>760.0</ele><time>2026-04-25T14:27:00.999Z</time></trkpt><trkpt lat="46.32844204639075" lon="10.870899260851996"><ele>760.0</ele><time>2026-04-25T14:27:04.001Z</time></trkpt><trkpt lat="46.32837730486364" lon="10.870912227650583"><ele>760.0</ele><time>2026-04-25T14:27:06.001Z</time></trkpt><trkpt lat="46.32831164396594" lon="10.870892246810294"><ele>760.0</ele><time>2026-04-25T14:27:09.001Z</time></trkpt><trkpt lat="46.32829392049411" lon="10.870777007029835"><ele>760.0</ele><time>2026-04-25T14:29:10.001Z</time></trkpt><trkpt lat="46.32826028739896" lon="10.870668815448683"><ele>760.0</ele><time>2026-04-25T14:29:12.001Z</time></trkpt><trkpt lat="46.32823277160876" lon="10.870555989103044"><ele>760.0</ele><time>2026-04-25T14:29:14.001Z</time></trkpt><trkpt lat="46.32820878297726" lon="10.870436868517237"><ele>760.0</ele><time>2026-04-25T14:29:16.001Z</time></trkpt><trkpt lat="46.328181021363505" lon="10.870314913846864"><ele>760.0</ele><time>2026-04-25T14:29:18.001Z</time></trkpt><trkpt lat="46.32815975311666" lon="10.870194964873573"><ele>760.0</ele><time>2026-04-25T14:29:20.001Z</time></trkpt><trkpt lat="46.32814594246685" lon="10.870075383488894"><ele>760.0</ele><time>2026-04-25T14:29:22.001Z</time></trkpt><trkpt lat="46.32813710974467" lon="10.869954383398884"><ele>760.0</ele><time>2026-04-25T14:29:24Z</time></trkpt><trkpt lat="46.32812913767927" lon="10.869829469457573"><ele>760.0</ele><time>2026-04-25T14:29:26Z</time></trkpt><trkpt lat="46.328130119726424" lon="10.869703913469845"><ele>760.0</ele><time>2026-04-25T14:29:28Z</time></trkpt><trkpt lat="46.32813622806339" lon="10.869578645612938"><ele>760.0</ele><time>2026-04-25T14:29:30Z</time></trkpt><trkpt lat="46.32813726781872" lon="10.869448820032677"><ele>760.0</ele><time>2026-04-25T14:29:32Z</time></trkpt><trkpt lat="46.32813765209016" lon="10.869321998325587"><ele>760.0</ele><time>2026-04-25T14:29:34Z</time></trkpt><trkpt lat="46.3281356252501" lon="10.869207800250893"><ele>760.0</ele><time>2026-04-25T14:29:36Z</time></trkpt><trkpt lat="46.3281319010038" lon="10.869092820826511"><ele>760.1666666666667</ele><time>2026-04-25T14:29:38Z</time></trkpt><trkpt lat="46.32812074336518" lon="10.868979545063052"><ele>760.3333333333334</ele><time>2026-04-25T14:29:40Z</time></trkpt><trkpt lat="46.32811011694176" lon="10.868862395003278"><ele>760.5</ele><time>2026-04-25T14:29:42Z</time></trkpt><trkpt lat="46.32809467272619" lon="10.868745981359426"><ele>760.6666666666666</ele><time>2026-04-25T14:29:44Z</time></trkpt><trkpt lat="46.32808116738065" lon="10.868632131509166"><ele>760.8333333333333</ele><time>2026-04-25T14:29:46Z</time></trkpt><trkpt lat="46.328068959755484" lon="10.868516144544353"><ele>761.0</ele><time>2026-04-25T14:29:47.999Z</time></trkpt><trkpt lat="46.3280596436253" lon="10.868404211193536"><ele>762.6666666666666</ele><time>2026-04-25T14:29:49.999Z</time></trkpt><trkpt lat="46.328048955372914" lon="10.868291330326963"><ele>764.3333333333333</ele><time>2026-04-25T14:29:51.999Z</time></trkpt><trkpt lat="46.32804236644555" lon="10.868176208475473"><ele>766.0</ele><time>2026-04-25T14:29:53.999Z</time></trkpt><trkpt lat="46.32802854333137" lon="10.868062799561077"><ele>767.6666666666666</ele><time>2026-04-25T14:29:55.999Z</time></trkpt><trkpt lat="46.3280193805948" lon="10.867950378445677"><ele>769.3333333333334</ele><time>2026-04-25T14:29:57.999Z</time></trkpt><trkpt lat="46.3280096636498" lon="10.867835232128916"><ele>771.0</ele><time>2026-04-25T14:29:59.999Z</time></trkpt><trkpt lat="46.32799978263839" lon="10.867720996285684"><ele>771.0</ele><time>2026-04-25T14:30:01.999Z</time></trkpt><trkpt lat="46.327992402209524" lon="10.86761256486989"><ele>771.0</ele><time>2026-04-25T14:30:03.999Z</time></trkpt><trkpt lat="46.32798335104667" lon="10.86749882831101"><ele>771.0</ele><time>2026-04-25T14:30:05.999Z</time></trkpt><trkpt lat="46.32797442854732" lon="10.867390103765057"><ele>771.0</ele><time>2026-04-25T14:30:07.999Z</time></trkpt><trkpt lat="46.327959699678935" lon="10.867284473443643"><ele>771.0</ele><time>2026-04-25T14:30:09.999Z</time></trkpt><trkpt lat="46.32793662985878" lon="10.867177431804814"><ele>771.0</ele><time>2026-04-25T14:30:11.999Z</time></trkpt><trkpt lat="46.32790749473713" lon="10.867077047819176"><ele>771.5714285714286</ele><time>2026-04-25T14:30:13.999Z</time></trkpt><trkpt lat="46.327874141001665" lon="10.866981795084648"><ele>772.1428571428571</ele><time>2026-04-25T14:30:15.999Z</time></trkpt><trkpt lat="46.32785044043894" lon="10.866878312334542"><ele>772.7142857142857</ele><time>2026-04-25T14:30:17.999Z</time></trkpt><trkpt lat="46.327834326240115" lon="10.866774662125811"><ele>773.2857142857142</ele><time>2026-04-25T14:30:19.999Z</time></trkpt><trkpt lat="46.327827239261296" lon="10.866668495357487"><ele>773.8571428571429</ele><time>2026-04-25T14:30:21.999Z</time></trkpt><trkpt lat="46.32782050358591" lon="10.866562136420534"><ele>774.4285714285713</ele><time>2026-04-25T14:30:23.999Z</time></trkpt><trkpt lat="46.32781860109363" lon="10.866462571831056"><ele>775.0</ele><time>2026-04-25T14:30:25.999Z</time></trkpt><trkpt lat="46.327811387528016" lon="10.866358473737789"><ele>775.5714285714286</ele><time>2026-04-25T14:30:27.999Z</time></trkpt><trkpt lat="46.327809200676086" lon="10.866258936679278"><ele>776.1428571428571</ele><time>2026-04-25T14:30:29.999Z</time></trkpt><trkpt lat="46.32780195222135" lon="10.866153483704847"><ele>776.7142857142858</ele><time>2026-04-25T14:30:31.999Z</time></trkpt><trkpt lat="46.32779629755492" lon="10.866049474791968"><ele>777.2857142857142</ele><time>2026-04-25T14:30:33.999Z</time></trkpt><trkpt lat="46.32779157600223" lon="10.865942035692909"><ele>777.8571428571429</ele><time>2026-04-25T14:30:35.999Z</time></trkpt><trkpt lat="46.327793990688434" lon="10.865832567474676"><ele>778.4285714285714</ele><time>2026-04-25T14:30:37.999Z</time></trkpt><trkpt lat="46.32778817848627" lon="10.8657239108043"><ele>779.0</ele><time>2026-04-25T14:30:39.999Z</time></trkpt><trkpt lat="46.32778699049645" lon="10.865613040398882"><ele>779.1666666666667</ele><time>2026-04-25T14:30:41.999Z</time></trkpt><trkpt lat="46.32779180216585" lon="10.865501038143062"><ele>779.3333333333334</ele><time>2026-04-25T14:30:43.999Z</time></trkpt><trkpt lat="46.32778741201216" lon="10.865396445402352"><ele>779.5</ele><time>2026-04-25T14:30:45.999Z</time></trkpt><trkpt lat="46.32778869589412" lon="10.865280731592652"><ele>779.6666666666667</ele><time>2026-04-25T14:30:47.999Z</time></trkpt><trkpt lat="46.327796650218936" lon="10.86516249253808"><ele>779.8333333333334</ele><time>2026-04-25T14:30:49.999Z</time></trkpt><trkpt lat="46.327802512462654" lon="10.865044538309675"><ele>780.0</ele><time>2026-04-25T14:30:51.999Z</time></trkpt><trkpt lat="46.327812675309424" lon="10.86492002092632"><ele>780.0</ele><time>2026-04-25T14:30:53.999Z</time></trkpt><trkpt lat="46.32783098894115" lon="10.864796283670398"><ele>780.0</ele><time>2026-04-25T14:30:55.999Z</time></trkpt><trkpt lat="46.32784281787478" lon="10.864679185489658"><ele>780.0</ele><time>2026-04-25T14:30:57.999Z</time></trkpt><trkpt lat="46.32784340163821" lon="10.864556293202044"><ele>780.0</ele><time>2026-04-25T14:30:59.999Z</time></trkpt><trkpt lat="46.327837875701064" lon="10.86444455304037"><ele>780.0</ele><time>2026-04-25T14:31:01.999Z</time></trkpt><trkpt lat="46.32783708386229" lon="10.864322676472806"><ele>780.0</ele><time>2026-04-25T14:31:03.999Z</time></trkpt><trkpt lat="46.32784443130537" lon="10.864205054092244"><ele>779.5</ele><time>2026-04-25T14:31:05.999Z</time></trkpt><trkpt lat="46.327814088945885" lon="10.86408492594743"><ele>779.0</ele><time>2026-04-25T14:31:07.999Z</time></trkpt><trkpt lat="46.327750263731744" lon="10.864007880254386"><ele>778.5</ele><time>2026-04-25T14:31:09.999Z</time></trkpt><trkpt lat="46.32768792779995" lon="10.863933713001554"><ele>778.0</ele><time>2026-04-25T14:31:11.999Z</time></trkpt><trkpt lat="46.327623156805075" lon="10.86387753926071"><ele>777.5</ele><time>2026-04-25T14:31:13.999Z</time></trkpt><trkpt lat="46.32756436215928" lon="10.863817807127264"><ele>777.0</ele><time>2026-04-25T14:31:16Z</time></trkpt><trkpt lat="46.32751114758282" lon="10.863756909389721"><ele>777.0</ele><time>2026-04-25T14:31:18Z</time></trkpt><trkpt lat="46.327459586397964" lon="10.863700665557873"><ele>777.0</ele><time>2026-04-25T14:31:20Z</time></trkpt><trkpt lat="46.327405649885705" lon="10.8636504756245"><ele>777.0</ele><time>2026-04-25T14:31:22Z</time></trkpt><trkpt lat="46.3273326671239" lon="10.863576689344674"><ele>777.0</ele><time>2026-04-25T14:31:25Z</time></trkpt><trkpt lat="46.327259162759226" lon="10.863491767981715"><ele>777.0</ele><time>2026-04-25T14:31:28Z</time></trkpt><trkpt lat="46.32718818202267" lon="10.863402221601165"><ele>777.0</ele><time>2026-04-25T14:31:31Z</time></trkpt><trkpt lat="46.32712613986015" lon="10.86330995644842"><ele>778.3333333333334</ele><time>2026-04-25T14:31:34Z</time></trkpt><trkpt lat="46.32707194234576" lon="10.863210560652163"><ele>779.6666666666667</ele><time>2026-04-25T14:31:37Z</time></trkpt><trkpt lat="46.327035386858" lon="10.863135786248808"><ele>781.0</ele><time>2026-04-25T14:31:39Z</time></trkpt><trkpt lat="46.3270029927553" lon="10.863057284099295"><ele>782.3333333333334</ele><time>2026-04-25T14:31:41Z</time></trkpt><trkpt lat="46.326957744702" lon="10.862939887369524"><ele>783.6666666666667</ele><time>2026-04-25T14:31:44Z</time></trkpt><trkpt lat="46.32691979006199" lon="10.862830072777921"><ele>785.0</ele><time>2026-04-25T14:31:47Z</time></trkpt><trkpt lat="46.326883580141356" lon="10.86272421729196"><ele>785.5000000000001</ele><time>2026-04-25T14:31:50Z</time></trkpt><trkpt lat="46.3268540236828" lon="10.862611590085491"><ele>786.0</ele><time>2026-04-25T14:31:53Z</time></trkpt><trkpt lat="46.326821088157764" lon="10.862492082909323"><ele>786.5</ele><time>2026-04-25T14:31:56Z</time></trkpt><trkpt lat="46.326805585543376" lon="10.862361160413068"><ele>787.0</ele><time>2026-04-25T14:31:58.999Z</time></trkpt><trkpt lat="46.3267928917742" lon="10.862259842907392"><ele>787.5000000000001</ele><time>2026-04-25T14:32:00.999Z</time></trkpt><trkpt lat="46.326780997346994" lon="10.862166073552595"><ele>788.0</ele><time>2026-04-25T14:32:02.999Z</time></trkpt><trkpt lat="46.326767338139604" lon="10.862073353478348"><ele>788.0</ele><time>2026-04-25T14:32:04.999Z</time></trkpt><trkpt lat="46.32674609980254" lon="10.86198241626976"><ele>788.0</ele><time>2026-04-25T14:32:06.999Z</time></trkpt><trkpt lat="46.326716898318914" lon="10.86188860589409"><ele>788.0</ele><time>2026-04-25T14:32:08.999Z</time></trkpt><trkpt lat="46.32668162489388" lon="10.861799120396059"><ele>788.0</ele><time>2026-04-25T14:32:10.999Z</time></trkpt><trkpt lat="46.326636364121114" lon="10.861722391621376"><ele>788.0</ele><time>2026-04-25T14:32:12.999Z</time></trkpt><trkpt lat="46.32659499992891" lon="10.861652692466443"><ele>788.0</ele><time>2026-04-25T14:32:14.999Z</time></trkpt><trkpt lat="46.326536211608236" lon="10.861565129131277"><ele>788.0</ele><time>2026-04-25T14:32:17.999Z</time></trkpt><trkpt lat="46.32648341402293" lon="10.86148914900938"><ele>788.0000000000001</ele><time>2026-04-25T14:32:20.999Z</time></trkpt><trkpt lat="46.326427414057314" lon="10.861380215976093"><ele>788.0</ele><time>2026-04-25T14:32:23.999Z</time></trkpt><trkpt lat="46.32638504766543" lon="10.861312234197966"><ele>788.0</ele><time>2026-04-25T14:32:25.999Z</time></trkpt><trkpt lat="46.32632266666529" lon="10.861225417571339"><ele>788.0</ele><time>2026-04-25T14:32:28.999Z</time></trkpt><trkpt lat="46.32625676078193" lon="10.86115811827168"><ele>788.0000000000001</ele><time>2026-04-25T14:32:31.999Z</time></trkpt><trkpt lat="46.32618183155069" lon="10.861118098772216"><ele>788.0</ele><time>2026-04-25T14:32:34.999Z</time></trkpt><trkpt lat="46.32608731683378" lon="10.861156501151223"><ele>788.0000000000001</ele><time>2026-04-25T14:32:37.999Z</time></trkpt><trkpt lat="46.326023196717436" lon="10.86121963320163"><ele>788.0</ele><time>2026-04-25T14:32:39.999Z</time></trkpt><trkpt lat="46.32596378105137" lon="10.861293207588433"><ele>788.0</ele><time>2026-04-25T14:32:41.999Z</time></trkpt><trkpt lat="46.325924247082256" lon="10.861394407283811"><ele>788.0</ele><time>2026-04-25T14:32:44.999Z</time></trkpt><trkpt lat="46.32595774624709" lon="10.86150420813524"><ele>788.0000000000001</ele><time>2026-04-25T14:32:47.999Z</time></trkpt><trkpt lat="46.32603644435953" lon="10.86153276822892"><ele>788.0</ele><time>2026-04-25T14:32:50.999Z</time></trkpt><trkpt lat="46.32603705549377" lon="10.861630662811276"><ele>788.0</ele><time>2026-04-25T14:32:53.999Z</time></trkpt><trkpt lat="46.32595985145405" lon="10.861594234207725"><ele>788.0</ele><time>2026-04-25T14:32:56.999Z</time></trkpt><trkpt lat="46.32592067039834" lon="10.86151838688862"><ele>788.0</ele><time>2026-04-25T14:32:59.999Z</time></trkpt><trkpt lat="46.32586249436413" lon="10.861476897219235"><ele>788.0</ele><time>2026-04-25T14:33:02.999Z</time></trkpt><trkpt lat="46.32579088145428" lon="10.861502178010408"><ele>788.0</ele><time>2026-04-25T14:33:05.999Z</time></trkpt><trkpt lat="46.32572199676015" lon="10.86145376892501"><ele>788.0</ele><time>2026-04-25T14:33:08.999Z</time></trkpt><trkpt lat="46.32567062837453" lon="10.861391994431322"><ele>788.0</ele><time>2026-04-25T14:33:10.999Z</time></trkpt><trkpt lat="46.325611785442184" lon="10.861324372109499"><ele>787.8333333333334</ele><time>2026-04-25T14:33:12.999Z</time></trkpt><trkpt lat="46.32553789807174" lon="10.861232711471397"><ele>787.6666666666667</ele><time>2026-04-25T14:33:14.999Z</time></trkpt><trkpt lat="46.325484510138786" lon="10.86114022062091"><ele>787.5</ele><time>2026-04-25T14:33:16.999Z</time></trkpt><trkpt lat="46.32541955272106" lon="10.861053496525159"><ele>787.3333333333333</ele><time>2026-04-25T14:33:18.999Z</time></trkpt><trkpt lat="46.32536059460478" lon="10.860981751775899"><ele>787.1666666666666</ele><time>2026-04-25T14:33:21Z</time></trkpt><trkpt lat="46.32528333379786" lon="10.860911803897912"><ele>787.0</ele><time>2026-04-25T14:33:23Z</time></trkpt><trkpt lat="46.32522100451055" lon="10.860877264226138"><ele>786.9999999999999</ele><time>2026-04-25T14:33:24Z</time></trkpt><trkpt lat="46.32514678499817" lon="10.860865176282271"><ele>787.0</ele><time>2026-04-25T14:33:25Z</time></trkpt><trkpt lat="46.325078174316836" lon="10.860888069655426"><ele>787.0</ele><time>2026-04-25T14:33:26Z</time></trkpt><trkpt lat="46.32500046420857" lon="10.860936684142652"><ele>787.0</ele><time>2026-04-25T14:33:27Z</time></trkpt><trkpt lat="46.324941291439266" lon="10.861000039019538"><ele>786.9999999999999</ele><time>2026-04-25T14:33:28Z</time></trkpt><trkpt lat="46.32493808388347" lon="10.861101431207643"><ele>787.0</ele><time>2026-04-25T14:33:30Z</time></trkpt><trkpt lat="46.324987697369465" lon="10.861212895158788"><ele>786.9999999999999</ele><time>2026-04-25T14:33:32Z</time></trkpt><trkpt lat="46.32504070216893" lon="10.861311151895869"><ele>787.0</ele><time>2026-04-25T14:33:34Z</time></trkpt><trkpt lat="46.32509093802983" lon="10.861400923203018"><ele>787.0</ele><time>2026-04-25T14:33:36Z</time></trkpt><trkpt lat="46.325139364325196" lon="10.861485959991992"><ele>787.0</ele><time>2026-04-25T14:33:38Z</time></trkpt><trkpt lat="46.3251808751347" lon="10.861571387448613"><ele>786.9999999999999</ele><time>2026-04-25T14:33:40Z</time></trkpt><trkpt lat="46.32521251778552" lon="10.86165817508434"><ele>787.0</ele><time>2026-04-25T14:33:42Z</time></trkpt><trkpt lat="46.32519093310717" lon="10.861759102067545"><ele>787.0</ele><time>2026-04-25T14:33:44Z</time></trkpt><trkpt lat="46.32514203790402" lon="10.861829797042216"><ele>787.0</ele><time>2026-04-25T14:33:46Z</time></trkpt><trkpt lat="46.32510012833042" lon="10.861907984060059"><ele>787.0</ele><time>2026-04-25T14:33:48Z</time></trkpt><trkpt lat="46.32504804460293" lon="10.86197281947588"><ele>787.0</ele><time>2026-04-25T14:33:50Z</time></trkpt><trkpt lat="46.32497996519773" lon="10.861989597683316"><ele>787.0</ele><time>2026-04-25T14:33:52Z</time></trkpt><trkpt lat="46.3249191875088" lon="10.861919510376447"><ele>787.0</ele><time>2026-04-25T14:33:54Z</time></trkpt><trkpt lat="46.324869658887074" lon="10.861840637427232"><ele>787.0</ele><time>2026-04-25T14:33:56Z</time></trkpt><trkpt lat="46.324815358189134" lon="10.861774134600825"><ele>786.9999999999999</ele><time>2026-04-25T14:33:58Z</time></trkpt><trkpt lat="46.32475501179232" lon="10.861744178283464"><ele>787.0</ele><time>2026-04-25T14:34:00Z</time></trkpt><trkpt lat="46.32467957105614" lon="10.861751387442691"><ele>787.0</ele><time>2026-04-25T14:34:02Z</time></trkpt><trkpt lat="46.32458409071372" lon="10.861708012426893"><ele>787.0</ele><time>2026-04-25T14:34:04Z</time></trkpt><trkpt lat="46.32450477775515" lon="10.86165309230886"><ele>786.9999999999999</ele><time>2026-04-25T14:34:06Z</time></trkpt><trkpt lat="46.32442297845508" lon="10.861598460517165"><ele>787.0</ele><time>2026-04-25T14:34:08Z</time></trkpt><trkpt lat="46.324324521239106" lon="10.861538456405405"><ele>787.0</ele><time>2026-04-25T14:34:10Z</time></trkpt><trkpt lat="46.32421810171476" lon="10.86147984253571"><ele>787.0</ele><time>2026-04-25T14:34:12Z</time></trkpt><trkpt lat="46.32410555231284" lon="10.86141861783443"><ele>787.0</ele><time>2026-04-25T14:34:13.999Z</time></trkpt><trkpt lat="46.32398405809594" lon="10.861369067680853"><ele>787.0</ele><time>2026-04-25T14:34:15.999Z</time></trkpt><trkpt lat="46.32392091731046" lon="10.861345881967882"><ele>787.0</ele><time>2026-04-25T14:34:16.999Z</time></trkpt><trkpt lat="46.323856803831056" lon="10.861325125156446"><ele>789.4999999999999</ele><time>2026-04-25T14:34:17.999Z</time></trkpt><trkpt lat="46.32379071559578" lon="10.861308580520951"><ele>792.0</ele><time>2026-04-25T14:34:18.999Z</time></trkpt><trkpt lat="46.32372469081574" lon="10.86129094465084"><ele>794.5</ele><time>2026-04-25T14:34:19.999Z</time></trkpt><trkpt lat="46.32365969366359" lon="10.861275380567053"><ele>797.0</ele><time>2026-04-25T14:34:20.999Z</time></trkpt><trkpt lat="46.32359618157725" lon="10.861256425042898"><ele>799.4999999999999</ele><time>2026-04-25T14:34:21.999Z</time></trkpt><trkpt lat="46.32347433275251" lon="10.861215956270657"><ele>802.0</ele><time>2026-04-25T14:34:23.999Z</time></trkpt><trkpt lat="46.32335864434282" lon="10.861165306417988"><ele>802.0</ele><time>2026-04-25T14:34:25.999Z</time></trkpt><trkpt lat="46.323249048001" lon="10.861117708080489"><ele>802.0</ele><time>2026-04-25T14:34:27.999Z</time></trkpt><trkpt lat="46.32314803026472" lon="10.861068408158253"><ele>802.0</ele><time>2026-04-25T14:34:29.999Z</time></trkpt><trkpt lat="46.32303505256433" lon="10.861029731553401"><ele>802.0</ele><time>2026-04-25T14:34:31.999Z</time></trkpt><trkpt lat="46.322927280487455" lon="10.860984850784948"><ele>802.0</ele><time>2026-04-25T14:34:33.999Z</time></trkpt><trkpt lat="46.32282233523774" lon="10.860938056617163"><ele>799.6</ele><time>2026-04-25T14:34:35.999Z</time></trkpt><trkpt lat="46.32272262911687" lon="10.860896396565343"><ele>797.2</ele><time>2026-04-25T14:34:37.999Z</time></trkpt><trkpt lat="46.32262678911129" lon="10.860854375796801"><ele>794.8</ele><time>2026-04-25T14:34:39.999Z</time></trkpt><trkpt lat="46.322534479406926" lon="10.86081283624822"><ele>792.4</ele><time>2026-04-25T14:34:41.999Z</time></trkpt><trkpt lat="46.322443638766785" lon="10.860764133485395"><ele>790.0</ele><time>2026-04-25T14:34:43.999Z</time></trkpt><trkpt lat="46.32236385021893" lon="10.860695212916033"><ele>790.0</ele><time>2026-04-25T14:34:45.999Z</time></trkpt><trkpt lat="46.32228153901934" lon="10.86064245155248"><ele>790.0</ele><time>2026-04-25T14:34:47.999Z</time></trkpt><trkpt lat="46.32220563044449" lon="10.860569253475584"><ele>790.0</ele><time>2026-04-25T14:34:49.999Z</time></trkpt><trkpt lat="46.32214767138023" lon="10.860459658389875"><ele>790.0</ele><time>2026-04-25T14:34:51.999Z</time></trkpt><trkpt lat="46.32208689437859" lon="10.860345935571663"><ele>790.0</ele><time>2026-04-25T14:34:53.999Z</time></trkpt><trkpt lat="46.32202456309505" lon="10.860228498543659"><ele>794.0</ele><time>2026-04-25T14:34:55.999Z</time></trkpt><trkpt lat="46.32195710160126" lon="10.860099016874685"><ele>798.0</ele><time>2026-04-25T14:34:57.999Z</time></trkpt><trkpt lat="46.32189079080309" lon="10.859963373603986"><ele>802.0</ele><time>2026-04-25T14:34:59.999Z</time></trkpt><trkpt lat="46.32182100452661" lon="10.859839283373377"><ele>806.0</ele><time>2026-04-25T14:35:01.999Z</time></trkpt><trkpt lat="46.321774419567994" lon="10.859706836604113"><ele>810.0</ele><time>2026-04-25T14:35:03.999Z</time></trkpt><trkpt lat="46.321736106441726" lon="10.859578211343313"><ele>810.0</ele><time>2026-04-25T14:35:05.999Z</time></trkpt><trkpt lat="46.321706098495774" lon="10.859434384242135"><ele>810.0</ele><time>2026-04-25T14:35:07.999Z</time></trkpt><trkpt lat="46.3216708408398" lon="10.859276630699739"><ele>810.0</ele><time>2026-04-25T14:35:09.999Z</time></trkpt><trkpt lat="46.32165468813177" lon="10.859107607489522"><ele>810.0</ele><time>2026-04-25T14:35:11.999Z</time></trkpt><trkpt lat="46.32163371865445" lon="10.858937685591984"><ele>806.5</ele><time>2026-04-25T14:35:13.999Z</time></trkpt><trkpt lat="46.32160660358898" lon="10.858778579362859"><ele>803.0</ele><time>2026-04-25T14:35:15.999Z</time></trkpt><trkpt lat="46.321566738613846" lon="10.858619689269828"><ele>799.5</ele><time>2026-04-25T14:35:17.999Z</time></trkpt><trkpt lat="46.32151233186075" lon="10.858468549840639"><ele>796.0</ele><time>2026-04-25T14:35:19.999Z</time></trkpt><trkpt lat="46.321444699047" lon="10.858322572636274"><ele>805.0</ele><time>2026-04-25T14:35:21.999Z</time></trkpt><trkpt lat="46.32137501752992" lon="10.858190029933315"><ele>814.0</ele><time>2026-04-25T14:35:23.999Z</time></trkpt><trkpt lat="46.32130094214683" lon="10.858068999229538"><ele>823.0</ele><time>2026-04-25T14:35:25.999Z</time></trkpt><trkpt lat="46.32123480812649" lon="10.857945150167783"><ele>832.0</ele><time>2026-04-25T14:35:28Z</time></trkpt><trkpt lat="46.32117749859419" lon="10.857812137236373"><ele>841.0</ele><time>2026-04-25T14:35:30Z</time></trkpt><trkpt lat="46.32113814307943" lon="10.857689846438584"><ele>837.1999999999999</ele><time>2026-04-25T14:35:32Z</time></trkpt><trkpt lat="46.32111628880108" lon="10.857604238682825"><ele>833.4</ele><time>2026-04-25T14:35:46Z</time></trkpt><trkpt lat="46.32110231429984" lon="10.857457859588102"><ele>829.6</ele><time>2026-04-25T14:35:49Z</time></trkpt><trkpt lat="46.3210887038659" lon="10.857311846062563"><ele>825.8</ele><time>2026-04-25T14:35:51Z</time></trkpt><trkpt lat="46.321070207837124" lon="10.857178597642884"><ele>822.0</ele><time>2026-04-25T14:35:53Z</time></trkpt><trkpt lat="46.321065054028786" lon="10.857039634873496"><ele>822.0</ele><time>2026-04-25T14:35:55Z</time></trkpt><trkpt lat="46.321049880457394" lon="10.856882828037405"><ele>822.0</ele><time>2026-04-25T14:35:57Z</time></trkpt><trkpt lat="46.32103457117948" lon="10.856721164519328"><ele>822.0</ele><time>2026-04-25T14:35:59Z</time></trkpt><trkpt lat="46.32102148094393" lon="10.856565550064788"><ele>822.0</ele><time>2026-04-25T14:36:01Z</time></trkpt><trkpt lat="46.32101515446307" lon="10.856416434341904"><ele>822.0</ele><time>2026-04-25T14:36:03Z</time></trkpt><trkpt lat="46.321008691301294" lon="10.856270941679961"><ele>818.4000000000001</ele><time>2026-04-25T14:36:05Z</time></trkpt><trkpt lat="46.321015350126885" lon="10.856118753735647"><ele>814.8000000000001</ele><time>2026-04-25T14:36:07Z</time></trkpt><trkpt lat="46.32103606894608" lon="10.855967226165395"><ele>811.2</ele><time>2026-04-25T14:36:09Z</time></trkpt><trkpt lat="46.32104455336806" lon="10.855819891259037"><ele>807.6</ele><time>2026-04-25T14:36:11Z</time></trkpt><trkpt lat="46.32104979803443" lon="10.855681266190622"><ele>804.0</ele><time>2026-04-25T14:36:13Z</time></trkpt><trkpt lat="46.321047861365045" lon="10.855550634500478"><ele>802.5</ele><time>2026-04-25T14:36:15Z</time></trkpt><trkpt lat="46.32104610069091" lon="10.85542628217365"><ele>801.0</ele><time>2026-04-25T14:36:17Z</time></trkpt><trkpt lat="46.32104119488594" lon="10.855307382860977"><ele>799.5</ele><time>2026-04-25T14:36:19Z</time></trkpt><trkpt lat="46.32103513744353" lon="10.855190875638657"><ele>798.0</ele><time>2026-04-25T14:36:21Z</time></trkpt><trkpt lat="46.321034639432746" lon="10.85508220282585"><ele>796.5</ele><time>2026-04-25T14:36:23Z</time></trkpt><trkpt lat="46.321037445118606" lon="10.854973551375794"><ele>795.0</ele><time>2026-04-25T14:36:25Z</time></trkpt><trkpt lat="46.32104043459934" lon="10.854880777303713"><ele>795.0</ele><time>2026-04-25T14:36:27Z</time></trkpt><trkpt lat="46.321038934378436" lon="10.854746468241489"><ele>795.0</ele><time>2026-04-25T14:36:30Z</time></trkpt><trkpt lat="46.321023784401845" lon="10.854623286339407"><ele>795.0</ele><time>2026-04-25T14:36:33Z</time></trkpt><trkpt lat="46.321128145101056" lon="10.854512739837629"><ele>795.0</ele><time>2026-04-25T14:36:35Z</time></trkpt><trkpt lat="46.32114923520503" lon="10.854381331375063"><ele>795.0</ele><time>2026-04-25T14:36:36.999Z</time></trkpt><trkpt lat="46.32119326851832" lon="10.854280504187416"><ele>795.0</ele><time>2026-04-25T14:36:38.999Z</time></trkpt><trkpt lat="46.32127546310163" lon="10.8542158727535"><ele>795.0</ele><time>2026-04-25T14:36:40.999Z</time></trkpt><trkpt lat="46.32134040572674" lon="10.854113953362011"><ele>795.0</ele><time>2026-04-25T14:36:42.999Z</time></trkpt><trkpt lat="46.32138543128377" lon="10.853987859293131"><ele>795.0</ele><time>2026-04-25T14:36:44.999Z</time></trkpt><trkpt lat="46.32143237946219" lon="10.853859673581278"><ele>795.0</ele><time>2026-04-25T14:36:46.999Z</time></trkpt><trkpt lat="46.32147688324928" lon="10.853742765650331"><ele>794.3333333333334</ele><time>2026-04-25T14:36:48.999Z</time></trkpt><trkpt lat="46.321558881137676" lon="10.853678674796729"><ele>793.6666666666667</ele><time>2026-04-25T14:36:50.999Z</time></trkpt><trkpt lat="46.321647315526484" lon="10.853682509519201"><ele>793.0</ele><time>2026-04-25T14:36:52.999Z</time></trkpt><trkpt lat="46.32173311584031" lon="10.853689912826589"><ele>792.3333333333334</ele><time>2026-04-25T14:36:54.999Z</time></trkpt><trkpt lat="46.321825766287674" lon="10.853692896035227"><ele>791.6666666666667</ele><time>2026-04-25T14:36:56.999Z</time></trkpt><trkpt lat="46.321905780705144" lon="10.853693883602045"><ele>791.0</ele><time>2026-04-25T14:36:58.999Z</time></trkpt><trkpt lat="46.32190568884832" lon="10.85353416624376"><ele>791.5999999999999</ele><time>2026-04-25T14:37:01.999Z</time></trkpt><trkpt lat="46.32190489614038" lon="10.85338572887355"><ele>792.2</ele><time>2026-04-25T14:37:03.999Z</time></trkpt><trkpt lat="46.321915020728184" lon="10.853237650773487"><ele>792.8</ele><time>2026-04-25T14:37:05.999Z</time></trkpt><trkpt lat="46.32192728003915" lon="10.853099721593075"><ele>793.4000000000001</ele><time>2026-04-25T14:37:07.999Z</time></trkpt><trkpt lat="46.321937061358234" lon="10.852962645265423"><ele>794.0</ele><time>2026-04-25T14:37:09.999Z</time></trkpt><trkpt lat="46.321946473259786" lon="10.852817215790157"><ele>794.0</ele><time>2026-04-25T14:37:11.999Z</time></trkpt><trkpt lat="46.321961598399184" lon="10.85266808491588"><ele>794.0</ele><time>2026-04-25T14:37:13.999Z</time></trkpt><trkpt lat="46.32198620545895" lon="10.852515365968555"><ele>794.0</ele><time>2026-04-25T14:37:15.999Z</time></trkpt><trkpt lat="46.3220171341762" lon="10.852358500525474"><ele>794.0</ele><time>2026-04-25T14:37:17.999Z</time></trkpt><trkpt lat="46.32205514272719" lon="10.852201683015517"><ele>794.0</ele><time>2026-04-25T14:37:19.999Z</time></trkpt><trkpt lat="46.322093013146294" lon="10.852041954827184"><ele>794.5</ele><time>2026-04-25T14:37:21.999Z</time></trkpt><trkpt lat="46.322147332931216" lon="10.851893152796007"><ele>795.0</ele><time>2026-04-25T14:37:23.999Z</time></trkpt><trkpt lat="46.32220863340514" lon="10.851751412042752"><ele>795.5</ele><time>2026-04-25T14:37:25.999Z</time></trkpt><trkpt lat="46.3222776575909" lon="10.851626321458479"><ele>796.0</ele><time>2026-04-25T14:37:27.999Z</time></trkpt><trkpt lat="46.322349202359526" lon="10.851498550284742"><ele>794.5</ele><time>2026-04-25T14:37:29.999Z</time></trkpt><trkpt lat="46.32242206591019" lon="10.851374077488574"><ele>793.0</ele><time>2026-04-25T14:37:31.999Z</time></trkpt><trkpt lat="46.322493594765376" lon="10.851237430529544"><ele>791.5</ele><time>2026-04-25T14:37:34Z</time></trkpt><trkpt lat="46.32256366577138" lon="10.851096245096716"><ele>790.0</ele><time>2026-04-25T14:37:36Z</time></trkpt><trkpt lat="46.32262252507074" lon="10.850943190419175"><ele>790.0</ele><time>2026-04-25T14:37:38Z</time></trkpt><trkpt lat="46.322668612785996" lon="10.850783695158006"><ele>790.0</ele><time>2026-04-25T14:37:40Z</time></trkpt><trkpt lat="46.32270396433225" lon="10.85062967743744"><ele>790.0</ele><time>2026-04-25T14:37:42Z</time></trkpt><trkpt lat="46.322732130212714" lon="10.850480606355951"><ele>790.0</ele><time>2026-04-25T14:37:44Z</time></trkpt><trkpt lat="46.32275761437115" lon="10.850325225055379"><ele>790.0</ele><time>2026-04-25T14:37:46Z</time></trkpt><trkpt lat="46.32277207559481" lon="10.850167935692477"><ele>791.5</ele><time>2026-04-25T14:37:48Z</time></trkpt><trkpt lat="46.32278267748424" lon="10.850006231284343"><ele>793.0</ele><time>2026-04-25T14:37:50Z</time></trkpt><trkpt lat="46.322785477407045" lon="10.849840014516031"><ele>794.5</ele><time>2026-04-25T14:37:52Z</time></trkpt><trkpt lat="46.322774843161284" lon="10.849678800255669"><ele>796.0</ele><time>2026-04-25T14:37:54Z</time></trkpt><trkpt lat="46.32275294433941" lon="10.84951898788535"><ele>796.0</ele><time>2026-04-25T14:37:56Z</time></trkpt><trkpt lat="46.32273253360294" lon="10.849360985038881"><ele>796.0</ele><time>2026-04-25T14:37:58Z</time></trkpt><trkpt lat="46.32271007554086" lon="10.849205535644938"><ele>796.0</ele><time>2026-04-25T14:38:00Z</time></trkpt><trkpt lat="46.3226860342333" lon="10.849055450767443"><ele>796.0</ele><time>2026-04-25T14:38:02Z</time></trkpt><trkpt lat="46.322657484342095" lon="10.848905206402529"><ele>796.0</ele><time>2026-04-25T14:38:04Z</time></trkpt><trkpt lat="46.32262173470652" lon="10.848756790872876"><ele>796.0</ele><time>2026-04-25T14:38:06Z</time></trkpt><trkpt lat="46.322583769256944" lon="10.848602793960065"><ele>796.0</ele><time>2026-04-25T14:38:08Z</time></trkpt><trkpt lat="46.322541573753796" lon="10.848446350701801"><ele>796.0</ele><time>2026-04-25T14:38:10Z</time></trkpt><trkpt lat="46.322493652775364" lon="10.848310238602917"><ele>796.0</ele><time>2026-04-25T14:38:12Z</time></trkpt><trkpt lat="46.322440385768886" lon="10.848183247691809"><ele>796.0</ele><time>2026-04-25T14:38:14Z</time></trkpt><trkpt lat="46.3223830633275" lon="10.848049530922117"><ele>795.25</ele><time>2026-04-25T14:38:16Z</time></trkpt><trkpt lat="46.322325517375205" lon="10.847913954807442"><ele>794.5</ele><time>2026-04-25T14:38:18Z</time></trkpt><trkpt lat="46.32225784416452" lon="10.847774494876694"><ele>793.75</ele><time>2026-04-25T14:38:20Z</time></trkpt><trkpt lat="46.32219208377976" lon="10.8476363822243"><ele>793.0</ele><time>2026-04-25T14:38:22Z</time></trkpt><trkpt lat="46.32212414088037" lon="10.847494976936169"><ele>794.5</ele><time>2026-04-25T14:38:24Z</time></trkpt><trkpt lat="46.3220590726255" lon="10.847358724143367"><ele>796.0</ele><time>2026-04-25T14:38:26Z</time></trkpt><trkpt lat="46.32199325469318" lon="10.847227251660751"><ele>797.5</ele><time>2026-04-25T14:38:28Z</time></trkpt><trkpt lat="46.321926710448906" lon="10.847093281590075"><ele>799.0</ele><time>2026-04-25T14:38:30Z</time></trkpt><trkpt lat="46.321862669551564" lon="10.84696157649399"><ele>799.0</ele><time>2026-04-25T14:38:32Z</time></trkpt><trkpt lat="46.32180360836843" lon="10.846837000476121"><ele>799.0</ele><time>2026-04-25T14:38:34Z</time></trkpt><trkpt lat="46.32174531088064" lon="10.846718947192446"><ele>799.0</ele><time>2026-04-25T14:38:36Z</time></trkpt><trkpt lat="46.32168523973909" lon="10.846601914394247"><ele>799.0</ele><time>2026-04-25T14:38:38Z</time></trkpt><trkpt lat="46.32162785084675" lon="10.846483353025379"><ele>799.0</ele><time>2026-04-25T14:38:40Z</time></trkpt><trkpt lat="46.32157556056071" lon="10.846360301597759"><ele>798.4000000000001</ele><time>2026-04-25T14:38:42Z</time></trkpt><trkpt lat="46.321517427532065" lon="10.846234764322142"><ele>797.8</ele><time>2026-04-25T14:38:44Z</time></trkpt><trkpt lat="46.32145535912985" lon="10.846115967009823"><ele>797.2</ele><time>2026-04-25T14:38:46Z</time></trkpt><trkpt lat="46.32139909349888" lon="10.845998393103699"><ele>796.5999999999999</ele><time>2026-04-25T14:38:47.999Z</time></trkpt><trkpt lat="46.32134297253137" lon="10.845881690042628"><ele>796.0</ele><time>2026-04-25T14:38:49.999Z</time></trkpt><trkpt lat="46.32128552336636" lon="10.845766413488823"><ele>797.8</ele><time>2026-04-25T14:38:51.999Z</time></trkpt><trkpt lat="46.32123007612217" lon="10.845651337519891"><ele>799.5999999999999</ele><time>2026-04-25T14:38:53.999Z</time></trkpt><trkpt lat="46.32117363955483" lon="10.845534877008065"><ele>801.4</ele><time>2026-04-25T14:38:55.999Z</time></trkpt><trkpt lat="46.321131729505986" lon="10.845409333639228"><ele>803.2</ele><time>2026-04-25T14:38:57.999Z</time></trkpt><trkpt lat="46.321097953138846" lon="10.845265328282327"><ele>805.0</ele><time>2026-04-25T14:38:59.999Z</time></trkpt><trkpt lat="46.32107048307567" lon="10.845131562356949"><ele>803.9999999999999</ele><time>2026-04-25T14:39:01.999Z</time></trkpt><trkpt lat="46.321044543029764" lon="10.845006692870225"><ele>803.0</ele><time>2026-04-25T14:39:03.999Z</time></trkpt><trkpt lat="46.32101666461464" lon="10.844884590695864"><ele>802.0</ele><time>2026-04-25T14:39:05.999Z</time></trkpt><trkpt lat="46.320984931969605" lon="10.844769485466568"><ele>801.0</ele><time>2026-04-25T14:39:07.999Z</time></trkpt><trkpt lat="46.32095763593521" lon="10.844659995682488"><ele>799.9999999999999</ele><time>2026-04-25T14:39:09.999Z</time></trkpt><trkpt lat="46.32092871692312" lon="10.844539562541092"><ele>799.0</ele><time>2026-04-25T14:39:11.999Z</time></trkpt><trkpt lat="46.32089509769615" lon="10.844418603328412"><ele>799.2</ele><time>2026-04-25T14:39:13.999Z</time></trkpt><trkpt lat="46.32085418926312" lon="10.844294249730448"><ele>799.4000000000001</ele><time>2026-04-25T14:39:15.999Z</time></trkpt><trkpt lat="46.320814475043406" lon="10.844170198038976"><ele>799.6</ele><time>2026-04-25T14:39:17.999Z</time></trkpt><trkpt lat="46.32077633156093" lon="10.844038943561591"><ele>799.8</ele><time>2026-04-25T14:39:19.999Z</time></trkpt><trkpt lat="46.320742230329365" lon="10.843899868629991"><ele>800.0</ele><time>2026-04-25T14:39:21.999Z</time></trkpt><trkpt lat="46.32071692050144" lon="10.843753088347567"><ele>800.0</ele><time>2026-04-25T14:39:23.999Z</time></trkpt><trkpt lat="46.32070903565475" lon="10.843612144384728"><ele>800.0</ele><time>2026-04-25T14:39:25.999Z</time></trkpt><trkpt lat="46.32070783811446" lon="10.84348196861616"><ele>800.0</ele><time>2026-04-25T14:39:27.999Z</time></trkpt><trkpt lat="46.320698062732816" lon="10.84335613155985"><ele>800.0</ele><time>2026-04-25T14:39:29.999Z</time></trkpt><trkpt lat="46.32068922726665" lon="10.84322396972841"><ele>800.0</ele><time>2026-04-25T14:39:31.999Z</time></trkpt><trkpt lat="46.320680790205785" lon="10.843083524023326"><ele>800.2</ele><time>2026-04-25T14:39:33.999Z</time></trkpt><trkpt lat="46.32067763457567" lon="10.842942189019022"><ele>800.4</ele><time>2026-04-25T14:39:35.999Z</time></trkpt><trkpt lat="46.32067167900501" lon="10.842801947177861"><ele>800.5999999999999</ele><time>2026-04-25T14:39:37.999Z</time></trkpt><trkpt lat="46.3206801661388" lon="10.842661002060932"><ele>800.8</ele><time>2026-04-25T14:39:40Z</time></trkpt><trkpt lat="46.3206751792123" lon="10.842525557132005"><ele>801.0</ele><time>2026-04-25T14:39:42Z</time></trkpt><trkpt lat="46.32066968224746" lon="10.84239874183193"><ele>801.2857142857142</ele><time>2026-04-25T14:39:44Z</time></trkpt><trkpt lat="46.320664172073556" lon="10.842271621784413"><ele>801.5714285714286</ele><time>2026-04-25T14:39:46Z</time></trkpt><trkpt lat="46.320659388183614" lon="10.842157389843406"><ele>801.8571428571429</ele><time>2026-04-25T14:39:48Z</time></trkpt><trkpt lat="46.3206550102221" lon="10.842049677536192"><ele>802.1428571428571</ele><time>2026-04-25T14:39:50Z</time></trkpt><trkpt lat="46.320651292731924" lon="10.841958215005993"><ele>802.4285714285714</ele><time>2026-04-25T14:39:52Z</time></trkpt><trkpt lat="46.320648306868854" lon="10.841862364424681"><ele>802.7142857142857</ele><time>2026-04-25T14:42:32Z</time></trkpt><trkpt lat="46.320645909257415" lon="10.841767971455685"><ele>803.0</ele><time>2026-04-25T14:42:39Z</time></trkpt><trkpt lat="46.32064524092974" lon="10.84166547790097"><ele>803.1666666666667</ele><time>2026-04-25T14:42:42Z</time></trkpt><trkpt lat="46.32064681899286" lon="10.841573448319494"><ele>803.3333333333334</ele><time>2026-04-25T14:42:45Z</time></trkpt><trkpt lat="46.32064990385694" lon="10.84146041016483"><ele>803.5</ele><time>2026-04-25T14:42:49Z</time></trkpt><trkpt lat="46.32065084093649" lon="10.841324181574892"><ele>803.6666666666667</ele><time>2026-04-25T14:42:53Z</time></trkpt><trkpt lat="46.32065725988572" lon="10.84120490051516"><ele>803.8333333333334</ele><time>2026-04-25T14:42:56Z</time></trkpt><trkpt lat="46.32066977782826" lon="10.841103760033134"><ele>804.0</ele><time>2026-04-25T14:42:59Z</time></trkpt><trkpt lat="46.320657917580895" lon="10.841198156058013"><ele>804.0</ele><time>2026-04-25T14:43:08Z</time></trkpt><trkpt lat="46.320663578913454" lon="10.841071025184972"><ele>804.0</ele><time>2026-04-25T14:43:16.999Z</time></trkpt><trkpt lat="46.320696976025374" lon="10.840974888948207"><ele>804.0</ele><time>2026-04-25T14:43:19.999Z</time></trkpt><trkpt lat="46.32070598738286" lon="10.840857741719573"><ele>804.0</ele><time>2026-04-25T14:43:22.999Z</time></trkpt><trkpt lat="46.320716984150515" lon="10.84073279371392"><ele>804.0</ele><time>2026-04-25T14:43:25.999Z</time></trkpt><trkpt lat="46.320717956732445" lon="10.840637394109857"><ele>804.0</ele><time>2026-04-25T14:43:27.999Z</time></trkpt><trkpt lat="46.32072753683063" lon="10.840521996030771"><ele>804.2857142857142</ele><time>2026-04-25T14:43:29.999Z</time></trkpt><trkpt lat="46.32072496265496" lon="10.840408790590242"><ele>804.5714285714287</ele><time>2026-04-25T14:43:31.999Z</time></trkpt><trkpt lat="46.320717433282" lon="10.840305465853309"><ele>804.8571428571429</ele><time>2026-04-25T14:43:34.999Z</time></trkpt><trkpt lat="46.32071624256458" lon="10.84021314543344"><ele>805.1428571428571</ele><time>2026-04-25T14:43:36.999Z</time></trkpt><trkpt lat="46.32071841303198" lon="10.840121172951433"><ele>805.4285714285713</ele><time>2026-04-25T14:43:37.999Z</time></trkpt><trkpt lat="46.320739296596486" lon="10.840013947528433"><ele>805.7142857142858</ele><time>2026-04-25T14:43:40.999Z</time></trkpt><trkpt lat="46.32073378547876" lon="10.839890255011886"><ele>806.0</ele><time>2026-04-25T14:43:42.999Z</time></trkpt><trkpt lat="46.32072583441959" lon="10.839778651874502"><ele>806.3333333333334</ele><time>2026-04-25T14:43:45.999Z</time></trkpt><trkpt lat="46.32072759328705" lon="10.839643096245862"><ele>806.6666666666667</ele><time>2026-04-25T14:43:48.999Z</time></trkpt><trkpt lat="46.320726473550394" lon="10.839525850282408"><ele>807.0</ele><time>2026-04-25T14:43:51Z</time></trkpt><trkpt lat="46.320726260365795" lon="10.839413315889358"><ele>807.3333333333333</ele><time>2026-04-25T14:43:53Z</time></trkpt><trkpt lat="46.32073369521533" lon="10.839299408785195"><ele>807.6666666666666</ele><time>2026-04-25T14:43:55Z</time></trkpt><trkpt lat="46.32072967766369" lon="10.83919593748105"><ele>808.0</ele><time>2026-04-25T14:43:57Z</time></trkpt><trkpt lat="46.32074075140483" lon="10.839063301786107"><ele>808.0</ele><time>2026-04-25T14:44:00Z</time></trkpt><trkpt lat="46.32075907408746" lon="10.838955277762775"><ele>808.0</ele><time>2026-04-25T14:44:03Z</time></trkpt><trkpt lat="46.320700920454634" lon="10.83891980629698"><ele>808.0</ele><time>2026-04-25T14:44:13Z</time></trkpt><trkpt lat="46.32062997054579" lon="10.838929848126515"><ele>808.0</ele><time>2026-04-25T14:44:18Z</time></trkpt><trkpt lat="46.32056048513866" lon="10.83895038344149"><ele>808.0</ele><time>2026-04-25T14:44:23Z</time></trkpt><trkpt lat="46.320491654126855" lon="10.838960466989489"><ele>808.0</ele><time>2026-04-25T14:44:28Z</time></trkpt><trkpt lat="46.32042823312707" lon="10.838979552542462"><ele>808.0</ele><time>2026-04-25T14:44:33Z</time></trkpt><trkpt lat="46.32037481506377" lon="10.838927053354963"><ele>808.5999999999999</ele><time>2026-04-25T14:44:41Z</time></trkpt><trkpt lat="46.32033897386555" lon="10.838790484633996"><ele>809.1999999999999</ele><time>2026-04-25T14:44:46Z</time></trkpt><trkpt lat="46.32031726324628" lon="10.838649068823011"><ele>809.8</ele><time>2026-04-25T14:44:48Z</time></trkpt><trkpt lat="46.320282512860125" lon="10.838490102011091"><ele>810.4</ele><time>2026-04-25T14:44:50Z</time></trkpt><trkpt lat="46.32025472188016" lon="10.838349749775709"><ele>811.0</ele><time>2026-04-25T14:44:52Z</time></trkpt><trkpt lat="46.32022057491295" lon="10.838211879355171"><ele>811.0</ele><time>2026-04-25T14:44:54Z</time></trkpt><trkpt lat="46.32019145461612" lon="10.83806060091028"><ele>811.0</ele><time>2026-04-25T14:44:56Z</time></trkpt><trkpt lat="46.320156446587674" lon="10.83790779970077"><ele>811.0</ele><time>2026-04-25T14:44:58Z</time></trkpt><trkpt lat="46.32011899747474" lon="10.837760260596983"><ele>811.0</ele><time>2026-04-25T14:45:00Z</time></trkpt><trkpt lat="46.32008535299684" lon="10.837615966830896"><ele>811.0</ele><time>2026-04-25T14:45:02Z</time></trkpt><trkpt lat="46.320052807314966" lon="10.837475001419232"><ele>810.8</ele><time>2026-04-25T14:45:04Z</time></trkpt><trkpt lat="46.3200112655702" lon="10.837335076156327"><ele>810.5999999999999</ele><time>2026-04-25T14:45:06Z</time></trkpt><trkpt lat="46.31997362980951" lon="10.837197704406485"><ele>810.4</ele><time>2026-04-25T14:45:08Z</time></trkpt><trkpt lat="46.31994448294108" lon="10.837052262855623"><ele>810.2</ele><time>2026-04-25T14:45:10Z</time></trkpt><trkpt lat="46.31992524072282" lon="10.836901841478655"><ele>810.0</ele><time>2026-04-25T14:45:12Z</time></trkpt><trkpt lat="46.31989496774222" lon="10.836758553303081"><ele>809.8</ele><time>2026-04-25T14:45:14Z</time></trkpt><trkpt lat="46.31985606280995" lon="10.836600135554512"><ele>809.6</ele><time>2026-04-25T14:45:16Z</time></trkpt><trkpt lat="46.3198192967776" lon="10.836448457138548"><ele>809.4000000000001</ele><time>2026-04-25T14:45:18Z</time></trkpt><trkpt lat="46.31978338152097" lon="10.836301275096623"><ele>809.2</ele><time>2026-04-25T14:45:20Z</time></trkpt><trkpt lat="46.31975304011459" lon="10.836155752426604"><ele>809.0</ele><time>2026-04-25T14:45:22Z</time></trkpt><trkpt lat="46.31971660236824" lon="10.836011720053971"><ele>810.2</ele><time>2026-04-25T14:45:24Z</time></trkpt><trkpt lat="46.319680200582035" lon="10.835866966937258"><ele>811.4000000000001</ele><time>2026-04-25T14:45:26Z</time></trkpt><trkpt lat="46.31964685033814" lon="10.835718845116762"><ele>812.6</ele><time>2026-04-25T14:45:28Z</time></trkpt><trkpt lat="46.31961432263421" lon="10.835570731090078"><ele>813.8</ele><time>2026-04-25T14:45:30Z</time></trkpt><trkpt lat="46.31957911295016" lon="10.835426244448055"><ele>815.0</ele><time>2026-04-25T14:45:32Z</time></trkpt><trkpt lat="46.319549098493866" lon="10.835281629117787"><ele>815.0</ele><time>2026-04-25T14:45:34Z</time></trkpt><trkpt lat="46.31951595628222" lon="10.835144863900917"><ele>815.0</ele><time>2026-04-25T14:45:36Z</time></trkpt><trkpt lat="46.31948247708521" lon="10.834998646007923"><ele>815.0</ele><time>2026-04-25T14:45:37.999Z</time></trkpt><trkpt lat="46.31945295069442" lon="10.834840689857584"><ele>815.0</ele><time>2026-04-25T14:45:39.999Z</time></trkpt><trkpt lat="46.319424163122164" lon="10.834681981656408"><ele>815.0</ele><time>2026-04-25T14:45:41.999Z</time></trkpt><trkpt lat="46.31939133340258" lon="10.834528514412554"><ele>814.8</ele><time>2026-04-25T14:45:43.999Z</time></trkpt><trkpt lat="46.31936405049669" lon="10.834371326213578"><ele>814.6</ele><time>2026-04-25T14:45:45.999Z</time></trkpt><trkpt lat="46.31933280337108" lon="10.834217639711472"><ele>814.4000000000001</ele><time>2026-04-25T14:45:47.999Z</time></trkpt><trkpt lat="46.31930230047494" lon="10.834067541388103"><ele>814.2</ele><time>2026-04-25T14:45:49.999Z</time></trkpt><trkpt lat="46.31927161273564" lon="10.833924160086761"><ele>814.0</ele><time>2026-04-25T14:45:51.999Z</time></trkpt><trkpt lat="46.319243880163114" lon="10.833782542505595"><ele>814.0</ele><time>2026-04-25T14:45:53.999Z</time></trkpt><trkpt lat="46.31921756264344" lon="10.833643575955884"><ele>814.0</ele><time>2026-04-25T14:45:56Z</time></trkpt><trkpt lat="46.31918714552271" lon="10.833502761086889"><ele>814.0</ele><time>2026-04-25T14:45:58Z</time></trkpt><trkpt lat="46.31916279456509" lon="10.833368866269298"><ele>814.0</ele><time>2026-04-25T14:46:00Z</time></trkpt><trkpt lat="46.31913336320263" lon="10.833234307104762"><ele>814.0</ele><time>2026-04-25T14:46:02Z</time></trkpt><trkpt lat="46.31910746611466" lon="10.833098978316185"><ele>814.0</ele><time>2026-04-25T14:46:04Z</time></trkpt><trkpt lat="46.31907799456315" lon="10.832954141439346"><ele>814.0</ele><time>2026-04-25T14:46:06Z</time></trkpt><trkpt lat="46.31904922067338" lon="10.832817291461053"><ele>814.0</ele><time>2026-04-25T14:46:08Z</time></trkpt><trkpt lat="46.31902004656183" lon="10.832688522143725"><ele>814.0</ele><time>2026-04-25T14:46:10Z</time></trkpt><trkpt lat="46.318986698212115" lon="10.832556193454726"><ele>814.0</ele><time>2026-04-25T14:46:12Z</time></trkpt><trkpt lat="46.31895869919612" lon="10.832421876024856"><ele>814.3333333333333</ele><time>2026-04-25T14:46:14Z</time></trkpt><trkpt lat="46.31893220731407" lon="10.832294818890148"><ele>814.6666666666666</ele><time>2026-04-25T14:46:16Z</time></trkpt><trkpt lat="46.31890163518011" lon="10.832169700259596"><ele>815.0</ele><time>2026-04-25T14:46:18Z</time></trkpt><trkpt lat="46.3188702568665" lon="10.83205033295005"><ele>815.3333333333333</ele><time>2026-04-25T14:46:20Z</time></trkpt><trkpt lat="46.3188400500089" lon="10.83193430602751"><ele>815.6666666666666</ele><time>2026-04-25T14:46:22Z</time></trkpt><trkpt lat="46.31880610645803" lon="10.831820311357381"><ele>816.0</ele><time>2026-04-25T14:46:24Z</time></trkpt><trkpt lat="46.31877643462548" lon="10.831707516399351"><ele>816.1666666666666</ele><time>2026-04-25T14:46:26Z</time></trkpt><trkpt lat="46.31874284371326" lon="10.831594157555466"><ele>816.3333333333333</ele><time>2026-04-25T14:46:28Z</time></trkpt><trkpt lat="46.31870954408348" lon="10.831480170853542"><ele>816.5</ele><time>2026-04-25T14:46:30Z</time></trkpt><trkpt lat="46.31867833224904" lon="10.831364447641485"><ele>816.6666666666666</ele><time>2026-04-25T14:46:32Z</time></trkpt><trkpt lat="46.318648662174525" lon="10.831249013077962"><ele>816.8333333333333</ele><time>2026-04-25T14:46:34Z</time></trkpt><trkpt lat="46.31861613379217" lon="10.831140782051362"><ele>817.0</ele><time>2026-04-25T14:46:36Z</time></trkpt><trkpt lat="46.31859032005494" lon="10.831029372424085"><ele>817.9999999999999</ele><time>2026-04-25T14:46:38Z</time></trkpt><trkpt lat="46.31856351079318" lon="10.830914759071272"><ele>819.0</ele><time>2026-04-25T14:46:40Z</time></trkpt><trkpt lat="46.31853218633712" lon="10.83080304628695"><ele>820.0</ele><time>2026-04-25T14:46:42Z</time></trkpt><trkpt lat="46.31850766648942" lon="10.830689249521049"><ele>821.0</ele><time>2026-04-25T14:46:44Z</time></trkpt><trkpt lat="46.318481641774405" lon="10.830589264174964"><ele>821.9999999999999</ele><time>2026-04-25T14:46:46Z</time></trkpt><trkpt lat="46.31845156083246" lon="10.830488418988159"><ele>823.0</ele><time>2026-04-25T14:46:48Z</time></trkpt><trkpt lat="46.318428689074" lon="10.830386442518924"><ele>822.9999999999999</ele><time>2026-04-25T14:46:50Z</time></trkpt><trkpt lat="46.31840578498711" lon="10.83028365032304"><ele>823.0</ele><time>2026-04-25T14:46:52Z</time></trkpt><trkpt lat="46.31837959992314" lon="10.830171657624646"><ele>823.0</ele><time>2026-04-25T14:46:54Z</time></trkpt><trkpt lat="46.318358703550366" lon="10.830060357982259"><ele>823.0</ele><time>2026-04-25T14:46:56Z</time></trkpt><trkpt lat="46.318333628778426" lon="10.829948857312324"><ele>822.9999999999999</ele><time>2026-04-25T14:46:58Z</time></trkpt><trkpt lat="46.31831075507049" lon="10.829841082501174"><ele>823.0</ele><time>2026-04-25T14:47:00Z</time></trkpt><trkpt lat="46.31828954397573" lon="10.829730396036735"><ele>822.8333333333333</ele><time>2026-04-25T14:47:02Z</time></trkpt><trkpt lat="46.318264193463875" lon="10.829620566689554"><ele>822.6666666666666</ele><time>2026-04-25T14:47:04Z</time></trkpt><trkpt lat="46.31824303358716" lon="10.829508105577657"><ele>822.5</ele><time>2026-04-25T14:47:06Z</time></trkpt><trkpt lat="46.31821804730714" lon="10.829388582217575"><ele>822.3333333333333</ele><time>2026-04-25T14:47:08Z</time></trkpt><trkpt lat="46.318194049469696" lon="10.829276127907356"><ele>822.1666666666666</ele><time>2026-04-25T14:47:10Z</time></trkpt><trkpt lat="46.318174814887925" lon="10.829161900224706"><ele>822.0</ele><time>2026-04-25T14:47:12Z</time></trkpt><trkpt lat="46.31815919861761" lon="10.829040418440442"><ele>821.8333333333334</ele><time>2026-04-25T14:47:14Z</time></trkpt><trkpt lat="46.31814113211188" lon="10.828920373268673"><ele>821.6666666666667</ele><time>2026-04-25T14:47:16Z</time></trkpt><trkpt lat="46.31812611895222" lon="10.828803210429877"><ele>821.5</ele><time>2026-04-25T14:47:18Z</time></trkpt><trkpt lat="46.31811444622788" lon="10.828690111610035"><ele>821.3333333333334</ele><time>2026-04-25T14:47:20Z</time></trkpt><trkpt lat="46.318098532037844" lon="10.828576584688298"><ele>821.1666666666667</ele><time>2026-04-25T14:47:22Z</time></trkpt><trkpt lat="46.318081558215" lon="10.828464934422072"><ele>821.0</ele><time>2026-04-25T14:47:24Z</time></trkpt><trkpt lat="46.3180453916029" lon="10.82836769674048"><ele>822.8333333333334</ele><time>2026-04-25T14:47:25.999Z</time></trkpt><trkpt lat="46.31799213696728" lon="10.828290965101596"><ele>824.6666666666667</ele><time>2026-04-25T14:47:27.999Z</time></trkpt><trkpt lat="46.31792781432884" lon="10.828224188563041"><ele>826.5</ele><time>2026-04-25T14:47:30.999Z</time></trkpt><trkpt lat="46.317856812246454" lon="10.828167422786334"><ele>828.3333333333333</ele><time>2026-04-25T14:47:34.999Z</time></trkpt><trkpt lat="46.317896157704226" lon="10.828085025019305"><ele>830.1666666666666</ele><time>2026-04-25T14:52:06.999Z</time></trkpt><trkpt lat="46.31787755596372" lon="10.827970772117542"><ele>832.0</ele><time>2026-04-25T14:52:08.999Z</time></trkpt><trkpt lat="46.31787348914877" lon="10.827856687173838"><ele>831.9999999999999</ele><time>2026-04-25T14:52:10.999Z</time></trkpt><trkpt lat="46.31788913298054" lon="10.827749786509747"><ele>832.0</ele><time>2026-04-25T14:52:13Z</time></trkpt><trkpt lat="46.31790521765625" lon="10.827634625380906"><ele>832.0</ele><time>2026-04-25T14:52:15Z</time></trkpt><trkpt lat="46.31792164812956" lon="10.82751813164705"><ele>832.0</ele><time>2026-04-25T14:52:17Z</time></trkpt><trkpt lat="46.317935663845454" lon="10.827403159287403"><ele>831.9999999999999</ele><time>2026-04-25T14:52:19Z</time></trkpt><trkpt lat="46.31794456257586" lon="10.827295068651395"><ele>832.0</ele><time>2026-04-25T14:52:21Z</time></trkpt><trkpt lat="46.31796056177083" lon="10.82718039148792"><ele>831.8333333333333</ele><time>2026-04-25T14:52:23Z</time></trkpt><trkpt lat="46.31797506919833" lon="10.827040345197934"><ele>831.6666666666666</ele><time>2026-04-25T14:52:25Z</time></trkpt><trkpt lat="46.317983738737" lon="10.826917154069065"><ele>831.5</ele><time>2026-04-25T14:52:27Z</time></trkpt><trkpt lat="46.31799918985406" lon="10.826787909278867"><ele>831.3333333333333</ele><time>2026-04-25T14:52:29Z</time></trkpt><trkpt lat="46.31800930198593" lon="10.826674335455543"><ele>831.1666666666666</ele><time>2026-04-25T14:52:31Z</time></trkpt><trkpt lat="46.31801288245954" lon="10.826580658756942"><ele>831.0</ele><time>2026-04-25T14:52:33Z</time></trkpt><trkpt lat="46.31805069982065" lon="10.8264618383853"><ele>830.6666666666666</ele><time>2026-04-25T14:52:36Z</time></trkpt><trkpt lat="46.31809022840595" lon="10.82637181859635"><ele>830.3333333333333</ele><time>2026-04-25T14:52:38Z</time></trkpt><trkpt lat="46.318116848668346" lon="10.8262706865614"><ele>830.0</ele><time>2026-04-25T14:52:40Z</time></trkpt><trkpt lat="46.31814549096599" lon="10.826180793234457"><ele>829.6666666666666</ele><time>2026-04-25T14:52:42Z</time></trkpt><trkpt lat="46.3181795036113" lon="10.826054681892359"><ele>829.3333333333333</ele><time>2026-04-25T14:52:45Z</time></trkpt><trkpt lat="46.31821049077728" lon="10.825962106611533"><ele>829.0</ele><time>2026-04-25T14:52:47Z</time></trkpt><trkpt lat="46.31824720828173" lon="10.825862145962466"><ele>828.9999999999999</ele><time>2026-04-25T14:52:49Z</time></trkpt><trkpt lat="46.31829294227687" lon="10.825764312773883"><ele>829.0</ele><time>2026-04-25T14:52:51Z</time></trkpt><trkpt lat="46.3183495683529" lon="10.825670954049336"><ele>829.0</ele><time>2026-04-25T14:52:53Z</time></trkpt><trkpt lat="46.318404584923414" lon="10.825588891636283"><ele>829.0</ele><time>2026-04-25T14:52:55Z</time></trkpt><trkpt lat="46.31846020638138" lon="10.825503869052683"><ele>828.9999999999999</ele><time>2026-04-25T14:52:57Z</time></trkpt><trkpt lat="46.31852337770636" lon="10.825412814282613"><ele>829.0</ele><time>2026-04-25T14:52:59Z</time></trkpt><trkpt lat="46.31858231865454" lon="10.825315467721879"><ele>828.9999999999999</ele><time>2026-04-25T14:53:01Z</time></trkpt><trkpt lat="46.31863706978259" lon="10.825221576408072"><ele>829.0</ele><time>2026-04-25T14:53:03Z</time></trkpt><trkpt lat="46.318691595631265" lon="10.82513588747361"><ele>829.0</ele><time>2026-04-25T14:53:05Z</time></trkpt><trkpt lat="46.318746262118715" lon="10.825062110909252"><ele>829.0</ele><time>2026-04-25T14:53:07Z</time></trkpt><trkpt lat="46.31881006312925" lon="10.8250936365108"><ele>828.9999999999999</ele><time>2026-04-25T14:53:09.999Z</time></trkpt><trkpt lat="46.31888389530883" lon="10.82517384844472"><ele>829.0</ele><time>2026-04-25T14:53:11.999Z</time></trkpt><trkpt lat="46.318952247049836" lon="10.825264781214594"><ele>828.8000000000001</ele><time>2026-04-25T14:53:13.999Z</time></trkpt><trkpt lat="46.31901979953433" lon="10.82536175938003"><ele>828.6</ele><time>2026-04-25T14:53:15.999Z</time></trkpt><trkpt lat="46.31908350112428" lon="10.82546209617047"><ele>828.4</ele><time>2026-04-25T14:53:17.999Z</time></trkpt><trkpt lat="46.31915104593885" lon="10.825558062472167"><ele>828.2</ele><time>2026-04-25T14:53:19.999Z</time></trkpt><trkpt lat="46.31919738455456" lon="10.82564984262438"><ele>828.0</ele><time>2026-04-25T14:53:21.999Z</time></trkpt><trkpt lat="46.31931092548475" lon="10.825503173843565"><ele>828.0</ele><time>2026-04-25T14:53:23.999Z</time></trkpt><trkpt lat="46.31937624479389" lon="10.825394569168463"><ele>828.0</ele><time>2026-04-25T14:53:25.999Z</time></trkpt><trkpt lat="46.31946903717086" lon="10.82528204135209"><ele>828.0</ele><time>2026-04-25T14:53:27.999Z</time></trkpt><trkpt lat="46.31955192682713" lon="10.82515565557598"><ele>828.0</ele><time>2026-04-25T14:53:29.999Z</time></trkpt><trkpt lat="46.31962444366252" lon="10.825048264134058"><ele>828.0</ele><time>2026-04-25T14:53:31.999Z</time></trkpt><trkpt lat="46.319708144738755" lon="10.82493725144545"><ele>830.0</ele><time>2026-04-25T14:53:33.999Z</time></trkpt><trkpt lat="46.31978690200789" lon="10.824820611980487"><ele>832.0</ele><time>2026-04-25T14:53:35.999Z</time></trkpt><trkpt lat="46.319860538690456" lon="10.82471204802727"><ele>834.0</ele><time>2026-04-25T14:53:37.999Z</time></trkpt><trkpt lat="46.319927820192504" lon="10.824595674971965"><ele>836.0</ele><time>2026-04-25T14:53:39.999Z</time></trkpt><trkpt lat="46.31999016381759" lon="10.824491124149885"><ele>838.0</ele><time>2026-04-25T14:53:41.999Z</time></trkpt><trkpt lat="46.320048057881245" lon="10.824392675817155"><ele>837.4999999999999</ele><time>2026-04-25T14:53:43.999Z</time></trkpt><trkpt lat="46.320100376071046" lon="10.824296760054764"><ele>837.0</ele><time>2026-04-25T14:53:45.999Z</time></trkpt><trkpt lat="46.320143376118814" lon="10.82419727035359"><ele>836.5</ele><time>2026-04-25T14:53:47.999Z</time></trkpt><trkpt lat="46.32019004844967" lon="10.824086613719738"><ele>836.0</ele><time>2026-04-25T14:53:49.999Z</time></trkpt><trkpt lat="46.320237065713044" lon="10.823968230849825"><ele>835.4999999999999</ele><time>2026-04-25T14:53:51.999Z</time></trkpt><trkpt lat="46.32027786020117" lon="10.823845345544042"><ele>835.0</ele><time>2026-04-25T14:53:53.999Z</time></trkpt><trkpt lat="46.320309308844465" lon="10.823723543670994"><ele>834.9999999999999</ele><time>2026-04-25T14:53:55.999Z</time></trkpt><trkpt lat="46.32033704635153" lon="10.823619149978349"><ele>835.0</ele><time>2026-04-25T14:53:57.999Z</time></trkpt><trkpt lat="46.32035072164712" lon="10.823516524541136"><ele>835.0</ele><time>2026-04-25T14:53:59.999Z</time></trkpt><trkpt lat="46.320336729698234" lon="10.823404107358542"><ele>835.0</ele><time>2026-04-25T14:54:01.999Z</time></trkpt><trkpt lat="46.32032716456291" lon="10.823293047025217"><ele>834.9999999999999</ele><time>2026-04-25T14:54:03.999Z</time></trkpt><trkpt lat="46.32032281395023" lon="10.823169783028119"><ele>835.0</ele><time>2026-04-25T14:54:05.999Z</time></trkpt><trkpt lat="46.320306548466355" lon="10.82303470792697"><ele>835.0</ele><time>2026-04-25T14:54:07.999Z</time></trkpt><trkpt lat="46.32026832336474" lon="10.822901846616016"><ele>835.0</ele><time>2026-04-25T14:54:09.999Z</time></trkpt><trkpt lat="46.320229242488374" lon="10.822784184975234"><ele>835.0</ele><time>2026-04-25T14:54:11.999Z</time></trkpt><trkpt lat="46.320193193032516" lon="10.82267176669242"><ele>835.0</ele><time>2026-04-25T14:54:13.999Z</time></trkpt><trkpt lat="46.32016308873038" lon="10.82255351180459"><ele>835.0</ele><time>2026-04-25T14:54:15.999Z</time></trkpt><trkpt lat="46.32013748621252" lon="10.822429638339464"><ele>835.0</ele><time>2026-04-25T14:54:18Z</time></trkpt><trkpt lat="46.32011127403577" lon="10.822304656100313"><ele>835.0</ele><time>2026-04-25T14:54:20Z</time></trkpt><trkpt lat="46.32008990848858" lon="10.822171564138133"><ele>835.0</ele><time>2026-04-25T14:54:22Z</time></trkpt><trkpt lat="46.32007191879709" lon="10.822039942150504"><ele>835.0</ele><time>2026-04-25T14:54:24Z</time></trkpt><trkpt lat="46.32005863285765" lon="10.821905924810542"><ele>835.0</ele><time>2026-04-25T14:54:26Z</time></trkpt><trkpt lat="46.32004881415213" lon="10.821774073813707"><ele>835.6</ele><time>2026-04-25T14:54:28Z</time></trkpt><trkpt lat="46.32003641940769" lon="10.82164530006449"><ele>836.2</ele><time>2026-04-25T14:54:30Z</time></trkpt><trkpt lat="46.3200169152518" lon="10.821514888579465"><ele>836.8</ele><time>2026-04-25T14:54:32Z</time></trkpt><trkpt lat="46.31999019523322" lon="10.821389953168179"><ele>837.4</ele><time>2026-04-25T14:54:34Z</time></trkpt><trkpt lat="46.31995391245557" lon="10.821265324528904"><ele>838.0</ele><time>2026-04-25T14:54:36Z</time></trkpt><trkpt lat="46.319912806806805" lon="10.821148892468175"><ele>838.0</ele><time>2026-04-25T14:54:38Z</time></trkpt><trkpt lat="46.319877888216695" lon="10.821024823671559"><ele>838.0</ele><time>2026-04-25T14:54:40Z</time></trkpt><trkpt lat="46.31983673431528" lon="10.820899080919002"><ele>838.0</ele><time>2026-04-25T14:54:42Z</time></trkpt><trkpt lat="46.31980801267577" lon="10.82075849836391"><ele>838.0</ele><time>2026-04-25T14:54:44Z</time></trkpt><trkpt lat="46.319781675293726" lon="10.820617122222155"><ele>838.0</ele><time>2026-04-25T14:54:46Z</time></trkpt><trkpt lat="46.319759299466114" lon="10.8204815582639"><ele>837.2</ele><time>2026-04-25T14:54:48Z</time></trkpt><trkpt lat="46.3197376604015" lon="10.820350501047875"><ele>836.4</ele><time>2026-04-25T14:54:50Z</time></trkpt><trkpt lat="46.31971830998036" lon="10.820216559993247"><ele>835.6</ele><time>2026-04-25T14:54:52Z</time></trkpt><trkpt lat="46.31970374197193" lon="10.82008275744692"><ele>834.8000000000001</ele><time>2026-04-25T14:54:54Z</time></trkpt><trkpt lat="46.31969386932548" lon="10.819948667709786"><ele>834.0</ele><time>2026-04-25T14:54:56Z</time></trkpt><trkpt lat="46.31968276570264" lon="10.819817840479017"><ele>834.0</ele><time>2026-04-25T14:54:58Z</time></trkpt><trkpt lat="46.319670519728234" lon="10.819699563471328"><ele>834.0</ele><time>2026-04-25T14:55:00Z</time></trkpt><trkpt lat="46.31965693674955" lon="10.81958166587098"><ele>834.0</ele><time>2026-04-25T14:55:02Z</time></trkpt><trkpt lat="46.31964495839551" lon="10.819458023195448"><ele>834.0</ele><time>2026-04-25T14:55:04Z</time></trkpt><trkpt lat="46.31963807920655" lon="10.81933493727408"><ele>834.0</ele><time>2026-04-25T14:55:06Z</time></trkpt><trkpt lat="46.31963801098076" lon="10.819211247169482"><ele>834.0</ele><time>2026-04-25T14:55:08Z</time></trkpt><trkpt lat="46.31964273561365" lon="10.819088279038827"><ele>835.5</ele><time>2026-04-25T14:55:10Z</time></trkpt><trkpt lat="46.31965126294702" lon="10.818956801029673"><ele>837.0</ele><time>2026-04-25T14:55:12Z</time></trkpt><trkpt lat="46.31966457828026" lon="10.818829003118985"><ele>838.5</ele><time>2026-04-25T14:55:14Z</time></trkpt><trkpt lat="46.31967778893656" lon="10.818706326566291"><ele>840.0</ele><time>2026-04-25T14:55:16Z</time></trkpt><trkpt lat="46.319673536385245" lon="10.818586733205352"><ele>841.5</ele><time>2026-04-25T14:55:18Z</time></trkpt><trkpt lat="46.31966113431925" lon="10.818471547058786"><ele>843.0</ele><time>2026-04-25T14:55:20Z</time></trkpt><trkpt lat="46.31961137478573" lon="10.818402558972995"><ele>843.1666666666666</ele><time>2026-04-25T14:55:21.999Z</time></trkpt><trkpt lat="46.319542299134206" lon="10.81841642828554"><ele>843.3333333333333</ele><time>2026-04-25T14:55:23.999Z</time></trkpt><trkpt lat="46.319460181856456" lon="10.818422043018076"><ele>843.5</ele><time>2026-04-25T14:55:25.999Z</time></trkpt><trkpt lat="46.31937931827807" lon="10.818407724791378"><ele>843.6666666666666</ele><time>2026-04-25T14:55:27.999Z</time></trkpt><trkpt lat="46.31929137368178" lon="10.818392571530222"><ele>843.8333333333333</ele><time>2026-04-25T14:55:29.999Z</time></trkpt><trkpt lat="46.31922222753794" lon="10.818332162366168"><ele>844.0</ele><time>2026-04-25T14:55:31.999Z</time></trkpt><trkpt lat="46.319214415573924" lon="10.818195588527589"><ele>844.0</ele><time>2026-04-25T14:55:33.999Z</time></trkpt><trkpt lat="46.31925047694751" lon="10.818055631300242"><ele>844.0</ele><time>2026-04-25T14:55:35.999Z</time></trkpt><trkpt lat="46.31928984050828" lon="10.817923440157214"><ele>844.0</ele><time>2026-04-25T14:55:37.999Z</time></trkpt><trkpt lat="46.31930516833275" lon="10.817795109890216"><ele>844.0</ele><time>2026-04-25T14:55:39.999Z</time></trkpt><trkpt lat="46.319304374664206" lon="10.817665184042177"><ele>844.0</ele><time>2026-04-25T14:55:41.999Z</time></trkpt><trkpt lat="46.31931709060089" lon="10.817538607721444"><ele>844.8000000000001</ele><time>2026-04-25T14:55:43.999Z</time></trkpt><trkpt lat="46.31930822618805" lon="10.817417036525208"><ele>845.6</ele><time>2026-04-25T14:55:45.999Z</time></trkpt><trkpt lat="46.31931061576972" lon="10.8172952681416"><ele>846.4</ele><time>2026-04-25T14:55:47.999Z</time></trkpt><trkpt lat="46.31930996593151" lon="10.817163165342725"><ele>847.2</ele><time>2026-04-25T14:55:49.999Z</time></trkpt><trkpt lat="46.31930282214918" lon="10.817019818293623"><ele>848.0</ele><time>2026-04-25T14:55:51.999Z</time></trkpt><trkpt lat="46.31930450463564" lon="10.816868982855752"><ele>848.0</ele><time>2026-04-25T14:55:53.999Z</time></trkpt><trkpt lat="46.319268636092815" lon="10.816729927423156"><ele>848.0</ele><time>2026-04-25T14:55:55.999Z</time></trkpt><trkpt lat="46.319237542186166" lon="10.816602950269237"><ele>848.0</ele><time>2026-04-25T14:55:57.999Z</time></trkpt><trkpt lat="46.319188768087535" lon="10.816488026640766"><ele>848.0</ele><time>2026-04-25T14:55:59.999Z</time></trkpt><trkpt lat="46.31913957738119" lon="10.816378869996523"><ele>848.0</ele><time>2026-04-25T14:56:01.999Z</time></trkpt><trkpt lat="46.319083299004866" lon="10.816276744010828"><ele>848.0000000000001</ele><time>2026-04-25T14:56:03.999Z</time></trkpt><trkpt lat="46.319023718510984" lon="10.816174470797714"><ele>848.0</ele><time>2026-04-25T14:56:05.999Z</time></trkpt><trkpt lat="46.318965657286675" lon="10.81608245981172"><ele>848.0</ele><time>2026-04-25T14:56:07.999Z</time></trkpt><trkpt lat="46.318908398506885" lon="10.815998441905004"><ele>848.0</ele><time>2026-04-25T14:56:09.999Z</time></trkpt><trkpt lat="46.31885250657413" lon="10.815913886786099"><ele>848.0000000000001</ele><time>2026-04-25T14:56:11.999Z</time></trkpt><trkpt lat="46.31879535278982" lon="10.815830351697592"><ele>848.0</ele><time>2026-04-25T14:56:13.999Z</time></trkpt><trkpt lat="46.31873391455198" lon="10.815747865396837"><ele>848.5000000000001</ele><time>2026-04-25T14:56:15.999Z</time></trkpt><trkpt lat="46.31867219690295" lon="10.815667222966246"><ele>849.0</ele><time>2026-04-25T14:56:17.999Z</time></trkpt><trkpt lat="46.31860606516061" lon="10.815592913554026"><ele>849.5</ele><time>2026-04-25T14:56:19.999Z</time></trkpt><trkpt lat="46.31853987053702" lon="10.815527500755966"><ele>850.0</ele><time>2026-04-25T14:56:22Z</time></trkpt><trkpt lat="46.31846987462654" lon="10.815467656766202"><ele>850.5000000000001</ele><time>2026-04-25T14:56:24Z</time></trkpt><trkpt lat="46.3183975504388" lon="10.815411491286053"><ele>851.0</ele><time>2026-04-25T14:56:26Z</time></trkpt><trkpt lat="46.31832405567064" lon="10.815349907802334"><ele>851.0000000000001</ele><time>2026-04-25T14:56:28Z</time></trkpt><trkpt lat="46.31824526461228" lon="10.815293183736486"><ele>851.0</ele><time>2026-04-25T14:56:30Z</time></trkpt><trkpt lat="46.31816721125017" lon="10.81524030216371"><ele>851.0</ele><time>2026-04-25T14:56:32Z</time></trkpt><trkpt lat="46.31808853007285" lon="10.815190597026653"><ele>851.0</ele><time>2026-04-25T14:56:34Z</time></trkpt><trkpt lat="46.31800895825469" lon="10.8151397365558"><ele>851.0000000000001</ele><time>2026-04-25T14:56:36Z</time></trkpt><trkpt lat="46.31792694853259" lon="10.81508852794936"><ele>851.0</ele><time>2026-04-25T14:56:38Z</time></trkpt><trkpt lat="46.3178418790253" lon="10.815047067039501"><ele>851.8333333333334</ele><time>2026-04-25T14:56:40Z</time></trkpt><trkpt lat="46.31776227158682" lon="10.815011666540986"><ele>852.6666666666667</ele><time>2026-04-25T14:56:42Z</time></trkpt><trkpt lat="46.3176836732253" lon="10.814980549019547"><ele>853.5</ele><time>2026-04-25T14:56:44Z</time></trkpt><trkpt lat="46.31761412462431" lon="10.814936412073298"><ele>854.3333333333333</ele><time>2026-04-25T14:56:46Z</time></trkpt><trkpt lat="46.31755326820401" lon="10.814894946744877"><ele>855.1666666666666</ele><time>2026-04-25T14:56:48Z</time></trkpt><trkpt lat="46.31748968460833" lon="10.814846037442203"><ele>856.0</ele><time>2026-04-25T14:56:50Z</time></trkpt><trkpt lat="46.31742002808771" lon="10.81480150759599"><ele>856.0000000000001</ele><time>2026-04-25T14:56:52Z</time></trkpt><trkpt lat="46.317364369789416" lon="10.814751661371272"><ele>856.0</ele><time>2026-04-25T14:56:54Z</time></trkpt><trkpt lat="46.31730290349379" lon="10.814705148032242"><ele>856.0</ele><time>2026-04-25T14:56:56Z</time></trkpt><trkpt lat="46.317244594636115" lon="10.814649752433619"><ele>856.0</ele><time>2026-04-25T14:56:58Z</time></trkpt><trkpt lat="46.317200262648186" lon="10.814570510529872"><ele>856.0</ele><time>2026-04-25T14:57:00Z</time></trkpt><trkpt lat="46.317170034148674" lon="10.814488104796137"><ele>856.0000000000001</ele><time>2026-04-25T14:57:02Z</time></trkpt><trkpt lat="46.317123754577736" lon="10.814402980470676"><ele>856.0</ele><time>2026-04-25T14:57:04Z</time></trkpt><trkpt lat="46.31707573921949" lon="10.814331821937081"><ele>857.4999999999999</ele><time>2026-04-25T14:57:06Z</time></trkpt><trkpt lat="46.31703211251957" lon="10.814264529658244"><ele>859.0</ele><time>2026-04-25T14:57:08Z</time></trkpt><trkpt lat="46.316986128721155" lon="10.81418368110252"><ele>860.5</ele><time>2026-04-25T14:57:10Z</time></trkpt><trkpt lat="46.31693236735491" lon="10.814095801006744"><ele>862.0</ele><time>2026-04-25T14:57:12Z</time></trkpt><trkpt lat="46.3168856957227" lon="10.814007254240162"><ele>863.4999999999999</ele><time>2026-04-25T14:57:14Z</time></trkpt><trkpt lat="46.31684719718305" lon="10.813926910312995"><ele>865.0</ele><time>2026-04-25T14:57:16Z</time></trkpt><trkpt lat="46.31678907235473" lon="10.81382694305562"><ele>865.0</ele><time>2026-04-25T14:57:19Z</time></trkpt><trkpt lat="46.31674743918454" lon="10.8137567204533"><ele>865.0</ele><time>2026-04-25T14:57:21Z</time></trkpt><trkpt lat="46.31668403456128" lon="10.813665468825457"><ele>865.0</ele><time>2026-04-25T14:57:24Z</time></trkpt><trkpt lat="46.31661525549569" lon="10.813708531072628"><ele>865.0</ele><time>2026-04-25T14:57:26Z</time></trkpt><trkpt lat="46.316550762622256" lon="10.813728698827274"><ele>865.0</ele><time>2026-04-25T14:57:29Z</time></trkpt><trkpt lat="46.31648283860534" lon="10.813736583133302"><ele>865.0</ele><time>2026-04-25T14:57:32Z</time></trkpt><trkpt lat="46.31640926435817" lon="10.813682129218043"><ele>865.0</ele><time>2026-04-25T14:57:36Z</time></trkpt><trkpt lat="46.31635492882343" lon="10.813565979233863"><ele>866.1666666666666</ele><time>2026-04-25T14:57:39Z</time></trkpt><trkpt lat="46.316296661675715" lon="10.813478895283733"><ele>867.3333333333333</ele><time>2026-04-25T14:57:41Z</time></trkpt><trkpt lat="46.31623649824038" lon="10.813384286684524"><ele>868.5</ele><time>2026-04-25T14:57:43Z</time></trkpt><trkpt lat="46.31618783351545" lon="10.813297213429513"><ele>869.6666666666667</ele><time>2026-04-25T14:57:45Z</time></trkpt><trkpt lat="46.31613591193658" lon="10.81319936028653"><ele>870.8333333333334</ele><time>2026-04-25T14:57:47.999Z</time></trkpt><trkpt lat="46.316082227658086" lon="10.81310179236699"><ele>872.0</ele><time>2026-04-25T14:57:50.999Z</time></trkpt><trkpt lat="46.31602710954229" lon="10.81300476077751"><ele>872.0000000000001</ele><time>2026-04-25T14:57:53.999Z</time></trkpt><trkpt lat="46.31597789110165" lon="10.812913783382646"><ele>872.0</ele><time>2026-04-25T14:57:56.999Z</time></trkpt><trkpt lat="46.31594581633802" lon="10.812817722944757"><ele>872.0</ele><time>2026-04-25T14:57:59.999Z</time></trkpt><trkpt lat="46.31592281354508" lon="10.812700385830826"><ele>872.0</ele><time>2026-04-25T14:58:01.999Z</time></trkpt><trkpt lat="46.31592640473037" lon="10.812575123195828"><ele>872.0000000000001</ele><time>2026-04-25T14:58:03.999Z</time></trkpt><trkpt lat="46.31592766873766" lon="10.812475848112738"><ele>872.0</ele><time>2026-04-25T14:58:05.999Z</time></trkpt><trkpt lat="46.31591023862197" lon="10.812385234463894"><ele>870.8333333333334</ele><time>2026-04-25T14:58:07.999Z</time></trkpt><trkpt lat="46.3158798632311" lon="10.812300941364553"><ele>869.6666666666667</ele><time>2026-04-25T14:58:09.999Z</time></trkpt><trkpt lat="46.31581880844009" lon="10.812209207098022"><ele>868.5</ele><time>2026-04-25T14:58:12.999Z</time></trkpt><trkpt lat="46.315742807019646" lon="10.812126251909431"><ele>867.3333333333333</ele><time>2026-04-25T14:58:15.999Z</time></trkpt><trkpt lat="46.31567430826712" lon="10.812032030338699"><ele>866.1666666666666</ele><time>2026-04-25T14:58:18.999Z</time></trkpt><trkpt lat="46.31562301330385" lon="10.811966225571728"><ele>865.0</ele><time>2026-04-25T14:58:20.999Z</time></trkpt><trkpt lat="46.3155768470186" lon="10.811883983191453"><ele>867.5714285714286</ele><time>2026-04-25T14:58:22.999Z</time></trkpt><trkpt lat="46.3155415989757" lon="10.81180841441141"><ele>870.1428571428571</ele><time>2026-04-25T14:58:24.999Z</time></trkpt><trkpt lat="46.31550262839818" lon="10.811725161945256"><ele>872.7142857142858</ele><time>2026-04-25T14:58:26.999Z</time></trkpt><trkpt lat="46.315465414443814" lon="10.81163352893711"><ele>875.2857142857142</ele><time>2026-04-25T14:58:29Z</time></trkpt><trkpt lat="46.31542568412315" lon="10.81154038482709"><ele>877.8571428571428</ele><time>2026-04-25T14:58:31Z</time></trkpt><trkpt lat="46.31538540143566" lon="10.811438262940532"><ele>880.4285714285714</ele><time>2026-04-25T14:58:33Z</time></trkpt><trkpt lat="46.31533875125321" lon="10.811343472211803"><ele>883.0</ele><time>2026-04-25T14:58:35Z</time></trkpt><trkpt lat="46.31530096599886" lon="10.811245697954407"><ele>883.0</ele><time>2026-04-25T14:58:37Z</time></trkpt><trkpt lat="46.31525394634989" lon="10.811146037561038"><ele>883.0</ele><time>2026-04-25T14:58:39Z</time></trkpt><trkpt lat="46.31521398378943" lon="10.81104680876626"><ele>883.0</ele><time>2026-04-25T14:58:41Z</time></trkpt><trkpt lat="46.31516881114374" lon="10.810962945316474"><ele>883.0</ele><time>2026-04-25T14:58:43Z</time></trkpt><trkpt lat="46.31512367540633" lon="10.810881566936526"><ele>883.0</ele><time>2026-04-25T14:58:45Z</time></trkpt><trkpt lat="46.31509200117013" lon="10.810797019413096"><ele>883.0</ele><time>2026-04-25T14:58:47Z</time></trkpt><trkpt lat="46.3150624436959" lon="10.810714543021083"><ele>883.0</ele><time>2026-04-25T14:58:49Z</time></trkpt><trkpt lat="46.31503095701334" lon="10.810629719003238"><ele>881.6666666666666</ele><time>2026-04-25T14:58:51Z</time></trkpt><trkpt lat="46.31499638238691" lon="10.8105116129322"><ele>880.3333333333333</ele><time>2026-04-25T14:58:54Z</time></trkpt><trkpt lat="46.3149623185818" lon="10.8103862173117"><ele>879.0</ele><time>2026-04-25T14:58:57Z</time></trkpt><trkpt lat="46.31493512889321" lon="10.810300640643824"><ele>877.6666666666667</ele><time>2026-04-25T14:58:59Z</time></trkpt><trkpt lat="46.31490563357697" lon="10.810174772396044"><ele>876.3333333333334</ele><time>2026-04-25T14:59:02Z</time></trkpt><trkpt lat="46.31488129787242" lon="10.810061308279154"><ele>875.0</ele><time>2026-04-25T14:59:05Z</time></trkpt><trkpt lat="46.31485762316283" lon="10.809939315513773"><ele>876.3333333333334</ele><time>2026-04-25T14:59:08Z</time></trkpt><trkpt lat="46.3148316722291" lon="10.80981459398665"><ele>877.6666666666667</ele><time>2026-04-25T14:59:11Z</time></trkpt><trkpt lat="46.314805053414084" lon="10.809685170929676"><ele>879.0</ele><time>2026-04-25T14:59:14Z</time></trkpt><trkpt lat="46.31478397207619" lon="10.809598468872696"><ele>880.3333333333333</ele><time>2026-04-25T14:59:16Z</time></trkpt><trkpt lat="46.31476325345403" lon="10.809471633225739"><ele>881.6666666666666</ele><time>2026-04-25T14:59:19Z</time></trkpt><trkpt lat="46.31473919245826" lon="10.80938634171949"><ele>883.0</ele><time>2026-04-25T14:59:21Z</time></trkpt><trkpt lat="46.31471538383358" lon="10.809294509999122"><ele>882.9999999999999</ele><time>2026-04-25T14:59:23Z</time></trkpt><trkpt lat="46.314692215627836" lon="10.809207031033738"><ele>883.0</ele><time>2026-04-25T14:59:25Z</time></trkpt><trkpt lat="46.3146698887415" lon="10.809118991459307"><ele>883.0</ele><time>2026-04-25T14:59:27Z</time></trkpt><trkpt lat="46.31465613616394" lon="10.808981899803149"><ele>883.0</ele><time>2026-04-25T14:59:30Z</time></trkpt><trkpt lat="46.31463170407319" lon="10.808853047811532"><ele>882.9999999999999</ele><time>2026-04-25T14:59:33Z</time></trkpt><trkpt lat="46.31460908249194" lon="10.808721467293985"><ele>883.0</ele><time>2026-04-25T14:59:36Z</time></trkpt><trkpt lat="46.31459672212182" lon="10.808626341372285"><ele>883.1428571428572</ele><time>2026-04-25T14:59:38Z</time></trkpt><trkpt lat="46.314572068243606" lon="10.808491596180346"><ele>883.2857142857142</ele><time>2026-04-25T14:59:41Z</time></trkpt><trkpt lat="46.31455318637895" lon="10.808402456330795"><ele>883.4285714285714</ele><time>2026-04-25T14:59:43Z</time></trkpt><trkpt lat="46.31453276033878" lon="10.808308368508603"><ele>883.5714285714287</ele><time>2026-04-25T14:59:45Z</time></trkpt><trkpt lat="46.31451505976162" lon="10.808214333216169"><ele>883.7142857142858</ele><time>2026-04-25T14:59:47Z</time></trkpt><trkpt lat="46.31449674325736" lon="10.808122726398937"><ele>883.8571428571429</ele><time>2026-04-25T14:59:49Z</time></trkpt><trkpt lat="46.31447634474371" lon="10.808031740960852"><ele>884.0</ele><time>2026-04-25T14:59:51Z</time></trkpt><trkpt lat="46.314463336560074" lon="10.80793780161037"><ele>884.0000000000001</ele><time>2026-04-25T14:59:53Z</time></trkpt><trkpt lat="46.31444663348448" lon="10.80784027069887"><ele>884.0</ele><time>2026-04-25T14:59:55Z</time></trkpt><trkpt lat="46.31442804296956" lon="10.80774816903536"><ele>884.0</ele><time>2026-04-25T14:59:56.999Z</time></trkpt><trkpt lat="46.31441557271686" lon="10.80765142251984"><ele>884.0</ele><time>2026-04-25T14:59:58.999Z</time></trkpt><trkpt lat="46.314400861817994" lon="10.807562047822456"><ele>884.0</ele><time>2026-04-25T15:00:00.999Z</time></trkpt><trkpt lat="46.31439021772174" lon="10.807469678687479"><ele>884.0000000000001</ele><time>2026-04-25T15:00:02.999Z</time></trkpt><trkpt lat="46.31438235480201" lon="10.807369634365525"><ele>884.0</ele><time>2026-04-25T15:00:04.999Z</time></trkpt><trkpt lat="46.31437157806475" lon="10.807249391710508"><ele>884.2857142857143</ele><time>2026-04-25T15:00:07.999Z</time></trkpt><trkpt lat="46.31439400806556" lon="10.807135474561964"><ele>884.5714285714286</ele><time>2026-04-25T15:00:10.999Z</time></trkpt><trkpt lat="46.314390901235456" lon="10.807043757628614"><ele>884.8571428571429</ele><time>2026-04-25T15:00:12.999Z</time></trkpt><trkpt lat="46.31440772481789" lon="10.806934540217648"><ele>885.1428571428571</ele><time>2026-04-25T15:00:14.999Z</time></trkpt><trkpt lat="46.31442135515036" lon="10.806830552619633"><ele>885.4285714285714</ele><time>2026-04-25T15:00:16.999Z</time></trkpt><trkpt lat="46.31442320396307" lon="10.806738183521315"><ele>885.7142857142858</ele><time>2026-04-25T15:00:18.999Z</time></trkpt><trkpt lat="46.31441815546598" lon="10.806608065685586"><ele>886.0</ele><time>2026-04-25T15:00:21.999Z</time></trkpt><trkpt lat="46.314408319970156" lon="10.806472263585613"><ele>886.0</ele><time>2026-04-25T15:00:24.999Z</time></trkpt><trkpt lat="46.31439558658564" lon="10.80634717975065"><ele>886.0</ele><time>2026-04-25T15:00:26.999Z</time></trkpt><trkpt lat="46.31426125915926" lon="10.80618176176187"><ele>886.0</ele><time>2026-04-25T15:00:28.999Z</time></trkpt><trkpt lat="46.3142725546303" lon="10.80600774224783"><ele>886.0</ele><time>2026-04-25T15:00:30.999Z</time></trkpt><trkpt lat="46.31428593457216" lon="10.805847888532783"><ele>885.5714285714286</ele><time>2026-04-25T15:00:33Z</time></trkpt><trkpt lat="46.314248813732014" lon="10.805773640766274"><ele>885.1428571428571</ele><time>2026-04-25T15:00:34Z</time></trkpt><trkpt lat="46.31427557868035" lon="10.805663262041637"><ele>884.7142857142858</ele><time>2026-04-25T15:00:36Z</time></trkpt><trkpt lat="46.31422050015526" lon="10.805615488184987"><ele>884.2857142857142</ele><time>2026-04-25T15:00:37Z</time></trkpt><trkpt lat="46.31418041631354" lon="10.805528573115685"><ele>883.8571428571428</ele><time>2026-04-25T15:00:39Z</time></trkpt><trkpt lat="46.31415115259381" lon="10.805432209013157"><ele>883.4285714285714</ele><time>2026-04-25T15:00:41Z</time></trkpt><trkpt lat="46.314129420335306" lon="10.805328487258262"><ele>883.0</ele><time>2026-04-25T15:00:43Z</time></trkpt><trkpt lat="46.31412271362316" lon="10.805208320628315"><ele>882.7142857142858</ele><time>2026-04-25T15:00:45Z</time></trkpt><trkpt lat="46.31411254152634" lon="10.805095228339129"><ele>882.4285714285713</ele><time>2026-04-25T15:00:47Z</time></trkpt><trkpt lat="46.31409877322517" lon="10.804994008598692"><ele>882.1428571428571</ele><time>2026-04-25T15:00:49Z</time></trkpt><trkpt lat="46.314088617737376" lon="10.804890989448241"><ele>881.8571428571429</ele><time>2026-04-25T15:00:51Z</time></trkpt><trkpt lat="46.3140772120053" lon="10.804794593139775"><ele>881.5714285714287</ele><time>2026-04-25T15:00:53Z</time></trkpt><trkpt lat="46.31405695204287" lon="10.804688152479422"><ele>881.2857142857142</ele><time>2026-04-25T15:00:55Z</time></trkpt><trkpt lat="46.314031125046554" lon="10.804587680508961"><ele>881.0</ele><time>2026-04-25T15:00:57Z</time></trkpt><trkpt lat="46.31401176708131" lon="10.804493599140335"><ele>881.0000000000001</ele><time>2026-04-25T15:00:59Z</time></trkpt><trkpt lat="46.31400486024435" lon="10.804362425415343"><ele>881.0</ele><time>2026-04-25T15:01:01Z</time></trkpt><trkpt lat="46.31397666125074" lon="10.804205260421229"><ele>881.0</ele><time>2026-04-25T15:01:03Z</time></trkpt><trkpt lat="46.313968148131686" lon="10.804113044734358"><ele>881.0</ele><time>2026-04-25T15:01:04Z</time></trkpt><trkpt lat="46.313961393572434" lon="10.804021468614037"><ele>881.0000000000001</ele><time>2026-04-25T15:01:05Z</time></trkpt><trkpt lat="46.31396334033248" lon="10.80391984028147"><ele>881.0</ele><time>2026-04-25T15:01:06Z</time></trkpt><trkpt lat="46.31395825085612" lon="10.803812087782285"><ele>881.0000000000001</ele><time>2026-04-25T15:01:07Z</time></trkpt><trkpt lat="46.31394613577941" lon="10.803712828027525"><ele>881.0</ele><time>2026-04-25T15:01:08Z</time></trkpt><trkpt lat="46.313922868110915" lon="10.803563607138676"><ele>881.0</ele><time>2026-04-25T15:01:10Z</time></trkpt><trkpt lat="46.31391784578459" lon="10.803451463593268"><ele>881.0</ele><time>2026-04-25T15:01:12Z</time></trkpt><trkpt lat="46.31390846471548" lon="10.803335332482707"><ele>881.0000000000001</ele><time>2026-04-25T15:01:14Z</time></trkpt><trkpt lat="46.31389845195598" lon="10.803208200300304"><ele>881.0</ele><time>2026-04-25T15:01:16Z</time></trkpt><trkpt lat="46.313879859806526" lon="10.80310317779224"><ele>887.5999999999999</ele><time>2026-04-25T15:01:18Z</time></trkpt><trkpt lat="46.31386102461927" lon="10.80299154015734"><ele>894.1999999999999</ele><time>2026-04-25T15:01:20Z</time></trkpt><trkpt lat="46.31384232045336" lon="10.802856467980678"><ele>900.8000000000001</ele><time>2026-04-25T15:01:22Z</time></trkpt><trkpt lat="46.313834219319205" lon="10.80272610433882"><ele>907.4000000000001</ele><time>2026-04-25T15:01:24Z</time></trkpt><trkpt lat="46.31381959708797" lon="10.802564364268708"><ele>914.0</ele><time>2026-04-25T15:01:26Z</time></trkpt><trkpt lat="46.31380841866482" lon="10.802420412435833"><ele>914.2</ele><time>2026-04-25T15:01:28Z</time></trkpt><trkpt lat="46.3137934130573" lon="10.802281058254833"><ele>914.4000000000001</ele><time>2026-04-25T15:01:30Z</time></trkpt><trkpt lat="46.31378571507339" lon="10.802145729702726"><ele>914.6</ele><time>2026-04-25T15:01:32Z</time></trkpt><trkpt lat="46.313771585107254" lon="10.802016380991736"><ele>914.8</ele><time>2026-04-25T15:01:34Z</time></trkpt><trkpt lat="46.31373911549993" lon="10.801898438433158"><ele>915.0</ele><time>2026-04-25T15:01:36Z</time></trkpt><trkpt lat="46.31373641929068" lon="10.80174768085919"><ele>913.0</ele><time>2026-04-25T15:01:38Z</time></trkpt><trkpt lat="46.31372340717675" lon="10.801616832631272"><ele>911.0</ele><time>2026-04-25T15:01:40Z</time></trkpt><trkpt lat="46.31371350367752" lon="10.801493915744457"><ele>909.0</ele><time>2026-04-25T15:01:42Z</time></trkpt><trkpt lat="46.313710933583785" lon="10.801382481988345"><ele>907.0</ele><time>2026-04-25T15:01:44Z</time></trkpt><trkpt lat="46.31369688933263" lon="10.801267689734585"><ele>905.0</ele><time>2026-04-25T15:01:46Z</time></trkpt><trkpt lat="46.31369157092419" lon="10.80114308143964"><ele>903.0</ele><time>2026-04-25T15:01:48Z</time></trkpt><trkpt lat="46.31366603703795" lon="10.801022824047093"><ele>901.6666666666666</ele><time>2026-04-25T15:01:50Z</time></trkpt><trkpt lat="46.313638992851665" lon="10.800916257991346"><ele>900.3333333333333</ele><time>2026-04-25T15:01:52Z</time></trkpt><trkpt lat="46.31362585371309" lon="10.800811049814742"><ele>899.0</ele><time>2026-04-25T15:01:54Z</time></trkpt><trkpt lat="46.31358313627339" lon="10.800721616618615"><ele>897.6666666666666</ele><time>2026-04-25T15:01:57Z</time></trkpt><trkpt lat="46.313535577154624" lon="10.800661635615533"><ele>896.3333333333333</ele><time>2026-04-25T15:02:00Z</time></trkpt><trkpt lat="46.31348965201909" lon="10.800770911469332"><ele>895.0</ele><time>2026-04-25T15:03:24Z</time></trkpt><trkpt lat="46.313464547744864" lon="10.800668375885092"><ele>894.9999999999999</ele><time>2026-04-25T15:03:29Z</time></trkpt><trkpt lat="46.313494830220115" lon="10.800555585350642"><ele>895.0</ele><time>2026-04-25T15:03:31Z</time></trkpt><trkpt lat="46.31351231150995" lon="10.800444595325992"><ele>895.0</ele><time>2026-04-25T15:03:33Z</time></trkpt><trkpt lat="46.313524934345125" lon="10.80033582186716"><ele>895.0</ele><time>2026-04-25T15:03:35Z</time></trkpt><trkpt lat="46.313522595603054" lon="10.800236291111348"><ele>894.9999999999999</ele><time>2026-04-25T15:03:37Z</time></trkpt><trkpt lat="46.313525824335954" lon="10.800102248519849"><ele>895.0</ele><time>2026-04-25T15:03:40Z</time></trkpt><trkpt lat="46.31352744611224" lon="10.800010103010285"><ele>895.3333333333333</ele><time>2026-04-25T15:03:42Z</time></trkpt><trkpt lat="46.3135279198806" lon="10.799864189711256"><ele>895.6666666666666</ele><time>2026-04-25T15:03:45Z</time></trkpt><trkpt lat="46.3135189520679" lon="10.799737837644024"><ele>896.0</ele><time>2026-04-25T15:03:48Z</time></trkpt><trkpt lat="46.31354430537615" lon="10.799620240001111"><ele>896.3333333333333</ele><time>2026-04-25T15:03:51Z</time></trkpt><trkpt lat="46.313555094926876" lon="10.799529308462075"><ele>896.6666666666666</ele><time>2026-04-25T15:03:53Z</time></trkpt><trkpt lat="46.3135688065346" lon="10.799397339270406"><ele>897.0</ele><time>2026-04-25T15:03:56Z</time></trkpt><trkpt lat="46.313584390311576" lon="10.799300091868247"><ele>897.0</ele><time>2026-04-25T15:03:58Z</time></trkpt><trkpt lat="46.313595104842754" lon="10.799195112022073"><ele>897.0</ele><time>2026-04-25T15:04:00Z</time></trkpt><trkpt lat="46.313610550331084" lon="10.799091087024857"><ele>897.0</ele><time>2026-04-25T15:04:02Z</time></trkpt><trkpt lat="46.313624797885375" lon="10.798982981727267"><ele>897.0</ele><time>2026-04-25T15:04:04Z</time></trkpt><trkpt lat="46.313646700897515" lon="10.79887870653541"><ele>897.0</ele><time>2026-04-25T15:04:06Z</time></trkpt><trkpt lat="46.31366016415608" lon="10.79877938739406"><ele>897.0</ele><time>2026-04-25T15:04:08Z</time></trkpt><trkpt lat="46.31367589577757" lon="10.798672948215488"><ele>897.0</ele><time>2026-04-25T15:04:10Z</time></trkpt><trkpt lat="46.313696067265575" lon="10.798568392826441"><ele>896.7142857142858</ele><time>2026-04-25T15:04:12Z</time></trkpt><trkpt lat="46.31370917021359" lon="10.79846053595642"><ele>896.4285714285713</ele><time>2026-04-25T15:04:14Z</time></trkpt><trkpt lat="46.313726449619416" lon="10.798349137962957"><ele>896.1428571428571</ele><time>2026-04-25T15:04:16Z</time></trkpt><trkpt lat="46.31374584954426" lon="10.798237146673943"><ele>895.8571428571429</ele><time>2026-04-25T15:04:17.999Z</time></trkpt><trkpt lat="46.31376302271001" lon="10.798143241019998"><ele>895.5714285714287</ele><time>2026-04-25T15:04:19.999Z</time></trkpt><trkpt lat="46.31377786712698" lon="10.7980420682425"><ele>895.2857142857142</ele><time>2026-04-25T15:04:21.999Z</time></trkpt><trkpt lat="46.31379765771881" lon="10.797938122318142"><ele>895.0</ele><time>2026-04-25T15:04:23.999Z</time></trkpt><trkpt lat="46.31381375715846" lon="10.79783361231702"><ele>894.9999999999999</ele><time>2026-04-25T15:04:25.999Z</time></trkpt><trkpt lat="46.313829047339176" lon="10.79772627266839"><ele>895.0</ele><time>2026-04-25T15:04:27.999Z</time></trkpt><trkpt lat="46.31385222091962" lon="10.797607748839845"><ele>895.0</ele><time>2026-04-25T15:04:29.999Z</time></trkpt><trkpt lat="46.31386480812555" lon="10.797500660205664"><ele>895.0</ele><time>2026-04-25T15:04:31.999Z</time></trkpt><trkpt lat="46.31387715050755" lon="10.79740807470033"><ele>894.9999999999999</ele><time>2026-04-25T15:04:33.999Z</time></trkpt><trkpt lat="46.31389784735465" lon="10.797304024073425"><ele>895.0</ele><time>2026-04-25T15:04:35.999Z</time></trkpt><trkpt lat="46.31391224739414" lon="10.797196674627932"><ele>894.0</ele><time>2026-04-25T15:04:37.999Z</time></trkpt><trkpt lat="46.313927774777" lon="10.797094410204846"><ele>893.0</ele><time>2026-04-25T15:04:39.999Z</time></trkpt><trkpt lat="46.3139483009904" lon="10.79699228766733"><ele>892.0</ele><time>2026-04-25T15:04:41.999Z</time></trkpt><trkpt lat="46.31396619665298" lon="10.79688222171483"><ele>891.0</ele><time>2026-04-25T15:04:44Z</time></trkpt><trkpt lat="46.31398230572117" lon="10.796782546686234"><ele>890.0</ele><time>2026-04-25T15:04:46Z</time></trkpt><trkpt lat="46.31400920547548" lon="10.796687209258664"><ele>889.0</ele><time>2026-04-25T15:04:48Z</time></trkpt><trkpt lat="46.31405270121972" lon="10.796601553859746"><ele>888.0</ele><time>2026-04-25T15:04:50Z</time></trkpt><trkpt lat="46.3141070829834" lon="10.796522532536592"><ele>888.0</ele><time>2026-04-25T15:04:52Z</time></trkpt><trkpt lat="46.31418049488257" lon="10.79646541261279"><ele>888.0</ele><time>2026-04-25T15:04:54Z</time></trkpt><trkpt lat="46.31425902272474" lon="10.796428798531968"><ele>888.0</ele><time>2026-04-25T15:04:56Z</time></trkpt><trkpt lat="46.31433784970883" lon="10.79640018858005"><ele>888.0</ele><time>2026-04-25T15:04:58Z</time></trkpt><trkpt lat="46.31435192458483" lon="10.79625175258936"><ele>888.0</ele><time>2026-04-25T15:05:00Z</time></trkpt><trkpt lat="46.31433397366188" lon="10.79615979367739"><ele>888.0</ele><time>2026-04-25T15:05:02Z</time></trkpt><trkpt lat="46.31432971106028" lon="10.796065208479172"><ele>888.8571428571428</ele><time>2026-04-25T15:05:04Z</time></trkpt><trkpt lat="46.31432699706928" lon="10.795966671676656"><ele>889.7142857142858</ele><time>2026-04-25T15:05:06Z</time></trkpt><trkpt lat="46.31431999190648" lon="10.795860813680715"><ele>890.5714285714286</ele><time>2026-04-25T15:05:08Z</time></trkpt><trkpt lat="46.31430280646201" lon="10.7957612161477"><ele>891.4285714285713</ele><time>2026-04-25T15:05:10Z</time></trkpt><trkpt lat="46.31428906336781" lon="10.795658088020772"><ele>892.2857142857142</ele><time>2026-04-25T15:05:12Z</time></trkpt><trkpt lat="46.314269609542734" lon="10.795561622413699"><ele>893.1428571428571</ele><time>2026-04-25T15:05:14Z</time></trkpt><trkpt lat="46.3142496190982" lon="10.79547164220299"><ele>894.0</ele><time>2026-04-25T15:05:16Z</time></trkpt><trkpt lat="46.31422963704875" lon="10.795339678560877"><ele>893.9999999999999</ele><time>2026-04-25T15:05:19Z</time></trkpt><trkpt lat="46.31422471388021" lon="10.795241213636043"><ele>894.0</ele><time>2026-04-25T15:05:21Z</time></trkpt><trkpt lat="46.31422562557887" lon="10.795144744707994"><ele>894.0</ele><time>2026-04-25T15:05:23Z</time></trkpt><trkpt lat="46.314226695231746" lon="10.795033898266745"><ele>894.0</ele><time>2026-04-25T15:05:25Z</time></trkpt><trkpt lat="46.314224317228096" lon="10.794924928950099"><ele>894.0</ele><time>2026-04-25T15:05:27Z</time></trkpt><trkpt lat="46.314223312472606" lon="10.79482038655831"><ele>893.9999999999999</ele><time>2026-04-25T15:05:29Z</time></trkpt><trkpt lat="46.314221882088354" lon="10.794720480251323"><ele>894.0</ele><time>2026-04-25T15:05:30.999Z</time></trkpt><trkpt lat="46.31422110010444" lon="10.794620064066727"><ele>893.8571428571428</ele><time>2026-04-25T15:05:32.999Z</time></trkpt><trkpt lat="46.314217947242135" lon="10.794513510744293"><ele>893.7142857142857</ele><time>2026-04-25T15:05:34.999Z</time></trkpt><trkpt lat="46.31420902997795" lon="10.794411917477973"><ele>893.5714285714286</ele><time>2026-04-25T15:05:36.999Z</time></trkpt><trkpt lat="46.31418738693888" lon="10.794317603242202"><ele>893.4285714285713</ele><time>2026-04-25T15:05:38.999Z</time></trkpt><trkpt lat="46.31415173396077" lon="10.794242230552333"><ele>893.2857142857143</ele><time>2026-04-25T15:05:40.999Z</time></trkpt><trkpt lat="46.3140888662801" lon="10.794139012890028"><ele>893.1428571428571</ele><time>2026-04-25T15:05:43.999Z</time></trkpt><trkpt lat="46.314052775934215" lon="10.794064046594439"><ele>893.0</ele><time>2026-04-25T15:05:45.999Z</time></trkpt><trkpt lat="46.3140160525805" lon="10.793986606174652"><ele>893.0</ele><time>2026-04-25T15:05:47.999Z</time></trkpt><trkpt lat="46.313985010778694" lon="10.793883660783951"><ele>893.0</ele><time>2026-04-25T15:05:50.999Z</time></trkpt><trkpt lat="46.313956700381155" lon="10.793776399341324"><ele>893.0</ele><time>2026-04-25T15:05:53.999Z</time></trkpt><trkpt lat="46.313928120076085" lon="10.793654034231004"><ele>893.0</ele><time>2026-04-25T15:05:56.999Z</time></trkpt><trkpt lat="46.31390673580975" lon="10.793564159281429"><ele>893.0</ele><time>2026-04-25T15:05:58.999Z</time></trkpt><trkpt lat="46.31388798552065" lon="10.793472307900164"><ele>893.0</ele><time>2026-04-25T15:06:00.999Z</time></trkpt><trkpt lat="46.313862347397354" lon="10.793380648971489"><ele>893.0</ele><time>2026-04-25T15:06:02.999Z</time></trkpt><trkpt lat="46.31383947400782" lon="10.793293399926293"><ele>895.0</ele><time>2026-04-25T15:06:04.999Z</time></trkpt><trkpt lat="46.313817074946684" lon="10.793207639596785"><ele>897.0</ele><time>2026-04-25T15:06:06.999Z</time></trkpt><trkpt lat="46.31376879881899" lon="10.79308653335963"><ele>899.0</ele><time>2026-04-25T15:06:09.999Z</time></trkpt><trkpt lat="46.31373174583311" lon="10.793007138641046"><ele>901.0</ele><time>2026-04-25T15:06:11.999Z</time></trkpt><trkpt lat="46.31369223967249" lon="10.792923075492821"><ele>903.0</ele><time>2026-04-25T15:06:13.999Z</time></trkpt><trkpt lat="46.31365718432377" lon="10.792835890465899"><ele>905.0000000000001</ele><time>2026-04-25T15:06:15.999Z</time></trkpt><trkpt lat="46.31362062411976" lon="10.792751921296686"><ele>907.0000000000001</ele><time>2026-04-25T15:06:17.999Z</time></trkpt><trkpt lat="46.313590047927086" lon="10.792667679265605"><ele>907.5714285714287</ele><time>2026-04-25T15:06:19.999Z</time></trkpt><trkpt lat="46.31355694501036" lon="10.79258657574795"><ele>908.1428571428571</ele><time>2026-04-25T15:06:21.998Z</time></trkpt><trkpt lat="46.31353585864012" lon="10.792492824752307"><ele>908.7142857142858</ele><time>2026-04-25T15:06:23.998Z</time></trkpt><trkpt lat="46.313514886681745" lon="10.79239633974595"><ele>909.2857142857143</ele><time>2026-04-25T15:06:25.998Z</time></trkpt><trkpt lat="46.31349732102912" lon="10.792308013162952"><ele>909.8571428571429</ele><time>2026-04-25T15:06:27.998Z</time></trkpt><trkpt lat="46.313481499935335" lon="10.792219508007006"><ele>910.4285714285714</ele><time>2026-04-25T15:06:29.998Z</time></trkpt><trkpt lat="46.313472405191746" lon="10.792086797652894"><ele>911.0</ele><time>2026-04-25T15:06:32.998Z</time></trkpt><trkpt lat="46.31345473459687" lon="10.791962528510217"><ele>911.0000000000001</ele><time>2026-04-25T15:06:35.998Z</time></trkpt><trkpt lat="46.31343497638259" lon="10.79184508391881"><ele>911.0</ele><time>2026-04-25T15:06:38.998Z</time></trkpt><trkpt lat="46.31341411796436" lon="10.791723330030957"><ele>911.0</ele><time>2026-04-25T15:06:41.998Z</time></trkpt><trkpt lat="46.313397337579616" lon="10.791603442634836"><ele>911.0</ele><time>2026-04-25T15:06:44.998Z</time></trkpt><trkpt lat="46.313383690743244" lon="10.791482252647118"><ele>911.0000000000001</ele><time>2026-04-25T15:06:47.998Z</time></trkpt><trkpt lat="46.31338099151127" lon="10.791366456213288"><ele>911.0</ele><time>2026-04-25T15:06:50.999Z</time></trkpt><trkpt lat="46.313375798890974" lon="10.79124600183716"><ele>911.6666666666667</ele><time>2026-04-25T15:06:53.999Z</time></trkpt><trkpt lat="46.31336860102794" lon="10.791120354897147"><ele>912.3333333333334</ele><time>2026-04-25T15:06:56.999Z</time></trkpt><trkpt lat="46.31337314735454" lon="10.79099784451609"><ele>913.0</ele><time>2026-04-25T15:06:59.999Z</time></trkpt><trkpt lat="46.31337865689847" lon="10.790881555804262"><ele>913.6666666666667</ele><time>2026-04-25T15:07:03Z</time></trkpt><trkpt lat="46.31340017328098" lon="10.790765376488341"><ele>914.3333333333334</ele><time>2026-04-25T15:07:05.999Z</time></trkpt><trkpt lat="46.31342280118769" lon="10.790644449695696"><ele>915.0</ele><time>2026-04-25T15:07:08.999Z</time></trkpt><trkpt lat="46.313442549427876" lon="10.79055706757967"><ele>915.0</ele><time>2026-04-25T15:07:10.999Z</time></trkpt><trkpt lat="46.31346103958837" lon="10.79046398757202"><ele>915.0000000000001</ele><time>2026-04-25T15:07:12.999Z</time></trkpt><trkpt lat="46.31348386495203" lon="10.790371585818859"><ele>915.0</ele><time>2026-04-25T15:07:14.999Z</time></trkpt><trkpt lat="46.313507972617934" lon="10.790277083270642"><ele>915.0</ele><time>2026-04-25T15:07:16.999Z</time></trkpt><trkpt lat="46.31353141592281" lon="10.79018509080587"><ele>915.0000000000001</ele><time>2026-04-25T15:07:18.999Z</time></trkpt><trkpt lat="46.31355961725046" lon="10.790094342518618"><ele>915.0</ele><time>2026-04-25T15:07:20.999Z</time></trkpt><trkpt lat="46.313592814016566" lon="10.789991049868071"><ele>915.0</ele><time>2026-04-25T15:07:22.999Z</time></trkpt><trkpt lat="46.31362060595538" lon="10.789896804312738"><ele>915.0</ele><time>2026-04-25T15:07:24.999Z</time></trkpt><trkpt lat="46.313641234824104" lon="10.789802505584099"><ele>915.0000000000001</ele><time>2026-04-25T15:07:26.999Z</time></trkpt><trkpt lat="46.31365177440478" lon="10.789706371092624"><ele>915.0</ele><time>2026-04-25T15:07:28.999Z</time></trkpt><trkpt lat="46.313642387978696" lon="10.78961051834808"><ele>915.0</ele><time>2026-04-25T15:07:30.999Z</time></trkpt><trkpt lat="46.313626281044954" lon="10.789516797288048"><ele>915.0000000000001</ele><time>2026-04-25T15:07:32.999Z</time></trkpt><trkpt lat="46.31360984113734" lon="10.789425744779503"><ele>915.0</ele><time>2026-04-25T15:07:34.999Z</time></trkpt><trkpt lat="46.313608140623764" lon="10.789328904985704"><ele>915.0</ele><time>2026-04-25T15:07:36.999Z</time></trkpt><trkpt lat="46.31357427159552" lon="10.789235636448037"><ele>915.1428571428572</ele><time>2026-04-25T15:07:38.999Z</time></trkpt><trkpt lat="46.31355389292359" lon="10.789138955722159"><ele>915.2857142857144</ele><time>2026-04-25T15:07:40.999Z</time></trkpt><trkpt lat="46.31352851965587" lon="10.789045797804503"><ele>915.4285714285714</ele><time>2026-04-25T15:07:42.999Z</time></trkpt><trkpt lat="46.313503888859735" lon="10.788952481038876"><ele>915.5714285714287</ele><time>2026-04-25T15:07:44.999Z</time></trkpt><trkpt lat="46.313481041580495" lon="10.788855614688028"><ele>915.7142857142858</ele><time>2026-04-25T15:07:46.999Z</time></trkpt><trkpt lat="46.313460750284385" lon="10.788762367768829"><ele>915.8571428571429</ele><time>2026-04-25T15:07:48.999Z</time></trkpt><trkpt lat="46.31344228172535" lon="10.788668865005725"><ele>916.0</ele><time>2026-04-25T15:07:50.999Z</time></trkpt><trkpt lat="46.31342775111615" lon="10.788575189788334"><ele>915.8571428571429</ele><time>2026-04-25T15:07:52.999Z</time></trkpt><trkpt lat="46.313414921327706" lon="10.788477244220953"><ele>915.7142857142858</ele><time>2026-04-25T15:07:54.999Z</time></trkpt><trkpt lat="46.31340060957841" lon="10.788383462327074"><ele>915.5714285714287</ele><time>2026-04-25T15:07:56.999Z</time></trkpt><trkpt lat="46.31338853986261" lon="10.788280450253232"><ele>915.4285714285714</ele><time>2026-04-25T15:07:58.999Z</time></trkpt><trkpt lat="46.31337084602741" lon="10.788180851098405"><ele>915.2857142857144</ele><time>2026-04-25T15:08:00.999Z</time></trkpt><trkpt lat="46.31334481676008" lon="10.788083518068882"><ele>915.1428571428572</ele><time>2026-04-25T15:08:02.999Z</time></trkpt><trkpt lat="46.31331303444373" lon="10.787988377202627"><ele>915.0</ele><time>2026-04-25T15:08:04.999Z</time></trkpt><trkpt lat="46.31327847547879" lon="10.787893225414443"><ele>915.0</ele><time>2026-04-25T15:08:06.999Z</time></trkpt><trkpt lat="46.313253770461166" lon="10.78780295012635"><ele>915.0000000000001</ele><time>2026-04-25T15:08:08.999Z</time></trkpt><trkpt lat="46.3132236593907" lon="10.78771258444125"><ele>915.0</ele><time>2026-04-25T15:08:10.999Z</time></trkpt><trkpt lat="46.31319870655848" lon="10.787626612674002"><ele>915.0</ele><time>2026-04-25T15:08:12.999Z</time></trkpt><trkpt lat="46.31318821000678" lon="10.78753045934288"><ele>915.0000000000001</ele><time>2026-04-25T15:08:14.999Z</time></trkpt><trkpt lat="46.31320825377446" lon="10.787420476061003"><ele>915.0</ele><time>2026-04-25T15:08:16.999Z</time></trkpt><trkpt lat="46.3132249564955" lon="10.787322614205763"><ele>915.0</ele><time>2026-04-25T15:08:18.999Z</time></trkpt><trkpt lat="46.31323818458668" lon="10.787213694272303"><ele>914.8333333333334</ele><time>2026-04-25T15:08:20.999Z</time></trkpt><trkpt lat="46.31325501179266" lon="10.787101123160989"><ele>914.6666666666667</ele><time>2026-04-25T15:08:22.999Z</time></trkpt><trkpt lat="46.31326418583715" lon="10.786990006406239"><ele>914.5</ele><time>2026-04-25T15:08:24.999Z</time></trkpt><trkpt lat="46.313269505099775" lon="10.786888034489486"><ele>914.3333333333334</ele><time>2026-04-25T15:08:27.999Z</time></trkpt><trkpt lat="46.31324044322562" lon="10.786795102146304"><ele>914.1666666666667</ele><time>2026-04-25T15:09:31.999Z</time></trkpt><trkpt lat="46.31321494537396" lon="10.786672357663415"><ele>914.0</ele><time>2026-04-25T15:09:33.999Z</time></trkpt><trkpt lat="46.31321110067983" lon="10.786544334670218"><ele>914.0000000000001</ele><time>2026-04-25T15:09:35.999Z</time></trkpt><trkpt lat="46.31319402291374" lon="10.7864159125465"><ele>914.0</ele><time>2026-04-25T15:09:37.999Z</time></trkpt><trkpt lat="46.313179874349416" lon="10.786286108836563"><ele>914.0</ele><time>2026-04-25T15:09:39.999Z</time></trkpt><trkpt lat="46.313169385151745" lon="10.786160746934915"><ele>914.0</ele><time>2026-04-25T15:09:41.999Z</time></trkpt><trkpt lat="46.31315957761518" lon="10.786042792354124"><ele>914.0000000000001</ele><time>2026-04-25T15:09:43.999Z</time></trkpt><trkpt lat="46.31317560412634" lon="10.785929755102902"><ele>914.0</ele><time>2026-04-25T15:09:45.999Z</time></trkpt><trkpt lat="46.3131759555462" lon="10.785801815189803"><ele>914.0</ele><time>2026-04-25T15:09:47.999Z</time></trkpt><trkpt lat="46.313196808391986" lon="10.78567151089761"><ele>914.0000000000001</ele><time>2026-04-25T15:09:49.999Z</time></trkpt><trkpt lat="46.31323032467689" lon="10.785522222414775"><ele>914.0000000000001</ele><time>2026-04-25T15:09:51.999Z</time></trkpt><trkpt lat="46.31325912207482" lon="10.785367130053393"><ele>914.0</ele><time>2026-04-25T15:09:53.999Z</time></trkpt><trkpt lat="46.31327258276397" lon="10.785219911426312"><ele>914.0</ele><time>2026-04-25T15:09:55.999Z</time></trkpt><trkpt lat="46.313276863796496" lon="10.785074838294971"><ele>914.0000000000001</ele><time>2026-04-25T15:09:57.999Z</time></trkpt><trkpt lat="46.313286880325435" lon="10.784935605844398"><ele>914.0</ele><time>2026-04-25T15:09:59.999Z</time></trkpt><trkpt lat="46.313306936126374" lon="10.784827347498565"><ele>914.0</ele><time>2026-04-25T15:10:01.999Z</time></trkpt><trkpt lat="46.31331437442349" lon="10.784709057735174"><ele>914.0</ele><time>2026-04-25T15:10:03.999Z</time></trkpt><trkpt lat="46.31332457687631" lon="10.784598733188295"><ele>914.0000000000001</ele><time>2026-04-25T15:10:05.999Z</time></trkpt><trkpt lat="46.31334435433317" lon="10.784488813643812"><ele>914.0</ele><time>2026-04-25T15:10:07.999Z</time></trkpt><trkpt lat="46.31335209555354" lon="10.78438713934732"><ele>914.3333333333334</ele><time>2026-04-25T15:10:09.999Z</time></trkpt><trkpt lat="46.31333795768974" lon="10.784282436943665"><ele>914.6666666666667</ele><time>2026-04-25T15:10:11.999Z</time></trkpt><trkpt lat="46.31332707853033" lon="10.784170734321963"><ele>915.0</ele><time>2026-04-25T15:10:13.999Z</time></trkpt><trkpt lat="46.313289605400946" lon="10.784071614786654"><ele>915.3333333333333</ele><time>2026-04-25T15:10:15.999Z</time></trkpt><trkpt lat="46.313237499931084" lon="10.783986319491365"><ele>915.6666666666666</ele><time>2026-04-25T15:10:17.999Z</time></trkpt><trkpt lat="46.31318581775896" lon="10.783906244018636"><ele>916.0</ele><time>2026-04-25T15:10:19.999Z</time></trkpt><trkpt lat="46.313125816876926" lon="10.783820893425538"><ele>917.1666666666666</ele><time>2026-04-25T15:10:21.999Z</time></trkpt><trkpt lat="46.313070490914235" lon="10.78372212836956"><ele>918.3333333333333</ele><time>2026-04-25T15:10:23.999Z</time></trkpt><trkpt lat="46.31302447985623" lon="10.783619567693236"><ele>919.5</ele><time>2026-04-25T15:10:25.999Z</time></trkpt><trkpt lat="46.31298409258931" lon="10.783511784613065"><ele>920.6666666666667</ele><time>2026-04-25T15:10:27.999Z</time></trkpt><trkpt lat="46.312935276154576" lon="10.783406937682637"><ele>921.8333333333334</ele><time>2026-04-25T15:10:29.999Z</time></trkpt><trkpt lat="46.31289221809132" lon="10.783303105908363"><ele>923.0</ele><time>2026-04-25T15:10:31.999Z</time></trkpt><trkpt lat="46.31284907028318" lon="10.78319851541574"><ele>923.0000000000001</ele><time>2026-04-25T15:10:33.999Z</time></trkpt><trkpt lat="46.31281817256418" lon="10.783079527884134"><ele>923.0</ele><time>2026-04-25T15:10:35.999Z</time></trkpt><trkpt lat="46.31275686540537" lon="10.782983244042558"><ele>923.0</ele><time>2026-04-25T15:10:37.999Z</time></trkpt><trkpt lat="46.31271029369483" lon="10.782882665126447"><ele>923.0</ele><time>2026-04-25T15:10:39.999Z</time></trkpt><trkpt lat="46.312661419021225" lon="10.782781890765282"><ele>923.0000000000001</ele><time>2026-04-25T15:10:41.999Z</time></trkpt><trkpt lat="46.31261182762499" lon="10.782684298547093"><ele>923.0</ele><time>2026-04-25T15:10:43.999Z</time></trkpt><trkpt lat="46.312560135872424" lon="10.782572435960397"><ele>922.4</ele><time>2026-04-25T15:10:45.999Z</time></trkpt><trkpt lat="46.312502280417185" lon="10.78247549206101"><ele>921.8</ele><time>2026-04-25T15:10:47.999Z</time></trkpt><trkpt lat="46.31243881348321" lon="10.78238542761389"><ele>921.2</ele><time>2026-04-25T15:10:49.999Z</time></trkpt><trkpt lat="46.31236131636789" lon="10.782302874747463"><ele>920.6</ele><time>2026-04-25T15:10:51.999Z</time></trkpt><trkpt lat="46.312275083167734" lon="10.782228977936022"><ele>920.0</ele><time>2026-04-25T15:10:53.999Z</time></trkpt><trkpt lat="46.3121959316312" lon="10.782162948087036"><ele>921.8333333333334</ele><time>2026-04-25T15:10:55.999Z</time></trkpt><trkpt lat="46.31212291794283" lon="10.782110325564908"><ele>923.6666666666667</ele><time>2026-04-25T15:10:57.999Z</time></trkpt><trkpt lat="46.31204628122248" lon="10.782045602409235"><ele>925.5</ele><time>2026-04-25T15:11:00Z</time></trkpt><trkpt lat="46.31196752043251" lon="10.782012397583044"><ele>927.3333333333333</ele><time>2026-04-25T15:11:02Z</time></trkpt><trkpt lat="46.31188405678445" lon="10.782015868988445"><ele>929.1666666666666</ele><time>2026-04-25T15:11:04Z</time></trkpt><trkpt lat="46.31181165388683" lon="10.782015641628234"><ele>931.0</ele><time>2026-04-25T15:11:06Z</time></trkpt><trkpt lat="46.31173029770573" lon="10.781980700644224"><ele>930.9999999999999</ele><time>2026-04-25T15:11:08Z</time></trkpt><trkpt lat="46.311654251598796" lon="10.78195349770546"><ele>931.0</ele><time>2026-04-25T15:11:10Z</time></trkpt><trkpt lat="46.3115707989517" lon="10.78191073330257"><ele>931.0</ele><time>2026-04-25T15:11:12Z</time></trkpt><trkpt lat="46.31149998263616" lon="10.781861380865426"><ele>931.0</ele><time>2026-04-25T15:11:14Z</time></trkpt><trkpt lat="46.311431381885896" lon="10.781808607832211"><ele>930.9999999999999</ele><time>2026-04-25T15:11:16Z</time></trkpt><trkpt lat="46.31136217991143" lon="10.781755372223012"><ele>931.0</ele><time>2026-04-25T15:11:18Z</time></trkpt><trkpt lat="46.31128755339009" lon="10.781722088566775"><ele>932.1666666666666</ele><time>2026-04-25T15:11:20Z</time></trkpt><trkpt lat="46.311218424744325" lon="10.781672381843869"><ele>933.3333333333333</ele><time>2026-04-25T15:11:22Z</time></trkpt><trkpt lat="46.31115736510882" lon="10.781608986791866"><ele>934.5</ele><time>2026-04-25T15:11:24Z</time></trkpt><trkpt lat="46.31110758567611" lon="10.781517382075226"><ele>935.6666666666667</ele><time>2026-04-25T15:11:26Z</time></trkpt><trkpt lat="46.31106040002511" lon="10.781413459953473"><ele>936.8333333333334</ele><time>2026-04-25T15:11:28Z</time></trkpt><trkpt lat="46.31101551627823" lon="10.781317110724844"><ele>938.0</ele><time>2026-04-25T15:11:30Z</time></trkpt><trkpt lat="46.31097050047113" lon="10.781217870825365"><ele>938.0000000000001</ele><time>2026-04-25T15:11:31.999Z</time></trkpt><trkpt lat="46.310946865215946" lon="10.78109920677294"><ele>938.0</ele><time>2026-04-25T15:11:33.999Z</time></trkpt><trkpt lat="46.31090750111341" lon="10.780991466267109"><ele>938.0</ele><time>2026-04-25T15:11:35.999Z</time></trkpt><trkpt lat="46.310894042459196" lon="10.780864869796888"><ele>938.0</ele><time>2026-04-25T15:11:37.999Z</time></trkpt><trkpt lat="46.310876108482674" lon="10.780745833212134"><ele>938.0000000000001</ele><time>2026-04-25T15:11:39.999Z</time></trkpt><trkpt lat="46.31083540273873" lon="10.78063487576085"><ele>938.0</ele><time>2026-04-25T15:11:41.999Z</time></trkpt><trkpt lat="46.3108104119645" lon="10.780524219427523"><ele>937.0000000000001</ele><time>2026-04-25T15:11:43.999Z</time></trkpt><trkpt lat="46.31080940557677" lon="10.780404756959511"><ele>936.0</ele><time>2026-04-25T15:11:45.999Z</time></trkpt><trkpt lat="46.31081967419885" lon="10.780289707134774"><ele>935.0</ele><time>2026-04-25T15:11:47.999Z</time></trkpt><trkpt lat="46.310827093782834" lon="10.780178718286097"><ele>934.0</ele><time>2026-04-25T15:11:49.999Z</time></trkpt><trkpt lat="46.31081558663191" lon="10.78006331275471"><ele>933.0000000000001</ele><time>2026-04-25T15:11:51.999Z</time></trkpt><trkpt lat="46.31079714274308" lon="10.77994104786007"><ele>932.0</ele><time>2026-04-25T15:11:53.999Z</time></trkpt><trkpt lat="46.31077920844377" lon="10.779826164057328"><ele>931.5000000000001</ele><time>2026-04-25T15:11:55.999Z</time></trkpt><trkpt lat="46.31076253609511" lon="10.77971007981412"><ele>931.0</ele><time>2026-04-25T15:11:57.999Z</time></trkpt><trkpt lat="46.310723924136894" lon="10.779597571744672"><ele>930.5</ele><time>2026-04-25T15:11:59.999Z</time></trkpt><trkpt lat="46.31068158454703" lon="10.779486315820558"><ele>930.0</ele><time>2026-04-25T15:12:01.999Z</time></trkpt><trkpt lat="46.310644367560066" lon="10.77938404112878"><ele>929.5000000000001</ele><time>2026-04-25T15:12:03.999Z</time></trkpt><trkpt lat="46.31060567970923" lon="10.77928555283608"><ele>929.0</ele><time>2026-04-25T15:12:05.999Z</time></trkpt><trkpt lat="46.310554459042166" lon="10.779197959525083"><ele>931.6666666666667</ele><time>2026-04-25T15:12:07.999Z</time></trkpt><trkpt lat="46.310517246586265" lon="10.779118321953632"><ele>934.3333333333334</ele><time>2026-04-25T15:12:09.999Z</time></trkpt><trkpt lat="46.31046750308783" lon="10.779059225387602"><ele>937.0</ele><time>2026-04-25T15:12:51.999Z</time></trkpt><trkpt lat="46.310428480879885" lon="10.778947783404238"><ele>939.6666666666667</ele><time>2026-04-25T15:12:55.999Z</time></trkpt><trkpt lat="46.31040160365195" lon="10.778842935107996"><ele>942.3333333333334</ele><time>2026-04-25T15:12:57.999Z</time></trkpt><trkpt lat="46.31039105157297" lon="10.778728748255832"><ele>945.0</ele><time>2026-04-25T15:12:59.999Z</time></trkpt><trkpt lat="46.3103805937503" lon="10.778616133878412"><ele>944.1666666666666</ele><time>2026-04-25T15:13:01.999Z</time></trkpt><trkpt lat="46.31037624758692" lon="10.778495609696515"><ele>943.3333333333333</ele><time>2026-04-25T15:13:03.999Z</time></trkpt><trkpt lat="46.310371201433355" lon="10.77837392618642"><ele>942.5</ele><time>2026-04-25T15:13:06Z</time></trkpt><trkpt lat="46.3103682849314" lon="10.778259099189746"><ele>941.6666666666666</ele><time>2026-04-25T15:13:08Z</time></trkpt><trkpt lat="46.310366098144485" lon="10.778149873362183"><ele>940.8333333333333</ele><time>2026-04-25T15:13:10Z</time></trkpt><trkpt lat="46.31036416840755" lon="10.778033825640014"><ele>940.0</ele><time>2026-04-25T15:13:12Z</time></trkpt><trkpt lat="46.31036110410851" lon="10.77792394081264"><ele>939.9999999999999</ele><time>2026-04-25T15:13:14Z</time></trkpt><trkpt lat="46.3103555491153" lon="10.777814831628174"><ele>940.0</ele><time>2026-04-25T15:13:16Z</time></trkpt><trkpt lat="46.31034718994633" lon="10.777702325626448"><ele>940.0</ele><time>2026-04-25T15:13:18Z</time></trkpt><trkpt lat="46.310334778782426" lon="10.777597389120992"><ele>940.0</ele><time>2026-04-25T15:13:20Z</time></trkpt><trkpt lat="46.31032631211256" lon="10.777497688580214"><ele>939.9999999999999</ele><time>2026-04-25T15:13:22Z</time></trkpt><trkpt lat="46.31032253713801" lon="10.777628603471308"><ele>940.0</ele><time>2026-04-25T15:13:31Z</time></trkpt><trkpt lat="46.31035052239671" lon="10.777724844314859"><ele>940.0</ele><time>2026-04-25T15:13:33Z</time></trkpt><trkpt lat="46.31035818627164" lon="10.77782888029161"><ele>940.0</ele><time>2026-04-25T15:13:35Z</time></trkpt><trkpt lat="46.310367869518835" lon="10.777960329701388"><ele>940.0</ele><time>2026-04-25T15:13:37Z</time></trkpt><trkpt lat="46.310377985865976" lon="10.778107543702324"><ele>940.0</ele><time>2026-04-25T15:13:39Z</time></trkpt><trkpt lat="46.31038204078431" lon="10.778262559477833"><ele>940.0</ele><time>2026-04-25T15:13:41Z</time></trkpt><trkpt lat="46.31038627367675" lon="10.778416991536032"><ele>941.0</ele><time>2026-04-25T15:13:43Z</time></trkpt><trkpt lat="46.3103907132364" lon="10.778568701793724"><ele>942.0</ele><time>2026-04-25T15:13:45Z</time></trkpt><trkpt lat="46.31039765368379" lon="10.778719350253693"><ele>943.0</ele><time>2026-04-25T15:13:47Z</time></trkpt><trkpt lat="46.31040758093697" lon="10.77885152645872"><ele>944.0</ele><time>2026-04-25T15:13:49Z</time></trkpt><trkpt lat="46.31043709361183" lon="10.77899866913996"><ele>945.0</ele><time>2026-04-25T15:13:51Z</time></trkpt><trkpt lat="46.310485688682284" lon="10.779144005943085"><ele>941.0</ele><time>2026-04-25T15:13:53Z</time></trkpt><trkpt lat="46.31057920661553" lon="10.779281431157974"><ele>937.0</ele><time>2026-04-25T15:13:55Z</time></trkpt><trkpt lat="46.31061733168712" lon="10.779358985114996"><ele>933.0</ele><time>2026-04-25T15:13:56Z</time></trkpt><trkpt lat="46.31057651314641" lon="10.77922795364565"><ele>929.0</ele><time>2026-04-25T15:13:57Z</time></trkpt><trkpt lat="46.310713203044784" lon="10.77962697756399"><ele>929.0</ele><time>2026-04-25T15:13:59Z</time></trkpt><trkpt lat="46.31075853148378" lon="10.779750289203845"><ele>929.0000000000001</ele><time>2026-04-25T15:14:00.999Z</time></trkpt><trkpt lat="46.31077245205629" lon="10.779886911291577"><ele>929.0000000000001</ele><time>2026-04-25T15:14:02.999Z</time></trkpt><trkpt lat="46.310794090120666" lon="10.780023830154642"><ele>929.0</ele><time>2026-04-25T15:14:04.999Z</time></trkpt><trkpt lat="46.31080384922483" lon="10.780175968148361"><ele>929.0</ele><time>2026-04-25T15:14:06.999Z</time></trkpt><trkpt lat="46.310807691159475" lon="10.780322303119709"><ele>929.6</ele><time>2026-04-25T15:14:08.999Z</time></trkpt><trkpt lat="46.31078985721863" lon="10.780477118701544"><ele>930.2</ele><time>2026-04-25T15:14:10.999Z</time></trkpt><trkpt lat="46.310812659876284" lon="10.780625403247269"><ele>930.8000000000001</ele><time>2026-04-25T15:14:12.999Z</time></trkpt><trkpt lat="46.31086213958587" lon="10.780756719190856"><ele>931.4000000000001</ele><time>2026-04-25T15:14:14.999Z</time></trkpt><trkpt lat="46.31089116017173" lon="10.780897128518244"><ele>932.0</ele><time>2026-04-25T15:14:16.999Z</time></trkpt><trkpt lat="46.31090297031123" lon="10.781039574073386"><ele>933.0000000000001</ele><time>2026-04-25T15:14:18.999Z</time></trkpt><trkpt lat="46.310933868385206" lon="10.781166965082596"><ele>934.0</ele><time>2026-04-25T15:14:20.999Z</time></trkpt><trkpt lat="46.310988147042785" lon="10.781283685683405"><ele>935.0</ele><time>2026-04-25T15:14:22.999Z</time></trkpt><trkpt lat="46.31103826110295" lon="10.781396778125023"><ele>936.0</ele><time>2026-04-25T15:14:24.999Z</time></trkpt><trkpt lat="46.31108453532176" lon="10.781501686861015"><ele>937.0000000000001</ele><time>2026-04-25T15:14:26.999Z</time></trkpt><trkpt lat="46.31111573367432" lon="10.781606785287975"><ele>938.0</ele><time>2026-04-25T15:14:28.999Z</time></trkpt><trkpt lat="46.31117069156392" lon="10.781676569647018"><ele>938.0</ele><time>2026-04-25T15:14:30.999Z</time></trkpt><trkpt lat="46.31124446253162" lon="10.78173199917505"><ele>938.0</ele><time>2026-04-25T15:14:32.999Z</time></trkpt><trkpt lat="46.31132845476763" lon="10.78176206999093"><ele>938.0</ele><time>2026-04-25T15:14:34.999Z</time></trkpt><trkpt lat="46.3114103504402" lon="10.78182509227855"><ele>938.0</ele><time>2026-04-25T15:14:36.999Z</time></trkpt><trkpt lat="46.31149276018635" lon="10.78188575721822"><ele>938.0</ele><time>2026-04-25T15:14:38.999Z</time></trkpt><trkpt lat="46.31157629748038" lon="10.781952219360395"><ele>936.5999999999999</ele><time>2026-04-25T15:14:40.999Z</time></trkpt><trkpt lat="46.31166967980098" lon="10.781996461865642"><ele>935.1999999999999</ele><time>2026-04-25T15:14:42.999Z</time></trkpt><trkpt lat="46.311763594529545" lon="10.782025013872682"><ele>933.8</ele><time>2026-04-25T15:14:44.999Z</time></trkpt><trkpt lat="46.311853187482996" lon="10.782034774688208"><ele>932.4</ele><time>2026-04-25T15:14:46.999Z</time></trkpt><trkpt lat="46.31193199367309" lon="10.782057674050437"><ele>931.0</ele><time>2026-04-25T15:14:48.999Z</time></trkpt><trkpt lat="46.312024800899785" lon="10.782077056472911"><ele>931.0</ele><time>2026-04-25T15:14:50.999Z</time></trkpt><trkpt lat="46.31211494592038" lon="10.782134652201794"><ele>930.9999999999999</ele><time>2026-04-25T15:14:52.999Z</time></trkpt><trkpt lat="46.31220769578023" lon="10.782188118849705"><ele>930.9999999999999</ele><time>2026-04-25T15:14:54.999Z</time></trkpt><trkpt lat="46.31228749208498" lon="10.782259601834454"><ele>931.0</ele><time>2026-04-25T15:14:56.999Z</time></trkpt><trkpt lat="46.312358622089896" lon="10.782336340769103"><ele>931.0</ele><time>2026-04-25T15:14:58.999Z</time></trkpt><trkpt lat="46.312425950183076" lon="10.78241254593879"><ele>929.6666666666666</ele><time>2026-04-25T15:15:00.999Z</time></trkpt><trkpt lat="46.31248941441408" lon="10.782496049084338"><ele>928.3333333333333</ele><time>2026-04-25T15:15:02.999Z</time></trkpt><trkpt lat="46.312539133574816" lon="10.7825875354114"><ele>927.0</ele><time>2026-04-25T15:15:04.999Z</time></trkpt><trkpt lat="46.312585172650834" lon="10.78267358435111"><ele>925.6666666666667</ele><time>2026-04-25T15:15:06.999Z</time></trkpt><trkpt lat="46.31263078368929" lon="10.782762679780486"><ele>924.3333333333334</ele><time>2026-04-25T15:15:08.999Z</time></trkpt><trkpt lat="46.312672273347424" lon="10.78286546383824"><ele>923.0</ele><time>2026-04-25T15:15:10.999Z</time></trkpt><trkpt lat="46.31272899153513" lon="10.78296606214195"><ele>923.0</ele><time>2026-04-25T15:15:13Z</time></trkpt><trkpt lat="46.312775780867995" lon="10.783083903014749"><ele>923.0</ele><time>2026-04-25T15:15:15Z</time></trkpt><trkpt lat="46.31282488618105" lon="10.78319902827846"><ele>923.0</ele><time>2026-04-25T15:15:17Z</time></trkpt><trkpt lat="46.31286759527856" lon="10.783311362689707"><ele>923.0</ele><time>2026-04-25T15:15:19Z</time></trkpt><trkpt lat="46.312914265289926" lon="10.783422815317381"><ele>923.0</ele><time>2026-04-25T15:15:21Z</time></trkpt><trkpt lat="46.31296227731278" lon="10.783535039052875"><ele>923.8</ele><time>2026-04-25T15:15:23Z</time></trkpt><trkpt lat="46.313004930049935" lon="10.783641205245328"><ele>924.5999999999999</ele><time>2026-04-25T15:15:25Z</time></trkpt><trkpt lat="46.313054899529035" lon="10.783743110854441"><ele>925.4000000000001</ele><time>2026-04-25T15:15:27Z</time></trkpt><trkpt lat="46.3131124881566" lon="10.78384428688735"><ele>926.2</ele><time>2026-04-25T15:15:29Z</time></trkpt><trkpt lat="46.31318620036335" lon="10.78394178779421"><ele>927.0</ele><time>2026-04-25T15:15:31Z</time></trkpt><trkpt lat="46.31324176255783" lon="10.78405728685671"><ele>924.8</ele><time>2026-04-25T15:15:33Z</time></trkpt><trkpt lat="46.31329849057127" lon="10.78416015355107"><ele>922.6</ele><time>2026-04-25T15:15:35Z</time></trkpt><trkpt lat="46.313326275992765" lon="10.784289307589225"><ele>920.3999999999999</ele><time>2026-04-25T15:15:37Z</time></trkpt><trkpt lat="46.31332833397469" lon="10.784438890540626"><ele>918.1999999999999</ele><time>2026-04-25T15:15:39Z</time></trkpt><trkpt lat="46.31330593982131" lon="10.784600257018962"><ele>916.0</ele><time>2026-04-25T15:15:41Z</time></trkpt><trkpt lat="46.31328736888639" lon="10.784754413707143"><ele>915.5999999999999</ele><time>2026-04-25T15:15:43Z</time></trkpt><trkpt lat="46.313275711181035" lon="10.784907826073269"><ele>915.1999999999999</ele><time>2026-04-25T15:15:45Z</time></trkpt><trkpt lat="46.31326318893848" lon="10.785059832508916"><ele>914.8000000000001</ele><time>2026-04-25T15:15:47Z</time></trkpt><trkpt lat="46.313254939692364" lon="10.78522285132939"><ele>914.4000000000001</ele><time>2026-04-25T15:15:49Z</time></trkpt><trkpt lat="46.31322312911016" lon="10.785376764568042"><ele>914.0</ele><time>2026-04-25T15:15:51Z</time></trkpt><trkpt lat="46.31320930331503" lon="10.785532165300872"><ele>914.0</ele><time>2026-04-25T15:15:53Z</time></trkpt><trkpt lat="46.313186967460084" lon="10.785669591199083"><ele>914.0000000000001</ele><time>2026-04-25T15:15:55Z</time></trkpt><trkpt lat="46.31316727945663" lon="10.785808978204857"><ele>914.0000000000001</ele><time>2026-04-25T15:15:57Z</time></trkpt><trkpt lat="46.31314757184219" lon="10.785946868628377"><ele>914.0</ele><time>2026-04-25T15:15:59Z</time></trkpt><trkpt lat="46.31315226798169" lon="10.786099221248092"><ele>914.0</ele><time>2026-04-25T15:16:01Z</time></trkpt><trkpt lat="46.313146807615325" lon="10.786246855540831"><ele>914.0</ele><time>2026-04-25T15:16:03Z</time></trkpt><trkpt lat="46.313176382798694" lon="10.786378196052548"><ele>914.0000000000001</ele><time>2026-04-25T15:16:05Z</time></trkpt><trkpt lat="46.31318998190095" lon="10.786512821741125"><ele>914.0000000000001</ele><time>2026-04-25T15:16:07Z</time></trkpt><trkpt lat="46.31319775247715" lon="10.786636098755688"><ele>914.0</ele><time>2026-04-25T15:16:09Z</time></trkpt><trkpt lat="46.31320603842677" lon="10.786760099637148"><ele>914.0</ele><time>2026-04-25T15:16:11Z</time></trkpt><trkpt lat="46.31321797281267" lon="10.786888422350575"><ele>914.5000000000001</ele><time>2026-04-25T15:16:13Z</time></trkpt><trkpt lat="46.3132207240658" lon="10.787019907520254"><ele>915.0</ele><time>2026-04-25T15:16:15Z</time></trkpt><trkpt lat="46.3132078659416" lon="10.78715279843564"><ele>915.5</ele><time>2026-04-25T15:16:17Z</time></trkpt><trkpt lat="46.31318828347489" lon="10.78724482434404"><ele>916.0</ele><time>2026-04-25T15:16:25Z</time></trkpt><trkpt lat="46.313184181697665" lon="10.787361782044536"><ele>916.5000000000001</ele><time>2026-04-25T15:16:30Z</time></trkpt><trkpt lat="46.31316214517863" lon="10.787483624130893"><ele>917.0</ele><time>2026-04-25T15:16:31.999Z</time></trkpt><trkpt lat="46.31316759609453" lon="10.787612508392874"><ele>916.6</ele><time>2026-04-25T15:16:33.999Z</time></trkpt><trkpt lat="46.31320889802304" lon="10.787737946648589"><ele>916.2</ele><time>2026-04-25T15:16:35.999Z</time></trkpt><trkpt lat="46.31324974446776" lon="10.787863350385068"><ele>915.8</ele><time>2026-04-25T15:16:37.999Z</time></trkpt><trkpt lat="46.313283910251876" lon="10.787981120055965"><ele>915.4</ele><time>2026-04-25T15:16:39.999Z</time></trkpt><trkpt lat="46.3133138114459" lon="10.78809333908571"><ele>915.0</ele><time>2026-04-25T15:16:41.999Z</time></trkpt><trkpt lat="46.3133407831526" lon="10.788221261234778"><ele>915.0</ele><time>2026-04-25T15:16:43.999Z</time></trkpt><trkpt lat="46.31336426448678" lon="10.788355938590207"><ele>915.0</ele><time>2026-04-25T15:16:45.999Z</time></trkpt><trkpt lat="46.31338765472966" lon="10.788495167076027"><ele>915.0</ele><time>2026-04-25T15:16:47.999Z</time></trkpt><trkpt lat="46.313411504442634" lon="10.788637701362033"><ele>915.0</ele><time>2026-04-25T15:16:49.999Z</time></trkpt><trkpt lat="46.31343513211393" lon="10.788784037106062"><ele>915.0</ele><time>2026-04-25T15:16:51.999Z</time></trkpt><trkpt lat="46.31347177795602" lon="10.788945359256662"><ele>915.0</ele><time>2026-04-25T15:16:53.999Z</time></trkpt><trkpt lat="46.31351603203448" lon="10.78911056626434"><ele>915.0</ele><time>2026-04-25T15:16:55.999Z</time></trkpt><trkpt lat="46.31355977990446" lon="10.789283999732355"><ele>915.0</ele><time>2026-04-25T15:16:57.999Z</time></trkpt><trkpt lat="46.31359045919049" lon="10.789456675880656"><ele>915.0</ele><time>2026-04-25T15:16:59.999Z</time></trkpt><trkpt lat="46.31361691566988" lon="10.789622845055709"><ele>915.0</ele><time>2026-04-25T15:17:01.999Z</time></trkpt><trkpt lat="46.313615402048846" lon="10.789794981147038"><ele>915.0</ele><time>2026-04-25T15:17:03.999Z</time></trkpt><trkpt lat="46.313576306193575" lon="10.789955039322509"><ele>915.0</ele><time>2026-04-25T15:17:05.999Z</time></trkpt><trkpt lat="46.3135259872597" lon="10.790116639131286"><ele>915.0</ele><time>2026-04-25T15:17:07.999Z</time></trkpt><trkpt lat="46.313499235247924" lon="10.790201556754498"><ele>915.0</ele><time>2026-04-25T15:17:08.999Z</time></trkpt><trkpt lat="46.31347328117549" lon="10.790285314325633"><ele>915.3333333333334</ele><time>2026-04-25T15:17:09.999Z</time></trkpt><trkpt lat="46.31344985553935" lon="10.790377928083576"><ele>915.6666666666667</ele><time>2026-04-25T15:17:10.999Z</time></trkpt><trkpt lat="46.31342825858648" lon="10.790469668098732"><ele>916.0</ele><time>2026-04-25T15:17:11.999Z</time></trkpt><trkpt lat="46.313404397157" lon="10.790559814525263"><ele>916.3333333333334</ele><time>2026-04-25T15:17:12.999Z</time></trkpt><trkpt lat="46.31337924156008" lon="10.790646510590342"><ele>916.6666666666667</ele><time>2026-04-25T15:17:13.999Z</time></trkpt><trkpt lat="46.31334108596755" lon="10.790812706735812"><ele>917.0</ele><time>2026-04-25T15:17:15.999Z</time></trkpt><trkpt lat="46.313324519324844" lon="10.790998219694632"><ele>916.7142857142858</ele><time>2026-04-25T15:17:18Z</time></trkpt><trkpt lat="46.31332710705796" lon="10.791098319300492"><ele>916.4285714285714</ele><time>2026-04-25T15:17:19Z</time></trkpt><trkpt lat="46.31333360895813" lon="10.791201677188578"><ele>916.1428571428571</ele><time>2026-04-25T15:17:20Z</time></trkpt><trkpt lat="46.313340783814475" lon="10.79130550086278"><ele>915.8571428571429</ele><time>2026-04-25T15:17:21Z</time></trkpt><trkpt lat="46.313348013341944" lon="10.79141120068055"><ele>915.5714285714287</ele><time>2026-04-25T15:17:22Z</time></trkpt><trkpt lat="46.31335598558679" lon="10.791519748958535"><ele>915.2857142857143</ele><time>2026-04-25T15:17:23Z</time></trkpt><trkpt lat="46.313364282060924" lon="10.79163185462204"><ele>915.0</ele><time>2026-04-25T15:17:24Z</time></trkpt><trkpt lat="46.31338171558295" lon="10.79174238662756"><ele>914.3333333333334</ele><time>2026-04-25T15:17:25Z</time></trkpt><trkpt lat="46.31339543780814" lon="10.79185670142491"><ele>913.6666666666667</ele><time>2026-04-25T15:17:26Z</time></trkpt><trkpt lat="46.31341664350292" lon="10.791970845333903"><ele>913.0</ele><time>2026-04-25T15:17:27Z</time></trkpt><trkpt lat="46.313435978487185" lon="10.792085444388855"><ele>912.3333333333334</ele><time>2026-04-25T15:17:28Z</time></trkpt><trkpt lat="46.31345479501697" lon="10.792202730841112"><ele>911.6666666666667</ele><time>2026-04-25T15:17:29Z</time></trkpt><trkpt lat="46.31347022947958" lon="10.79232010692734"><ele>911.0</ele><time>2026-04-25T15:17:30Z</time></trkpt><trkpt lat="46.313485338601375" lon="10.792433705910401"><ele>911.0</ele><time>2026-04-25T15:17:31Z</time></trkpt><trkpt lat="46.313513326809826" lon="10.792537467444287"><ele>911.0</ele><time>2026-04-25T15:17:32Z</time></trkpt><trkpt lat="46.31354306981086" lon="10.792643348174884"><ele>911.0</ele><time>2026-04-25T15:17:33Z</time></trkpt><trkpt lat="46.31357609237485" lon="10.792738653142857"><ele>911.0</ele><time>2026-04-25T15:17:34Z</time></trkpt><trkpt lat="46.31361368232443" lon="10.792826199794892"><ele>911.0</ele><time>2026-04-25T15:17:35Z</time></trkpt><trkpt lat="46.31365307835085" lon="10.79291516358102"><ele>911.0</ele><time>2026-04-25T15:17:36Z</time></trkpt><trkpt lat="46.31369313412021" lon="10.793003934599454"><ele>911.0</ele><time>2026-04-25T15:17:37Z</time></trkpt><trkpt lat="46.313736213413804" lon="10.793090978446683"><ele>910.4285714285714</ele><time>2026-04-25T15:17:38Z</time></trkpt><trkpt lat="46.31377511828073" lon="10.793178581341287"><ele>909.8571428571429</ele><time>2026-04-25T15:17:39Z</time></trkpt><trkpt lat="46.31380707881843" lon="10.793268265518984"><ele>909.2857142857143</ele><time>2026-04-25T15:17:40Z</time></trkpt><trkpt lat="46.31382980038799" lon="10.793367131312968"><ele>908.7142857142858</ele><time>2026-04-25T15:17:41Z</time></trkpt><trkpt lat="46.31385008455166" lon="10.793462038762664"><ele>908.1428571428571</ele><time>2026-04-25T15:17:42Z</time></trkpt><trkpt lat="46.313872481791385" lon="10.793555533171418"><ele>907.5714285714287</ele><time>2026-04-25T15:17:43Z</time></trkpt><trkpt lat="46.313894159808605" lon="10.793647007811677"><ele>907.0000000000001</ele><time>2026-04-25T15:17:44Z</time></trkpt><trkpt lat="46.31391693131376" lon="10.793738958550104"><ele>905.3333333333333</ele><time>2026-04-25T15:17:45Z</time></trkpt><trkpt lat="46.31393929245185" lon="10.793828260254346"><ele>903.6666666666666</ele><time>2026-04-25T15:17:46Z</time></trkpt><trkpt lat="46.313987565975765" lon="10.79398692752368"><ele>902.0</ele><time>2026-04-25T15:17:48Z</time></trkpt><trkpt lat="46.31404564813506" lon="10.794137849108992"><ele>900.3333333333333</ele><time>2026-04-25T15:17:50Z</time></trkpt><trkpt lat="46.314083959141016" lon="10.794215862585684"><ele>898.6666666666666</ele><time>2026-04-25T15:17:51Z</time></trkpt><trkpt lat="46.314127012719865" lon="10.794292434871792"><ele>897.0</ele><time>2026-04-25T15:17:52Z</time></trkpt><trkpt lat="46.314170306309784" lon="10.794381220788868"><ele>897.0</ele><time>2026-04-25T15:17:53Z</time></trkpt><trkpt lat="46.314204911276676" lon="10.79448195248454"><ele>897.0</ele><time>2026-04-25T15:17:54Z</time></trkpt><trkpt lat="46.31419157771248" lon="10.794596284067527"><ele>897.0</ele><time>2026-04-25T15:17:55Z</time></trkpt><trkpt lat="46.31419589391351" lon="10.794696800588481"><ele>897.0</ele><time>2026-04-25T15:17:56Z</time></trkpt><trkpt lat="46.314187171611835" lon="10.794791316555186"><ele>897.0</ele><time>2026-04-25T15:17:57Z</time></trkpt><trkpt lat="46.31419043887078" lon="10.794882502685233"><ele>897.0</ele><time>2026-04-25T15:17:58Z</time></trkpt><trkpt lat="46.31419945702898" lon="10.795047066899727"><ele>896.4000000000001</ele><time>2026-04-25T15:18:00Z</time></trkpt><trkpt lat="46.314196290652085" lon="10.795197576558513"><ele>895.8000000000001</ele><time>2026-04-25T15:18:02Z</time></trkpt><trkpt lat="46.31419601838362" lon="10.795371706275422"><ele>895.2</ele><time>2026-04-25T15:18:04Z</time></trkpt><trkpt lat="46.314227884693054" lon="10.7955481277198"><ele>894.6</ele><time>2026-04-25T15:18:06Z</time></trkpt><trkpt lat="46.31424161394462" lon="10.79564030851203"><ele>894.0</ele><time>2026-04-25T15:18:07Z</time></trkpt><trkpt lat="46.3142596367566" lon="10.795736323448814"><ele>893.9999999999999</ele><time>2026-04-25T15:18:08Z</time></trkpt><trkpt lat="46.31427165034613" lon="10.795831490761698"><ele>894.0</ele><time>2026-04-25T15:18:09Z</time></trkpt><trkpt lat="46.31428381834266" lon="10.79592828865546"><ele>894.0</ele><time>2026-04-25T15:18:10Z</time></trkpt><trkpt lat="46.314296679054735" lon="10.796023087528676"><ele>894.0</ele><time>2026-04-25T15:18:11Z</time></trkpt><trkpt lat="46.31430688754365" lon="10.796115827768629"><ele>894.0</ele><time>2026-04-25T15:18:12Z</time></trkpt><trkpt lat="46.31430142738399" lon="10.79622119544908"><ele>893.9999999999999</ele><time>2026-04-25T15:18:14Z</time></trkpt><trkpt lat="46.314305885524774" lon="10.796340646576997"><ele>894.0</ele><time>2026-04-25T15:18:22Z</time></trkpt><trkpt lat="46.31413369274061" lon="10.796280497206006"><ele>894.3333333333334</ele><time>2026-04-25T15:18:25Z</time></trkpt><trkpt lat="46.3141033283379" lon="10.79643392786026"><ele>894.6666666666667</ele><time>2026-04-25T15:18:26Z</time></trkpt><trkpt lat="46.31400158384157" lon="10.796530923757352"><ele>895.0</ele><time>2026-04-25T15:18:28Z</time></trkpt><trkpt lat="46.31396086712385" lon="10.79660795006535"><ele>895.3333333333334</ele><time>2026-04-25T15:18:29Z</time></trkpt><trkpt lat="46.31393594041758" lon="10.796704938975353"><ele>895.6666666666667</ele><time>2026-04-25T15:18:30Z</time></trkpt><trkpt lat="46.31391050804784" lon="10.7967988992669"><ele>896.0</ele><time>2026-04-25T15:18:31Z</time></trkpt><trkpt lat="46.31390076661717" lon="10.796897848342716"><ele>896.0</ele><time>2026-04-25T15:18:32Z</time></trkpt><trkpt lat="46.31389255839594" lon="10.796998837779842"><ele>896.0</ele><time>2026-04-25T15:18:33Z</time></trkpt><trkpt lat="46.31387715645733" lon="10.797100337132978"><ele>896.0</ele><time>2026-04-25T15:18:34Z</time></trkpt><trkpt lat="46.31386276363051" lon="10.797199869327505"><ele>896.0</ele><time>2026-04-25T15:18:35Z</time></trkpt><trkpt lat="46.3138468560431" lon="10.7972959382279"><ele>896.0</ele><time>2026-04-25T15:18:36Z</time></trkpt><trkpt lat="46.313831211574914" lon="10.797395624479082"><ele>896.0</ele><time>2026-04-25T15:18:37Z</time></trkpt><trkpt lat="46.31381792800466" lon="10.79748787067796"><ele>896.0</ele><time>2026-04-25T15:18:38Z</time></trkpt><trkpt lat="46.31380343693339" lon="10.797578069752989"><ele>896.0</ele><time>2026-04-25T15:18:39Z</time></trkpt><trkpt lat="46.31378886920148" lon="10.797667209199247"><ele>895.9999999999999</ele><time>2026-04-25T15:18:40Z</time></trkpt><trkpt lat="46.313764067435024" lon="10.797845104524033"><ele>895.9999999999999</ele><time>2026-04-25T15:18:42Z</time></trkpt><trkpt lat="46.31373547290929" lon="10.798017680460138"><ele>896.0</ele><time>2026-04-25T15:18:44Z</time></trkpt><trkpt lat="46.31370528367792" lon="10.798180461503481"><ele>896.0</ele><time>2026-04-25T15:18:46Z</time></trkpt><trkpt lat="46.31367676581836" lon="10.798337777639503"><ele>896.1666666666667</ele><time>2026-04-25T15:18:48Z</time></trkpt><trkpt lat="46.31364855030813" lon="10.798509012317387"><ele>896.3333333333334</ele><time>2026-04-25T15:18:49.999Z</time></trkpt><trkpt lat="46.31363529279944" lon="10.798600747643368"><ele>896.5</ele><time>2026-04-25T15:18:50.999Z</time></trkpt><trkpt lat="46.313618863033774" lon="10.798696151585915"><ele>896.6666666666667</ele><time>2026-04-25T15:18:51.999Z</time></trkpt><trkpt lat="46.31360345685966" lon="10.798790157688375"><ele>896.8333333333334</ele><time>2026-04-25T15:18:52.999Z</time></trkpt><trkpt lat="46.313589268829624" lon="10.79888844803345"><ele>897.0</ele><time>2026-04-25T15:18:53.999Z</time></trkpt><trkpt lat="46.313574464930966" lon="10.798985249328481"><ele>897.0</ele><time>2026-04-25T15:18:54.999Z</time></trkpt><trkpt lat="46.31356036832428" lon="10.799080953562633"><ele>897.0</ele><time>2026-04-25T15:18:55.999Z</time></trkpt><trkpt lat="46.313548599658354" lon="10.799172601567356"><ele>897.0</ele><time>2026-04-25T15:18:56.999Z</time></trkpt><trkpt lat="46.31353482473018" lon="10.799263905163839"><ele>897.0</ele><time>2026-04-25T15:18:57.999Z</time></trkpt><trkpt lat="46.3135191064497" lon="10.799353941937513"><ele>897.0</ele><time>2026-04-25T15:18:58.999Z</time></trkpt><trkpt lat="46.31350205074672" lon="10.799532746796054"><ele>897.0</ele><time>2026-04-25T15:19:00.999Z</time></trkpt><trkpt lat="46.31349838061009" lon="10.79962582764386"><ele>896.7142857142858</ele><time>2026-04-25T15:19:01.999Z</time></trkpt><trkpt lat="46.31349840956093" lon="10.799720065618217"><ele>896.4285714285713</ele><time>2026-04-25T15:19:02.999Z</time></trkpt><trkpt lat="46.313499333199864" lon="10.799816995155993"><ele>896.1428571428571</ele><time>2026-04-25T15:19:03.999Z</time></trkpt><trkpt lat="46.31350033715023" lon="10.799915777908923"><ele>895.8571428571429</ele><time>2026-04-25T15:19:04.999Z</time></trkpt><trkpt lat="46.31349759829433" lon="10.800014166574277"><ele>895.5714285714287</ele><time>2026-04-25T15:19:05.999Z</time></trkpt><trkpt lat="46.313493996495545" lon="10.800114300647975"><ele>895.2857142857142</ele><time>2026-04-25T15:19:06.999Z</time></trkpt><trkpt lat="46.31349091449485" lon="10.800214318580094"><ele>895.0</ele><time>2026-04-25T15:19:07.999Z</time></trkpt><trkpt lat="46.313488891114744" lon="10.800316809487038"><ele>895.0</ele><time>2026-04-25T15:19:08.999Z</time></trkpt><trkpt lat="46.313323243590965" lon="10.800457397443555"><ele>895.0</ele><time>2026-04-25T15:19:09.999Z</time></trkpt><trkpt lat="46.313334409936594" lon="10.80056151033538"><ele>895.0</ele><time>2026-04-25T15:19:10.999Z</time></trkpt><trkpt lat="46.3133451767863" lon="10.800661898342797"><ele>895.0</ele><time>2026-04-25T15:19:11.999Z</time></trkpt><trkpt lat="46.31358035929179" lon="10.800646781403062"><ele>897.0</ele><time>2026-04-25T15:19:13.999Z</time></trkpt><trkpt lat="46.313663771225585" lon="10.801022104586824"><ele>899.0</ele><time>2026-04-25T15:19:16.999Z</time></trkpt><trkpt lat="46.31368786315993" lon="10.801129225039958"><ele>901.0</ele><time>2026-04-25T15:19:17.999Z</time></trkpt><trkpt lat="46.31369737597986" lon="10.801239391712611"><ele>903.0</ele><time>2026-04-25T15:19:18.999Z</time></trkpt><trkpt lat="46.313704552445614" lon="10.80134207335539"><ele>903.0</ele><time>2026-04-25T15:19:19.999Z</time></trkpt><trkpt lat="46.31371731254819" lon="10.801443172763767"><ele>903.0</ele><time>2026-04-25T15:19:20.999Z</time></trkpt><trkpt lat="46.31372006443797" lon="10.801541020319632"><ele>903.0</ele><time>2026-04-25T15:19:21.999Z</time></trkpt><trkpt lat="46.31371713034708" lon="10.801632706492171"><ele>903.0</ele><time>2026-04-25T15:19:23Z</time></trkpt><trkpt lat="46.31372444719092" lon="10.801726663114597"><ele>903.0</ele><time>2026-04-25T15:19:24Z</time></trkpt><trkpt lat="46.31372566599594" lon="10.801820340632279"><ele>903.0</ele><time>2026-04-25T15:19:25Z</time></trkpt><trkpt lat="46.31373651433269" lon="10.801923673216345"><ele>903.0</ele><time>2026-04-25T15:19:26Z</time></trkpt><trkpt lat="46.31374609670517" lon="10.802025159877267"><ele>904.8333333333334</ele><time>2026-04-25T15:19:27Z</time></trkpt><trkpt lat="46.31376297429372" lon="10.802139194199139"><ele>906.6666666666667</ele><time>2026-04-25T15:19:28Z</time></trkpt><trkpt lat="46.31377437725478" lon="10.802249006075838"><ele>908.5</ele><time>2026-04-25T15:19:29Z</time></trkpt><trkpt lat="46.31378234296883" lon="10.802363493561447"><ele>910.3333333333334</ele><time>2026-04-25T15:19:30Z</time></trkpt><trkpt lat="46.31379824497513" lon="10.802476381839005"><ele>912.1666666666667</ele><time>2026-04-25T15:19:31Z</time></trkpt><trkpt lat="46.313802642304736" lon="10.802582721785484"><ele>914.0</ele><time>2026-04-25T15:19:32Z</time></trkpt><trkpt lat="46.313817075550375" lon="10.802688527219413"><ele>914.0000000000001</ele><time>2026-04-25T15:19:33Z</time></trkpt><trkpt lat="46.313838545272176" lon="10.802796643612995"><ele>914.0</ele><time>2026-04-25T15:19:34Z</time></trkpt><trkpt lat="46.31384695536138" lon="10.802910335709083"><ele>914.0</ele><time>2026-04-25T15:19:35Z</time></trkpt><trkpt lat="46.313859892009454" lon="10.8030232285739"><ele>914.0</ele><time>2026-04-25T15:19:36Z</time></trkpt><trkpt lat="46.31387453788854" lon="10.803137473806208"><ele>914.0000000000001</ele><time>2026-04-25T15:19:37Z</time></trkpt><trkpt lat="46.313886930515096" lon="10.803259484501913"><ele>914.0</ele><time>2026-04-25T15:19:38Z</time></trkpt><trkpt lat="46.313900507342005" lon="10.803387245376507"><ele>908.5000000000001</ele><time>2026-04-25T15:19:39Z</time></trkpt><trkpt lat="46.31391687919576" lon="10.803512356625525"><ele>903.0</ele><time>2026-04-25T15:19:40Z</time></trkpt><trkpt lat="46.31393042693783" lon="10.803640395455423"><ele>897.5</ele><time>2026-04-25T15:19:41Z</time></trkpt><trkpt lat="46.31394510155196" lon="10.803772121242288"><ele>892.0</ele><time>2026-04-25T15:19:42Z</time></trkpt><trkpt lat="46.313960124663204" lon="10.803898745603838"><ele>886.5000000000001</ele><time>2026-04-25T15:19:43Z</time></trkpt><trkpt lat="46.313972494126965" lon="10.804018206126607"><ele>881.0</ele><time>2026-04-25T15:19:44Z</time></trkpt><trkpt lat="46.31398031597695" lon="10.804122699047785"><ele>881.0</ele><time>2026-04-25T15:19:45Z</time></trkpt><trkpt lat="46.313995674023055" lon="10.804281631564852"><ele>880.9999999999999</ele><time>2026-04-25T15:19:47Z</time></trkpt><trkpt lat="46.314003334403886" lon="10.80442377259402"><ele>880.9999999999999</ele><time>2026-04-25T15:19:49Z</time></trkpt><trkpt lat="46.31401766007721" lon="10.804555018010033"><ele>881.0</ele><time>2026-04-25T15:19:51Z</time></trkpt><trkpt lat="46.31403197632658" lon="10.804681304686605"><ele>881.0</ele><time>2026-04-25T15:19:53Z</time></trkpt><trkpt lat="46.314055394977416" lon="10.804822364264545"><ele>881.0</ele><time>2026-04-25T15:19:55Z</time></trkpt><trkpt lat="46.31408198802571" lon="10.804963854265388"><ele>880.9999999999999</ele><time>2026-04-25T15:19:57Z</time></trkpt><trkpt lat="46.31410654545488" lon="10.80511604770097"><ele>880.9999999999999</ele><time>2026-04-25T15:19:59Z</time></trkpt><trkpt lat="46.314118516321685" lon="10.805268165794022"><ele>881.0</ele><time>2026-04-25T15:20:01Z</time></trkpt><trkpt lat="46.314126481703155" lon="10.80539100924176"><ele>881.0</ele><time>2026-04-25T15:20:04Z</time></trkpt><trkpt lat="46.31414664259738" lon="10.805593713697446"><ele>881.2857142857142</ele><time>2026-04-25T15:20:05Z</time></trkpt><trkpt lat="46.31418394794191" lon="10.805667521054406"><ele>881.5714285714287</ele><time>2026-04-25T15:20:06Z</time></trkpt><trkpt lat="46.31422404940274" lon="10.805760093662565"><ele>881.8571428571429</ele><time>2026-04-25T15:20:07Z</time></trkpt><trkpt lat="46.314262162973876" lon="10.805858854189955"><ele>882.1428571428571</ele><time>2026-04-25T15:20:08Z</time></trkpt><trkpt lat="46.31429397660325" lon="10.80596048777805"><ele>882.4285714285713</ele><time>2026-04-25T15:20:09Z</time></trkpt><trkpt lat="46.3143215454599" lon="10.806050707610522"><ele>882.7142857142858</ele><time>2026-04-25T15:20:10Z</time></trkpt><trkpt lat="46.31435578439147" lon="10.80615977304162"><ele>883.0</ele><time>2026-04-25T15:20:11Z</time></trkpt><trkpt lat="46.314371599945765" lon="10.806314215925351"><ele>883.4999999999999</ele><time>2026-04-25T15:20:13Z</time></trkpt><trkpt lat="46.314385609704814" lon="10.80645327613865"><ele>884.0</ele><time>2026-04-25T15:20:15Z</time></trkpt><trkpt lat="46.314399979254695" lon="10.806553769553991"><ele>884.5</ele><time>2026-04-25T15:20:17Z</time></trkpt><trkpt lat="46.3144118365668" lon="10.806650159703224"><ele>885.0</ele><time>2026-04-25T15:20:19Z</time></trkpt><trkpt lat="46.314410829219185" lon="10.806769974349164"><ele>885.4999999999999</ele><time>2026-04-25T15:20:21Z</time></trkpt><trkpt lat="46.314411411259506" lon="10.80688586344142"><ele>886.0</ele><time>2026-04-25T15:20:23Z</time></trkpt><trkpt lat="46.31439220200102" lon="10.807015943758241"><ele>886.3333333333333</ele><time>2026-04-25T15:20:25Z</time></trkpt><trkpt lat="46.31437046496149" lon="10.80715273339569"><ele>886.6666666666666</ele><time>2026-04-25T15:20:27Z</time></trkpt><trkpt lat="46.31436357940468" lon="10.807261202531453"><ele>887.0</ele><time>2026-04-25T15:20:29Z</time></trkpt><trkpt lat="46.31437650389783" lon="10.807394943720729"><ele>887.3333333333333</ele><time>2026-04-25T15:20:31Z</time></trkpt><trkpt lat="46.314364836735386" lon="10.80751879364753"><ele>887.6666666666666</ele><time>2026-04-25T15:20:32Z</time></trkpt><trkpt lat="46.31437859636937" lon="10.807609266653309"><ele>888.0</ele><time>2026-04-25T15:20:33Z</time></trkpt><trkpt lat="46.314396938079994" lon="10.807780834689972"><ele>887.4285714285714</ele><time>2026-04-25T15:20:35Z</time></trkpt><trkpt lat="46.31441420114499" lon="10.80787573782377"><ele>886.8571428571429</ele><time>2026-04-25T15:20:36Z</time></trkpt><trkpt lat="46.3144347245225" lon="10.80797123656821"><ele>886.2857142857143</ele><time>2026-04-25T15:20:37Z</time></trkpt><trkpt lat="46.31445330541846" lon="10.808073432369689"><ele>885.7142857142858</ele><time>2026-04-25T15:20:38Z</time></trkpt><trkpt lat="46.314471444541475" lon="10.808178292308149"><ele>885.1428571428571</ele><time>2026-04-25T15:20:39Z</time></trkpt><trkpt lat="46.31448817044674" lon="10.808279227052953"><ele>884.5714285714287</ele><time>2026-04-25T15:20:40Z</time></trkpt><trkpt lat="46.31450887829562" lon="10.808382410279092"><ele>884.0</ele><time>2026-04-25T15:20:41Z</time></trkpt><trkpt lat="46.314530323243545" lon="10.80848649278583"><ele>883.8333333333334</ele><time>2026-04-25T15:20:42Z</time></trkpt><trkpt lat="46.3145504565988" lon="10.808595675447199"><ele>883.6666666666667</ele><time>2026-04-25T15:20:43Z</time></trkpt><trkpt lat="46.314571556458816" lon="10.808702673001706"><ele>883.5</ele><time>2026-04-25T15:20:44Z</time></trkpt><trkpt lat="46.31459302851938" lon="10.808808393210008"><ele>883.3333333333333</ele><time>2026-04-25T15:20:45Z</time></trkpt><trkpt lat="46.314615725278266" lon="10.808915714815278"><ele>883.1666666666666</ele><time>2026-04-25T15:20:46Z</time></trkpt><trkpt lat="46.31463523186355" lon="10.809027920263656"><ele>883.0</ele><time>2026-04-25T15:20:47Z</time></trkpt><trkpt lat="46.314660164527794" lon="10.809141442812116"><ele>882.9999999999999</ele><time>2026-04-25T15:20:48Z</time></trkpt><trkpt lat="46.31468013823225" lon="10.809250764457252"><ele>883.0</ele><time>2026-04-25T15:20:49Z</time></trkpt><trkpt lat="46.31470553523415" lon="10.809335780056493"><ele>883.0</ele><time>2026-04-25T15:20:50Z</time></trkpt><trkpt lat="46.3147239167601" lon="10.80944638482258"><ele>883.0</ele><time>2026-04-25T15:20:51Z</time></trkpt><trkpt lat="46.314743577262135" lon="10.809560556978617"><ele>882.9999999999999</ele><time>2026-04-25T15:20:52Z</time></trkpt><trkpt lat="46.31476829045372" lon="10.809664776723208"><ele>883.0</ele><time>2026-04-25T15:20:53Z</time></trkpt><trkpt lat="46.31479175475168" lon="10.80977053418213"><ele>881.6666666666666</ele><time>2026-04-25T15:20:54Z</time></trkpt><trkpt lat="46.314807722314335" lon="10.809876058823408"><ele>880.3333333333333</ele><time>2026-04-25T15:20:55Z</time></trkpt><trkpt lat="46.31482904652147" lon="10.809983158116566"><ele>879.0</ele><time>2026-04-25T15:20:56Z</time></trkpt><trkpt lat="46.31485522820857" lon="10.810091429948386"><ele>877.6666666666667</ele><time>2026-04-25T15:20:57Z</time></trkpt><trkpt lat="46.31487822717401" lon="10.810196358990467"><ele>876.3333333333334</ele><time>2026-04-25T15:20:58Z</time></trkpt><trkpt lat="46.314906410638834" lon="10.810302817595396"><ele>875.0</ele><time>2026-04-25T15:20:59Z</time></trkpt><trkpt lat="46.31492303739358" lon="10.81042006030344"><ele>875.0</ele><time>2026-04-25T15:21:00Z</time></trkpt><trkpt lat="46.31495803598347" lon="10.81053379462405"><ele>875.0</ele><time>2026-04-25T15:21:01Z</time></trkpt><trkpt lat="46.31499824549664" lon="10.810649207034931"><ele>875.0</ele><time>2026-04-25T15:21:02Z</time></trkpt><trkpt lat="46.31505349756458" lon="10.810764232230596"><ele>875.0</ele><time>2026-04-25T15:21:03Z</time></trkpt><trkpt lat="46.31509622243136" lon="10.810899313622205"><ele>875.0</ele><time>2026-04-25T15:21:04Z</time></trkpt><trkpt lat="46.31514966571638" lon="10.81103013049579"><ele>876.6</ele><time>2026-04-25T15:21:05Z</time></trkpt><trkpt lat="46.31520877275376" lon="10.81116216520357"><ele>878.2</ele><time>2026-04-25T15:21:06Z</time></trkpt><trkpt lat="46.315265970377276" lon="10.81128710984822"><ele>879.8</ele><time>2026-04-25T15:21:07Z</time></trkpt><trkpt lat="46.315326979187205" lon="10.811417680075351"><ele>881.4</ele><time>2026-04-25T15:21:07.999Z</time></trkpt><trkpt lat="46.31538080127783" lon="10.811532077666495"><ele>883.0</ele><time>2026-04-25T15:21:08.999Z</time></trkpt><trkpt lat="46.31543630147715" lon="10.811631172804935"><ele>882.9999999999999</ele><time>2026-04-25T15:21:09.999Z</time></trkpt><trkpt lat="46.31548979195551" lon="10.811737738242277"><ele>883.0</ele><time>2026-04-25T15:21:10.999Z</time></trkpt><trkpt lat="46.3155453716592" lon="10.811842359816282"><ele>883.0</ele><time>2026-04-25T15:21:11.999Z</time></trkpt><trkpt lat="46.315595838336094" lon="10.811932568037296"><ele>883.0</ele><time>2026-04-25T15:21:12.999Z</time></trkpt><trkpt lat="46.315633923122306" lon="10.812037992500551"><ele>882.9999999999999</ele><time>2026-04-25T15:21:13.999Z</time></trkpt><trkpt lat="46.31569903460347" lon="10.812108707696138"><ele>883.0</ele><time>2026-04-25T15:21:14.999Z</time></trkpt><trkpt lat="46.315744708866056" lon="10.812201894473766"><ele>881.1666666666666</ele><time>2026-04-25T15:21:15.999Z</time></trkpt><trkpt lat="46.31579485652549" lon="10.812271874980897"><ele>879.3333333333333</ele><time>2026-04-25T15:21:16.999Z</time></trkpt><trkpt lat="46.31584048499462" lon="10.812348124519406"><ele>877.5</ele><time>2026-04-25T15:21:17.999Z</time></trkpt><trkpt lat="46.31587081670101" lon="10.812430119864478"><ele>875.6666666666667</ele><time>2026-04-25T15:21:18.999Z</time></trkpt><trkpt lat="46.31589439818137" lon="10.812516507716289"><ele>873.8333333333334</ele><time>2026-04-25T15:21:19.999Z</time></trkpt><trkpt lat="46.31586917261121" lon="10.812647629096162"><ele>872.0</ele><time>2026-04-25T15:21:21.999Z</time></trkpt><trkpt lat="46.31586436524369" lon="10.81280242831178"><ele>872.0000000000001</ele><time>2026-04-25T15:21:23.999Z</time></trkpt><trkpt lat="46.315922972128234" lon="10.812882487149672"><ele>872.0</ele><time>2026-04-25T15:21:24.999Z</time></trkpt><trkpt lat="46.315979876621846" lon="10.81299249568486"><ele>872.0</ele><time>2026-04-25T15:21:26.999Z</time></trkpt><trkpt lat="46.31605599436112" lon="10.813136943002977"><ele>872.0</ele><time>2026-04-25T15:21:29.001Z</time></trkpt><trkpt lat="46.31609473409715" lon="10.813211863663778"><ele>872.0000000000001</ele><time>2026-04-25T15:21:30.001Z</time></trkpt><trkpt lat="46.316137998184296" lon="10.813295534203203"><ele>872.0</ele><time>2026-04-25T15:21:31.001Z</time></trkpt><trkpt lat="46.31618332540126" lon="10.813382600127188"><ele>872.0</ele><time>2026-04-25T15:21:32.001Z</time></trkpt><trkpt lat="46.316226493387155" lon="10.813463194028307"><ele>872.0</ele><time>2026-04-25T15:21:33.001Z</time></trkpt><trkpt lat="46.316266679906526" lon="10.813536133761389"><ele>872.0</ele><time>2026-04-25T15:21:34.001Z</time></trkpt><trkpt lat="46.316339323152334" lon="10.813664326229256"><ele>872.0</ele><time>2026-04-25T15:21:36.001Z</time></trkpt><trkpt lat="46.316418810994485" lon="10.813771179075598"><ele>872.0</ele><time>2026-04-25T15:21:38.001Z</time></trkpt><trkpt lat="46.31651708698261" lon="10.813810971230202"><ele>870.6</ele><time>2026-04-25T15:21:40.001Z</time></trkpt><trkpt lat="46.31660790543935" lon="10.813751732715826"><ele>869.2</ele><time>2026-04-25T15:21:42.001Z</time></trkpt><trkpt lat="46.31671106684461" lon="10.81372691476487"><ele>867.8</ele><time>2026-04-25T15:21:44.001Z</time></trkpt><trkpt lat="46.31677347125585" lon="10.8137603404078"><ele>866.4</ele><time>2026-04-25T15:21:45.001Z</time></trkpt><trkpt lat="46.316795822741966" lon="10.813904505417486"><ele>865.0</ele><time>2026-04-25T15:21:46.001Z</time></trkpt><trkpt lat="46.31685670375277" lon="10.81398484444131"><ele>865.0</ele><time>2026-04-25T15:21:47.001Z</time></trkpt><trkpt lat="46.31690238075025" lon="10.814072777488823"><ele>865.0</ele><time>2026-04-25T15:21:48Z</time></trkpt><trkpt lat="46.31694965559304" lon="10.814157055385516"><ele>865.0</ele><time>2026-04-25T15:21:49Z</time></trkpt><trkpt lat="46.316994769673386" lon="10.81423970720422"><ele>865.0</ele><time>2026-04-25T15:21:50Z</time></trkpt><trkpt lat="46.317035500821326" lon="10.814323480105692"><ele>865.0</ele><time>2026-04-25T15:21:51Z</time></trkpt><trkpt lat="46.31707357018557" lon="10.814409768123348"><ele>865.0</ele><time>2026-04-25T15:21:52Z</time></trkpt><trkpt lat="46.31711896784993" lon="10.81449117892584"><ele>865.0</ele><time>2026-04-25T15:21:53Z</time></trkpt><trkpt lat="46.3171641620078" lon="10.814570113626257"><ele>863.2</ele><time>2026-04-25T15:21:54Z</time></trkpt><trkpt lat="46.31722028653405" lon="10.814645470057952"><ele>861.4</ele><time>2026-04-25T15:21:55Z</time></trkpt><trkpt lat="46.31731269716097" lon="10.81475489221866"><ele>859.5999999999999</ele><time>2026-04-25T15:21:57Z</time></trkpt><trkpt lat="46.31739773869728" lon="10.814819705579682"><ele>857.8</ele><time>2026-04-25T15:21:58Z</time></trkpt><trkpt lat="46.31749120135114" lon="10.814873440502518"><ele>856.0</ele><time>2026-04-25T15:21:59Z</time></trkpt><trkpt lat="46.3175782066863" lon="10.814945182420296"><ele>856.0</ele><time>2026-04-25T15:22:00Z</time></trkpt><trkpt lat="46.31766080533915" lon="10.81499789480973"><ele>855.9999999999999</ele><time>2026-04-25T15:22:01Z</time></trkpt><trkpt lat="46.31774773541143" lon="10.81503214617466"><ele>855.9999999999999</ele><time>2026-04-25T15:22:02Z</time></trkpt><trkpt lat="46.3178363714953" lon="10.815068429776153"><ele>856.0</ele><time>2026-04-25T15:22:03Z</time></trkpt><trkpt lat="46.31792187496626" lon="10.815109622176267"><ele>856.0</ele><time>2026-04-25T15:22:04Z</time></trkpt><trkpt lat="46.318002849230574" lon="10.815161221817354"><ele>855.1666666666666</ele><time>2026-04-25T15:22:05Z</time></trkpt><trkpt lat="46.3180816485751" lon="10.815211025305288"><ele>854.3333333333333</ele><time>2026-04-25T15:22:06Z</time></trkpt><trkpt lat="46.318154886961175" lon="10.815260463764105"><ele>853.5</ele><time>2026-04-25T15:22:07Z</time></trkpt><trkpt lat="46.31822714425028" lon="10.815309208704214"><ele>852.6666666666667</ele><time>2026-04-25T15:22:08Z</time></trkpt><trkpt lat="46.318291528422975" lon="10.815364829484599"><ele>851.8333333333334</ele><time>2026-04-25T15:22:09Z</time></trkpt><trkpt lat="46.31836063718538" lon="10.81541200767713"><ele>851.0</ele><time>2026-04-25T15:22:10Z</time></trkpt><trkpt lat="46.318422003853385" lon="10.815463941081049"><ele>851.0</ele><time>2026-04-25T15:22:11Z</time></trkpt><trkpt lat="46.3184832921434" lon="10.815514162787354"><ele>851.0</ele><time>2026-04-25T15:22:12Z</time></trkpt><trkpt lat="46.318543745541106" lon="10.81556766641301"><ele>851.0</ele><time>2026-04-25T15:22:13Z</time></trkpt><trkpt lat="46.31860322911159" lon="10.815621477340617"><ele>851.0</ele><time>2026-04-25T15:22:14Z</time></trkpt><trkpt lat="46.31865030876185" lon="10.81570330837843"><ele>851.0</ele><time>2026-04-25T15:22:15Z</time></trkpt><trkpt lat="46.318701194969655" lon="10.815766530288425"><ele>851.0</ele><time>2026-04-25T15:22:16Z</time></trkpt><trkpt lat="46.31875735382197" lon="10.815815735630066"><ele>851.0</ele><time>2026-04-25T15:22:17Z</time></trkpt><trkpt lat="46.318801627704104" lon="10.815886341226653"><ele>851.0</ele><time>2026-04-25T15:22:18Z</time></trkpt><trkpt lat="46.31885007123553" lon="10.815953598776822"><ele>851.0</ele><time>2026-04-25T15:22:19Z</time></trkpt><trkpt lat="46.318897906532044" lon="10.816019043014908"><ele>851.0</ele><time>2026-04-25T15:22:20Z</time></trkpt><trkpt lat="46.31894198445239" lon="10.8160897121455"><ele>851.0</ele><time>2026-04-25T15:22:21Z</time></trkpt><trkpt lat="46.31898727389999" lon="10.816158385288494"><ele>851.0</ele><time>2026-04-25T15:22:22Z</time></trkpt><trkpt lat="46.31903118821898" lon="10.816226725981297"><ele>851.0</ele><time>2026-04-25T15:22:23Z</time></trkpt><trkpt lat="46.319073932459204" lon="10.816296456333298"><ele>851.0</ele><time>2026-04-25T15:22:24Z</time></trkpt><trkpt lat="46.31911600417446" lon="10.81637222776572"><ele>850.5000000000001</ele><time>2026-04-25T15:22:25Z</time></trkpt><trkpt lat="46.319154163652605" lon="10.816447227058354"><ele>850.0</ele><time>2026-04-25T15:22:26Z</time></trkpt><trkpt lat="46.3191915821368" lon="10.816523509349418"><ele>849.5</ele><time>2026-04-25T15:22:27Z</time></trkpt><trkpt lat="46.31925041200777" lon="10.816685005833001"><ele>849.0</ele><time>2026-04-25T15:22:29Z</time></trkpt><trkpt lat="46.31927306328539" lon="10.816770135862624"><ele>848.5000000000001</ele><time>2026-04-25T15:22:30Z</time></trkpt><trkpt lat="46.31928873101334" lon="10.816941953866994"><ele>848.0</ele><time>2026-04-25T15:22:32Z</time></trkpt><trkpt lat="46.31928265389174" lon="10.817104538275148"><ele>848.0</ele><time>2026-04-25T15:22:34Z</time></trkpt><trkpt lat="46.31928402644389" lon="10.817265152505877"><ele>848.0</ele><time>2026-04-25T15:22:36Z</time></trkpt><trkpt lat="46.31929724589652" lon="10.81742306990581"><ele>848.0</ele><time>2026-04-25T15:22:38Z</time></trkpt><trkpt lat="46.31929255833671" lon="10.817590072701577"><ele>848.0</ele><time>2026-04-25T15:22:40Z</time></trkpt><trkpt lat="46.31928809076918" lon="10.81768682824666"><ele>848.0</ele><time>2026-04-25T15:22:41Z</time></trkpt><trkpt lat="46.31927031646987" lon="10.81786157287398"><ele>847.3333333333334</ele><time>2026-04-25T15:22:43Z</time></trkpt><trkpt lat="46.31924938344413" lon="10.818009138611275"><ele>846.6666666666667</ele><time>2026-04-25T15:22:45Z</time></trkpt><trkpt lat="46.31920867499687" lon="10.818096989805605"><ele>846.0</ele><time>2026-04-25T15:25:10.999Z</time></trkpt><trkpt lat="46.319181378321545" lon="10.818216478631916"><ele>845.3333333333333</ele><time>2026-04-25T15:25:13.999Z</time></trkpt><trkpt lat="46.31917930828095" lon="10.818325084710736"><ele>844.6666666666666</ele><time>2026-04-25T15:25:15.999Z</time></trkpt><trkpt lat="46.31923224571185" lon="10.818425578185263"><ele>844.0</ele><time>2026-04-25T15:25:17.999Z</time></trkpt><trkpt lat="46.3193204883065" lon="10.818438010780072"><ele>844.0</ele><time>2026-04-25T15:25:19.999Z</time></trkpt><trkpt lat="46.31940922371779" lon="10.81843855046133"><ele>844.0</ele><time>2026-04-25T15:25:21.999Z</time></trkpt><trkpt lat="46.31949366184779" lon="10.818445402438385"><ele>844.0</ele><time>2026-04-25T15:25:23.999Z</time></trkpt><trkpt lat="46.319577759783336" lon="10.818451818811548"><ele>844.0</ele><time>2026-04-25T15:25:25.999Z</time></trkpt><trkpt lat="46.319657567478394" lon="10.818526364507454"><ele>844.0</ele><time>2026-04-25T15:25:27.999Z</time></trkpt><trkpt lat="46.31964721650961" lon="10.818704700849631"><ele>843.8000000000001</ele><time>2026-04-25T15:25:29.999Z</time></trkpt><trkpt lat="46.31964741889406" lon="10.818864976463754"><ele>843.6</ele><time>2026-04-25T15:25:31.999Z</time></trkpt><trkpt lat="46.319620859113684" lon="10.819012506903363"><ele>843.4</ele><time>2026-04-25T15:25:33.998Z</time></trkpt><trkpt lat="46.31962581667568" lon="10.819168124863955"><ele>843.2</ele><time>2026-04-25T15:25:35.998Z</time></trkpt><trkpt lat="46.31962422523769" lon="10.819332107496907"><ele>843.0</ele><time>2026-04-25T15:25:37.998Z</time></trkpt><trkpt lat="46.31963023578778" lon="10.819491630131227"><ele>841.2</ele><time>2026-04-25T15:25:39.998Z</time></trkpt><trkpt lat="46.319648237604724" lon="10.81965087156538"><ele>839.4</ele><time>2026-04-25T15:25:42Z</time></trkpt><trkpt lat="46.31966746850508" lon="10.819818255213214"><ele>837.6</ele><time>2026-04-25T15:25:44Z</time></trkpt><trkpt lat="46.31967733433165" lon="10.820000924301278"><ele>835.8000000000001</ele><time>2026-04-25T15:25:46Z</time></trkpt><trkpt lat="46.31968647203399" lon="10.820093839642873"><ele>834.0</ele><time>2026-04-25T15:25:47Z</time></trkpt><trkpt lat="46.31969779983182" lon="10.820185962490834"><ele>834.0</ele><time>2026-04-25T15:25:48Z</time></trkpt><trkpt lat="46.319721747405715" lon="10.820366719970508"><ele>834.0</ele><time>2026-04-25T15:25:50Z</time></trkpt><trkpt lat="46.319749056355874" lon="10.82053286727476"><ele>834.0</ele><time>2026-04-25T15:25:52Z</time></trkpt><trkpt lat="46.31977435625711" lon="10.820698372580248"><ele>834.0</ele><time>2026-04-25T15:25:54Z</time></trkpt><trkpt lat="46.31980960450961" lon="10.820860687159682"><ele>834.8000000000001</ele><time>2026-04-25T15:25:56Z</time></trkpt><trkpt lat="46.31985077367279" lon="10.821024707367254"><ele>835.6</ele><time>2026-04-25T15:25:58Z</time></trkpt><trkpt lat="46.319907825573445" lon="10.821187876187988"><ele>836.4</ele><time>2026-04-25T15:26:00Z</time></trkpt><trkpt lat="46.31993488842811" lon="10.821274495640864"><ele>837.2</ele><time>2026-04-25T15:26:01Z</time></trkpt><trkpt lat="46.31996343361952" lon="10.821357470044198"><ele>838.0</ele><time>2026-04-25T15:26:02Z</time></trkpt><trkpt lat="46.320002933197394" lon="10.821524978353"><ele>838.0</ele><time>2026-04-25T15:26:04Z</time></trkpt><trkpt lat="46.32002574518482" lon="10.821700799599448"><ele>838.0</ele><time>2026-04-25T15:26:05.999Z</time></trkpt><trkpt lat="46.32003689387349" lon="10.82187778025848"><ele>838.0</ele><time>2026-04-25T15:26:07.999Z</time></trkpt><trkpt lat="46.32005334296836" lon="10.822053780640333"><ele>838.0</ele><time>2026-04-25T15:26:09.999Z</time></trkpt><trkpt lat="46.32007866182118" lon="10.822210328111066"><ele>837.4</ele><time>2026-04-25T15:26:11.999Z</time></trkpt><trkpt lat="46.3201056406533" lon="10.822362488933496"><ele>836.8</ele><time>2026-04-25T15:26:13.999Z</time></trkpt><trkpt lat="46.32013987401564" lon="10.8225082809254"><ele>836.2</ele><time>2026-04-25T15:26:15.999Z</time></trkpt><trkpt lat="46.320167390195145" lon="10.822653988204971"><ele>835.6</ele><time>2026-04-25T15:26:17.999Z</time></trkpt><trkpt lat="46.320203313581914" lon="10.822790427268782"><ele>835.0</ele><time>2026-04-25T15:26:19.999Z</time></trkpt><trkpt lat="46.320246733182735" lon="10.822921839967563"><ele>835.0</ele><time>2026-04-25T15:26:21.999Z</time></trkpt><trkpt lat="46.32028876426342" lon="10.823063692889"><ele>835.0</ele><time>2026-04-25T15:26:23.999Z</time></trkpt><trkpt lat="46.32031106224721" lon="10.823217432831918"><ele>835.0</ele><time>2026-04-25T15:26:25.999Z</time></trkpt><trkpt lat="46.32031549999004" lon="10.823367948634006"><ele>835.0</ele><time>2026-04-25T15:26:27.999Z</time></trkpt><trkpt lat="46.320322509891696" lon="10.82352195686035"><ele>835.0</ele><time>2026-04-25T15:26:29.999Z</time></trkpt><trkpt lat="46.3202891389627" lon="10.823675660216278"><ele>835.0</ele><time>2026-04-25T15:26:31.999Z</time></trkpt><trkpt lat="46.32023992353667" lon="10.823842694006908"><ele>835.0</ele><time>2026-04-25T15:26:33.999Z</time></trkpt><trkpt lat="46.32021068184203" lon="10.823928795932718"><ele>835.0</ele><time>2026-04-25T15:26:34.999Z</time></trkpt><trkpt lat="46.320179057324175" lon="10.824015253837274"><ele>835.0</ele><time>2026-04-25T15:26:35.999Z</time></trkpt><trkpt lat="46.32014657325864" lon="10.824096695518126"><ele>835.0</ele><time>2026-04-25T15:26:36.999Z</time></trkpt><trkpt lat="46.320076555290974" lon="10.824254837631537"><ele>835.4999999999999</ele><time>2026-04-25T15:26:38.999Z</time></trkpt><trkpt lat="46.32003819407061" lon="10.824330360647636"><ele>836.0</ele><time>2026-04-25T15:26:39.999Z</time></trkpt><trkpt lat="46.31999498114828" lon="10.824410911140959"><ele>836.5</ele><time>2026-04-25T15:26:40.999Z</time></trkpt><trkpt lat="46.31994583091721" lon="10.824493834541562"><ele>837.0</ele><time>2026-04-25T15:26:41.999Z</time></trkpt><trkpt lat="46.31990683610925" lon="10.824595066945896"><ele>837.4999999999999</ele><time>2026-04-25T15:26:42.999Z</time></trkpt><trkpt lat="46.31984872667382" lon="10.824677175892935"><ele>838.0</ele><time>2026-04-25T15:26:43.999Z</time></trkpt><trkpt lat="46.31979657717939" lon="10.824763749620836"><ele>837.9999999999999</ele><time>2026-04-25T15:26:44.999Z</time></trkpt><trkpt lat="46.319744917183925" lon="10.824847224121838"><ele>838.0</ele><time>2026-04-25T15:26:45.999Z</time></trkpt><trkpt lat="46.3196884450108" lon="10.824923488962144"><ele>838.0</ele><time>2026-04-25T15:26:46.999Z</time></trkpt><trkpt lat="46.319631169733675" lon="10.82499821959311"><ele>838.0</ele><time>2026-04-25T15:26:47.999Z</time></trkpt><trkpt lat="46.319579150113206" lon="10.825070075860742"><ele>838.0</ele><time>2026-04-25T15:26:48.999Z</time></trkpt><trkpt lat="46.31952809981674" lon="10.82514334336862"><ele>837.9999999999999</ele><time>2026-04-25T15:26:49.999Z</time></trkpt><trkpt lat="46.31947712588646" lon="10.825209170575693"><ele>838.0</ele><time>2026-04-25T15:26:50.999Z</time></trkpt><trkpt lat="46.31943331971411" lon="10.825276126213476"><ele>836.0</ele><time>2026-04-25T15:26:51.999Z</time></trkpt><trkpt lat="46.31935111677608" lon="10.825400804350343"><ele>834.0</ele><time>2026-04-25T15:26:53.999Z</time></trkpt><trkpt lat="46.31927756903749" lon="10.825503489440528"><ele>832.0</ele><time>2026-04-25T15:26:55.999Z</time></trkpt><trkpt lat="46.319229142954086" lon="10.825573168755485"><ele>830.0</ele><time>2026-04-25T15:26:57.999Z</time></trkpt><trkpt lat="46.31912823177627" lon="10.82547961447892"><ele>828.0</ele><time>2026-04-25T15:27:01.999Z</time></trkpt><trkpt lat="46.319041463488254" lon="10.825374038150702"><ele>828.0</ele><time>2026-04-25T15:27:03.999Z</time></trkpt><trkpt lat="46.318957637881795" lon="10.82525809886518"><ele>828.0</ele><time>2026-04-25T15:27:05.999Z</time></trkpt><trkpt lat="46.318878810344934" lon="10.82513956322044"><ele>828.0</ele><time>2026-04-25T15:27:07.999Z</time></trkpt><trkpt lat="46.31879786112335" lon="10.82503284795239"><ele>828.0</ele><time>2026-04-25T15:27:09.999Z</time></trkpt><trkpt lat="46.31866027779604" lon="10.825129443847745"><ele>828.1428571428572</ele><time>2026-04-25T15:27:12.999Z</time></trkpt><trkpt lat="46.3185767534356" lon="10.825243022826466"><ele>828.2857142857143</ele><time>2026-04-25T15:27:14.999Z</time></trkpt><trkpt lat="46.318545102716" lon="10.825328459116271"><ele>828.4285714285714</ele><time>2026-04-25T15:27:15.999Z</time></trkpt><trkpt lat="46.318498548747336" lon="10.825392971569379"><ele>828.5714285714287</ele><time>2026-04-25T15:27:16.999Z</time></trkpt><trkpt lat="46.318453799312316" lon="10.825460768165211"><ele>828.7142857142857</ele><time>2026-04-25T15:27:17.999Z</time></trkpt><trkpt lat="46.31840941902372" lon="10.825531257117627"><ele>828.8571428571429</ele><time>2026-04-25T15:27:18.999Z</time></trkpt><trkpt lat="46.31836650506401" lon="10.825602009830577"><ele>829.0</ele><time>2026-04-25T15:27:19.999Z</time></trkpt><trkpt lat="46.31832053305335" lon="10.825669438481503"><ele>829.0</ele><time>2026-04-25T15:27:20.999Z</time></trkpt><trkpt lat="46.3182752633049" lon="10.825744835096573"><ele>829.0</ele><time>2026-04-25T15:27:21.999Z</time></trkpt><trkpt lat="46.3182348957866" lon="10.825822695923446"><ele>829.0</ele><time>2026-04-25T15:27:22.999Z</time></trkpt><trkpt lat="46.31820308521152" lon="10.825906016400747"><ele>829.0</ele><time>2026-04-25T15:27:23.999Z</time></trkpt><trkpt lat="46.31817725016559" lon="10.825995703685095"><ele>829.0</ele><time>2026-04-25T15:27:24.999Z</time></trkpt><trkpt lat="46.318149761159184" lon="10.82608765862571"><ele>829.0</ele><time>2026-04-25T15:27:25.999Z</time></trkpt><trkpt lat="46.31812449396853" lon="10.82618052753353"><ele>829.0</ele><time>2026-04-25T15:27:26.999Z</time></trkpt><trkpt lat="46.31809956198515" lon="10.826275224477792"><ele>829.3333333333333</ele><time>2026-04-25T15:27:27.999Z</time></trkpt><trkpt lat="46.31807202465918" lon="10.826365949238761"><ele>829.6666666666666</ele><time>2026-04-25T15:27:28.999Z</time></trkpt><trkpt lat="46.31802520396493" lon="10.826437826543822"><ele>830.0</ele><time>2026-04-25T15:27:29.999Z</time></trkpt><trkpt lat="46.3179864135776" lon="10.826515253808703"><ele>830.3333333333333</ele><time>2026-04-25T15:27:30.999Z</time></trkpt><trkpt lat="46.31790210497824" lon="10.82665497571064"><ele>830.6666666666666</ele><time>2026-04-25T15:27:32.999Z</time></trkpt><trkpt lat="46.31781112104128" lon="10.826733337700885"><ele>831.0</ele><time>2026-04-25T15:27:35.999Z</time></trkpt><trkpt lat="46.31794143715587" lon="10.827212790933917"><ele>831.0</ele><time>2026-04-25T15:27:36.999Z</time></trkpt><trkpt lat="46.317929021794775" lon="10.827332330317407"><ele>831.0</ele><time>2026-04-25T15:27:37.998Z</time></trkpt><trkpt lat="46.31791154433559" lon="10.827456689024372"><ele>831.0</ele><time>2026-04-25T15:27:38.998Z</time></trkpt><trkpt lat="46.3178939533036" lon="10.827578078376106"><ele>831.0</ele><time>2026-04-25T15:27:39.998Z</time></trkpt><trkpt lat="46.3178773929863" lon="10.82769749500139"><ele>831.0</ele><time>2026-04-25T15:27:40.998Z</time></trkpt><trkpt lat="46.31786409364107" lon="10.827812750025336"><ele>831.0</ele><time>2026-04-25T15:27:41.998Z</time></trkpt><trkpt lat="46.317853945958674" lon="10.827926123291022"><ele>831.1666666666666</ele><time>2026-04-25T15:27:42.998Z</time></trkpt><trkpt lat="46.31785885512299" lon="10.828035639964629"><ele>831.3333333333333</ele><time>2026-04-25T15:27:43.998Z</time></trkpt><trkpt lat="46.31789093206759" lon="10.828137564605779"><ele>831.5</ele><time>2026-04-25T15:27:44.998Z</time></trkpt><trkpt lat="46.31794202369135" lon="10.828226893544304"><ele>831.6666666666666</ele><time>2026-04-25T15:27:45.998Z</time></trkpt><trkpt lat="46.317998972255026" lon="10.828309354667248"><ele>831.8333333333333</ele><time>2026-04-25T15:27:47Z</time></trkpt><trkpt lat="46.31804921903391" lon="10.828388087176602"><ele>832.0</ele><time>2026-04-25T15:27:48Z</time></trkpt><trkpt lat="46.318092141101864" lon="10.828483822299498"><ele>830.1666666666666</ele><time>2026-04-25T15:27:49Z</time></trkpt><trkpt lat="46.31810563100869" lon="10.82859258638789"><ele>828.3333333333333</ele><time>2026-04-25T15:27:50Z</time></trkpt><trkpt lat="46.31811330487426" lon="10.828708126509198"><ele>826.5</ele><time>2026-04-25T15:27:51Z</time></trkpt><trkpt lat="46.318121989830374" lon="10.82882417691126"><ele>824.6666666666667</ele><time>2026-04-25T15:27:52Z</time></trkpt><trkpt lat="46.31813616415108" lon="10.82893637757456"><ele>822.8333333333334</ele><time>2026-04-25T15:27:53Z</time></trkpt><trkpt lat="46.31815104551368" lon="10.829044308532367"><ele>821.0</ele><time>2026-04-25T15:27:54Z</time></trkpt><trkpt lat="46.318166245710195" lon="10.829153025866729"><ele>821.0000000000001</ele><time>2026-04-25T15:27:55Z</time></trkpt><trkpt lat="46.31818279486125" lon="10.829252984109115"><ele>821.0</ele><time>2026-04-25T15:27:56Z</time></trkpt><trkpt lat="46.31820818805958" lon="10.829351309581911"><ele>821.0</ele><time>2026-04-25T15:27:57Z</time></trkpt><trkpt lat="46.31823087324733" lon="10.829449949715201"><ele>821.0</ele><time>2026-04-25T15:27:58Z</time></trkpt><trkpt lat="46.31824980078693" lon="10.829547715683512"><ele>821.0</ele><time>2026-04-25T15:27:59Z</time></trkpt><trkpt lat="46.318268191570716" lon="10.829642613883438"><ele>821.0000000000001</ele><time>2026-04-25T15:28:00Z</time></trkpt><trkpt lat="46.31828854658238" lon="10.829736474870419"><ele>821.0</ele><time>2026-04-25T15:28:01Z</time></trkpt><trkpt lat="46.31831088131512" lon="10.829833852045972"><ele>821.1999999999999</ele><time>2026-04-25T15:28:02Z</time></trkpt><trkpt lat="46.318330290437366" lon="10.82992696705307"><ele>821.4</ele><time>2026-04-25T15:28:03Z</time></trkpt><trkpt lat="46.318368632917775" lon="10.830084202223219"><ele>821.6</ele><time>2026-04-25T15:28:05Z</time></trkpt><trkpt lat="46.31840714646651" lon="10.83022792035141"><ele>821.8</ele><time>2026-04-25T15:28:07Z</time></trkpt><trkpt lat="46.318439416044676" lon="10.830381528236035"><ele>822.0</ele><time>2026-04-25T15:28:09Z</time></trkpt><trkpt lat="46.318472039937326" lon="10.830556097365209"><ele>822.1428571428571</ele><time>2026-04-25T15:28:11Z</time></trkpt><trkpt lat="46.31849280589562" lon="10.830643459581262"><ele>822.2857142857142</ele><time>2026-04-25T15:28:12Z</time></trkpt><trkpt lat="46.31851549049464" lon="10.830731813945025"><ele>822.4285714285714</ele><time>2026-04-25T15:28:13Z</time></trkpt><trkpt lat="46.31853823739532" lon="10.830819776675279"><ele>822.5714285714286</ele><time>2026-04-25T15:28:14Z</time></trkpt><trkpt lat="46.31856431499233" lon="10.830910621485838"><ele>822.7142857142858</ele><time>2026-04-25T15:28:15Z</time></trkpt><trkpt lat="46.31858567002694" lon="10.831002148926508"><ele>822.8571428571429</ele><time>2026-04-25T15:28:16Z</time></trkpt><trkpt lat="46.31860956747154" lon="10.831091793650465"><ele>823.0</ele><time>2026-04-25T15:28:17Z</time></trkpt><trkpt lat="46.31862951792371" lon="10.831182828193732"><ele>822.1428571428571</ele><time>2026-04-25T15:28:18Z</time></trkpt><trkpt lat="46.31865338662769" lon="10.831275339347966"><ele>821.2857142857143</ele><time>2026-04-25T15:28:19Z</time></trkpt><trkpt lat="46.31867778069721" lon="10.831363978367653"><ele>820.4285714285713</ele><time>2026-04-25T15:28:20Z</time></trkpt><trkpt lat="46.318699515780395" lon="10.831457517859683"><ele>819.5714285714286</ele><time>2026-04-25T15:28:21Z</time></trkpt><trkpt lat="46.31872308590961" lon="10.831547875063212"><ele>818.7142857142857</ele><time>2026-04-25T15:28:22Z</time></trkpt><trkpt lat="46.31874631440553" lon="10.831638372137277"><ele>817.8571428571428</ele><time>2026-04-25T15:28:23Z</time></trkpt><trkpt lat="46.318770739909006" lon="10.831730875181142"><ele>817.0</ele><time>2026-04-25T15:28:24Z</time></trkpt><trkpt lat="46.31879776578514" lon="10.831822047619754"><ele>816.9999999999999</ele><time>2026-04-25T15:28:24.999Z</time></trkpt><trkpt lat="46.318824107444115" lon="10.83191087500772"><ele>817.0</ele><time>2026-04-25T15:28:25.999Z</time></trkpt><trkpt lat="46.3188480684609" lon="10.831999131053829"><ele>817.0</ele><time>2026-04-25T15:28:26.999Z</time></trkpt><trkpt lat="46.31887115483956" lon="10.83209038507068"><ele>817.0</ele><time>2026-04-25T15:28:27.999Z</time></trkpt><trkpt lat="46.31889231087578" lon="10.832180311222368"><ele>817.0</ele><time>2026-04-25T15:28:28.999Z</time></trkpt><trkpt lat="46.31891359770055" lon="10.83227270991403"><ele>816.9999999999999</ele><time>2026-04-25T15:28:29.999Z</time></trkpt><trkpt lat="46.31893381192757" lon="10.832366781351242"><ele>817.0</ele><time>2026-04-25T15:28:30.999Z</time></trkpt><trkpt lat="46.31895294160737" lon="10.832462337426922"><ele>816.8333333333333</ele><time>2026-04-25T15:28:31.999Z</time></trkpt><trkpt lat="46.3189734734345" lon="10.832560223907569"><ele>816.6666666666666</ele><time>2026-04-25T15:28:32.999Z</time></trkpt><trkpt lat="46.318996299622235" lon="10.83265501152165"><ele>816.5</ele><time>2026-04-25T15:28:33.999Z</time></trkpt><trkpt lat="46.31901519142714" lon="10.832749422624346"><ele>816.3333333333333</ele><time>2026-04-25T15:28:34.999Z</time></trkpt><trkpt lat="46.31903490948708" lon="10.832837432301142"><ele>816.1666666666666</ele><time>2026-04-25T15:28:35.999Z</time></trkpt><trkpt lat="46.319051112452186" lon="10.832925703627836"><ele>816.0</ele><time>2026-04-25T15:28:36.999Z</time></trkpt><trkpt lat="46.3190876288785" lon="10.833101399343022"><ele>815.5999999999999</ele><time>2026-04-25T15:28:38.999Z</time></trkpt><trkpt lat="46.31910588517484" lon="10.833188721404946"><ele>815.2</ele><time>2026-04-25T15:28:39.999Z</time></trkpt><trkpt lat="46.31914271814717" lon="10.833360611265475"><ele>814.8</ele><time>2026-04-25T15:28:41.999Z</time></trkpt><trkpt lat="46.319174512946184" lon="10.833527813658959"><ele>814.4000000000001</ele><time>2026-04-25T15:28:43.999Z</time></trkpt><trkpt lat="46.31920528951147" lon="10.833690521557001"><ele>814.0</ele><time>2026-04-25T15:28:45.999Z</time></trkpt><trkpt lat="46.319235589805075" lon="10.833846647525759"><ele>814.0</ele><time>2026-04-25T15:28:47.999Z</time></trkpt><trkpt lat="46.31926667363898" lon="10.834007438321898"><ele>814.0</ele><time>2026-04-25T15:28:49.999Z</time></trkpt><trkpt lat="46.319285922161434" lon="10.834095534220248"><ele>814.0</ele><time>2026-04-25T15:28:50.999Z</time></trkpt><trkpt lat="46.319315440506365" lon="10.834258526820266"><ele>814.0</ele><time>2026-04-25T15:28:52.999Z</time></trkpt><trkpt lat="46.31935262230792" lon="10.8344305889689"><ele>814.0</ele><time>2026-04-25T15:28:54.999Z</time></trkpt><trkpt lat="46.319385451036624" lon="10.834601451130064"><ele>814.25</ele><time>2026-04-25T15:28:56.999Z</time></trkpt><trkpt lat="46.319423113425515" lon="10.834770695985034"><ele>814.5</ele><time>2026-04-25T15:28:58.999Z</time></trkpt><trkpt lat="46.31945123628689" lon="10.834945094028432"><ele>814.75</ele><time>2026-04-25T15:29:00.999Z</time></trkpt><trkpt lat="46.31948264235234" lon="10.83510344297042"><ele>815.0</ele><time>2026-04-25T15:29:02.999Z</time></trkpt><trkpt lat="46.31952005217879" lon="10.835263926962005"><ele>815.0</ele><time>2026-04-25T15:29:04.999Z</time></trkpt><trkpt lat="46.3195573233969" lon="10.835424484446118"><ele>815.0</ele><time>2026-04-25T15:29:06.999Z</time></trkpt><trkpt lat="46.3195933808595" lon="10.83558775134924"><ele>815.0</ele><time>2026-04-25T15:29:08.999Z</time></trkpt><trkpt lat="46.319632533907225" lon="10.835760334558662"><ele>815.0</ele><time>2026-04-25T15:29:10.999Z</time></trkpt><trkpt lat="46.319652909197096" lon="10.835847003728151"><ele>815.0</ele><time>2026-04-25T15:29:11.999Z</time></trkpt><trkpt lat="46.31968897997384" lon="10.83600892643401"><ele>814.5</ele><time>2026-04-25T15:29:13.999Z</time></trkpt><trkpt lat="46.3197274438599" lon="10.836162508075521"><ele>814.0</ele><time>2026-04-25T15:29:15.999Z</time></trkpt><trkpt lat="46.31976646465224" lon="10.836322636929102"><ele>813.5</ele><time>2026-04-25T15:29:17.999Z</time></trkpt><trkpt lat="46.31980540517368" lon="10.83648585881612"><ele>813.0</ele><time>2026-04-25T15:29:19.999Z</time></trkpt><trkpt lat="46.31984157428839" lon="10.836639224593618"><ele>812.4</ele><time>2026-04-25T15:29:21.999Z</time></trkpt><trkpt lat="46.31987772188786" lon="10.83678963185491"><ele>811.8</ele><time>2026-04-25T15:29:23.999Z</time></trkpt><trkpt lat="46.319904350884165" lon="10.836934388226213"><ele>811.2</ele><time>2026-04-25T15:29:25.999Z</time></trkpt><trkpt lat="46.319915942875504" lon="10.837088051848127"><ele>810.6</ele><time>2026-04-25T15:29:27.999Z</time></trkpt><trkpt lat="46.31995017796052" lon="10.837227444648436"><ele>810.0</ele><time>2026-04-25T15:29:29.999Z</time></trkpt><trkpt lat="46.31999198981477" lon="10.837387150232669"><ele>810.0</ele><time>2026-04-25T15:29:31.999Z</time></trkpt><trkpt lat="46.32003888274237" lon="10.837552859288671"><ele>810.0</ele><time>2026-04-25T15:29:33.999Z</time></trkpt><trkpt lat="46.3200635434684" lon="10.837644611571381"><ele>810.0</ele><time>2026-04-25T15:29:34.999Z</time></trkpt><trkpt lat="46.320111144763096" lon="10.837816337558685"><ele>810.0</ele><time>2026-04-25T15:29:36.999Z</time></trkpt><trkpt lat="46.32013514699603" lon="10.837907586989127"><ele>810.0</ele><time>2026-04-25T15:29:37.999Z</time></trkpt><trkpt lat="46.3201581940672" lon="10.83799562577191"><ele>810.2</ele><time>2026-04-25T15:29:38.999Z</time></trkpt><trkpt lat="46.320176771760416" lon="10.838085619124588"><ele>810.4</ele><time>2026-04-25T15:29:39.999Z</time></trkpt><trkpt lat="46.32019474764099" lon="10.838174280996425"><ele>810.5999999999999</ele><time>2026-04-25T15:29:40.999Z</time></trkpt><trkpt lat="46.32023646511829" lon="10.838341290287735"><ele>810.8</ele><time>2026-04-25T15:29:42.999Z</time></trkpt><trkpt lat="46.320273399308846" lon="10.838496641884806"><ele>811.0</ele><time>2026-04-25T15:29:44.999Z</time></trkpt><trkpt lat="46.32030543549367" lon="10.83864008875161"><ele>811.4999999999999</ele><time>2026-04-25T15:29:46.999Z</time></trkpt><trkpt lat="46.320343061407286" lon="10.838768610668726"><ele>812.0</ele><time>2026-04-25T15:29:48.999Z</time></trkpt><trkpt lat="46.320375390219205" lon="10.838859406474212"><ele>812.5</ele><time>2026-04-25T15:29:50.999Z</time></trkpt><trkpt lat="46.32041420522856" lon="10.838963674414256"><ele>813.0</ele><time>2026-04-25T15:29:54Z</time></trkpt><trkpt lat="46.32048771266696" lon="10.838942554978233"><ele>813.4999999999999</ele><time>2026-04-25T15:29:56Z</time></trkpt><trkpt lat="46.32057049374743" lon="10.838914668362975"><ele>814.0</ele><time>2026-04-25T15:29:58Z</time></trkpt><trkpt lat="46.32065382874757" lon="10.838897701976787"><ele>812.9999999999999</ele><time>2026-04-25T15:30:00Z</time></trkpt><trkpt lat="46.32075668959974" lon="10.838873143590744"><ele>812.0</ele><time>2026-04-25T15:30:02Z</time></trkpt><trkpt lat="46.320819761471505" lon="10.838858972097178"><ele>811.0</ele><time>2026-04-25T15:30:03Z</time></trkpt><trkpt lat="46.320886771397205" lon="10.83884507295096"><ele>810.0</ele><time>2026-04-25T15:30:04Z</time></trkpt><trkpt lat="46.320994300381756" lon="10.838827807545865"><ele>808.9999999999999</ele><time>2026-04-25T15:30:06Z</time></trkpt><trkpt lat="46.321073922722015" lon="10.838825925804409"><ele>808.0</ele><time>2026-04-25T15:30:08Z</time></trkpt><trkpt lat="46.32114879438776" lon="10.838834995380243"><ele>807.9999999999999</ele><time>2026-04-25T15:30:11Z</time></trkpt><trkpt lat="46.321072487993085" lon="10.838870604983068"><ele>808.0</ele><time>2026-04-25T15:31:32.999Z</time></trkpt><trkpt lat="46.32098138387398" lon="10.838873166471128"><ele>808.0</ele><time>2026-04-25T15:31:35.999Z</time></trkpt><trkpt lat="46.32091548728032" lon="10.838878078522647"><ele>808.0</ele><time>2026-04-25T15:31:37.999Z</time></trkpt><trkpt lat="46.320843006219576" lon="10.838872809183988"><ele>807.9999999999999</ele><time>2026-04-25T15:31:40.999Z</time></trkpt><trkpt lat="46.320776187626024" lon="10.838890423163386"><ele>808.0</ele><time>2026-04-25T15:31:42.999Z</time></trkpt><trkpt lat="46.32074103768168" lon="10.838995069011142"><ele>808.0</ele><time>2026-04-25T15:31:46.999Z</time></trkpt><trkpt lat="46.32073093104564" lon="10.839109534753158"><ele>808.0</ele><time>2026-04-25T15:31:48.999Z</time></trkpt><trkpt lat="46.320733489344704" lon="10.839245417419969"><ele>808.0</ele><time>2026-04-25T15:31:50.999Z</time></trkpt><trkpt lat="46.32072525244262" lon="10.839392540872344"><ele>808.0</ele><time>2026-04-25T15:31:52.999Z</time></trkpt><trkpt lat="46.32072847416965" lon="10.839525728494882"><ele>808.0</ele><time>2026-04-25T15:31:54.999Z</time></trkpt><trkpt lat="46.32072712364659" lon="10.839653766618525"><ele>807.9999999999999</ele><time>2026-04-25T15:31:56.999Z</time></trkpt><trkpt lat="46.32072598028724" lon="10.839771827236829"><ele>808.0</ele><time>2026-04-25T15:31:59Z</time></trkpt><trkpt lat="46.32073320827412" lon="10.839873254132845"><ele>808.0</ele><time>2026-04-25T15:32:01Z</time></trkpt><trkpt lat="46.3207378741779" lon="10.839987301310668"><ele>808.0</ele><time>2026-04-25T15:32:03Z</time></trkpt><trkpt lat="46.32072511270212" lon="10.840105074813966"><ele>807.9999999999999</ele><time>2026-04-25T15:32:05Z</time></trkpt><trkpt lat="46.32071469734032" lon="10.840226199240321"><ele>808.0</ele><time>2026-04-25T15:32:07Z</time></trkpt><trkpt lat="46.32071094081213" lon="10.840353275576526"><ele>807.5999999999999</ele><time>2026-04-25T15:32:09Z</time></trkpt><trkpt lat="46.32071687331376" lon="10.840489300571637"><ele>807.1999999999999</ele><time>2026-04-25T15:32:11Z</time></trkpt><trkpt lat="46.32071985773106" lon="10.840644643920356"><ele>806.8</ele><time>2026-04-25T15:32:13Z</time></trkpt><trkpt lat="46.320727313483715" lon="10.840821038599884"><ele>806.4</ele><time>2026-04-25T15:32:15Z</time></trkpt><trkpt lat="46.32071088989438" lon="10.840932345308657"><ele>806.0</ele><time>2026-04-25T15:32:16Z</time></trkpt><trkpt lat="46.32067444019026" lon="10.841033605170821"><ele>805.7142857142858</ele><time>2026-04-25T15:32:17Z</time></trkpt><trkpt lat="46.32065329484274" lon="10.84114699886302"><ele>805.4285714285713</ele><time>2026-04-25T15:32:18Z</time></trkpt><trkpt lat="46.3206462487666" lon="10.841253171207935"><ele>805.1428571428571</ele><time>2026-04-25T15:32:19Z</time></trkpt><trkpt lat="46.32064311416238" lon="10.841357498229868"><ele>804.8571428571429</ele><time>2026-04-25T15:32:20Z</time></trkpt><trkpt lat="46.320645991419234" lon="10.841454113834704"><ele>804.5714285714287</ele><time>2026-04-25T15:32:21Z</time></trkpt><trkpt lat="46.320636469757176" lon="10.841550226558223"><ele>804.2857142857142</ele><time>2026-04-25T15:32:22Z</time></trkpt><trkpt lat="46.32062874352378" lon="10.8416512519548"><ele>804.0</ele><time>2026-04-25T15:32:23Z</time></trkpt><trkpt lat="46.32063575031278" lon="10.841750543486647"><ele>803.8000000000001</ele><time>2026-04-25T15:32:24Z</time></trkpt><trkpt lat="46.32063769370108" lon="10.841845556350336"><ele>803.6</ele><time>2026-04-25T15:32:25Z</time></trkpt><trkpt lat="46.320638171138135" lon="10.841937178931728"><ele>803.4</ele><time>2026-04-25T15:32:26Z</time></trkpt><trkpt lat="46.320642267333966" lon="10.84211245671242"><ele>803.2</ele><time>2026-04-25T15:32:28Z</time></trkpt><trkpt lat="46.320644519283675" lon="10.842279778723046"><ele>803.0</ele><time>2026-04-25T15:32:30Z</time></trkpt><trkpt lat="46.320651697229806" lon="10.842443055803647"><ele>803.0</ele><time>2026-04-25T15:32:32Z</time></trkpt><trkpt lat="46.32065796990495" lon="10.8426093218424"><ele>803.0</ele><time>2026-04-25T15:32:34Z</time></trkpt><trkpt lat="46.320660577754765" lon="10.842773810636732"><ele>803.0</ele><time>2026-04-25T15:32:36Z</time></trkpt><trkpt lat="46.3206652881565" lon="10.842870833466208"><ele>803.0</ele><time>2026-04-25T15:32:37Z</time></trkpt><trkpt lat="46.32067125378848" lon="10.84301992608011"><ele>803.0</ele><time>2026-04-25T15:32:39Z</time></trkpt><trkpt lat="46.32067463918813" lon="10.843183556241533"><ele>802.7142857142857</ele><time>2026-04-25T15:32:41Z</time></trkpt><trkpt lat="46.320680838092876" lon="10.843275660416728"><ele>802.4285714285714</ele><time>2026-04-25T15:32:42Z</time></trkpt><trkpt lat="46.32069023000199" lon="10.843441193774222"><ele>802.1428571428571</ele><time>2026-04-25T15:32:44Z</time></trkpt><trkpt lat="46.32068937367166" lon="10.843532643716049"><ele>801.8571428571429</ele><time>2026-04-25T15:32:45Z</time></trkpt><trkpt lat="46.3206903901321" lon="10.84362931928306"><ele>801.5714285714286</ele><time>2026-04-25T15:32:46Z</time></trkpt><trkpt lat="46.320697532272085" lon="10.843727646000321"><ele>801.2857142857142</ele><time>2026-04-25T15:32:47Z</time></trkpt><trkpt lat="46.32071028703163" lon="10.84382205653365"><ele>801.0</ele><time>2026-04-25T15:32:48Z</time></trkpt><trkpt lat="46.32073030400964" lon="10.843909595398669"><ele>800.75</ele><time>2026-04-25T15:32:49Z</time></trkpt><trkpt lat="46.32077636302098" lon="10.84406782438134"><ele>800.5</ele><time>2026-04-25T15:32:51Z</time></trkpt><trkpt lat="46.320821428964614" lon="10.844213150857204"><ele>800.25</ele><time>2026-04-25T15:32:53Z</time></trkpt><trkpt lat="46.320868427648456" lon="10.844358991224006"><ele>800.0</ele><time>2026-04-25T15:32:55Z</time></trkpt><trkpt lat="46.320911789725045" lon="10.844508482465265"><ele>799.8333333333334</ele><time>2026-04-25T15:32:57Z</time></trkpt><trkpt lat="46.32095294437336" lon="10.844666224944072"><ele>799.6666666666667</ele><time>2026-04-25T15:32:59Z</time></trkpt><trkpt lat="46.320972967868684" lon="10.84475512673353"><ele>799.5</ele><time>2026-04-25T15:33:00Z</time></trkpt><trkpt lat="46.32099630381596" lon="10.844848853320347"><ele>799.3333333333333</ele><time>2026-04-25T15:33:00.999Z</time></trkpt><trkpt lat="46.32101849333344" lon="10.844944726661879"><ele>799.1666666666666</ele><time>2026-04-25T15:33:01.999Z</time></trkpt><trkpt lat="46.32104634846854" lon="10.845035116567342"><ele>799.0</ele><time>2026-04-25T15:33:02.999Z</time></trkpt><trkpt lat="46.32106473768181" lon="10.845130661144221"><ele>799.9999999999999</ele><time>2026-04-25T15:33:03.999Z</time></trkpt><trkpt lat="46.32108307850145" lon="10.845227720181052"><ele>801.0</ele><time>2026-04-25T15:33:04.999Z</time></trkpt><trkpt lat="46.321104007864065" lon="10.845322965944522"><ele>802.0</ele><time>2026-04-25T15:33:05.999Z</time></trkpt><trkpt lat="46.32112543298352" lon="10.845411751985193"><ele>803.0</ele><time>2026-04-25T15:33:06.999Z</time></trkpt><trkpt lat="46.32117320065579" lon="10.84557552690683"><ele>803.9999999999999</ele><time>2026-04-25T15:33:08.999Z</time></trkpt><trkpt lat="46.321237713371225" lon="10.845717542321065"><ele>805.0</ele><time>2026-04-25T15:33:10.999Z</time></trkpt><trkpt lat="46.321303169376954" lon="10.845847372989002"><ele>803.2</ele><time>2026-04-25T15:33:12.999Z</time></trkpt><trkpt lat="46.321371973835326" lon="10.845970733079346"><ele>801.4</ele><time>2026-04-25T15:33:14.999Z</time></trkpt><trkpt lat="46.32143589655507" lon="10.846093212787565"><ele>799.5999999999999</ele><time>2026-04-25T15:33:16.999Z</time></trkpt><trkpt lat="46.321494766223864" lon="10.846218919014497"><ele>797.8</ele><time>2026-04-25T15:33:18.999Z</time></trkpt><trkpt lat="46.32155092591061" lon="10.846342735103992"><ele>796.0</ele><time>2026-04-25T15:33:20.999Z</time></trkpt><trkpt lat="46.32161395077421" lon="10.846467781459104"><ele>796.0</ele><time>2026-04-25T15:33:22.999Z</time></trkpt><trkpt lat="46.32168386382084" lon="10.846607531989855"><ele>796.0</ele><time>2026-04-25T15:33:24.999Z</time></trkpt><trkpt lat="46.32175605527115" lon="10.846753877327325"><ele>796.0</ele><time>2026-04-25T15:33:26.999Z</time></trkpt><trkpt lat="46.3217928629234" lon="10.846829422815134"><ele>796.0</ele><time>2026-04-25T15:33:27.999Z</time></trkpt><trkpt lat="46.32182995136011" lon="10.846905252272943"><ele>796.0</ele><time>2026-04-25T15:33:28.999Z</time></trkpt><trkpt lat="46.32189760936753" lon="10.847047092079135"><ele>796.75</ele><time>2026-04-25T15:33:30.999Z</time></trkpt><trkpt lat="46.32196560062832" lon="10.847184046747646"><ele>797.5</ele><time>2026-04-25T15:33:32.999Z</time></trkpt><trkpt lat="46.32202866568729" lon="10.847314949493047"><ele>798.25</ele><time>2026-04-25T15:33:34.999Z</time></trkpt><trkpt lat="46.32206976184827" lon="10.847481500874068"><ele>799.0</ele><time>2026-04-25T15:33:36.999Z</time></trkpt><trkpt lat="46.322137444458996" lon="10.847620991377516"><ele>797.5</ele><time>2026-04-25T15:33:38.999Z</time></trkpt><trkpt lat="46.32220560312512" lon="10.847761463008466"><ele>796.0</ele><time>2026-04-25T15:33:40.999Z</time></trkpt><trkpt lat="46.322272596255395" lon="10.8478995325288"><ele>794.5</ele><time>2026-04-25T15:33:42.999Z</time></trkpt><trkpt lat="46.3223385546303" lon="10.848037429742737"><ele>793.0</ele><time>2026-04-25T15:33:44.999Z</time></trkpt><trkpt lat="46.32240108836589" lon="10.848177435128987"><ele>793.0</ele><time>2026-04-25T15:33:46.999Z</time></trkpt><trkpt lat="46.322459452658855" lon="10.848322274875152"><ele>793.0</ele><time>2026-04-25T15:33:48.999Z</time></trkpt><trkpt lat="46.32250982082444" lon="10.848467241776158"><ele>793.0</ele><time>2026-04-25T15:33:50.999Z</time></trkpt><trkpt lat="46.32255306829288" lon="10.848622651676726"><ele>793.0</ele><time>2026-04-25T15:33:52.999Z</time></trkpt><trkpt lat="46.32259226509883" lon="10.848783467559896"><ele>793.5999999999999</ele><time>2026-04-25T15:33:54.999Z</time></trkpt><trkpt lat="46.322626872420976" lon="10.848937749306248"><ele>794.1999999999999</ele><time>2026-04-25T15:33:56.999Z</time></trkpt><trkpt lat="46.32265675024416" lon="10.849084740845102"><ele>794.8</ele><time>2026-04-25T15:33:58.999Z</time></trkpt><trkpt lat="46.32268016938865" lon="10.84922647508925"><ele>795.4</ele><time>2026-04-25T15:34:00.999Z</time></trkpt><trkpt lat="46.32270025820523" lon="10.849365915024908"><ele>796.0</ele><time>2026-04-25T15:34:02.999Z</time></trkpt><trkpt lat="46.322719098237116" lon="10.84950406963475"><ele>796.0</ele><time>2026-04-25T15:34:05Z</time></trkpt><trkpt lat="46.32273547757119" lon="10.849642498995323"><ele>796.0</ele><time>2026-04-25T15:34:07Z</time></trkpt><trkpt lat="46.32274835495892" lon="10.849791356133274"><ele>796.0</ele><time>2026-04-25T15:34:09Z</time></trkpt><trkpt lat="46.32275105924733" lon="10.849928459699282"><ele>796.0</ele><time>2026-04-25T15:34:11Z</time></trkpt><trkpt lat="46.32274785484826" lon="10.850070397769468"><ele>796.0</ele><time>2026-04-25T15:34:13Z</time></trkpt><trkpt lat="46.32273848957123" lon="10.8502182063541"><ele>794.8</ele><time>2026-04-25T15:34:15Z</time></trkpt><trkpt lat="46.322723604608015" lon="10.85036775381076"><ele>793.5999999999999</ele><time>2026-04-25T15:34:17Z</time></trkpt><trkpt lat="46.32269907263883" lon="10.850511547998227"><ele>792.4</ele><time>2026-04-25T15:34:19Z</time></trkpt><trkpt lat="46.32267093715832" lon="10.850649441055563"><ele>791.2</ele><time>2026-04-25T15:34:21Z</time></trkpt><trkpt lat="46.322638010279455" lon="10.850780164649294"><ele>790.0</ele><time>2026-04-25T15:34:23Z</time></trkpt><trkpt lat="46.322601740687084" lon="10.850910714155269"><ele>789.6</ele><time>2026-04-25T15:34:25Z</time></trkpt><trkpt lat="46.3225522656392" lon="10.851043906897642"><ele>789.2</ele><time>2026-04-25T15:34:27Z</time></trkpt><trkpt lat="46.32249169671003" lon="10.851172053094778"><ele>788.8</ele><time>2026-04-25T15:34:29Z</time></trkpt><trkpt lat="46.3224300729358" lon="10.851291003223306"><ele>788.4</ele><time>2026-04-25T15:34:31Z</time></trkpt><trkpt lat="46.32237252452673" lon="10.851414156755084"><ele>788.0</ele><time>2026-04-25T15:34:33Z</time></trkpt><trkpt lat="46.322317600495374" lon="10.85152919081612"><ele>788.0</ele><time>2026-04-25T15:34:35Z</time></trkpt><trkpt lat="46.32225614770177" lon="10.8516334321559"><ele>788.0</ele><time>2026-04-25T15:34:37Z</time></trkpt><trkpt lat="46.32220085711365" lon="10.851740496421678"><ele>788.0</ele><time>2026-04-25T15:34:39Z</time></trkpt><trkpt lat="46.32214958185579" lon="10.851848540871133"><ele>788.0</ele><time>2026-04-25T15:34:41Z</time></trkpt><trkpt lat="46.32210232964406" lon="10.85196090442898"><ele>788.0</ele><time>2026-04-25T15:34:43Z</time></trkpt><trkpt lat="46.322064693651924" lon="10.852087408419717"><ele>789.2</ele><time>2026-04-25T15:34:45Z</time></trkpt><trkpt lat="46.32203179114882" lon="10.852221622710193"><ele>790.4</ele><time>2026-04-25T15:34:47Z</time></trkpt><trkpt lat="46.321987164190915" lon="10.852355726464115"><ele>791.6</ele><time>2026-04-25T15:34:49Z</time></trkpt><trkpt lat="46.32197168879995" lon="10.852500599936855"><ele>792.8000000000001</ele><time>2026-04-25T15:34:51Z</time></trkpt><trkpt lat="46.32193417282332" lon="10.852645954165974"><ele>794.0</ele><time>2026-04-25T15:34:53Z</time></trkpt><trkpt lat="46.32191742115504" lon="10.852801593442019"><ele>794.0</ele><time>2026-04-25T15:34:55Z</time></trkpt><trkpt lat="46.3219062717294" lon="10.852958025317657"><ele>794.0</ele><time>2026-04-25T15:34:57Z</time></trkpt><trkpt lat="46.32189613664888" lon="10.853111005926497"><ele>794.0</ele><time>2026-04-25T15:34:59Z</time></trkpt><trkpt lat="46.32188732157015" lon="10.85325978287216"><ele>794.0</ele><time>2026-04-25T15:35:01Z</time></trkpt><trkpt lat="46.32188230582411" lon="10.853407708095865"><ele>794.0</ele><time>2026-04-25T15:35:03Z</time></trkpt><trkpt lat="46.321881959031344" lon="10.853545269287094"><ele>793.5000000000001</ele><time>2026-04-25T15:35:05Z</time></trkpt><trkpt lat="46.32187908224773" lon="10.853662041578076"><ele>793.0</ele><time>2026-04-25T15:35:07Z</time></trkpt><trkpt lat="46.32176611124101" lon="10.853657814121247"><ele>792.5</ele><time>2026-04-25T15:35:12Z</time></trkpt><trkpt lat="46.32167900531874" lon="10.853652973851244"><ele>792.0</ele><time>2026-04-25T15:35:14Z</time></trkpt><trkpt lat="46.3216036810707" lon="10.85364943725343"><ele>791.5000000000001</ele><time>2026-04-25T15:35:16Z</time></trkpt><trkpt lat="46.32152759275205" lon="10.853650424086801"><ele>791.0</ele><time>2026-04-25T15:35:17.999Z</time></trkpt><trkpt lat="46.321456265388264" lon="10.853724846022695"><ele>791.0000000000001</ele><time>2026-04-25T15:35:19.999Z</time></trkpt><trkpt lat="46.321416659620816" lon="10.853822792371876"><ele>791.0</ele><time>2026-04-25T15:35:21.999Z</time></trkpt><trkpt lat="46.32137845136286" lon="10.853920357081321"><ele>791.0</ele><time>2026-04-25T15:35:23.999Z</time></trkpt><trkpt lat="46.32133935717614" lon="10.854020184010908"><ele>791.0</ele><time>2026-04-25T15:35:25.999Z</time></trkpt><trkpt lat="46.321300759029164" lon="10.854112921067577"><ele>791.0000000000001</ele><time>2026-04-25T15:35:27.999Z</time></trkpt><trkpt lat="46.32124605543463" lon="10.854189200898443"><ele>791.0</ele><time>2026-04-25T15:35:29.999Z</time></trkpt><trkpt lat="46.321175555115765" lon="10.854256937165339"><ele>791.1999999999999</ele><time>2026-04-25T15:35:31.999Z</time></trkpt><trkpt lat="46.321132620465605" lon="10.85436753796137"><ele>791.4</ele><time>2026-04-25T15:35:33.999Z</time></trkpt><trkpt lat="46.321102532513684" lon="10.854468211034597"><ele>791.6</ele><time>2026-04-25T15:35:35.999Z</time></trkpt><trkpt lat="46.321075293148695" lon="10.854567931418595"><ele>791.8</ele><time>2026-04-25T15:35:37.999Z</time></trkpt><trkpt lat="46.321040052999194" lon="10.85467048853486"><ele>792.0</ele><time>2026-04-25T15:35:40.999Z</time></trkpt><trkpt lat="46.32097752703142" lon="10.854855404107846"><ele>792.0</ele><time>2026-04-25T15:35:45.999Z</time></trkpt><trkpt lat="46.3209798047897" lon="10.854737231879925"><ele>792.0</ele><time>2026-04-25T15:36:33Z</time></trkpt><trkpt lat="46.320978027089964" lon="10.85503137926386"><ele>792.0</ele><time>2026-04-25T15:38:57Z</time></trkpt><trkpt lat="46.3209757335572" lon="10.855171750744043"><ele>792.0</ele><time>2026-04-25T15:39:00Z</time></trkpt><trkpt lat="46.32097978739188" lon="10.855319441895666"><ele>792.6</ele><time>2026-04-25T15:39:02Z</time></trkpt><trkpt lat="46.32098234655438" lon="10.855412678385685"><ele>793.2</ele><time>2026-04-25T15:39:03Z</time></trkpt><trkpt lat="46.32098978793676" lon="10.8555627440832"><ele>793.8</ele><time>2026-04-25T15:39:05Z</time></trkpt><trkpt lat="46.32099309429833" lon="10.855707817555876"><ele>794.4</ele><time>2026-04-25T15:39:07Z</time></trkpt><trkpt lat="46.32098623614051" lon="10.855851278330192"><ele>795.0</ele><time>2026-04-25T15:39:09Z</time></trkpt><trkpt lat="46.32097388339672" lon="10.855988496245017"><ele>796.8</ele><time>2026-04-25T15:39:11Z</time></trkpt><trkpt lat="46.320957388157886" lon="10.856132470551634"><ele>798.6</ele><time>2026-04-25T15:39:13Z</time></trkpt><trkpt lat="46.32095123062822" lon="10.856260534328248"><ele>800.4000000000001</ele><time>2026-04-25T15:39:15Z</time></trkpt><trkpt lat="46.320953071008645" lon="10.856385709086453"><ele>802.2</ele><time>2026-04-25T15:39:17Z</time></trkpt><trkpt lat="46.32096051102697" lon="10.856522975367772"><ele>804.0</ele><time>2026-04-25T15:39:19Z</time></trkpt><trkpt lat="46.32097122037147" lon="10.856655714354657"><ele>804.0</ele><time>2026-04-25T15:39:21Z</time></trkpt><trkpt lat="46.320982092445554" lon="10.856784542249844"><ele>804.0</ele><time>2026-04-25T15:39:23Z</time></trkpt><trkpt lat="46.3209933017984" lon="10.85691736670284"><ele>804.0</ele><time>2026-04-25T15:39:25Z</time></trkpt><trkpt lat="46.321005085256886" lon="10.857055392571691"><ele>804.0</ele><time>2026-04-25T15:39:27Z</time></trkpt><trkpt lat="46.3210163614189" lon="10.85718666412524"><ele>804.0</ele><time>2026-04-25T15:39:29Z</time></trkpt><trkpt lat="46.32102696373091" lon="10.857310091065335"><ele>807.6</ele><time>2026-04-25T15:39:31Z</time></trkpt><trkpt lat="46.321038182410504" lon="10.857427614635663"><ele>811.2</ele><time>2026-04-25T15:39:33Z</time></trkpt><trkpt lat="46.3210561534377" lon="10.857554748840931"><ele>814.8000000000001</ele><time>2026-04-25T15:39:35Z</time></trkpt><trkpt lat="46.321079188141674" lon="10.857680135739486"><ele>818.4000000000001</ele><time>2026-04-25T15:39:37Z</time></trkpt><trkpt lat="46.32111429972384" lon="10.857809688765455"><ele>822.0</ele><time>2026-04-25T15:39:39Z</time></trkpt><trkpt lat="46.32116530066639" lon="10.857931859907495"><ele>825.8</ele><time>2026-04-25T15:39:41Z</time></trkpt><trkpt lat="46.321224175815566" lon="10.858049360119306"><ele>829.6</ele><time>2026-04-25T15:39:43Z</time></trkpt><trkpt lat="46.321286489173715" lon="10.858162601687427"><ele>833.4</ele><time>2026-04-25T15:39:45Z</time></trkpt><trkpt lat="46.32134917266075" lon="10.858272053610207"><ele>837.1999999999999</ele><time>2026-04-25T15:39:47Z</time></trkpt><trkpt lat="46.32140627553891" lon="10.858383537612148"><ele>841.0</ele><time>2026-04-25T15:39:49Z</time></trkpt><trkpt lat="46.321458253303504" lon="10.858496680991514"><ele>833.4999999999999</ele><time>2026-04-25T15:39:50.999Z</time></trkpt><trkpt lat="46.321499869068" lon="10.858610891715884"><ele>826.0</ele><time>2026-04-25T15:39:52.999Z</time></trkpt><trkpt lat="46.32153244217187" lon="10.85872962289426"><ele>818.5</ele><time>2026-04-25T15:39:54.999Z</time></trkpt><trkpt lat="46.32155477418936" lon="10.85882536418729"><ele>811.0</ele><time>2026-04-25T15:39:56.999Z</time></trkpt><trkpt lat="46.321578831706724" lon="10.858950519441807"><ele>803.4999999999999</ele><time>2026-04-25T15:39:58.999Z</time></trkpt><trkpt lat="46.321598034695704" lon="10.859088985489382"><ele>796.0</ele><time>2026-04-25T15:40:00.999Z</time></trkpt><trkpt lat="46.32162320650597" lon="10.8592207655932"><ele>798.8</ele><time>2026-04-25T15:40:02.999Z</time></trkpt><trkpt lat="46.321645051665016" lon="10.859349151654106"><ele>801.5999999999999</ele><time>2026-04-25T15:40:04.999Z</time></trkpt><trkpt lat="46.321666031017664" lon="10.859480820545476"><ele>804.4</ele><time>2026-04-25T15:40:06.999Z</time></trkpt><trkpt lat="46.32168704786606" lon="10.859612525068988"><ele>807.2</ele><time>2026-04-25T15:40:08.999Z</time></trkpt><trkpt lat="46.321718678843354" lon="10.859740175323402"><ele>810.0</ele><time>2026-04-25T15:40:10.999Z</time></trkpt><trkpt lat="46.32176433511343" lon="10.859854501759084"><ele>810.0</ele><time>2026-04-25T15:40:12.999Z</time></trkpt><trkpt lat="46.321809086994264" lon="10.859962497136921"><ele>810.0</ele><time>2026-04-25T15:40:14.999Z</time></trkpt><trkpt lat="46.32185824572741" lon="10.86005628230562"><ele>810.0</ele><time>2026-04-25T15:40:16.999Z</time></trkpt><trkpt lat="46.32191379580812" lon="10.860132921382215"><ele>810.0</ele><time>2026-04-25T15:40:18.999Z</time></trkpt><trkpt lat="46.32195961639627" lon="10.860227514151122"><ele>810.0</ele><time>2026-04-25T15:40:20.999Z</time></trkpt><trkpt lat="46.32200845885339" lon="10.860323395779524"><ele>810.0</ele><time>2026-04-25T15:40:23Z</time></trkpt><trkpt lat="46.32206299138455" lon="10.860408405597168"><ele>813.0</ele><time>2026-04-25T15:40:25Z</time></trkpt><trkpt lat="46.32211131845294" lon="10.860500929427694"><ele>816.0</ele><time>2026-04-25T15:40:27Z</time></trkpt><trkpt lat="46.32216638236142" lon="10.860590246875638"><ele>819.0</ele><time>2026-04-25T15:40:29Z</time></trkpt><trkpt lat="46.32221556608694" lon="10.8606803537408"><ele>822.0</ele><time>2026-04-25T15:40:31Z</time></trkpt><trkpt lat="46.32228117751323" lon="10.860745975768676"><ele>825.0</ele><time>2026-04-25T15:40:33Z</time></trkpt><trkpt lat="46.322349275701455" lon="10.86079557375019"><ele>828.0</ele><time>2026-04-25T15:40:35Z</time></trkpt><trkpt lat="46.322415393306926" lon="10.860831258661108"><ele>824.7142857142858</ele><time>2026-04-25T15:40:37Z</time></trkpt><trkpt lat="46.32247173906967" lon="10.860872535863777"><ele>821.4285714285714</ele><time>2026-04-25T15:40:39Z</time></trkpt><trkpt lat="46.322544286010974" lon="10.860902782282059"><ele>818.1428571428571</ele><time>2026-04-25T15:40:42Z</time></trkpt><trkpt lat="46.3226235477122" lon="10.860938602829838"><ele>814.8571428571429</ele><time>2026-04-25T15:40:45Z</time></trkpt><trkpt lat="46.322697715039524" lon="10.860980383047973"><ele>811.5714285714286</ele><time>2026-04-25T15:40:48Z</time></trkpt><trkpt lat="46.32276095978601" lon="10.861001825125085"><ele>808.2857142857143</ele><time>2026-04-25T15:40:51Z</time></trkpt><trkpt lat="46.32283081014142" lon="10.861008294105043"><ele>805.0</ele><time>2026-04-25T15:40:54Z</time></trkpt><trkpt lat="46.32291920127325" lon="10.861050973713278"><ele>804.9999999999999</ele><time>2026-04-25T15:40:57Z</time></trkpt><trkpt lat="46.32298337502365" lon="10.861076516115338"><ele>805.0</ele><time>2026-04-25T15:40:59Z</time></trkpt><trkpt lat="46.32305964143969" lon="10.86110045902601"><ele>805.0</ele><time>2026-04-25T15:41:01Z</time></trkpt><trkpt lat="46.32313530320461" lon="10.861143673373311"><ele>805.0</ele><time>2026-04-25T15:41:03Z</time></trkpt><trkpt lat="46.32321983405036" lon="10.861180473527668"><ele>804.9999999999999</ele><time>2026-04-25T15:41:05Z</time></trkpt><trkpt lat="46.323309918879765" lon="10.861214914033676"><ele>805.0</ele><time>2026-04-25T15:41:07Z</time></trkpt><trkpt lat="46.323400645811354" lon="10.861253862147047"><ele>804.4</ele><time>2026-04-25T15:41:09Z</time></trkpt><trkpt lat="46.323492689154996" lon="10.861288437047776"><ele>803.8</ele><time>2026-04-25T15:41:11Z</time></trkpt><trkpt lat="46.32358415957405" lon="10.861326027221763"><ele>803.2</ele><time>2026-04-25T15:41:13Z</time></trkpt><trkpt lat="46.32367081879424" lon="10.861357946621668"><ele>802.6</ele><time>2026-04-25T15:41:15Z</time></trkpt><trkpt lat="46.32375747166957" lon="10.861382610934804"><ele>802.0</ele><time>2026-04-25T15:41:17Z</time></trkpt><trkpt lat="46.3238386571992" lon="10.861398339107879"><ele>799.4999999999999</ele><time>2026-04-25T15:41:19Z</time></trkpt><trkpt lat="46.32391332935218" lon="10.861422784446816"><ele>797.0</ele><time>2026-04-25T15:41:21Z</time></trkpt><trkpt lat="46.32398982417594" lon="10.861445740178725"><ele>794.5</ele><time>2026-04-25T15:41:23Z</time></trkpt><trkpt lat="46.32407056609109" lon="10.86147989155409"><ele>792.0</ele><time>2026-04-25T15:41:25Z</time></trkpt><trkpt lat="46.324149513994854" lon="10.8615167361544"><ele>789.4999999999999</ele><time>2026-04-25T15:41:27Z</time></trkpt><trkpt lat="46.32422466250761" lon="10.86156727725632"><ele>787.0</ele><time>2026-04-25T15:41:29Z</time></trkpt><trkpt lat="46.32429745857892" lon="10.861613407344311"><ele>786.9999999999999</ele><time>2026-04-25T15:41:31Z</time></trkpt><trkpt lat="46.324371916743104" lon="10.861653540320871"><ele>787.0</ele><time>2026-04-25T15:41:33Z</time></trkpt><trkpt lat="46.32444411771483" lon="10.861695977007452"><ele>787.0</ele><time>2026-04-25T15:41:35Z</time></trkpt><trkpt lat="46.3245190430871" lon="10.861728670981302"><ele>787.0</ele><time>2026-04-25T15:41:37Z</time></trkpt><trkpt lat="46.324597382169976" lon="10.861763544059924"><ele>786.9999999999999</ele><time>2026-04-25T15:41:39Z</time></trkpt><trkpt lat="46.32467787088341" lon="10.861788754978766"><ele>787.0</ele><time>2026-04-25T15:41:41Z</time></trkpt><trkpt lat="46.32473730484442" lon="10.861868034369595"><ele>788.25</ele><time>2026-04-25T15:41:44Z</time></trkpt><trkpt lat="46.32480496547406" lon="10.861949892899927"><ele>789.5</ele><time>2026-04-25T15:41:46.999Z</time></trkpt><trkpt lat="46.32486893119468" lon="10.86206754273833"><ele>790.75</ele><time>2026-04-25T15:41:49.999Z</time></trkpt><trkpt lat="46.32493007623544" lon="10.862137633007285"><ele>792.0</ele><time>2026-04-25T15:41:51.999Z</time></trkpt><trkpt lat="46.3253089999473" lon="10.862048801627555"><ele>792.0</ele><time>2026-04-25T15:41:53.999Z</time></trkpt><trkpt lat="46.32538241900017" lon="10.861909164333731"><ele>792.0</ele><time>2026-04-25T15:41:55.999Z</time></trkpt><trkpt lat="46.32541093066256" lon="10.861782672472074"><ele>792.0</ele><time>2026-04-25T15:41:57.999Z</time></trkpt><trkpt lat="46.32533298939079" lon="10.861151658671014"><ele>791.4000000000001</ele><time>2026-04-25T15:41:58.999Z</time></trkpt><trkpt lat="46.32523854863918" lon="10.861029310436079"><ele>790.8000000000001</ele><time>2026-04-25T15:42:00.999Z</time></trkpt><trkpt lat="46.325190328776905" lon="10.860967179679445"><ele>790.2</ele><time>2026-04-25T15:42:01.999Z</time></trkpt><trkpt lat="46.32510265819279" lon="10.860855196610206"><ele>789.6</ele><time>2026-04-25T15:42:03.999Z</time></trkpt><trkpt lat="46.325182540053476" lon="10.860905214775691"><ele>789.0</ele><time>2026-04-25T15:42:09.998Z</time></trkpt><trkpt lat="46.325282654925765" lon="10.860934205326371"><ele>788.8333333333334</ele><time>2026-04-25T15:42:11.998Z</time></trkpt><trkpt lat="46.325334524791394" lon="10.860994322507082"><ele>788.6666666666667</ele><time>2026-04-25T15:42:13.998Z</time></trkpt><trkpt lat="46.32540097564147" lon="10.861077038250182"><ele>788.5</ele><time>2026-04-25T15:42:16.998Z</time></trkpt><trkpt lat="46.325466161636975" lon="10.861153288237196"><ele>788.3333333333334</ele><time>2026-04-25T15:42:18.998Z</time></trkpt><trkpt lat="46.325529973334795" lon="10.861236452409587"><ele>788.1666666666667</ele><time>2026-04-25T15:42:20.998Z</time></trkpt><trkpt lat="46.32559435549875" lon="10.861319986321684"><ele>788.0</ele><time>2026-04-25T15:42:22.998Z</time></trkpt><trkpt lat="46.32557586472336" lon="10.861529591659831"><ele>788.0</ele><time>2026-04-25T15:42:24.998Z</time></trkpt><trkpt lat="46.325632143497415" lon="10.861601527011597"><ele>788.0</ele><time>2026-04-25T15:42:26.998Z</time></trkpt><trkpt lat="46.32571262470008" lon="10.861704397795478"><ele>788.0</ele><time>2026-04-25T15:42:31Z</time></trkpt><trkpt lat="46.32606137092064" lon="10.861210760547284"><ele>788.0</ele><time>2026-04-25T15:42:48Z</time></trkpt><trkpt lat="46.32613494628965" lon="10.861136287599901"><ele>788.0</ele><time>2026-04-25T15:42:49.999Z</time></trkpt><trkpt lat="46.326233071151805" lon="10.861170955513769"><ele>788.0</ele><time>2026-04-25T15:42:51.999Z</time></trkpt><trkpt lat="46.32632229563349" lon="10.861263055147171"><ele>788.0</ele><time>2026-04-25T15:42:53.999Z</time></trkpt><trkpt lat="46.32639442929174" lon="10.861371767951399"><ele>788.0</ele><time>2026-04-25T15:42:55.999Z</time></trkpt><trkpt lat="46.32646576027162" lon="10.861485839730058"><ele>788.0</ele><time>2026-04-25T15:42:57.999Z</time></trkpt><trkpt lat="46.32653824822522" lon="10.86159920599593"><ele>788.0</ele><time>2026-04-25T15:42:59.999Z</time></trkpt><trkpt lat="46.32660442875188" lon="10.861717673429428"><ele>788.0</ele><time>2026-04-25T15:43:01.999Z</time></trkpt><trkpt lat="46.326667207048715" lon="10.861827070584425"><ele>788.0</ele><time>2026-04-25T15:43:03.999Z</time></trkpt><trkpt lat="46.32671632067401" lon="10.861948373503061"><ele>788.0</ele><time>2026-04-25T15:43:05.999Z</time></trkpt><trkpt lat="46.32674279137025" lon="10.862079017542454"><ele>788.0</ele><time>2026-04-25T15:43:07.999Z</time></trkpt><trkpt lat="46.3267547789147" lon="10.862204571299758"><ele>788.0</ele><time>2026-04-25T15:43:09.999Z</time></trkpt><trkpt lat="46.32677409009323" lon="10.862330531017646"><ele>788.0</ele><time>2026-04-25T15:43:11.999Z</time></trkpt><trkpt lat="46.326783420118126" lon="10.862458692192359"><ele>788.0</ele><time>2026-04-25T15:43:13.999Z</time></trkpt><trkpt lat="46.326812613398445" lon="10.862584802562344"><ele>788.0</ele><time>2026-04-25T15:43:15.999Z</time></trkpt><trkpt lat="46.32663154383834" lon="10.862988594836182"><ele>787.5999999999999</ele><time>2026-04-25T15:43:17.999Z</time></trkpt><trkpt lat="46.32669224328265" lon="10.863089871384682"><ele>787.1999999999999</ele><time>2026-04-25T15:43:19.999Z</time></trkpt><trkpt lat="46.326762607054185" lon="10.863217690921681"><ele>786.8</ele><time>2026-04-25T15:43:21.999Z</time></trkpt><trkpt lat="46.32684219140757" lon="10.863373392771537"><ele>786.4</ele><time>2026-04-25T15:43:23.999Z</time></trkpt><trkpt lat="46.32687974000145" lon="10.863452297895632"><ele>786.0</ele><time>2026-04-25T15:43:24.999Z</time></trkpt><trkpt lat="46.32691699786711" lon="10.863534454276838"><ele>786.0</ele><time>2026-04-25T15:43:25.999Z</time></trkpt><trkpt lat="46.326957465342055" lon="10.863627162867763"><ele>786.0</ele><time>2026-04-25T15:43:26.999Z</time></trkpt><trkpt lat="46.32699026342313" lon="10.863708170739832"><ele>786.0</ele><time>2026-04-25T15:43:27.999Z</time></trkpt><trkpt lat="46.3270244732624" lon="10.863794442330983"><ele>786.0</ele><time>2026-04-25T15:43:28.999Z</time></trkpt><trkpt lat="46.32705980076551" lon="10.863884243629183"><ele>786.0</ele><time>2026-04-25T15:43:29.999Z</time></trkpt><trkpt lat="46.32750054015024" lon="10.863768222655349"><ele>784.1999999999999</ele><time>2026-04-25T15:43:31.999Z</time></trkpt><trkpt lat="46.32756755201543" lon="10.863837654677274"><ele>782.4</ele><time>2026-04-25T15:43:32.999Z</time></trkpt><trkpt lat="46.32763706538831" lon="10.863906995147238"><ele>780.6</ele><time>2026-04-25T15:43:33.999Z</time></trkpt><trkpt lat="46.327708766270696" lon="10.863975101938667"><ele>778.8</ele><time>2026-04-25T15:43:34.999Z</time></trkpt><trkpt lat="46.32771013525001" lon="10.86417980508546"><ele>777.0</ele><time>2026-04-25T15:43:35.999Z</time></trkpt><trkpt lat="46.32773493984314" lon="10.864265633095027"><ele>777.6</ele><time>2026-04-25T15:43:37.999Z</time></trkpt><trkpt lat="46.32774804831334" lon="10.864407250350073"><ele>778.2</ele><time>2026-04-25T15:43:39.999Z</time></trkpt><trkpt lat="46.32775992128677" lon="10.864582662190383"><ele>778.8</ele><time>2026-04-25T15:43:41.999Z</time></trkpt><trkpt lat="46.327766387895736" lon="10.86467444165135"><ele>779.4</ele><time>2026-04-25T15:43:42.999Z</time></trkpt><trkpt lat="46.32775846832912" lon="10.864836855787473"><ele>780.0</ele><time>2026-04-25T15:43:44.999Z</time></trkpt><trkpt lat="46.32772913445572" lon="10.86494197774917"><ele>780.0</ele><time>2026-04-25T15:43:45.999Z</time></trkpt><trkpt lat="46.32772063851449" lon="10.865043671627454"><ele>780.0</ele><time>2026-04-25T15:43:46.999Z</time></trkpt><trkpt lat="46.32771260858418" lon="10.865139787456258"><ele>780.0</ele><time>2026-04-25T15:43:47.999Z</time></trkpt><trkpt lat="46.32770478803037" lon="10.865235650878642"><ele>780.0</ele><time>2026-04-25T15:43:48.999Z</time></trkpt><trkpt lat="46.32769925145877" lon="10.86532929114803"><ele>780.0</ele><time>2026-04-25T15:43:49.999Z</time></trkpt><trkpt lat="46.32768288893159" lon="10.865497243265446"><ele>780.0</ele><time>2026-04-25T15:43:51.999Z</time></trkpt><trkpt lat="46.327762545362624" lon="10.865699502819488"><ele>780.0</ele><time>2026-04-25T15:43:53.999Z</time></trkpt><trkpt lat="46.32776225254359" lon="10.865879893081337"><ele>780.0</ele><time>2026-04-25T15:43:55.999Z</time></trkpt><trkpt lat="46.32754261623303" lon="10.866066509613477"><ele>780.0</ele><time>2026-04-25T15:43:57.999Z</time></trkpt><trkpt lat="46.32754357712718" lon="10.866160303261381"><ele>780.0</ele><time>2026-04-25T15:43:58.999Z</time></trkpt><trkpt lat="46.32746081625777" lon="10.866247672411165"><ele>779.8333333333334</ele><time>2026-04-25T15:43:59.999Z</time></trkpt><trkpt lat="46.32745774110247" lon="10.86642854980217"><ele>779.6666666666667</ele><time>2026-04-25T15:44:01.999Z</time></trkpt><trkpt lat="46.32745552443335" lon="10.866523550233387"><ele>779.5</ele><time>2026-04-25T15:44:02.999Z</time></trkpt><trkpt lat="46.327447919587655" lon="10.866702876467441"><ele>779.3333333333334</ele><time>2026-04-25T15:44:04.999Z</time></trkpt><trkpt lat="46.3274432253643" lon="10.866799192847223"><ele>779.1666666666667</ele><time>2026-04-25T15:44:05.999Z</time></trkpt><trkpt lat="46.327438281771194" lon="10.866891571606228"><ele>779.0</ele><time>2026-04-25T15:44:06.999Z</time></trkpt><trkpt lat="46.327429441714784" lon="10.867062449563756"><ele>778.3333333333334</ele><time>2026-04-25T15:44:08.999Z</time></trkpt><trkpt lat="46.32742023355018" lon="10.867240443040588"><ele>777.6666666666667</ele><time>2026-04-25T15:44:10.999Z</time></trkpt><trkpt lat="46.32741522425582" lon="10.86733727250699"><ele>777.0</ele><time>2026-04-25T15:44:11.999Z</time></trkpt><trkpt lat="46.32740986073729" lon="10.867431761167243"><ele>776.3333333333333</ele><time>2026-04-25T15:44:12.999Z</time></trkpt><trkpt lat="46.3274040475356" lon="10.867535716494123"><ele>775.6666666666666</ele><time>2026-04-25T15:44:13.999Z</time></trkpt><trkpt lat="46.32739829719785" lon="10.86763854764023"><ele>775.0</ele><time>2026-04-25T15:44:14.999Z</time></trkpt><trkpt lat="46.327392448603696" lon="10.86774935478292"><ele>774.3333333333333</ele><time>2026-04-25T15:44:15.999Z</time></trkpt><trkpt lat="46.3273874060065" lon="10.867852289523514"><ele>773.6666666666666</ele><time>2026-04-25T15:44:16.999Z</time></trkpt><trkpt lat="46.32738195897649" lon="10.86801682933339"><ele>773.0</ele><time>2026-04-25T15:44:17.999Z</time></trkpt><trkpt lat="46.327382392308685" lon="10.868150609508627"><ele>772.3333333333333</ele><time>2026-04-25T15:44:18.999Z</time></trkpt><trkpt lat="46.32738487228159" lon="10.868249473315785"><ele>771.6666666666666</ele><time>2026-04-25T15:44:19.999Z</time></trkpt><trkpt lat="46.32738951131904" lon="10.868370382039195"><ele>771.0</ele><time>2026-04-25T15:44:20.999Z</time></trkpt><trkpt lat="46.32803657218004" lon="10.868408374512452"><ele>771.0</ele><time>2026-04-25T15:44:21.999Z</time></trkpt><trkpt lat="46.3280467011351" lon="10.868501123946029"><ele>771.0</ele><time>2026-04-25T15:44:22.999Z</time></trkpt><trkpt lat="46.32805493885145" lon="10.868593654687094"><ele>771.0</ele><time>2026-04-25T15:44:23.999Z</time></trkpt><trkpt lat="46.3280642108549" lon="10.868686258304287"><ele>771.0</ele><time>2026-04-25T15:44:24.999Z</time></trkpt><trkpt lat="46.32807280993112" lon="10.868778571405398"><ele>771.0</ele><time>2026-04-25T15:44:25.998Z</time></trkpt><trkpt lat="46.32808409900594" lon="10.86886927146798"><ele>771.0</ele><time>2026-04-25T15:44:26.998Z</time></trkpt><trkpt lat="46.32809554307144" lon="10.868961700241911"><ele>771.0</ele><time>2026-04-25T15:44:27.998Z</time></trkpt><trkpt lat="46.32810686194535" lon="10.86905447746332"><ele>769.0</ele><time>2026-04-25T15:44:28.998Z</time></trkpt><trkpt lat="46.32811329092088" lon="10.869146443468956"><ele>767.0</ele><time>2026-04-25T15:44:29.998Z</time></trkpt><trkpt lat="46.32811883852487" lon="10.869237989672884"><ele>765.0</ele><time>2026-04-25T15:44:30.998Z</time></trkpt><trkpt lat="46.32811898539599" lon="10.869417589196408"><ele>763.0</ele><time>2026-04-25T15:44:32.998Z</time></trkpt><trkpt lat="46.32811055806463" lon="10.869595909073775"><ele>761.0</ele><time>2026-04-25T15:44:35Z</time></trkpt><trkpt lat="46.3281095853837" lon="10.869769512836282"><ele>760.6666666666666</ele><time>2026-04-25T15:44:37Z</time></trkpt><trkpt lat="46.328111190836175" lon="10.869932844445248"><ele>760.3333333333334</ele><time>2026-04-25T15:44:39Z</time></trkpt><trkpt lat="46.3278899490245" lon="10.870275947331072"><ele>760.0</ele><time>2026-04-25T15:44:41Z</time></trkpt><trkpt lat="46.32793546507855" lon="10.870391128544032"><ele>760.0</ele><time>2026-04-25T15:44:43Z</time></trkpt><trkpt lat="46.327981611403345" lon="10.870507231758957"><ele>760.0</ele><time>2026-04-25T15:44:45Z</time></trkpt><trkpt lat="46.32802674266595" lon="10.870620448368697"><ele>760.0</ele><time>2026-04-25T15:44:47Z</time></trkpt><trkpt lat="46.328070256016396" lon="10.870729606274"><ele>760.0</ele><time>2026-04-25T15:44:49Z</time></trkpt><trkpt lat="46.328114847754115" lon="10.870836294909331"><ele>760.0</ele><time>2026-04-25T15:44:51Z</time></trkpt><trkpt lat="46.328152844536724" lon="10.870935192605614"><ele>760.0</ele><time>2026-04-25T15:44:54Z</time></trkpt><trkpt lat="46.32817308472964" lon="10.871024797898164"><ele>760.0</ele><time>2026-04-25T15:44:57Z</time></trkpt><trkpt lat="46.32850839290687" lon="10.870892694451925"><ele>760.0</ele><time>2026-04-25T15:45:02Z</time></trkpt><trkpt lat="46.328579175609846" lon="10.87088042171377"><ele>760.0</ele><time>2026-04-25T15:45:04Z</time></trkpt><trkpt lat="46.3286506667596" lon="10.870939392941741"><ele>760.0</ele><time>2026-04-25T15:45:07Z</time></trkpt><trkpt lat="46.32864607662967" lon="10.871102037350092"><ele>760.0</ele><time>2026-04-25T15:45:09Z</time></trkpt><trkpt lat="46.328657696687" lon="10.871192989259411"><ele>760.0</ele><time>2026-04-25T15:45:10Z</time></trkpt><trkpt lat="46.32866742516663" lon="10.871290863610957"><ele>760.0</ele><time>2026-04-25T15:45:11Z</time></trkpt><trkpt lat="46.3286740981381" lon="10.871381566753733"><ele>760.0</ele><time>2026-04-25T15:45:12Z</time></trkpt><trkpt lat="46.32867918487001" lon="10.871474337870735"><ele>760.0</ele><time>2026-04-25T15:45:13Z</time></trkpt><trkpt lat="46.328685547617496" lon="10.871649086140394"><ele>759.4</ele><time>2026-04-25T15:45:14.999Z</time></trkpt><trkpt lat="46.32869412996731" lon="10.871815170938191"><ele>758.8</ele><time>2026-04-25T15:45:16.999Z</time></trkpt><trkpt lat="46.328697090572234" lon="10.871974480183374"><ele>758.2</ele><time>2026-04-25T15:45:18.999Z</time></trkpt><trkpt lat="46.32869778751193" lon="10.87212421696136"><ele>757.6</ele><time>2026-04-25T15:45:20.999Z</time></trkpt><trkpt lat="46.32869717924832" lon="10.872266662088801"><ele>757.0</ele><time>2026-04-25T15:45:22.999Z</time></trkpt><trkpt lat="46.32869667882194" lon="10.872404865183846"><ele>757.0</ele><time>2026-04-25T15:45:24.999Z</time></trkpt><trkpt lat="46.32869372113722" lon="10.872548545948284"><ele>757.0</ele><time>2026-04-25T15:45:26.999Z</time></trkpt><trkpt lat="46.32868621720435" lon="10.87269731621052"><ele>757.0</ele><time>2026-04-25T15:45:28.999Z</time></trkpt><trkpt lat="46.32868370894043" lon="10.872856084674137"><ele>757.0</ele><time>2026-04-25T15:45:30.999Z</time></trkpt><trkpt lat="46.32867565808142" lon="10.873013287313995"><ele>757.0</ele><time>2026-04-25T15:45:32.999Z</time></trkpt><trkpt lat="46.32871543441821" lon="10.87310604429564"><ele>756.4000000000001</ele><time>2026-04-25T15:45:33.999Z</time></trkpt><trkpt lat="46.328702361426416" lon="10.873240053583295"><ele>755.8000000000001</ele><time>2026-04-25T15:45:35.999Z</time></trkpt><trkpt lat="46.328713714704776" lon="10.87338215213918"><ele>755.2</ele><time>2026-04-25T15:45:37.999Z</time></trkpt><trkpt lat="46.32872803419429" lon="10.873525537403975"><ele>754.6</ele><time>2026-04-25T15:45:39.999Z</time></trkpt><trkpt lat="46.328743317980326" lon="10.873668488051331"><ele>754.0</ele><time>2026-04-25T15:45:41.999Z</time></trkpt><trkpt lat="46.32876291092759" lon="10.873830767321069"><ele>754.0</ele><time>2026-04-25T15:45:43.999Z</time></trkpt><trkpt lat="46.32875981749642" lon="10.873929089973208"><ele>754.0</ele><time>2026-04-25T15:45:44.999Z</time></trkpt><trkpt lat="46.328686937173366" lon="10.874095277557817"><ele>754.0</ele><time>2026-04-25T15:45:46.999Z</time></trkpt><trkpt lat="46.32864498838499" lon="10.874198401583088"><ele>754.0</ele><time>2026-04-25T15:45:48.999Z</time></trkpt><trkpt lat="46.32855578961496" lon="10.874164420279508"><ele>754.0</ele><time>2026-04-25T15:45:50.999Z</time></trkpt><trkpt lat="46.32852761030425" lon="10.874259960918387"><ele>754.0</ele><time>2026-04-25T15:45:51.999Z</time></trkpt><trkpt lat="46.32852886356844" lon="10.874155348659123"><ele>754.0</ele><time>2026-04-25T15:45:52.999Z</time></trkpt><trkpt lat="46.328488774024095" lon="10.874240144351432"><ele>754.0</ele><time>2026-04-25T15:45:53.999Z</time></trkpt><trkpt lat="46.32860740170381" lon="10.874830986327055"><ele>753.5</ele><time>2026-04-25T15:45:56.999Z</time></trkpt><trkpt lat="46.328605330234446" lon="10.874924178490048"><ele>753.0</ele><time>2026-04-25T15:45:57.999Z</time></trkpt><trkpt lat="46.32860581330025" lon="10.87510469983127"><ele>752.5</ele><time>2026-04-25T15:45:59.999Z</time></trkpt><trkpt lat="46.3286076785922" lon="10.875196479932788"><ele>752.0</ele><time>2026-04-25T15:46:00.999Z</time></trkpt><trkpt lat="46.32861081994879" lon="10.875290275439214"><ele>751.5</ele><time>2026-04-25T15:46:01.999Z</time></trkpt><trkpt lat="46.328615438508635" lon="10.875385285912731"><ele>751.0</ele><time>2026-04-25T15:46:02.999Z</time></trkpt><trkpt lat="46.328624209395535" lon="10.875481555002622"><ele>750.8571428571429</ele><time>2026-04-25T15:46:03.999Z</time></trkpt><trkpt lat="46.32863158231378" lon="10.875575510589714"><ele>750.7142857142858</ele><time>2026-04-25T15:46:04.999Z</time></trkpt><trkpt lat="46.328640662260085" lon="10.875671471674822"><ele>750.5714285714287</ele><time>2026-04-25T15:46:05.999Z</time></trkpt><trkpt lat="46.32865305626943" lon="10.87576892370757"><ele>750.4285714285714</ele><time>2026-04-25T15:46:06.999Z</time></trkpt><trkpt lat="46.328664800279356" lon="10.875866869942222"><ele>750.2857142857142</ele><time>2026-04-25T15:46:07.999Z</time></trkpt><trkpt lat="46.32867744225837" lon="10.875964329521683"><ele>750.1428571428572</ele><time>2026-04-25T15:46:08.999Z</time></trkpt><trkpt lat="46.32869350818218" lon="10.876062824676453"><ele>750.0</ele><time>2026-04-25T15:46:09.999Z</time></trkpt><trkpt lat="46.32871107272842" lon="10.87615582053323"><ele>750.0</ele><time>2026-04-25T15:46:10.999Z</time></trkpt><trkpt lat="46.328728888328776" lon="10.876249905618906"><ele>750.0</ele><time>2026-04-25T15:46:11.999Z</time></trkpt><trkpt lat="46.32874368455067" lon="10.876342376245859"><ele>750.0</ele><time>2026-04-25T15:46:12.999Z</time></trkpt><trkpt lat="46.3287683229682" lon="10.87643317961168"><ele>750.0</ele><time>2026-04-25T15:46:13.999Z</time></trkpt><trkpt lat="46.328792104334994" lon="10.876524240976561"><ele>750.0</ele><time>2026-04-25T15:46:14.999Z</time></trkpt><trkpt lat="46.32881798461401" lon="10.876615929013457"><ele>750.0</ele><time>2026-04-25T15:46:15.999Z</time></trkpt><trkpt lat="46.328845488319985" lon="10.876709754767624"><ele>750.0</ele><time>2026-04-25T15:46:16.999Z</time></trkpt><trkpt lat="46.32887009188847" lon="10.876803915717764"><ele>749.8333333333334</ele><time>2026-04-25T15:46:17.999Z</time></trkpt><trkpt lat="46.32889617471108" lon="10.876896086057672"><ele>749.6666666666666</ele><time>2026-04-25T15:46:18.999Z</time></trkpt><trkpt lat="46.32892018112803" lon="10.876987259413319"><ele>749.5</ele><time>2026-04-25T15:46:19.999Z</time></trkpt><trkpt lat="46.3289445055861" lon="10.877075972209147"><ele>749.3333333333333</ele><time>2026-04-25T15:46:20.999Z</time></trkpt><trkpt lat="46.328996871086986" lon="10.877236740426783"><ele>749.1666666666666</ele><time>2026-04-25T15:46:22.999Z</time></trkpt><trkpt lat="46.329026594142476" lon="10.877320919350113"><ele>749.0</ele><time>2026-04-25T15:46:23.999Z</time></trkpt><trkpt lat="46.32904829961605" lon="10.877408585441884"><ele>749.0</ele><time>2026-04-25T15:46:24.999Z</time></trkpt><trkpt lat="46.329091370610435" lon="10.877575256365574"><ele>749.0</ele><time>2026-04-25T15:46:26.999Z</time></trkpt><trkpt lat="46.329140283706685" lon="10.87773688523214"><ele>749.0</ele><time>2026-04-25T15:46:28.999Z</time></trkpt><trkpt lat="46.32918685432476" lon="10.877892262337127"><ele>749.0</ele><time>2026-04-25T15:46:30.999Z</time></trkpt><trkpt lat="46.32923200697922" lon="10.878036987790617"><ele>748.6</ele><time>2026-04-25T15:46:32.999Z</time></trkpt><trkpt lat="46.32926977312193" lon="10.878175159864739"><ele>748.2</ele><time>2026-04-25T15:46:34.999Z</time></trkpt><trkpt lat="46.3293079345358" lon="10.878304749673513"><ele>747.8000000000001</ele><time>2026-04-25T15:46:36.999Z</time></trkpt><trkpt lat="46.329343528125165" lon="10.878432181830245"><ele>747.4000000000001</ele><time>2026-04-25T15:46:38.999Z</time></trkpt><trkpt lat="46.32938187072882" lon="10.878557081569019"><ele>747.0</ele><time>2026-04-25T15:46:41Z</time></trkpt><trkpt lat="46.32941822795519" lon="10.878677226298676"><ele>747.0</ele><time>2026-04-25T15:46:43Z</time></trkpt><trkpt lat="46.329450957903674" lon="10.878796852001607"><ele>747.0</ele><time>2026-04-25T15:46:45Z</time></trkpt><trkpt lat="46.329486786766985" lon="10.878917735585246"><ele>747.0</ele><time>2026-04-25T15:46:47Z</time></trkpt><trkpt lat="46.329523078455175" lon="10.879034469668339"><ele>747.0</ele><time>2026-04-25T15:46:49Z</time></trkpt><trkpt lat="46.3295601920647" lon="10.87914827401342"><ele>747.0</ele><time>2026-04-25T15:46:51Z</time></trkpt><trkpt lat="46.32960199469511" lon="10.87925915742469"><ele>747.0</ele><time>2026-04-25T15:46:53Z</time></trkpt><trkpt lat="46.32963280947204" lon="10.879379976603175"><ele>746.8333333333334</ele><time>2026-04-25T15:46:55Z</time></trkpt><trkpt lat="46.32966561489327" lon="10.879500463824451"><ele>746.6666666666666</ele><time>2026-04-25T15:46:57Z</time></trkpt><trkpt lat="46.32969674942893" lon="10.879621117874755"><ele>746.5</ele><time>2026-04-25T15:46:59Z</time></trkpt><trkpt lat="46.32972860823951" lon="10.879735967426994"><ele>746.3333333333333</ele><time>2026-04-25T15:47:01Z</time></trkpt><trkpt lat="46.3297651074736" lon="10.87984536285296"><ele>746.1666666666666</ele><time>2026-04-25T15:47:03Z</time></trkpt><trkpt lat="46.32979844855806" lon="10.87995641834376"><ele>746.0</ele><time>2026-04-25T15:47:05Z</time></trkpt><trkpt lat="46.32982839127351" lon="10.880047721114767"><ele>745.6666666666666</ele><time>2026-04-25T15:47:07Z</time></trkpt><trkpt lat="46.329866620040676" lon="10.880146283122345"><ele>745.3333333333333</ele><time>2026-04-25T15:47:10Z</time></trkpt><trkpt lat="46.32986971921506" lon="10.880249384585602"><ele>745.0</ele><time>2026-04-25T15:47:57.999Z</time></trkpt><trkpt lat="46.32990115811625" lon="10.880357519810275"><ele>744.6666666666666</ele><time>2026-04-25T15:47:59.999Z</time></trkpt><trkpt lat="46.329939364876566" lon="10.880479887070956"><ele>744.3333333333334</ele><time>2026-04-25T15:48:01.999Z</time></trkpt><trkpt lat="46.329979860369946" lon="10.880624641833377"><ele>744.0</ele><time>2026-04-25T15:48:03.999Z</time></trkpt><trkpt lat="46.330028633471365" lon="10.88076592948815"><ele>744.0</ele><time>2026-04-25T15:48:05.999Z</time></trkpt><trkpt lat="46.33007046087962" lon="10.880918777154944"><ele>744.0</ele><time>2026-04-25T15:48:07.999Z</time></trkpt><trkpt lat="46.33011867786414" lon="10.881073746733325"><ele>744.0</ele><time>2026-04-25T15:48:09.999Z</time></trkpt><trkpt lat="46.33016754375329" lon="10.881228511521524"><ele>744.0</ele><time>2026-04-25T15:48:11.999Z</time></trkpt><trkpt lat="46.33021818217806" lon="10.881395561982306"><ele>744.0</ele><time>2026-04-25T15:48:13.999Z</time></trkpt><trkpt lat="46.330268269901424" lon="10.88156699522081"><ele>744.0</ele><time>2026-04-25T15:48:15.999Z</time></trkpt><trkpt lat="46.33029894522159" lon="10.881659019427122"><ele>744.0</ele><time>2026-04-25T15:48:16.999Z</time></trkpt><trkpt lat="46.33032536505498" lon="10.881751087389345"><ele>744.0</ele><time>2026-04-25T15:48:17.999Z</time></trkpt><trkpt lat="46.33034590405989" lon="10.88184090995756"><ele>744.0</ele><time>2026-04-25T15:48:18.999Z</time></trkpt><trkpt lat="46.330375701941875" lon="10.881930274046377"><ele>744.0</ele><time>2026-04-25T15:48:19.999Z</time></trkpt><trkpt lat="46.33040706080105" lon="10.882013980154625"><ele>743.4000000000001</ele><time>2026-04-25T15:48:20.999Z</time></trkpt><trkpt lat="46.33042776227554" lon="10.882101908133196"><ele>742.8</ele><time>2026-04-25T15:48:21.999Z</time></trkpt><trkpt lat="46.330480190283986" lon="10.882259131699135"><ele>742.2</ele><time>2026-04-25T15:48:23.999Z</time></trkpt><trkpt lat="46.330525777102025" lon="10.882405723297158"><ele>741.5999999999999</ele><time>2026-04-25T15:48:25.999Z</time></trkpt><trkpt lat="46.330572496625294" lon="10.882566120471155"><ele>741.0</ele><time>2026-04-25T15:48:27.999Z</time></trkpt><trkpt lat="46.33061129801363" lon="10.88272250600033"><ele>740.8</ele><time>2026-04-25T15:48:29.999Z</time></trkpt><trkpt lat="46.3306590065987" lon="10.88287020637697"><ele>740.5999999999999</ele><time>2026-04-25T15:48:31.999Z</time></trkpt><trkpt lat="46.3307099957867" lon="10.883018774471605"><ele>740.4</ele><time>2026-04-25T15:48:33.999Z</time></trkpt><trkpt lat="46.33075459571764" lon="10.883151113705132"><ele>740.2</ele><time>2026-04-25T15:48:35.999Z</time></trkpt><trkpt lat="46.3307967734181" lon="10.88329000051348"><ele>740.0</ele><time>2026-04-25T15:48:37.999Z</time></trkpt><trkpt lat="46.330832227768745" lon="10.88345668131995"><ele>739.7142857142857</ele><time>2026-04-25T15:48:39.999Z</time></trkpt><trkpt lat="46.33085739101563" lon="10.883547681352379"><ele>739.4285714285714</ele><time>2026-04-25T15:48:40.999Z</time></trkpt><trkpt lat="46.330885139283815" lon="10.883636301741518"><ele>739.1428571428571</ele><time>2026-04-25T15:48:41.999Z</time></trkpt><trkpt lat="46.33091059980218" lon="10.883725037184133"><ele>738.8571428571429</ele><time>2026-04-25T15:48:42.999Z</time></trkpt><trkpt lat="46.33093709614411" lon="10.883819583199493"><ele>738.5714285714286</ele><time>2026-04-25T15:48:43.999Z</time></trkpt><trkpt lat="46.33096263714649" lon="10.883913044108601"><ele>738.2857142857142</ele><time>2026-04-25T15:48:44.999Z</time></trkpt><trkpt lat="46.33098877078867" lon="10.884006924831777"><ele>738.0</ele><time>2026-04-25T15:48:45.999Z</time></trkpt><trkpt lat="46.331013097116546" lon="10.884104556612462"><ele>738.0</ele><time>2026-04-25T15:48:47Z</time></trkpt><trkpt lat="46.33103750807432" lon="10.884198610195869"><ele>738.0</ele><time>2026-04-25T15:48:48Z</time></trkpt><trkpt lat="46.33105959342925" lon="10.884292733077727"><ele>738.0</ele><time>2026-04-25T15:48:49Z</time></trkpt><trkpt lat="46.33108138683587" lon="10.884386392056266"><ele>738.0</ele><time>2026-04-25T15:48:50Z</time></trkpt><trkpt lat="46.33110015937649" lon="10.88447796253871"><ele>738.0</ele><time>2026-04-25T15:48:51Z</time></trkpt><trkpt lat="46.33111955409619" lon="10.884571473675116"><ele>738.0</ele><time>2026-04-25T15:48:52Z</time></trkpt><trkpt lat="46.33113813437362" lon="10.884666395689493"><ele>738.0</ele><time>2026-04-25T15:48:53Z</time></trkpt><trkpt lat="46.331154997802116" lon="10.884761722734329"><ele>738.0</ele><time>2026-04-25T15:48:54Z</time></trkpt><trkpt lat="46.33117217767579" lon="10.884854054897232"><ele>738.0</ele><time>2026-04-25T15:48:55Z</time></trkpt><trkpt lat="46.331187192903236" lon="10.884947637109372"><ele>738.0</ele><time>2026-04-25T15:48:56Z</time></trkpt><trkpt lat="46.33120450834135" lon="10.88503583682176"><ele>738.0</ele><time>2026-04-25T15:48:57Z</time></trkpt><trkpt lat="46.331223083873866" lon="10.88512595444058"><ele>738.0</ele><time>2026-04-25T15:48:58Z</time></trkpt><trkpt lat="46.33123971464624" lon="10.88521490909442"><ele>738.0</ele><time>2026-04-25T15:48:59Z</time></trkpt><trkpt lat="46.331257400887374" lon="10.88530594495157"><ele>738.0</ele><time>2026-04-25T15:49:00Z</time></trkpt><trkpt lat="46.33127290396281" lon="10.88539532907128"><ele>738.0</ele><time>2026-04-25T15:49:01Z</time></trkpt><trkpt lat="46.33128439121342" lon="10.8854860133342"><ele>738.0</ele><time>2026-04-25T15:49:02Z</time></trkpt><trkpt lat="46.33129464916434" lon="10.885576622411081"><ele>738.0</ele><time>2026-04-25T15:49:03Z</time></trkpt><trkpt lat="46.33131264892191" lon="10.885665641291082"><ele>738.0</ele><time>2026-04-25T15:49:04Z</time></trkpt><trkpt lat="46.331330863253854" lon="10.885761924027173"><ele>738.0</ele><time>2026-04-25T15:49:05Z</time></trkpt><trkpt lat="46.33135088801732" lon="10.885857746996132"><ele>738.0</ele><time>2026-04-25T15:49:06Z</time></trkpt><trkpt lat="46.331368500197165" lon="10.885953536686937"><ele>738.0</ele><time>2026-04-25T15:49:07Z</time></trkpt><trkpt lat="46.33138844748243" lon="10.886051789203439"><ele>738.0</ele><time>2026-04-25T15:49:08Z</time></trkpt><trkpt lat="46.33140736609782" lon="10.886149562975755"><ele>738.0</ele><time>2026-04-25T15:49:09Z</time></trkpt><trkpt lat="46.3314230775111" lon="10.886244393473394"><ele>738.0</ele><time>2026-04-25T15:49:10Z</time></trkpt><trkpt lat="46.33144001516484" lon="10.886335568568649"><ele>738.0</ele><time>2026-04-25T15:49:11Z</time></trkpt><trkpt lat="46.33147236063827" lon="10.886496112903119"><ele>738.0</ele><time>2026-04-25T15:49:13Z</time></trkpt><trkpt lat="46.33149711915022" lon="10.886654327613112"><ele>738.0</ele><time>2026-04-25T15:49:15Z</time></trkpt><trkpt lat="46.331511512911995" lon="10.886818661622673"><ele>737.4</ele><time>2026-04-25T15:49:17Z</time></trkpt><trkpt lat="46.33154054014525" lon="10.886978125321138"><ele>736.8</ele><time>2026-04-25T15:49:19Z</time></trkpt><trkpt lat="46.33157522651781" lon="10.887141848848595"><ele>736.2</ele><time>2026-04-25T15:49:21Z</time></trkpt><trkpt lat="46.33159110635363" lon="10.887231273285034"><ele>735.6</ele><time>2026-04-25T15:49:22Z</time></trkpt><trkpt lat="46.33162044069042" lon="10.887404870850027"><ele>735.0</ele><time>2026-04-25T15:49:24Z</time></trkpt><trkpt lat="46.33163800964236" lon="10.887494045271186"><ele>734.8333333333334</ele><time>2026-04-25T15:49:25Z</time></trkpt><trkpt lat="46.331671869253846" lon="10.887671774855384"><ele>734.6666666666666</ele><time>2026-04-25T15:49:27Z</time></trkpt><trkpt lat="46.331688972226075" lon="10.887763043372576"><ele>734.5</ele><time>2026-04-25T15:49:28Z</time></trkpt><trkpt lat="46.33170637337724" lon="10.887856667090169"><ele>734.3333333333333</ele><time>2026-04-25T15:49:29Z</time></trkpt><trkpt lat="46.33172220647255" lon="10.887951388679845"><ele>734.1666666666666</ele><time>2026-04-25T15:49:30Z</time></trkpt><trkpt lat="46.331739807148196" lon="10.888047548054624"><ele>734.0</ele><time>2026-04-25T15:49:31Z</time></trkpt><trkpt lat="46.331755601585776" lon="10.888144029942481"><ele>734.0</ele><time>2026-04-25T15:49:32Z</time></trkpt><trkpt lat="46.33177123437151" lon="10.888244115399973"><ele>734.0</ele><time>2026-04-25T15:49:33Z</time></trkpt><trkpt lat="46.33179060490929" lon="10.888342945785688"><ele>734.0</ele><time>2026-04-25T15:49:34Z</time></trkpt><trkpt lat="46.33180108925039" lon="10.888450568725027"><ele>734.0</ele><time>2026-04-25T15:49:35Z</time></trkpt><trkpt lat="46.3318071464392" lon="10.888561335631453"><ele>734.0</ele><time>2026-04-25T15:49:36Z</time></trkpt><trkpt lat="46.33181924100834" lon="10.8886740927007"><ele>734.0</ele><time>2026-04-25T15:49:37Z</time></trkpt><trkpt lat="46.33183051356339" lon="10.888778735223177"><ele>734.0</ele><time>2026-04-25T15:49:38Z</time></trkpt><trkpt lat="46.3318497923911" lon="10.888880286086946"><ele>733.6666666666666</ele><time>2026-04-25T15:49:39Z</time></trkpt><trkpt lat="46.33187590806099" lon="10.889010903412862"><ele>733.3333333333333</ele><time>2026-04-25T15:49:41Z</time></trkpt><trkpt lat="46.33187742369075" lon="10.889116716702173"><ele>733.0</ele><time>2026-04-25T15:49:47Z</time></trkpt><trkpt lat="46.33189335439453" lon="10.88922328464455"><ele>732.6666666666666</ele><time>2026-04-25T15:49:48.999Z</time></trkpt><trkpt lat="46.33192147779797" lon="10.889393876408016"><ele>732.3333333333334</ele><time>2026-04-25T15:49:50.999Z</time></trkpt><trkpt lat="46.33193924849892" lon="10.889504542766435"><ele>732.0</ele><time>2026-04-25T15:49:51.999Z</time></trkpt><trkpt lat="46.33196243784755" lon="10.889622686060413"><ele>732.0</ele><time>2026-04-25T15:49:52.999Z</time></trkpt><trkpt lat="46.33198242104762" lon="10.889745633679489"><ele>732.0</ele><time>2026-04-25T15:49:53.999Z</time></trkpt><trkpt lat="46.33200050229702" lon="10.88985839820439"><ele>732.0</ele><time>2026-04-25T15:49:54.999Z</time></trkpt><trkpt lat="46.33200652902823" lon="10.889964953957776"><ele>732.0</ele><time>2026-04-25T15:49:55.999Z</time></trkpt><trkpt lat="46.3320145436796" lon="10.890073261430912"><ele>732.0</ele><time>2026-04-25T15:49:56.999Z</time></trkpt><trkpt lat="46.332029393511895" lon="10.890174268864877"><ele>732.0</ele><time>2026-04-25T15:49:57.999Z</time></trkpt><trkpt lat="46.332040667124" lon="10.890274195458133"><ele>731.7142857142858</ele><time>2026-04-25T15:49:58.999Z</time></trkpt><trkpt lat="46.3320537253484" lon="10.890373173795252"><ele>731.4285714285714</ele><time>2026-04-25T15:49:59.999Z</time></trkpt><trkpt lat="46.33206872256301" lon="10.89047490386413"><ele>731.1428571428571</ele><time>2026-04-25T15:50:00.999Z</time></trkpt><trkpt lat="46.332084432503294" lon="10.89057848684489"><ele>730.8571428571429</ele><time>2026-04-25T15:50:01.999Z</time></trkpt><trkpt lat="46.332097404501624" lon="10.890678193462557"><ele>730.5714285714286</ele><time>2026-04-25T15:50:02.999Z</time></trkpt><trkpt lat="46.33211255587084" lon="10.89078237217448"><ele>730.2857142857143</ele><time>2026-04-25T15:50:03.999Z</time></trkpt><trkpt lat="46.33212872025115" lon="10.89088668662085"><ele>730.0</ele><time>2026-04-25T15:50:04.999Z</time></trkpt><trkpt lat="46.332143822045964" lon="10.890986322204224"><ele>730.0000000000001</ele><time>2026-04-25T15:50:05.999Z</time></trkpt><trkpt lat="46.33217147910498" lon="10.891092749049452"><ele>730.0</ele><time>2026-04-25T15:50:06.999Z</time></trkpt><trkpt lat="46.33219594782681" lon="10.891189841547474"><ele>730.0</ele><time>2026-04-25T15:50:07.999Z</time></trkpt><trkpt lat="46.332223153159234" lon="10.891290068338382"><ele>730.0</ele><time>2026-04-25T15:50:08.999Z</time></trkpt><trkpt lat="46.33224925584575" lon="10.891391673680294"><ele>730.0</ele><time>2026-04-25T15:50:09.999Z</time></trkpt><trkpt lat="46.33228106955425" lon="10.891487976479656"><ele>730.0000000000001</ele><time>2026-04-25T15:50:10.999Z</time></trkpt><trkpt lat="46.33232152776492" lon="10.891579441406297"><ele>730.0</ele><time>2026-04-25T15:50:11.999Z</time></trkpt><trkpt lat="46.33236346741226" lon="10.891660129899357"><ele>730.0000000000001</ele><time>2026-04-25T15:50:12.999Z</time></trkpt><trkpt lat="46.33239728001941" lon="10.891746081765872"><ele>730.0</ele><time>2026-04-25T15:50:13.999Z</time></trkpt><trkpt lat="46.33242395095187" lon="10.89183557878165"><ele>730.0</ele><time>2026-04-25T15:50:14.999Z</time></trkpt><trkpt lat="46.332445641953896" lon="10.891934649996147"><ele>730.0</ele><time>2026-04-25T15:50:15.999Z</time></trkpt><trkpt lat="46.332454947954375" lon="10.892039132656645"><ele>730.0</ele><time>2026-04-25T15:50:16.999Z</time></trkpt><trkpt lat="46.3324627656326" lon="10.892136171215112"><ele>730.0000000000001</ele><time>2026-04-25T15:50:17.999Z</time></trkpt><trkpt lat="46.33247035892708" lon="10.89223285066992"><ele>730.0</ele><time>2026-04-25T15:50:18.999Z</time></trkpt><trkpt lat="46.332480797287694" lon="10.892327748950365"><ele>730.0000000000001</ele><time>2026-04-25T15:50:19.999Z</time></trkpt><trkpt lat="46.33249065416127" lon="10.892421022918235"><ele>730.0</ele><time>2026-04-25T15:50:20.999Z</time></trkpt><trkpt lat="46.33251746752984" lon="10.892597965942903"><ele>730.0</ele><time>2026-04-25T15:50:22.999Z</time></trkpt><trkpt lat="46.332534015117275" lon="10.892687440922995"><ele>730.0</ele><time>2026-04-25T15:50:23.999Z</time></trkpt><trkpt lat="46.33255108443145" lon="10.892777739846418"><ele>730.0</ele><time>2026-04-25T15:50:24.999Z</time></trkpt><trkpt lat="46.332564360920095" lon="10.89287200884859"><ele>730.0000000000001</ele><time>2026-04-25T15:50:25.999Z</time></trkpt><trkpt lat="46.332579413690205" lon="10.892960678630718"><ele>730.0</ele><time>2026-04-25T15:50:26.999Z</time></trkpt><trkpt lat="46.33259167827511" lon="10.893051018790045"><ele>730.0000000000001</ele><time>2026-04-25T15:50:27.999Z</time></trkpt><trkpt lat="46.33260341993719" lon="10.89314122428641"><ele>730.0</ele><time>2026-04-25T15:50:28.999Z</time></trkpt><trkpt lat="46.332611632919594" lon="10.8932351520923"><ele>730.0</ele><time>2026-04-25T15:50:29.999Z</time></trkpt><trkpt lat="46.3326220343996" lon="10.893327696186235"><ele>730.0</ele><time>2026-04-25T15:50:30.999Z</time></trkpt><trkpt lat="46.332629003766414" lon="10.893421498312346"><ele>730.0</ele><time>2026-04-25T15:50:31.999Z</time></trkpt><trkpt lat="46.33263624302941" lon="10.893514634852975"><ele>730.0000000000001</ele><time>2026-04-25T15:50:32.999Z</time></trkpt><trkpt lat="46.332638602815045" lon="10.893614908561622"><ele>730.0</ele><time>2026-04-25T15:50:33.999Z</time></trkpt><trkpt lat="46.33263931035946" lon="10.893707288753392"><ele>730.0000000000001</ele><time>2026-04-25T15:50:34.999Z</time></trkpt><trkpt lat="46.33264090932096" lon="10.89380159614516"><ele>730.0</ele><time>2026-04-25T15:50:35.999Z</time></trkpt><trkpt lat="46.33263971580223" lon="10.893894849968596"><ele>730.0</ele><time>2026-04-25T15:50:36.999Z</time></trkpt><trkpt lat="46.3326352985116" lon="10.89399332081846"><ele>730.0</ele><time>2026-04-25T15:50:37.999Z</time></trkpt><trkpt lat="46.33263322922859" lon="10.894087252600087"><ele>730.0</ele><time>2026-04-25T15:50:38.999Z</time></trkpt><trkpt lat="46.33263224511365" lon="10.89418142360483"><ele>730.0000000000001</ele><time>2026-04-25T15:50:39.999Z</time></trkpt><trkpt lat="46.332629313893385" lon="10.894277024441644"><ele>730.0</ele><time>2026-04-25T15:50:40.999Z</time></trkpt><trkpt lat="46.332628013491195" lon="10.894374984216915"><ele>730.0000000000001</ele><time>2026-04-25T15:50:41.999Z</time></trkpt><trkpt lat="46.33262898896237" lon="10.894473824499787"><ele>730.0</ele><time>2026-04-25T15:50:42.999Z</time></trkpt><trkpt lat="46.3326361638017" lon="10.894569584805517"><ele>730.0</ele><time>2026-04-25T15:50:43.999Z</time></trkpt><trkpt lat="46.33264932853011" lon="10.894665551049645"><ele>730.0</ele><time>2026-04-25T15:50:44.999Z</time></trkpt><trkpt lat="46.33266548530597" lon="10.894758474672855"><ele>730.0</ele><time>2026-04-25T15:50:45.999Z</time></trkpt><trkpt lat="46.33268459008403" lon="10.894847181786567"><ele>730.0000000000001</ele><time>2026-04-25T15:50:46.999Z</time></trkpt><trkpt lat="46.332704183673876" lon="10.894937292023133"><ele>730.0</ele><time>2026-04-25T15:50:47.999Z</time></trkpt><trkpt lat="46.33272738447969" lon="10.895026675531243"><ele>729.8</ele><time>2026-04-25T15:50:48.999Z</time></trkpt><trkpt lat="46.332763596345295" lon="10.895202845032793"><ele>729.6</ele><time>2026-04-25T15:50:50.999Z</time></trkpt><trkpt lat="46.33278173454973" lon="10.895290818849556"><ele>729.4000000000001</ele><time>2026-04-25T15:50:51.999Z</time></trkpt><trkpt lat="46.33282818633193" lon="10.895455047006646"><ele>729.2</ele><time>2026-04-25T15:50:54Z</time></trkpt><trkpt lat="46.33289150123742" lon="10.895603574665792"><ele>729.0</ele><time>2026-04-25T15:50:56Z</time></trkpt><trkpt lat="46.33295023359848" lon="10.895756645989149"><ele>729.0</ele><time>2026-04-25T15:50:58Z</time></trkpt><trkpt lat="46.3329759016643" lon="10.895841660523962"><ele>729.0</ele><time>2026-04-25T15:50:59Z</time></trkpt><trkpt lat="46.333027782171015" lon="10.895993318816256"><ele>729.0</ele><time>2026-04-25T15:51:01Z</time></trkpt><trkpt lat="46.33307754615553" lon="10.896137490015992"><ele>729.0</ele><time>2026-04-25T15:51:03Z</time></trkpt><trkpt lat="46.333140604615146" lon="10.89628471787656"><ele>729.0</ele><time>2026-04-25T15:51:05Z</time></trkpt><trkpt lat="46.33317616730858" lon="10.896367542461139"><ele>729.0</ele><time>2026-04-25T15:51:06Z</time></trkpt><trkpt lat="46.333216301403" lon="10.896438922521403"><ele>729.0</ele><time>2026-04-25T15:51:07Z</time></trkpt><trkpt lat="46.33326044501476" lon="10.89651783555652"><ele>729.0</ele><time>2026-04-25T15:51:08Z</time></trkpt><trkpt lat="46.333296113808416" lon="10.896599517866417"><ele>729.0</ele><time>2026-04-25T15:51:09Z</time></trkpt><trkpt lat="46.33333320798793" lon="10.89667701283335"><ele>729.0</ele><time>2026-04-25T15:51:10Z</time></trkpt><trkpt lat="46.3333675817872" lon="10.896769084448135"><ele>729.0</ele><time>2026-04-25T15:51:11Z</time></trkpt><trkpt lat="46.33340684577547" lon="10.89684929469053"><ele>729.0</ele><time>2026-04-25T15:51:12Z</time></trkpt><trkpt lat="46.33344207505451" lon="10.896928711031348"><ele>729.0</ele><time>2026-04-25T15:51:13Z</time></trkpt><trkpt lat="46.33347976331968" lon="10.897007241366703"><ele>729.0</ele><time>2026-04-25T15:51:14Z</time></trkpt><trkpt lat="46.333518951910534" lon="10.89708064749439"><ele>729.0</ele><time>2026-04-25T15:51:15Z</time></trkpt><trkpt lat="46.33355894374579" lon="10.897152394700273"><ele>729.0</ele><time>2026-04-25T15:51:16Z</time></trkpt><trkpt lat="46.33359921610363" lon="10.897225862899814"><ele>729.0</ele><time>2026-04-25T15:51:17Z</time></trkpt><trkpt lat="46.333638392888915" lon="10.89730279757569"><ele>729.0</ele><time>2026-04-25T15:51:18Z</time></trkpt><trkpt lat="46.333677928322246" lon="10.897380028591966"><ele>729.0</ele><time>2026-04-25T15:51:19Z</time></trkpt><trkpt lat="46.33372262108391" lon="10.897453989494041"><ele>729.0</ele><time>2026-04-25T15:51:20Z</time></trkpt><trkpt lat="46.333765481280565" lon="10.897525975126488"><ele>729.0</ele><time>2026-04-25T15:51:21Z</time></trkpt><trkpt lat="46.33380829467852" lon="10.897595949603048"><ele>729.0</ele><time>2026-04-25T15:51:22Z</time></trkpt><trkpt lat="46.333852807507796" lon="10.897663316876947"><ele>729.0</ele><time>2026-04-25T15:51:23Z</time></trkpt><trkpt lat="46.33389964095115" lon="10.897733004172679"><ele>729.0</ele><time>2026-04-25T15:51:24Z</time></trkpt><trkpt lat="46.33394441613305" lon="10.897802167962636"><ele>729.0</ele><time>2026-04-25T15:51:25Z</time></trkpt><trkpt lat="46.33398801239192" lon="10.89787463868303"><ele>729.0</ele><time>2026-04-25T15:51:26Z</time></trkpt><trkpt lat="46.33403372406534" lon="10.89794470131604"><ele>728.8571428571429</ele><time>2026-04-25T15:51:27Z</time></trkpt><trkpt lat="46.33407842075995" lon="10.898015030407178"><ele>728.7142857142857</ele><time>2026-04-25T15:51:28Z</time></trkpt><trkpt lat="46.33412668292528" lon="10.89808152549798"><ele>728.5714285714286</ele><time>2026-04-25T15:51:29Z</time></trkpt><trkpt lat="46.334170261787115" lon="10.898153531191358"><ele>728.4285714285714</ele><time>2026-04-25T15:51:30Z</time></trkpt><trkpt lat="46.33421460874341" lon="10.89822516080938"><ele>728.2857142857142</ele><time>2026-04-25T15:51:31Z</time></trkpt><trkpt lat="46.33425923043264" lon="10.898297763596208"><ele>728.1428571428571</ele><time>2026-04-25T15:51:32Z</time></trkpt><trkpt lat="46.334304572121205" lon="10.898363947719082"><ele>728.0</ele><time>2026-04-25T15:51:33Z</time></trkpt><trkpt lat="46.334348930463" lon="10.898431552323917"><ele>728.0</ele><time>2026-04-25T15:51:34Z</time></trkpt><trkpt lat="46.33439327740673" lon="10.898497601133714"><ele>728.0</ele><time>2026-04-25T15:51:35Z</time></trkpt><trkpt lat="46.334436929644276" lon="10.898566979382899"><ele>728.0</ele><time>2026-04-25T15:51:36Z</time></trkpt><trkpt lat="46.334488682937604" lon="10.898627388733601"><ele>728.0</ele><time>2026-04-25T15:51:37Z</time></trkpt><trkpt lat="46.334544947920755" lon="10.898671014656708"><ele>728.0</ele><time>2026-04-25T15:51:38Z</time></trkpt><trkpt lat="46.33460779027369" lon="10.898689431561488"><ele>728.0</ele><time>2026-04-25T15:51:39Z</time></trkpt><trkpt lat="46.33467032107262" lon="10.898708319797864"><ele>728.0</ele><time>2026-04-25T15:51:40Z</time></trkpt><trkpt lat="46.33473201888366" lon="10.89872981787353"><ele>726.8571428571429</ele><time>2026-04-25T15:51:41Z</time></trkpt><trkpt lat="46.33479870182669" lon="10.898752572838804"><ele>725.7142857142858</ele><time>2026-04-25T15:51:42Z</time></trkpt><trkpt lat="46.33486716851185" lon="10.898768147210696"><ele>724.5714285714286</ele><time>2026-04-25T15:51:43Z</time></trkpt><trkpt lat="46.33493643391145" lon="10.898784070649608"><ele>723.4285714285714</ele><time>2026-04-25T15:51:44Z</time></trkpt><trkpt lat="46.335006114407655" lon="10.89879811929268"><ele>722.2857142857143</ele><time>2026-04-25T15:51:45Z</time></trkpt><trkpt lat="46.3350733183972" lon="10.898814376302209"><ele>721.1428571428571</ele><time>2026-04-25T15:51:46Z</time></trkpt><trkpt lat="46.33514009493894" lon="10.898829094127894"><ele>720.0</ele><time>2026-04-25T15:51:47Z</time></trkpt><trkpt lat="46.33520665084815" lon="10.89884034554583"><ele>720.0</ele><time>2026-04-25T15:51:48Z</time></trkpt><trkpt lat="46.33527617488006" lon="10.898841572089447"><ele>720.0</ele><time>2026-04-25T15:51:49Z</time></trkpt><trkpt lat="46.33534413760709" lon="10.898836636552383"><ele>720.0</ele><time>2026-04-25T15:51:50Z</time></trkpt><trkpt lat="46.3354094871432" lon="10.89883443473984"><ele>720.0</ele><time>2026-04-25T15:51:51Z</time></trkpt><trkpt lat="46.335474131189486" lon="10.898835199424413"><ele>720.0</ele><time>2026-04-25T15:51:52Z</time></trkpt><trkpt lat="46.335537703266446" lon="10.898835220330406"><ele>720.0</ele><time>2026-04-25T15:51:53Z</time></trkpt><trkpt lat="46.33565399264849" lon="10.898833379370053"><ele>720.0</ele><time>2026-04-25T15:51:55Z</time></trkpt><trkpt lat="46.33576851336598" lon="10.898843168153505"><ele>720.0</ele><time>2026-04-25T15:51:57Z</time></trkpt><trkpt lat="46.335830967481215" lon="10.898865503914095"><ele>720.0</ele><time>2026-04-25T15:51:58Z</time></trkpt><trkpt lat="46.335890718415655" lon="10.898898599870245"><ele>720.0</ele><time>2026-04-25T15:51:59Z</time></trkpt><trkpt lat="46.33598284598207" lon="10.898972726336963"><ele>720.0</ele><time>2026-04-25T15:52:01Z</time></trkpt><trkpt lat="46.33608178120807" lon="10.899022034915918"><ele>720.0</ele><time>2026-04-25T15:52:02.999Z</time></trkpt><trkpt lat="46.33619006688271" lon="10.899071860161797"><ele>720.0</ele><time>2026-04-25T15:52:04.999Z</time></trkpt><trkpt lat="46.336302327962905" lon="10.899128857810187"><ele>720.0</ele><time>2026-04-25T15:52:06.999Z</time></trkpt><trkpt lat="46.33641211823933" lon="10.899187945537037"><ele>720.0</ele><time>2026-04-25T15:52:08.999Z</time></trkpt><trkpt lat="46.336508578496144" lon="10.8992817155551"><ele>720.0</ele><time>2026-04-25T15:52:10.999Z</time></trkpt><trkpt lat="46.3366031650586" lon="10.899382868192433"><ele>720.0</ele><time>2026-04-25T15:52:12.999Z</time></trkpt><trkpt lat="46.33670084351998" lon="10.899486395703585"><ele>720.0</ele><time>2026-04-25T15:52:14.999Z</time></trkpt><trkpt lat="46.33679877454072" lon="10.899589150216357"><ele>720.0</ele><time>2026-04-25T15:52:16.999Z</time></trkpt><trkpt lat="46.336894790436425" lon="10.899680653109737"><ele>720.0</ele><time>2026-04-25T15:52:18.999Z</time></trkpt><trkpt lat="46.33698003335089" lon="10.899773877569157"><ele>720.0</ele><time>2026-04-25T15:52:20.999Z</time></trkpt><trkpt lat="46.33705998794375" lon="10.8998800839421"><ele>720.0</ele><time>2026-04-25T15:52:22.999Z</time></trkpt><trkpt lat="46.337135749811516" lon="10.900002716938666"><ele>720.0</ele><time>2026-04-25T15:52:24.999Z</time></trkpt><trkpt lat="46.33720409353641" lon="10.900132282067744"><ele>720.0</ele><time>2026-04-25T15:52:26.999Z</time></trkpt><trkpt lat="46.33727369765236" lon="10.900271199934735"><ele>720.4</ele><time>2026-04-25T15:52:28.999Z</time></trkpt><trkpt lat="46.33736303466532" lon="10.900353343781388"><ele>720.8</ele><time>2026-04-25T15:52:30.999Z</time></trkpt><trkpt lat="46.33746088272712" lon="10.90036707087693"><ele>721.2</ele><time>2026-04-25T15:52:32.999Z</time></trkpt><trkpt lat="46.33754978184246" lon="10.900410742067363"><ele>721.6</ele><time>2026-04-25T15:52:34.999Z</time></trkpt><trkpt lat="46.337607704552184" lon="10.900518825488462"><ele>722.0</ele><time>2026-04-25T15:52:36.999Z</time></trkpt><trkpt lat="46.33765124011387" lon="10.90063180687429"><ele>722.0</ele><time>2026-04-25T15:52:38.999Z</time></trkpt><trkpt lat="46.33768956561018" lon="10.90076256332304"><ele>722.0</ele><time>2026-04-25T15:52:40.999Z</time></trkpt><trkpt lat="46.33772240148689" lon="10.900902796165859"><ele>722.0</ele><time>2026-04-25T15:52:42.999Z</time></trkpt><trkpt lat="46.33776294461084" lon="10.901030004125259"><ele>722.0</ele><time>2026-04-25T15:52:44.999Z</time></trkpt><trkpt lat="46.337815825025636" lon="10.90115359386518"><ele>722.0</ele><time>2026-04-25T15:52:46.999Z</time></trkpt><trkpt lat="46.33787173832392" lon="10.901277645763052"><ele>721.8</ele><time>2026-04-25T15:52:48.999Z</time></trkpt><trkpt lat="46.337936939279544" lon="10.901379594990294"><ele>721.6</ele><time>2026-04-25T15:52:50.999Z</time></trkpt><trkpt lat="46.33799132595594" lon="10.901492863839563"><ele>721.4</ele><time>2026-04-25T15:52:52.999Z</time></trkpt><trkpt lat="46.3380643605052" lon="10.901599709970334"><ele>721.1999999999999</ele><time>2026-04-25T15:52:54.999Z</time></trkpt><trkpt lat="46.338144897902446" lon="10.90170002864925"><ele>721.0</ele><time>2026-04-25T15:52:56.999Z</time></trkpt><trkpt lat="46.338224170457416" lon="10.901801694338024"><ele>721.0</ele><time>2026-04-25T15:52:59Z</time></trkpt><trkpt lat="46.33829526434422" lon="10.901899438419646"><ele>721.0</ele><time>2026-04-25T15:53:01Z</time></trkpt><trkpt lat="46.338364686750765" lon="10.90199876217726"><ele>721.0</ele><time>2026-04-25T15:53:03Z</time></trkpt><trkpt lat="46.33843585724561" lon="10.902096413348396"><ele>721.0</ele><time>2026-04-25T15:53:05Z</time></trkpt><trkpt lat="46.338504092128375" lon="10.902201822893517"><ele>721.0</ele><time>2026-04-25T15:53:07Z</time></trkpt><trkpt lat="46.338569623935264" lon="10.902308596126662"><ele>721.0</ele><time>2026-04-25T15:53:09Z</time></trkpt><trkpt lat="46.338643034060624" lon="10.902408408565117"><ele>721.0</ele><time>2026-04-25T15:53:11Z</time></trkpt><trkpt lat="46.33870626438848" lon="10.90252709487689"><ele>721.0</ele><time>2026-04-25T15:53:13Z</time></trkpt><trkpt lat="46.33877088846083" lon="10.902643043922032"><ele>721.0</ele><time>2026-04-25T15:53:15Z</time></trkpt><trkpt lat="46.33881435919691" lon="10.902766318996115"><ele>721.0</ele><time>2026-04-25T15:53:17Z</time></trkpt><trkpt lat="46.33876117691918" lon="10.90288463032985"><ele>720.0</ele><time>2026-04-25T15:53:19Z</time></trkpt><trkpt lat="46.33872059821547" lon="10.90299870872501"><ele>719.0</ele><time>2026-04-25T15:53:21Z</time></trkpt><trkpt lat="46.33876867916429" lon="10.903112080378701"><ele>718.0</ele><time>2026-04-25T15:53:23Z</time></trkpt><trkpt lat="46.33884046073094" lon="10.903208043137894"><ele>717.0</ele><time>2026-04-25T15:53:25Z</time></trkpt><trkpt lat="46.338907497909105" lon="10.903308591842821"><ele>716.0</ele><time>2026-04-25T15:53:27Z</time></trkpt><trkpt lat="46.33897644327993" lon="10.903390055525708"><ele>716.0</ele><time>2026-04-25T15:53:29Z</time></trkpt><trkpt lat="46.339034847804655" lon="10.903482009355344"><ele>716.0</ele><time>2026-04-25T15:53:31Z</time></trkpt><trkpt lat="46.339100337974635" lon="10.903562943585245"><ele>716.0</ele><time>2026-04-25T15:53:33Z</time></trkpt><trkpt lat="46.339159767178174" lon="10.903652592985276"><ele>716.0</ele><time>2026-04-25T15:53:35Z</time></trkpt><trkpt lat="46.33922612231318" lon="10.903734865572709"><ele>716.0</ele><time>2026-04-25T15:53:37Z</time></trkpt><trkpt lat="46.33929507688486" lon="10.903819968081631"><ele>716.0</ele><time>2026-04-25T15:53:39Z</time></trkpt><trkpt lat="46.33936182971142" lon="10.903902175006072"><ele>716.0</ele><time>2026-04-25T15:53:41Z</time></trkpt><trkpt lat="46.339427317420146" lon="10.903974943462178"><ele>716.0</ele><time>2026-04-25T15:53:43Z</time></trkpt><trkpt lat="46.3394894790278" lon="10.904061269574788"><ele>716.0</ele><time>2026-04-25T15:53:45Z</time></trkpt><trkpt lat="46.339561696776336" lon="10.90415319310658"><ele>716.0</ele><time>2026-04-25T15:53:47Z</time></trkpt><trkpt lat="46.33963204306004" lon="10.904248495480855"><ele>716.0</ele><time>2026-04-25T15:53:49Z</time></trkpt><trkpt lat="46.33970059457127" lon="10.904340578588737"><ele>716.0</ele><time>2026-04-25T15:53:51Z</time></trkpt><trkpt lat="46.33977142609397" lon="10.904425211656738"><ele>716.0</ele><time>2026-04-25T15:53:53Z</time></trkpt><trkpt lat="46.33983639600273" lon="10.904516493211101"><ele>716.0</ele><time>2026-04-25T15:53:55Z</time></trkpt><trkpt lat="46.33990062732587" lon="10.904606780409138"><ele>716.0</ele><time>2026-04-25T15:53:57Z</time></trkpt><trkpt lat="46.33996401888036" lon="10.904695373475889"><ele>716.0</ele><time>2026-04-25T15:53:59Z</time></trkpt><trkpt lat="46.340025274009385" lon="10.904782769944418"><ele>716.0</ele><time>2026-04-25T15:54:01Z</time></trkpt><trkpt lat="46.34008392722783" lon="10.904875543305366"><ele>716.0</ele><time>2026-04-25T15:54:03Z</time></trkpt><trkpt lat="46.3401436256279" lon="10.904970163347583"><ele>716.0</ele><time>2026-04-25T15:54:05Z</time></trkpt><trkpt lat="46.340202382375914" lon="10.905058368042502"><ele>716.0</ele><time>2026-04-25T15:54:07Z</time></trkpt><trkpt lat="46.34025906123897" lon="10.905158644611918"><ele>716.0</ele><time>2026-04-25T15:54:09Z</time></trkpt><trkpt lat="46.34032156429243" lon="10.905252892010628"><ele>716.0</ele><time>2026-04-25T15:54:11Z</time></trkpt><trkpt lat="46.340382319233015" lon="10.905353064609013"><ele>716.0</ele><time>2026-04-25T15:54:13Z</time></trkpt><trkpt lat="46.34044545789121" lon="10.90545729830104"><ele>715.8</ele><time>2026-04-25T15:54:15Z</time></trkpt><trkpt lat="46.34050327368572" lon="10.905556320923958"><ele>715.5999999999999</ele><time>2026-04-25T15:54:16.999Z</time></trkpt><trkpt lat="46.34056039617156" lon="10.905650023143874"><ele>715.4</ele><time>2026-04-25T15:54:18.999Z</time></trkpt><trkpt lat="46.340625570488875" lon="10.905742965090859"><ele>715.2</ele><time>2026-04-25T15:54:20.999Z</time></trkpt><trkpt lat="46.34068947223701" lon="10.905840516340705"><ele>715.0</ele><time>2026-04-25T15:54:22.999Z</time></trkpt><trkpt lat="46.340760160688134" lon="10.90593395172751"><ele>714.2</ele><time>2026-04-25T15:54:24.999Z</time></trkpt><trkpt lat="46.34082847918418" lon="10.906030706910565"><ele>713.4</ele><time>2026-04-25T15:54:26.999Z</time></trkpt><trkpt lat="46.34089320384747" lon="10.906137593834277"><ele>712.5999999999999</ele><time>2026-04-25T15:54:28.999Z</time></trkpt><trkpt lat="46.34095976860623" lon="10.90624820368359"><ele>711.8</ele><time>2026-04-25T15:54:30.999Z</time></trkpt><trkpt lat="46.34101800209745" lon="10.9063653323751"><ele>711.0</ele><time>2026-04-25T15:54:32.999Z</time></trkpt><trkpt lat="46.34107509044469" lon="10.906471080300713"><ele>711.0</ele><time>2026-04-25T15:54:34.999Z</time></trkpt><trkpt lat="46.341131847177095" lon="10.906573147759197"><ele>711.0</ele><time>2026-04-25T15:54:36.999Z</time></trkpt><trkpt lat="46.341186937387654" lon="10.906668148554028"><ele>711.0</ele><time>2026-04-25T15:54:38.999Z</time></trkpt><trkpt lat="46.3412357259582" lon="10.906764769323129"><ele>711.0</ele><time>2026-04-25T15:54:40.999Z</time></trkpt><trkpt lat="46.341295149950994" lon="10.906848000102167"><ele>711.0</ele><time>2026-04-25T15:54:42.999Z</time></trkpt><trkpt lat="46.341361428849225" lon="10.906906361455759"><ele>711.0</ele><time>2026-04-25T15:54:44.999Z</time></trkpt><trkpt lat="46.34142453443643" lon="10.906962072787886"><ele>710.8333333333334</ele><time>2026-04-25T15:54:46.999Z</time></trkpt><trkpt lat="46.34149017404069" lon="10.907002938601597"><ele>710.6666666666666</ele><time>2026-04-25T15:54:48.999Z</time></trkpt><trkpt lat="46.34155657499668" lon="10.907032135267837"><ele>710.5</ele><time>2026-04-25T15:54:50.999Z</time></trkpt><trkpt lat="46.34161170159185" lon="10.907081183993752"><ele>710.3333333333333</ele><time>2026-04-25T15:54:52.999Z</time></trkpt><trkpt lat="46.34168070055558" lon="10.907154208859497"><ele>710.1666666666666</ele><time>2026-04-25T15:54:55.999Z</time></trkpt><trkpt lat="46.34174575437471" lon="10.907208016843422"><ele>710.0</ele><time>2026-04-25T15:54:58.999Z</time></trkpt><trkpt lat="46.34174700847829" lon="10.907329324855004"><ele>710.0</ele><time>2026-04-25T15:55:01.999Z</time></trkpt><trkpt lat="46.34167998806882" lon="10.9073609566509"><ele>710.0</ele><time>2026-04-25T15:55:04Z</time></trkpt><trkpt lat="46.34162069812822" lon="10.907445403543047"><ele>710.0</ele><time>2026-04-25T15:55:06Z</time></trkpt><trkpt lat="46.341542762667096" lon="10.907516730407986"><ele>710.0</ele><time>2026-04-25T15:55:08Z</time></trkpt><trkpt lat="46.34146889374742" lon="10.907615282925752"><ele>710.0</ele><time>2026-04-25T15:55:10Z</time></trkpt><trkpt lat="46.341383108932405" lon="10.907703261587795"><ele>708.6666666666666</ele><time>2026-04-25T15:55:12Z</time></trkpt><trkpt lat="46.34129190571272" lon="10.907793831684156"><ele>707.3333333333334</ele><time>2026-04-25T15:55:14Z</time></trkpt><trkpt lat="46.34120889986033" lon="10.907892249103524"><ele>706.0</ele><time>2026-04-25T15:55:16Z</time></trkpt><trkpt lat="46.341411722665086" lon="10.908090201094408"><ele>705.1999999999999</ele><time>2026-04-25T15:55:20Z</time></trkpt><trkpt lat="46.341482863264346" lon="10.908110439381739"><ele>704.4</ele><time>2026-04-25T15:55:21Z</time></trkpt><trkpt lat="46.34154862887698" lon="10.908115952513013"><ele>703.6</ele><time>2026-04-25T15:55:22Z</time></trkpt><trkpt lat="46.34161444362191" lon="10.908120923287685"><ele>702.8</ele><time>2026-04-25T15:55:23Z</time></trkpt><trkpt lat="46.34173828324179" lon="10.908130342785192"><ele>702.0</ele><time>2026-04-25T15:55:25Z</time></trkpt><trkpt lat="46.34185894372955" lon="10.908147784843433"><ele>702.0</ele><time>2026-04-25T15:55:27Z</time></trkpt><trkpt lat="46.341977170953264" lon="10.908154526497595"><ele>702.0</ele><time>2026-04-25T15:55:29Z</time></trkpt><trkpt lat="46.34208792122135" lon="10.908166540282467"><ele>702.0</ele><time>2026-04-25T15:55:31Z</time></trkpt><trkpt lat="46.34219330789571" lon="10.908182078490922"><ele>702.0</ele><time>2026-04-25T15:55:33Z</time></trkpt><trkpt lat="46.34229205308359" lon="10.908190283264403"><ele>702.0</ele><time>2026-04-25T15:55:35Z</time></trkpt><trkpt lat="46.34239395926809" lon="10.908202145003843"><ele>702.4000000000001</ele><time>2026-04-25T15:55:37Z</time></trkpt><trkpt lat="46.34250025765936" lon="10.908214183760766"><ele>702.8000000000001</ele><time>2026-04-25T15:55:39Z</time></trkpt><trkpt lat="46.34260747111478" lon="10.908230682689732"><ele>703.2</ele><time>2026-04-25T15:55:41Z</time></trkpt><trkpt lat="46.342713686706716" lon="10.908248571980847"><ele>703.6</ele><time>2026-04-25T15:55:43Z</time></trkpt><trkpt lat="46.342813793657555" lon="10.908258730343237"><ele>704.0</ele><time>2026-04-25T15:55:45Z</time></trkpt><trkpt lat="46.342913967054926" lon="10.908281660243786"><ele>704.0</ele><time>2026-04-25T15:55:47Z</time></trkpt><trkpt lat="46.343017519171454" lon="10.90831410095701"><ele>704.0</ele><time>2026-04-25T15:55:49Z</time></trkpt><trkpt lat="46.343123251119465" lon="10.908356293838317"><ele>704.0</ele><time>2026-04-25T15:55:51Z</time></trkpt><trkpt lat="46.34322286287536" lon="10.908406161376428"><ele>704.0</ele><time>2026-04-25T15:55:53Z</time></trkpt><trkpt lat="46.34331376114515" lon="10.908470447120333"><ele>704.0</ele><time>2026-04-25T15:55:55Z</time></trkpt><trkpt lat="46.34340364395316" lon="10.908544112570539"><ele>703.4000000000001</ele><time>2026-04-25T15:55:57Z</time></trkpt><trkpt lat="46.34348836910042" lon="10.908620149689057"><ele>702.8</ele><time>2026-04-25T15:55:59Z</time></trkpt><trkpt lat="46.34356690417958" lon="10.908714171182273"><ele>702.2</ele><time>2026-04-25T15:56:01Z</time></trkpt><trkpt lat="46.343640487418476" lon="10.908811336306227"><ele>701.5999999999999</ele><time>2026-04-25T15:56:03Z</time></trkpt><trkpt lat="46.343716629396795" lon="10.908915169352394"><ele>701.0</ele><time>2026-04-25T15:56:05Z</time></trkpt><trkpt lat="46.34378413117388" lon="10.909031491219721"><ele>701.0</ele><time>2026-04-25T15:56:07Z</time></trkpt><trkpt lat="46.343844429098375" lon="10.909159904456978"><ele>701.0</ele><time>2026-04-25T15:56:09Z</time></trkpt><trkpt lat="46.34389592033823" lon="10.909293766586153"><ele>701.0</ele><time>2026-04-25T15:56:11Z</time></trkpt><trkpt lat="46.343943013219224" lon="10.909428244345483"><ele>701.0</ele><time>2026-04-25T15:56:13Z</time></trkpt><trkpt lat="46.343977333318385" lon="10.909566869961614"><ele>701.0</ele><time>2026-04-25T15:56:15Z</time></trkpt><trkpt lat="46.344008510916694" lon="10.909699571047092"><ele>701.4</ele><time>2026-04-25T15:56:17Z</time></trkpt><trkpt lat="46.34403843867811" lon="10.909828026670443"><ele>701.8</ele><time>2026-04-25T15:56:19Z</time></trkpt><trkpt lat="46.344073852949094" lon="10.909951743401972"><ele>702.1999999999999</ele><time>2026-04-25T15:56:21Z</time></trkpt><trkpt lat="46.344114494501035" lon="10.910069493340053"><ele>702.5999999999999</ele><time>2026-04-25T15:56:22.999Z</time></trkpt><trkpt lat="46.34415739487618" lon="10.910188088554609"><ele>703.0</ele><time>2026-04-25T15:56:24.999Z</time></trkpt><trkpt lat="46.344204530947195" lon="10.910305054367202"><ele>703.2</ele><time>2026-04-25T15:56:26.999Z</time></trkpt><trkpt lat="46.34426406931409" lon="10.910417964128843"><ele>703.4</ele><time>2026-04-25T15:56:28.999Z</time></trkpt><trkpt lat="46.34432330353788" lon="10.910539284174623"><ele>703.6</ele><time>2026-04-25T15:56:30.999Z</time></trkpt><trkpt lat="46.34438937443153" lon="10.910649644853441"><ele>703.8000000000001</ele><time>2026-04-25T15:56:32.999Z</time></trkpt><trkpt lat="46.344457986293826" lon="10.910760380576988"><ele>704.0</ele><time>2026-04-25T15:56:34.999Z</time></trkpt><trkpt lat="46.344529922789214" lon="10.910861719181744"><ele>704.5</ele><time>2026-04-25T15:56:36.999Z</time></trkpt><trkpt lat="46.344602718599646" lon="10.910951663264813"><ele>705.0</ele><time>2026-04-25T15:56:38.999Z</time></trkpt><trkpt lat="46.34467142682017" lon="10.911032590581133"><ele>705.5</ele><time>2026-04-25T15:56:40.999Z</time></trkpt><trkpt lat="46.34474164144756" lon="10.9111027610434"><ele>706.0</ele><time>2026-04-25T15:56:42.999Z</time></trkpt><trkpt lat="46.34481321357145" lon="10.911165658560693"><ele>706.5</ele><time>2026-04-25T15:56:44.999Z</time></trkpt><trkpt lat="46.34488845965097" lon="10.911231194853752"><ele>707.0</ele><time>2026-04-25T15:56:46.999Z</time></trkpt><trkpt lat="46.344970595352834" lon="10.91129621536994"><ele>705.4000000000001</ele><time>2026-04-25T15:56:48.999Z</time></trkpt><trkpt lat="46.34505804703126" lon="10.911343752953876"><ele>703.8000000000001</ele><time>2026-04-25T15:56:50.999Z</time></trkpt><trkpt lat="46.345149311601986" lon="10.911391284278393"><ele>702.2</ele><time>2026-04-25T15:56:52.999Z</time></trkpt><trkpt lat="46.34524095247633" lon="10.911437739527074"><ele>700.6</ele><time>2026-04-25T15:56:54.999Z</time></trkpt><trkpt lat="46.34533390652388" lon="10.911486681754615"><ele>699.0</ele><time>2026-04-25T15:56:56.999Z</time></trkpt><trkpt lat="46.34542393700269" lon="10.911532800387137"><ele>699.0</ele><time>2026-04-25T15:56:58.999Z</time></trkpt><trkpt lat="46.345511513817485" lon="10.91158487887338"><ele>699.0</ele><time>2026-04-25T15:57:00.999Z</time></trkpt><trkpt lat="46.345605906943234" lon="10.91162352352783"><ele>699.0</ele><time>2026-04-25T15:57:02.999Z</time></trkpt><trkpt lat="46.34569836841782" lon="10.911671657959308"><ele>699.0</ele><time>2026-04-25T15:57:04.999Z</time></trkpt><trkpt lat="46.34578974442974" lon="10.911734564978902"><ele>699.0</ele><time>2026-04-25T15:57:06.999Z</time></trkpt><trkpt lat="46.3458844054523" lon="10.911794615878025"><ele>699.8000000000001</ele><time>2026-04-25T15:57:08.999Z</time></trkpt><trkpt lat="46.34597866819104" lon="10.911849006316501"><ele>700.6</ele><time>2026-04-25T15:57:11Z</time></trkpt><trkpt lat="46.34607527711817" lon="10.911898625698997"><ele>701.4</ele><time>2026-04-25T15:57:13Z</time></trkpt><trkpt lat="46.346165134125215" lon="10.911951973755778"><ele>702.2</ele><time>2026-04-25T15:57:15Z</time></trkpt><trkpt lat="46.34624849704538" lon="10.912015719392796"><ele>703.0</ele><time>2026-04-25T15:57:17Z</time></trkpt><trkpt lat="46.346324018133" lon="10.912094593119926"><ele>702.5999999999999</ele><time>2026-04-25T15:57:19Z</time></trkpt><trkpt lat="46.346392023054634" lon="10.912170324960142"><ele>702.1999999999999</ele><time>2026-04-25T15:57:21Z</time></trkpt><trkpt lat="46.34645393367893" lon="10.912249596329803"><ele>701.8</ele><time>2026-04-25T15:57:23Z</time></trkpt><trkpt lat="46.34652251266561" lon="10.9123355641452"><ele>701.4</ele><time>2026-04-25T15:57:25Z</time></trkpt><trkpt lat="46.34658581456031" lon="10.912438839610648"><ele>701.0</ele><time>2026-04-25T15:57:27Z</time></trkpt><trkpt lat="46.34664848142342" lon="10.91255017719623"><ele>700.5999999999999</ele><time>2026-04-25T15:57:29Z</time></trkpt><trkpt lat="46.34671713128102" lon="10.9126432239432"><ele>700.2</ele><time>2026-04-25T15:57:31Z</time></trkpt><trkpt lat="46.346769824282426" lon="10.912738520883"><ele>699.8</ele><time>2026-04-25T15:57:33Z</time></trkpt><trkpt lat="46.34682817105257" lon="10.912838148473814"><ele>699.4000000000001</ele><time>2026-04-25T15:57:35Z</time></trkpt><trkpt lat="46.3468909920241" lon="10.912946006612142"><ele>699.0</ele><time>2026-04-25T15:57:37Z</time></trkpt><trkpt lat="46.34695212858666" lon="10.913047568033369"><ele>699.0</ele><time>2026-04-25T15:57:39Z</time></trkpt><trkpt lat="46.34700983306837" lon="10.913137536310975"><ele>699.0</ele><time>2026-04-25T15:57:41Z</time></trkpt><trkpt lat="46.347067341004845" lon="10.913216674338333"><ele>699.0</ele><time>2026-04-25T15:57:43Z</time></trkpt><trkpt lat="46.34713182488098" lon="10.913263898660997"><ele>699.0</ele><time>2026-04-25T15:57:45Z</time></trkpt><trkpt lat="46.34719773083662" lon="10.913319540859513"><ele>699.0</ele><time>2026-04-25T15:57:48Z</time></trkpt><trkpt lat="46.347255225547286" lon="10.913391762226308"><ele>699.0</ele><time>2026-04-25T15:57:51Z</time></trkpt><trkpt lat="46.34732360130088" lon="10.913427056190566"><ele>698.8333333333334</ele><time>2026-04-25T15:57:55Z</time></trkpt><trkpt lat="46.34738209279184" lon="10.913470252544785"><ele>698.6666666666666</ele><time>2026-04-25T15:58:00Z</time></trkpt><trkpt lat="46.3474321160003" lon="10.913529028822449"><ele>698.5</ele><time>2026-04-25T15:58:25Z</time></trkpt><trkpt lat="46.34740714388368" lon="10.91361569166748"><ele>698.3333333333333</ele><time>2026-04-25T15:58:27Z</time></trkpt><trkpt lat="46.34731809454135" lon="10.913693102512918"><ele>698.1666666666666</ele><time>2026-04-25T15:58:29Z</time></trkpt><trkpt lat="46.34725096077252" lon="10.913786553970144"><ele>698.0</ele><time>2026-04-25T15:58:31Z</time></trkpt><trkpt lat="46.34718445742829" lon="10.913877112306727"><ele>698.0</ele><time>2026-04-25T15:58:33Z</time></trkpt><trkpt lat="46.347115513186196" lon="10.913964290109567"><ele>698.0</ele><time>2026-04-25T15:58:35Z</time></trkpt><trkpt lat="46.347048063785756" lon="10.914050439664523"><ele>698.0</ele><time>2026-04-25T15:58:37Z</time></trkpt><trkpt lat="46.346967637288394" lon="10.914118284377352"><ele>698.0</ele><time>2026-04-25T15:58:39Z</time></trkpt><trkpt lat="46.346902951883735" lon="10.9142238592994"><ele>698.0</ele><time>2026-04-25T15:58:41Z</time></trkpt><trkpt lat="46.34684117525863" lon="10.914339179913801"><ele>698.3333333333333</ele><time>2026-04-25T15:58:43Z</time></trkpt><trkpt lat="46.346776263752645" lon="10.914451663060246"><ele>698.6666666666666</ele><time>2026-04-25T15:58:44.999Z</time></trkpt><trkpt lat="46.34672705637919" lon="10.914566099602208"><ele>699.0</ele><time>2026-04-25T15:58:46.999Z</time></trkpt><trkpt lat="46.34667708872178" lon="10.914670209269321"><ele>699.3333333333334</ele><time>2026-04-25T15:58:48.999Z</time></trkpt><trkpt lat="46.34663013402512" lon="10.914759981537907"><ele>699.6666666666667</ele><time>2026-04-25T15:58:50.999Z</time></trkpt><trkpt lat="46.34658804337854" lon="10.914858365084205"><ele>700.0</ele><time>2026-04-25T15:58:52.999Z</time></trkpt><trkpt lat="46.346553785248176" lon="10.914977759871265"><ele>701.0</ele><time>2026-04-25T15:58:55.999Z</time></trkpt><trkpt lat="46.346531943581105" lon="10.915077013433141"><ele>702.0</ele><time>2026-04-25T15:59:46Z</time></trkpt><trkpt lat="46.346562234064294" lon="10.915168567565056"><ele>703.0</ele><time>2026-04-25T15:59:50Z</time></trkpt><trkpt lat="46.34655923875544" lon="10.915277014434968"><ele>704.0</ele><time>2026-04-25T15:59:53Z</time></trkpt><trkpt lat="46.34653873983468" lon="10.91540104742337"><ele>705.0</ele><time>2026-04-25T15:59:56Z</time></trkpt><trkpt lat="46.346542052074724" lon="10.915514420290213"><ele>706.0</ele><time>2026-04-25T15:59:59Z</time></trkpt><trkpt lat="46.346530815443344" lon="10.91562323401462"><ele>706.0</ele><time>2026-04-25T16:00:02Z</time></trkpt><trkpt lat="46.346518870396636" lon="10.915716131275099"><ele>706.0</ele><time>2026-04-25T16:00:05Z</time></trkpt><trkpt lat="46.34647486437799" lon="10.915804350991042"><ele>706.0</ele><time>2026-04-25T16:00:07.999Z</time></trkpt><trkpt lat="46.346423631277915" lon="10.915893185166178"><ele>706.0</ele><time>2026-04-25T16:00:10.999Z</time></trkpt><trkpt lat="46.34637421752065" lon="10.915953887893854"><ele>706.0</ele><time>2026-04-25T16:00:12.999Z</time></trkpt><trkpt lat="46.34630602704437" lon="10.91603509225547"><ele>706.0</ele><time>2026-04-25T16:00:15.999Z</time></trkpt><trkpt lat="46.34624487804584" lon="10.91608899996829"><ele>706.0</ele><time>2026-04-25T16:00:18.999Z</time></trkpt><trkpt lat="46.346217074881594" lon="10.916180793347143"><ele>708.5714285714286</ele><time>2026-04-25T16:00:21.999Z</time></trkpt><trkpt lat="46.346210680018025" lon="10.916289456830091"><ele>711.1428571428572</ele><time>2026-04-25T16:00:24.999Z</time></trkpt><trkpt lat="46.34623980207544" lon="10.916381783623553"><ele>713.7142857142858</ele><time>2026-04-25T16:00:27.999Z</time></trkpt><trkpt lat="46.34627225975363" lon="10.916472820115201"><ele>716.2857142857142</ele><time>2026-04-25T16:00:30.999Z</time></trkpt><trkpt lat="46.34631402018232" lon="10.916563262572085"><ele>718.8571428571429</ele><time>2026-04-25T16:00:34.999Z</time></trkpt><trkpt lat="46.34635040661183" lon="10.91665916264606"><ele>721.4285714285714</ele><time>2026-04-25T16:00:37.999Z</time></trkpt><trkpt lat="46.34639121470744" lon="10.916755396523051"><ele>724.0</ele><time>2026-04-25T16:00:40.999Z</time></trkpt><trkpt lat="46.346431405160914" lon="10.916844157829317"><ele>724.0</ele><time>2026-04-25T16:00:43.999Z</time></trkpt><trkpt lat="46.3464667085008" lon="10.916940109266925"><ele>724.0</ele><time>2026-04-25T16:00:46.999Z</time></trkpt><trkpt lat="46.3465150640369" lon="10.917025988256139"><ele>724.0</ele><time>2026-04-25T16:00:49.999Z</time></trkpt><trkpt lat="46.346545401901615" lon="10.91712005269614"><ele>724.0</ele><time>2026-04-25T16:00:52.999Z</time></trkpt><trkpt lat="46.346588358506864" lon="10.917214884508784"><ele>724.0</ele><time>2026-04-25T16:00:55.998Z</time></trkpt><trkpt lat="46.34664101332428" lon="10.917274598826424"><ele>724.0</ele><time>2026-04-25T16:00:58.998Z</time></trkpt><trkpt lat="46.34669068615079" lon="10.91735595876034"><ele>724.0</ele><time>2026-04-25T16:01:01.998Z</time></trkpt><trkpt lat="46.346742510469745" lon="10.917436662917815"><ele>724.0</ele><time>2026-04-25T16:01:04.998Z</time></trkpt><trkpt lat="46.34680989675558" lon="10.917520687704483"><ele>724.0</ele><time>2026-04-25T16:01:07.998Z</time></trkpt><trkpt lat="46.34688191657088" lon="10.917623515931087"><ele>724.0</ele><time>2026-04-25T16:01:09.998Z</time></trkpt><trkpt lat="46.34696427054089" lon="10.917742399503652"><ele>724.0</ele><time>2026-04-25T16:01:11.998Z</time></trkpt><trkpt lat="46.34705418120252" lon="10.917855706761122"><ele>724.0</ele><time>2026-04-25T16:01:13.998Z</time></trkpt><trkpt lat="46.347129226450164" lon="10.917992289530698"><ele>725.0</ele><time>2026-04-25T16:01:15.998Z</time></trkpt><trkpt lat="46.34722030193774" lon="10.918118617440498"><ele>726.0</ele><time>2026-04-25T16:01:17.998Z</time></trkpt><trkpt lat="46.347265773497014" lon="10.918181689250396"><ele>727.0</ele><time>2026-04-25T16:01:18.998Z</time></trkpt><trkpt lat="46.34735992868213" lon="10.918280243196264"><ele>728.0</ele><time>2026-04-25T16:01:21Z</time></trkpt><trkpt lat="46.34744053034481" lon="10.918406075882228"><ele>729.0</ele><time>2026-04-25T16:01:23Z</time></trkpt><trkpt lat="46.34748980759564" lon="10.9184779770844"><ele>729.0</ele><time>2026-04-25T16:01:24Z</time></trkpt><trkpt lat="46.347540018384734" lon="10.91853719920509"><ele>729.0</ele><time>2026-04-25T16:01:25Z</time></trkpt><trkpt lat="46.34757296019096" lon="10.918615648607567"><ele>729.0</ele><time>2026-04-25T16:01:26Z</time></trkpt><trkpt lat="46.34765644767992" lon="10.918737631750629"><ele>729.0</ele><time>2026-04-25T16:01:28Z</time></trkpt><trkpt lat="46.347752542225166" lon="10.918836727295432"><ele>729.0</ele><time>2026-04-25T16:01:30Z</time></trkpt><trkpt lat="46.34783915756426" lon="10.918939608045013"><ele>729.0</ele><time>2026-04-25T16:01:32Z</time></trkpt><trkpt lat="46.34793485134274" lon="10.919041241844374"><ele>729.0</ele><time>2026-04-25T16:01:34Z</time></trkpt><trkpt lat="46.34802496755283" lon="10.919157146732106"><ele>729.0</ele><time>2026-04-25T16:01:36Z</time></trkpt><trkpt lat="46.34813087801905" lon="10.91923322022805"><ele>729.0</ele><time>2026-04-25T16:01:38Z</time></trkpt><trkpt lat="46.348227468256965" lon="10.919312409026011"><ele>729.5</ele><time>2026-04-25T16:01:40Z</time></trkpt><trkpt lat="46.34831607442197" lon="10.919389993257647"><ele>730.0</ele><time>2026-04-25T16:01:41.999Z</time></trkpt><trkpt lat="46.34841292051798" lon="10.919462749517564"><ele>730.5</ele><time>2026-04-25T16:01:43.999Z</time></trkpt><trkpt lat="46.348519480322324" lon="10.919530205313292"><ele>731.0</ele><time>2026-04-25T16:01:45.999Z</time></trkpt><trkpt lat="46.34864277159017" lon="10.91955743665376"><ele>731.0</ele><time>2026-04-25T16:01:47.999Z</time></trkpt><trkpt lat="46.34870224992497" lon="10.919597621722"><ele>731.0</ele><time>2026-04-25T16:01:48.999Z</time></trkpt><trkpt lat="46.34876692731441" lon="10.919612234108286"><ele>731.0</ele><time>2026-04-25T16:01:49.999Z</time></trkpt><trkpt lat="46.34883134024934" lon="10.919622485074143"><ele>731.0</ele><time>2026-04-25T16:01:50.999Z</time></trkpt><trkpt lat="46.348894582366675" lon="10.919636976894315"><ele>731.0</ele><time>2026-04-25T16:01:51.999Z</time></trkpt><trkpt lat="46.349018182163086" lon="10.919689849464293"><ele>731.0</ele><time>2026-04-25T16:01:53.999Z</time></trkpt><trkpt lat="46.34907540201922" lon="10.919728537130915"><ele>732.5999999999999</ele><time>2026-04-25T16:01:54.999Z</time></trkpt><trkpt lat="46.34913022935112" lon="10.919773486383077"><ele>734.2</ele><time>2026-04-25T16:01:55.999Z</time></trkpt><trkpt lat="46.34923745120259" lon="10.919872759229678"><ele>735.8</ele><time>2026-04-25T16:01:57.999Z</time></trkpt><trkpt lat="46.3492741234807" lon="10.919949245543183"><ele>737.4000000000001</ele><time>2026-04-25T16:01:58.999Z</time></trkpt><trkpt lat="46.349365544044794" lon="10.920063387892132"><ele>739.0</ele><time>2026-04-25T16:02:00.999Z</time></trkpt><trkpt lat="46.34943669679157" lon="10.92019152757379"><ele>739.0</ele><time>2026-04-25T16:02:02.999Z</time></trkpt><trkpt lat="46.349521999074454" lon="10.920285092017727"><ele>739.0</ele><time>2026-04-25T16:02:04.999Z</time></trkpt><trkpt lat="46.349592748970764" lon="10.92038896055165"><ele>739.0</ele><time>2026-04-25T16:02:06.999Z</time></trkpt><trkpt lat="46.34965678548399" lon="10.920485344220419"><ele>739.0</ele><time>2026-04-25T16:02:08.999Z</time></trkpt><trkpt lat="46.34972469456272" lon="10.920569038638144"><ele>739.0</ele><time>2026-04-25T16:02:10.999Z</time></trkpt><trkpt lat="46.34978297543561" lon="10.920654936835916"><ele>739.1666666666667</ele><time>2026-04-25T16:02:12.999Z</time></trkpt><trkpt lat="46.34983315883543" lon="10.920736228281397"><ele>739.3333333333334</ele><time>2026-04-25T16:02:14.999Z</time></trkpt><trkpt lat="46.34987683655008" lon="10.920809927599851"><ele>739.5</ele><time>2026-04-25T16:02:16.999Z</time></trkpt><trkpt lat="46.34994843951375" lon="10.920895719643298"><ele>739.6666666666666</ele><time>2026-04-25T16:02:19.999Z</time></trkpt><trkpt lat="46.3499964564238" lon="10.920999763717369"><ele>739.8333333333333</ele><time>2026-04-25T16:02:22.999Z</time></trkpt><trkpt lat="46.3500605845862" lon="10.921097718600034"><ele>740.0</ele><time>2026-04-25T16:02:25.999Z</time></trkpt><trkpt lat="46.35011870235937" lon="10.921189433160702"><ele>740.0</ele><time>2026-04-25T16:02:28.999Z</time></trkpt><trkpt lat="46.35017227078401" lon="10.921280998094844"><ele>740.0</ele><time>2026-04-25T16:02:33.999Z</time></trkpt><trkpt lat="46.35021301518571" lon="10.921359780262895"><ele>740.0</ele><time>2026-04-25T16:02:36.999Z</time></trkpt><trkpt lat="46.35025273589419" lon="10.921451042190242"><ele>740.0</ele><time>2026-04-25T16:02:39.999Z</time></trkpt><trkpt lat="46.35029140885154" lon="10.921540404878238"><ele>740.0</ele><time>2026-04-25T16:02:40.999Z</time></trkpt><trkpt lat="46.35037600607033" lon="10.921493337548108"><ele>740.0</ele><time>2026-04-25T16:02:52.999Z</time></trkpt><trkpt lat="46.35033263918967" lon="10.921419473047049"><ele>740.0</ele><time>2026-04-25T16:03:57.999Z</time></trkpt><trkpt lat="46.350270667904795" lon="10.921365506622482"><ele>740.0</ele><time>2026-04-25T16:04:06.999Z</time></trkpt><trkpt lat="46.35023701866886" lon="10.92126072445257"><ele>740.0</ele><time>2026-04-25T16:04:28.999Z</time></trkpt><trkpt lat="46.35016314587409" lon="10.921187259520734"><ele>740.0</ele><time>2026-04-25T16:04:31.999Z</time></trkpt><trkpt lat="46.35009617765984" lon="10.92111336972571"><ele>740.0</ele><time>2026-04-25T16:04:33.999Z</time></trkpt><trkpt lat="46.35000673220337" lon="10.920986657512719"><ele>740.0</ele><time>2026-04-25T16:04:35.999Z</time></trkpt><trkpt lat="46.34995602263287" lon="10.920916148322888"><ele>740.0</ele><time>2026-04-25T16:04:36.999Z</time></trkpt><trkpt lat="46.34992678431793" lon="10.920824372761633"><ele>740.0</ele><time>2026-04-25T16:04:37.999Z</time></trkpt><trkpt lat="46.34987269594691" lon="10.920742324917386"><ele>740.0</ele><time>2026-04-25T16:04:38.999Z</time></trkpt><trkpt lat="46.34980630928857" lon="10.920641848787659"><ele>740.0</ele><time>2026-04-25T16:04:39.999Z</time></trkpt><trkpt lat="46.34973557756371" lon="10.920556607814852"><ele>740.0</ele><time>2026-04-25T16:04:40.999Z</time></trkpt><trkpt lat="46.34967480607583" lon="10.920459080544482"><ele>739.8571428571428</ele><time>2026-04-25T16:04:41.999Z</time></trkpt><trkpt lat="46.349614979575875" lon="10.920375512138014"><ele>739.7142857142857</ele><time>2026-04-25T16:04:42.999Z</time></trkpt><trkpt lat="46.3495652386514" lon="10.920278678831918"><ele>739.5714285714286</ele><time>2026-04-25T16:04:43.999Z</time></trkpt><trkpt lat="46.34951094217743" lon="10.920199890378507"><ele>739.4285714285713</ele><time>2026-04-25T16:04:44.999Z</time></trkpt><trkpt lat="46.34946119618566" lon="10.920128521825944"><ele>739.2857142857143</ele><time>2026-04-25T16:04:45.999Z</time></trkpt><trkpt lat="46.34941104696393" lon="10.92005917848734"><ele>739.1428571428571</ele><time>2026-04-25T16:04:46.999Z</time></trkpt><trkpt lat="46.34936329792428" lon="10.919994713620568"><ele>739.0</ele><time>2026-04-25T16:04:47.999Z</time></trkpt><trkpt lat="46.34927447189971" lon="10.919874437092261"><ele>739.0</ele><time>2026-04-25T16:04:49.999Z</time></trkpt><trkpt lat="46.34920281768501" lon="10.919752973059433"><ele>739.0</ele><time>2026-04-25T16:04:51.999Z</time></trkpt><trkpt lat="46.34925125346986" lon="10.919867492881123"><ele>739.0</ele><time>2026-04-25T16:05:13.999Z</time></trkpt><trkpt lat="46.34930337934717" lon="10.91995367791152"><ele>739.0</ele><time>2026-04-25T16:05:15.999Z</time></trkpt><trkpt lat="46.349340210136404" lon="10.920056342282656"><ele>739.0</ele><time>2026-04-25T16:05:17.999Z</time></trkpt><trkpt lat="46.34938831092465" lon="10.920138114300354"><ele>739.0</ele><time>2026-04-25T16:05:19.999Z</time></trkpt><trkpt lat="46.349447274054356" lon="10.920201255333556"><ele>739.0</ele><time>2026-04-25T16:05:21.998Z</time></trkpt><trkpt lat="46.349506931880796" lon="10.920274353445711"><ele>739.0</ele><time>2026-04-25T16:05:23.998Z</time></trkpt><trkpt lat="46.34957400182356" lon="10.92034476909896"><ele>739.0</ele><time>2026-04-25T16:05:25.998Z</time></trkpt><trkpt lat="46.34963878983207" lon="10.920429150815448"><ele>739.0</ele><time>2026-04-25T16:05:27.998Z</time></trkpt><trkpt lat="46.34968899050421" lon="10.92053404077725"><ele>739.0</ele><time>2026-04-25T16:05:29.998Z</time></trkpt><trkpt lat="46.349755773636744" lon="10.920614519338969"><ele>739.0</ele><time>2026-04-25T16:05:31.998Z</time></trkpt><trkpt lat="46.349806087285295" lon="10.92069050373231"><ele>739.1428571428571</ele><time>2026-04-25T16:05:34Z</time></trkpt><trkpt lat="46.34986694972132" lon="10.92077943672097"><ele>739.2857142857143</ele><time>2026-04-25T16:05:37Z</time></trkpt><trkpt lat="46.34991317515486" lon="10.920849357534031"><ele>739.4285714285713</ele><time>2026-04-25T16:05:39Z</time></trkpt><trkpt lat="46.349957715693726" lon="10.920916771818428"><ele>739.5714285714286</ele><time>2026-04-25T16:05:41Z</time></trkpt><trkpt lat="46.35000390591605" lon="10.92098849483849"><ele>739.7142857142857</ele><time>2026-04-25T16:05:43Z</time></trkpt><trkpt lat="46.35006004900489" lon="10.92106295721542"><ele>739.8571428571428</ele><time>2026-04-25T16:05:45Z</time></trkpt><trkpt lat="46.350105869437996" lon="10.921168350900716"><ele>740.0</ele><time>2026-04-25T16:05:48Z</time></trkpt><trkpt lat="46.350152787371194" lon="10.92124537951254"><ele>740.0</ele><time>2026-04-25T16:05:51Z</time></trkpt><trkpt lat="46.35029472689855" lon="10.921061206275763"><ele>740.0</ele><time>2026-04-25T16:05:58Z</time></trkpt><trkpt lat="46.350352655598265" lon="10.920965141527027"><ele>740.0</ele><time>2026-04-25T16:06:01Z</time></trkpt><trkpt lat="46.350414497122806" lon="10.920879157648805"><ele>740.0</ele><time>2026-04-25T16:06:04Z</time></trkpt><trkpt lat="46.35046997061851" lon="10.920794111084254"><ele>740.0</ele><time>2026-04-25T16:06:06.999Z</time></trkpt><trkpt lat="46.350522402644735" lon="10.920715011587289"><ele>733.9999999999999</ele><time>2026-04-25T16:06:09.999Z</time></trkpt><trkpt lat="46.35057943534634" lon="10.920629652748897"><ele>728.0</ele><time>2026-04-25T16:06:12.999Z</time></trkpt><trkpt lat="46.35062891665061" lon="10.920544737619903"><ele>722.0</ele><time>2026-04-25T16:06:15.999Z</time></trkpt><trkpt lat="46.35068933574985" lon="10.920453037409008"><ele>716.0</ele><time>2026-04-25T16:06:18.999Z</time></trkpt><trkpt lat="46.35073503356057" lon="10.920384159753668"><ele>710.0</ele><time>2026-04-25T16:06:21.999Z</time></trkpt><trkpt lat="46.35078186313075" lon="10.920314045466954"><ele>703.9999999999999</ele><time>2026-04-25T16:06:25.999Z</time></trkpt><trkpt lat="46.35083606848789" lon="10.920365122304467"><ele>698.0</ele><time>2026-04-25T16:06:28.999Z</time></trkpt><trkpt lat="46.35088888319914" lon="10.920439092006115"><ele>697.9999999999999</ele><time>2026-04-25T16:06:31.999Z</time></trkpt><trkpt lat="46.35089788179504" lon="10.920338868851047"><ele>698.0</ele><time>2026-04-25T16:06:37.999Z</time></trkpt><trkpt lat="46.35087249786622" lon="10.920236170141143"><ele>698.0</ele><time>2026-04-25T16:06:41.999Z</time></trkpt><trkpt lat="46.35085607338278" lon="10.920135253888143"><ele>698.0</ele><time>2026-04-25T16:06:45.999Z</time></trkpt><trkpt lat="46.350829823920506" lon="10.920043794597927"><ele>698.0</ele><time>2026-04-25T16:06:50.999Z</time></trkpt><trkpt lat="46.3508231954418" lon="10.919950135197002"><ele>697.9999999999999</ele><time>2026-04-25T16:06:54.999Z</time></trkpt><trkpt lat="46.35078888958473" lon="10.919856034338116"><ele>698.0</ele><time>2026-04-25T16:06:59.999Z</time></trkpt><trkpt lat="46.35077622557955" lon="10.919751085373903"><ele>699.5714285714286</ele><time>2026-04-25T16:07:04.999Z</time></trkpt><trkpt lat="46.35074662515843" lon="10.919652795294379"><ele>701.1428571428571</ele><time>2026-04-25T16:07:10.999Z</time></trkpt><trkpt lat="46.35073835649289" lon="10.91955118581463"><ele>702.7142857142858</ele><time>2026-04-25T16:07:14.999Z</time></trkpt><trkpt lat="46.35072457626353" lon="10.919449229279444"><ele>704.2857142857142</ele><time>2026-04-25T16:07:18.999Z</time></trkpt><trkpt lat="46.350726873195896" lon="10.919334650936728"><ele>705.8571428571429</ele><time>2026-04-25T16:07:23.999Z</time></trkpt><trkpt lat="46.350738791215306" lon="10.919228043507347"><ele>707.4285714285714</ele><time>2026-04-25T16:07:27.999Z</time></trkpt><trkpt lat="46.350760595253135" lon="10.919125279066831"><ele>709.0</ele><time>2026-04-25T16:07:31.999Z</time></trkpt><trkpt lat="46.35078859182013" lon="10.919032432981759"><ele>709.6666666666667</ele><time>2026-04-25T16:07:35.999Z</time></trkpt><trkpt lat="46.35080051761595" lon="10.918930859593706"><ele>710.3333333333334</ele><time>2026-04-25T16:07:40Z</time></trkpt><trkpt lat="46.350804686767844" lon="10.918812968398568"><ele>711.0</ele><time>2026-04-25T16:07:44Z</time></trkpt><trkpt lat="46.35081634723539" lon="10.91869941379064"><ele>711.6666666666666</ele><time>2026-04-25T16:07:48Z</time></trkpt><trkpt lat="46.35082519444506" lon="10.918587160978575"><ele>712.3333333333333</ele><time>2026-04-25T16:07:52Z</time></trkpt><trkpt lat="46.35083809311439" lon="10.918471479909694"><ele>713.0</ele><time>2026-04-25T16:07:56Z</time></trkpt><trkpt lat="46.3508528342671" lon="10.918354186435216"><ele>713.4285714285714</ele><time>2026-04-25T16:08:00Z</time></trkpt><trkpt lat="46.35085714264839" lon="10.918241672908058"><ele>713.8571428571429</ele><time>2026-04-25T16:08:04Z</time></trkpt><trkpt lat="46.350876349442466" lon="10.918152608347244"><ele>714.2857142857143</ele><time>2026-04-25T16:08:07Z</time></trkpt><trkpt lat="46.35088262436005" lon="10.918038008716044"><ele>714.7142857142858</ele><time>2026-04-25T16:08:11Z</time></trkpt><trkpt lat="46.3508932681752" lon="10.917931644033958"><ele>715.1428571428571</ele><time>2026-04-25T16:08:15Z</time></trkpt><trkpt lat="46.35088885133029" lon="10.91784037473426"><ele>715.5714285714287</ele><time>2026-04-25T16:08:18Z</time></trkpt><trkpt lat="46.35089883791625" lon="10.917743148639861"><ele>716.0</ele><time>2026-04-25T16:08:21Z</time></trkpt><trkpt lat="46.350908380846384" lon="10.917646784222457"><ele>715.7142857142858</ele><time>2026-04-25T16:08:24Z</time></trkpt><trkpt lat="46.350923367761794" lon="10.917556421215446"><ele>715.4285714285714</ele><time>2026-04-25T16:08:27Z</time></trkpt><trkpt lat="46.35094217695104" lon="10.917462363986756"><ele>715.1428571428571</ele><time>2026-04-25T16:08:30Z</time></trkpt><trkpt lat="46.35095175055958" lon="10.917353905576427"><ele>714.8571428571429</ele><time>2026-04-25T16:08:33.999Z</time></trkpt><trkpt lat="46.35097117613862" lon="10.917247869646848"><ele>714.5714285714286</ele><time>2026-04-25T16:08:37.999Z</time></trkpt><trkpt lat="46.35096490418442" lon="10.9171518594307"><ele>714.2857142857143</ele><time>2026-04-25T16:09:03.999Z</time></trkpt><trkpt lat="46.350979299455844" lon="10.917060450315203"><ele>714.0</ele><time>2026-04-25T16:09:06.999Z</time></trkpt><trkpt lat="46.35100174548718" lon="10.916965948057785"><ele>714.0</ele><time>2026-04-25T16:09:09.999Z</time></trkpt><trkpt lat="46.35101885918538" lon="10.916872624075177"><ele>714.0</ele><time>2026-04-25T16:09:12.999Z</time></trkpt><trkpt lat="46.35103489010265" lon="10.916775100258512"><ele>714.0</ele><time>2026-04-25T16:09:15.999Z</time></trkpt><trkpt lat="46.35105918965359" lon="10.91667195787896"><ele>714.0</ele><time>2026-04-25T16:09:18.999Z</time></trkpt><trkpt lat="46.351097230825125" lon="10.916580557478103"><ele>714.0</ele><time>2026-04-25T16:09:21.999Z</time></trkpt><trkpt lat="46.35114236300751" lon="10.916507982879764"><ele>714.0</ele><time>2026-04-25T16:09:24.999Z</time></trkpt><trkpt lat="46.35118215948388" lon="10.916430006252211"><ele>714.0</ele><time>2026-04-25T16:09:27.999Z</time></trkpt><trkpt lat="46.35123427266908" lon="10.916338844857389"><ele>715.3333333333334</ele><time>2026-04-25T16:09:31.999Z</time></trkpt><trkpt lat="46.35128532042839" lon="10.916271473639362"><ele>716.6666666666666</ele><time>2026-04-25T16:09:35.999Z</time></trkpt><trkpt lat="46.35132668248217" lon="10.916165504969971"><ele>718.0</ele><time>2026-04-25T16:09:39.999Z</time></trkpt><trkpt lat="46.351353326497645" lon="10.916059319901521"><ele>719.3333333333333</ele><time>2026-04-25T16:09:43.999Z</time></trkpt><trkpt lat="46.351404479825945" lon="10.915971257369382"><ele>720.6666666666666</ele><time>2026-04-25T16:09:48Z</time></trkpt><trkpt lat="46.351443732993864" lon="10.915892605031354"><ele>722.0</ele><time>2026-04-25T16:09:51Z</time></trkpt><trkpt lat="46.35149525147101" lon="10.91580548945821"><ele>724.1428571428572</ele><time>2026-04-25T16:09:54Z</time></trkpt><trkpt lat="46.351524942656376" lon="10.915709221322905"><ele>726.2857142857142</ele><time>2026-04-25T16:09:57Z</time></trkpt><trkpt lat="46.351569129852216" lon="10.915630736059011"><ele>728.4285714285714</ele><time>2026-04-25T16:10:00Z</time></trkpt><trkpt lat="46.351614198325144" lon="10.915537024842116"><ele>730.5714285714287</ele><time>2026-04-25T16:10:03Z</time></trkpt><trkpt lat="46.35165381210524" lon="10.915445060209674"><ele>732.7142857142858</ele><time>2026-04-25T16:10:06Z</time></trkpt><trkpt lat="46.35169005957888" lon="10.915363804900526"><ele>734.8571428571429</ele><time>2026-04-25T16:10:09Z</time></trkpt><trkpt lat="46.351640115211" lon="10.915441365796932"><ele>737.0</ele><time>2026-04-25T16:10:16Z</time></trkpt><trkpt lat="46.35159594206511" lon="10.915539509071902"><ele>737.0</ele><time>2026-04-25T16:10:19Z</time></trkpt><trkpt lat="46.35155249646957" lon="10.9156360365768"><ele>737.0</ele><time>2026-04-25T16:10:22Z</time></trkpt><trkpt lat="46.35150924542257" lon="10.915732131912948"><ele>737.0</ele><time>2026-04-25T16:10:25Z</time></trkpt><trkpt lat="46.35134658612952" lon="10.91556582580795"><ele>737.0</ele><time>2026-04-25T16:10:31Z</time></trkpt><trkpt lat="46.35129967909715" lon="10.91549281336508"><ele>737.0</ele><time>2026-04-25T16:10:33Z</time></trkpt><trkpt lat="46.35124914331551" lon="10.915425378213316"><ele>736.2857142857143</ele><time>2026-04-25T16:10:35Z</time></trkpt><trkpt lat="46.35120949237254" lon="10.915343301677332"><ele>735.5714285714286</ele><time>2026-04-25T16:10:37Z</time></trkpt><trkpt lat="46.35116632371336" lon="10.915267364896568"><ele>734.8571428571429</ele><time>2026-04-25T16:10:39Z</time></trkpt><trkpt lat="46.351121222505924" lon="10.915192791317512"><ele>734.1428571428571</ele><time>2026-04-25T16:10:41Z</time></trkpt><trkpt lat="46.35107543225356" lon="10.91511869848073"><ele>733.4285714285714</ele><time>2026-04-25T16:10:43Z</time></trkpt><trkpt lat="46.35102650168917" lon="10.915043939325153"><ele>732.7142857142858</ele><time>2026-04-25T16:10:45Z</time></trkpt><trkpt lat="46.35097639447304" lon="10.9149575399395"><ele>732.0</ele><time>2026-04-25T16:10:47Z</time></trkpt><trkpt lat="46.35093079403245" lon="10.91486761182935"><ele>732.0</ele><time>2026-04-25T16:10:49Z</time></trkpt><trkpt lat="46.35093394031038" lon="10.914766180245987"><ele>732.0</ele><time>2026-04-25T16:10:51.999Z</time></trkpt><trkpt lat="46.35100414906732" lon="10.914693605780322"><ele>732.0</ele><time>2026-04-25T16:10:54.999Z</time></trkpt><trkpt lat="46.351065803959514" lon="10.914598683012338"><ele>732.0</ele><time>2026-04-25T16:10:57.999Z</time></trkpt><trkpt lat="46.35113612832563" lon="10.91452429980756"><ele>732.0</ele><time>2026-04-25T16:11:00.999Z</time></trkpt><trkpt lat="46.35118452276417" lon="10.914453093127957"><ele>732.0</ele><time>2026-04-25T16:11:03.999Z</time></trkpt><trkpt lat="46.35123925911216" lon="10.914371730884637"><ele>732.0</ele><time>2026-04-25T16:11:06.999Z</time></trkpt><trkpt lat="46.351295699845984" lon="10.914287911337807"><ele>732.0</ele><time>2026-04-25T16:11:09.999Z</time></trkpt><trkpt lat="46.35134205897357" lon="10.914206613233214"><ele>732.0</ele><time>2026-04-25T16:11:12.999Z</time></trkpt><trkpt lat="46.35139313615837" lon="10.914139160009743"><ele>732.0</ele><time>2026-04-25T16:11:15.999Z</time></trkpt><trkpt lat="46.35144486187611" lon="10.914081725291313"><ele>732.0</ele><time>2026-04-25T16:11:18.999Z</time></trkpt><trkpt lat="46.35134949873291" lon="10.914182638397717"><ele>732.0</ele><time>2026-04-25T16:11:20.999Z</time></trkpt><trkpt lat="46.35149777696876" lon="10.914008550342212"><ele>733.0</ele><time>2026-04-25T16:11:21.999Z</time></trkpt><trkpt lat="46.351542526730896" lon="10.913928537718382"><ele>734.0</ele><time>2026-04-25T16:11:24.999Z</time></trkpt><trkpt lat="46.35160495528471" lon="10.913857576347382"><ele>735.0</ele><time>2026-04-25T16:11:27.999Z</time></trkpt><trkpt lat="46.35163316690905" lon="10.913743851302787"><ele>736.0</ele><time>2026-04-25T16:11:30.999Z</time></trkpt><trkpt lat="46.35163230080607" lon="10.913649859896296"><ele>737.0</ele><time>2026-04-25T16:11:32.999Z</time></trkpt><trkpt lat="46.35170198513376" lon="10.913623860169531"><ele>738.0</ele><time>2026-04-25T16:11:35.999Z</time></trkpt><trkpt lat="46.35174183391167" lon="10.913527954315109"><ele>739.0</ele><time>2026-04-25T16:11:40.999Z</time></trkpt><trkpt lat="46.351767292316424" lon="10.913443972278106"><ele>739.1428571428571</ele><time>2026-04-25T16:11:43.999Z</time></trkpt><trkpt lat="46.35181101886409" lon="10.91336413841031"><ele>739.2857142857143</ele><time>2026-04-25T16:11:46.999Z</time></trkpt><trkpt lat="46.35184370142972" lon="10.913282482672468"><ele>739.4285714285713</ele><time>2026-04-25T16:11:49.999Z</time></trkpt><trkpt lat="46.35188853022493" lon="10.91321660322988"><ele>739.5714285714286</ele><time>2026-04-25T16:11:57Z</time></trkpt><trkpt lat="46.35192521329094" lon="10.913141254188515"><ele>739.7142857142857</ele><time>2026-04-25T16:12:03Z</time></trkpt><trkpt lat="46.35196438125099" lon="10.913066632426872"><ele>739.8571428571428</ele><time>2026-04-25T16:12:09Z</time></trkpt><trkpt lat="46.35200940928264" lon="10.912982508816588"><ele>740.0</ele><time>2026-04-25T16:12:15Z</time></trkpt><trkpt lat="46.35205292356353" lon="10.912898192767388"><ele>740.0</ele><time>2026-04-25T16:12:21Z</time></trkpt><trkpt lat="46.35208829888211" lon="10.912817533816984"><ele>740.0</ele><time>2026-04-25T16:12:30Z</time></trkpt><trkpt lat="46.35212515943928" lon="10.912729195614554"><ele>740.0</ele><time>2026-04-25T16:12:37Z</time></trkpt><trkpt lat="46.35204660901491" lon="10.91231425629808"><ele>740.0</ele><time>2026-04-25T16:12:57Z</time></trkpt><trkpt lat="46.352073123106784" lon="10.912223975695671"><ele>741.0</ele><time>2026-04-25T16:13:03Z</time></trkpt><trkpt lat="46.35203168845343" lon="10.912017365489254"><ele>741.0</ele><time>2026-04-25T16:13:10.999Z</time></trkpt><trkpt lat="46.35208655740821" lon="10.911955221451986"><ele>741.0</ele><time>2026-04-25T16:13:23.999Z</time></trkpt><trkpt lat="46.352124611280594" lon="10.911879808999272"><ele>741.0</ele><time>2026-04-25T16:13:33.999Z</time></trkpt><trkpt lat="46.352168756356065" lon="10.91181477856748"><ele>741.0</ele><time>2026-04-25T16:13:40.999Z</time></trkpt></trkseg></trk></gpx>